<?xml version="1.0" encoding="UTF-8" standalone="no" ?>
<gpx xmlns="http://www.topografix.com/GPX/1/1" xmlns:xsi="http://www.w3.org/2001/XMLSchema-instance" xsi:schemaLocation="http://www.topografix.com/GPX/1/1 http://www.topografix.com/GPX/1/1/gpx.xsd" version="1.1" creator="VisuGPX - https://www.visugpx.com">
  <metadata>
    <name>20190923-Euville-Neufchateau</name>
    <desc><![CDATA[8ème jour de notre tour de France]]></desc>
  </metadata>
  <trk>
    <name><![CDATA[Tracé 20190923-100551]]></name>
    <trkseg>
      <trkpt lat="48.74955" lon="5.62434">
        <ele>243.373</ele>
        <time>2019-09-23T08:05:51.000Z</time>
      </trkpt>
      <trkpt lat="48.74955" lon="5.62434">
        <ele>247.946</ele>
        <time>2019-09-23T08:07:00.000Z</time>
      </trkpt>
      <trkpt lat="48.74961" lon="5.62445">
        <ele>248.05</ele>
        <time>2019-09-23T08:07:03.000Z</time>
      </trkpt>
      <trkpt lat="48.74962" lon="5.62447">
        <ele>248.342</ele>
        <time>2019-09-23T08:07:06.000Z</time>
      </trkpt>
      <trkpt lat="48.74962" lon="5.62447">
        <ele>251.748</ele>
        <time>2019-09-23T08:09:39.000Z</time>
      </trkpt>
      <trkpt lat="48.74942" lon="5.62466">
        <ele>250.198</ele>
        <time>2019-09-23T08:09:42.000Z</time>
      </trkpt>
      <trkpt lat="48.74933" lon="5.62467">
        <ele>249.52</ele>
        <time>2019-09-23T08:09:45.000Z</time>
      </trkpt>
      <trkpt lat="48.74925" lon="5.62471">
        <ele>249.755</ele>
        <time>2019-09-23T08:09:48.000Z</time>
      </trkpt>
      <trkpt lat="48.74916" lon="5.62474">
        <ele>250.259</ele>
        <time>2019-09-23T08:09:51.000Z</time>
      </trkpt>
      <trkpt lat="48.74907" lon="5.62477">
        <ele>250.221</ele>
        <time>2019-09-23T08:09:54.000Z</time>
      </trkpt>
      <trkpt lat="48.74898" lon="5.62479">
        <ele>250.029</ele>
        <time>2019-09-23T08:09:57.000Z</time>
      </trkpt>
      <trkpt lat="48.74889" lon="5.62484">
        <ele>249.307</ele>
        <time>2019-09-23T08:10:00.000Z</time>
      </trkpt>
      <trkpt lat="48.74881" lon="5.62492">
        <ele>249.299</ele>
        <time>2019-09-23T08:10:03.000Z</time>
      </trkpt>
      <trkpt lat="48.74872" lon="5.62501">
        <ele>249.417</ele>
        <time>2019-09-23T08:10:06.000Z</time>
      </trkpt>
      <trkpt lat="48.74863" lon="5.62513">
        <ele>249.267</ele>
        <time>2019-09-23T08:10:09.000Z</time>
      </trkpt>
      <trkpt lat="48.74855" lon="5.62525">
        <ele>250.558</ele>
        <time>2019-09-23T08:10:12.000Z</time>
      </trkpt>
      <trkpt lat="48.74847" lon="5.62537">
        <ele>251.765</ele>
        <time>2019-09-23T08:10:15.000Z</time>
      </trkpt>
      <trkpt lat="48.74839" lon="5.62549">
        <ele>252.327</ele>
        <time>2019-09-23T08:10:18.000Z</time>
      </trkpt>
      <trkpt lat="48.74832" lon="5.62562">
        <ele>252.087</ele>
        <time>2019-09-23T08:10:21.000Z</time>
      </trkpt>
      <trkpt lat="48.74825" lon="5.62576">
        <ele>252.287</ele>
        <time>2019-09-23T08:10:24.000Z</time>
      </trkpt>
      <trkpt lat="48.74816" lon="5.62588">
        <ele>252.616</ele>
        <time>2019-09-23T08:10:27.000Z</time>
      </trkpt>
      <trkpt lat="48.7481" lon="5.62601">
        <ele>252.908</ele>
        <time>2019-09-23T08:10:30.000Z</time>
      </trkpt>
      <trkpt lat="48.74802" lon="5.62616">
        <ele>253.543</ele>
        <time>2019-09-23T08:10:33.000Z</time>
      </trkpt>
      <trkpt lat="48.74797" lon="5.62632">
        <ele>253.325</ele>
        <time>2019-09-23T08:10:36.000Z</time>
      </trkpt>
      <trkpt lat="48.74792" lon="5.62646">
        <ele>252.209</ele>
        <time>2019-09-23T08:10:39.000Z</time>
      </trkpt>
      <trkpt lat="48.74784" lon="5.62657">
        <ele>251.85</ele>
        <time>2019-09-23T08:10:42.000Z</time>
      </trkpt>
      <trkpt lat="48.74778" lon="5.62671">
        <ele>251.645</ele>
        <time>2019-09-23T08:10:45.000Z</time>
      </trkpt>
      <trkpt lat="48.7477" lon="5.62684">
        <ele>251.24</ele>
        <time>2019-09-23T08:10:48.000Z</time>
      </trkpt>
      <trkpt lat="48.74763" lon="5.62698">
        <ele>250.602</ele>
        <time>2019-09-23T08:10:51.000Z</time>
      </trkpt>
      <trkpt lat="48.74755" lon="5.62714">
        <ele>250.039</ele>
        <time>2019-09-23T08:10:54.000Z</time>
      </trkpt>
      <trkpt lat="48.74749" lon="5.62728">
        <ele>249.868</ele>
        <time>2019-09-23T08:10:57.000Z</time>
      </trkpt>
      <trkpt lat="48.74744" lon="5.62743">
        <ele>250.514</ele>
        <time>2019-09-23T08:11:00.000Z</time>
      </trkpt>
      <trkpt lat="48.74738" lon="5.62758">
        <ele>251.178</ele>
        <time>2019-09-23T08:11:03.000Z</time>
      </trkpt>
      <trkpt lat="48.74729" lon="5.62773">
        <ele>251.409</ele>
        <time>2019-09-23T08:11:06.000Z</time>
      </trkpt>
      <trkpt lat="48.74721" lon="5.62788">
        <ele>251.076</ele>
        <time>2019-09-23T08:11:09.000Z</time>
      </trkpt>
      <trkpt lat="48.74713" lon="5.62801">
        <ele>250.923</ele>
        <time>2019-09-23T08:11:12.000Z</time>
      </trkpt>
      <trkpt lat="48.74705" lon="5.62814">
        <ele>250.653</ele>
        <time>2019-09-23T08:11:15.000Z</time>
      </trkpt>
      <trkpt lat="48.74696" lon="5.62828">
        <ele>250.014</ele>
        <time>2019-09-23T08:11:18.000Z</time>
      </trkpt>
      <trkpt lat="48.74687" lon="5.62843">
        <ele>250.144</ele>
        <time>2019-09-23T08:11:21.000Z</time>
      </trkpt>
      <trkpt lat="48.74679" lon="5.6286">
        <ele>250.152</ele>
        <time>2019-09-23T08:11:24.000Z</time>
      </trkpt>
      <trkpt lat="48.7467" lon="5.62877">
        <ele>249.595</ele>
        <time>2019-09-23T08:11:27.000Z</time>
      </trkpt>
      <trkpt lat="48.74661" lon="5.62893">
        <ele>248.495</ele>
        <time>2019-09-23T08:11:30.000Z</time>
      </trkpt>
      <trkpt lat="48.74651" lon="5.6291">
        <ele>247.83</ele>
        <time>2019-09-23T08:11:33.000Z</time>
      </trkpt>
      <trkpt lat="48.74641" lon="5.62928">
        <ele>247.696</ele>
        <time>2019-09-23T08:11:36.000Z</time>
      </trkpt>
      <trkpt lat="48.74632" lon="5.62946">
        <ele>248.163</ele>
        <time>2019-09-23T08:11:39.000Z</time>
      </trkpt>
      <trkpt lat="48.74622" lon="5.62966">
        <ele>248.27</ele>
        <time>2019-09-23T08:11:42.000Z</time>
      </trkpt>
      <trkpt lat="48.74612" lon="5.62986">
        <ele>248.227</ele>
        <time>2019-09-23T08:11:45.000Z</time>
      </trkpt>
      <trkpt lat="48.74601" lon="5.63008">
        <ele>248.396</ele>
        <time>2019-09-23T08:11:48.000Z</time>
      </trkpt>
      <trkpt lat="48.74589" lon="5.63031">
        <ele>247.958</ele>
        <time>2019-09-23T08:11:51.000Z</time>
      </trkpt>
      <trkpt lat="48.74576" lon="5.6305">
        <ele>246.261</ele>
        <time>2019-09-23T08:11:54.000Z</time>
      </trkpt>
      <trkpt lat="48.74565" lon="5.63071">
        <ele>244.413</ele>
        <time>2019-09-23T08:11:57.000Z</time>
      </trkpt>
      <trkpt lat="48.74553" lon="5.63091">
        <ele>243.375</ele>
        <time>2019-09-23T08:12:00.000Z</time>
      </trkpt>
      <trkpt lat="48.74544" lon="5.6311">
        <ele>243.031</ele>
        <time>2019-09-23T08:12:03.000Z</time>
      </trkpt>
      <trkpt lat="48.74536" lon="5.63131">
        <ele>243.046</ele>
        <time>2019-09-23T08:12:06.000Z</time>
      </trkpt>
      <trkpt lat="48.74524" lon="5.63152">
        <ele>242.576</ele>
        <time>2019-09-23T08:12:09.000Z</time>
      </trkpt>
      <trkpt lat="48.74512" lon="5.63172">
        <ele>242.35</ele>
        <time>2019-09-23T08:12:12.000Z</time>
      </trkpt>
      <trkpt lat="48.74502" lon="5.63193">
        <ele>242.186</ele>
        <time>2019-09-23T08:12:15.000Z</time>
      </trkpt>
      <trkpt lat="48.74491" lon="5.63213">
        <ele>241.465</ele>
        <time>2019-09-23T08:12:18.000Z</time>
      </trkpt>
      <trkpt lat="48.74481" lon="5.63233">
        <ele>241.434</ele>
        <time>2019-09-23T08:12:21.000Z</time>
      </trkpt>
      <trkpt lat="48.74471" lon="5.63251">
        <ele>241.463</ele>
        <time>2019-09-23T08:12:24.000Z</time>
      </trkpt>
      <trkpt lat="48.74461" lon="5.63271">
        <ele>241.055</ele>
        <time>2019-09-23T08:12:27.000Z</time>
      </trkpt>
      <trkpt lat="48.74451" lon="5.6329">
        <ele>240.515</ele>
        <time>2019-09-23T08:12:30.000Z</time>
      </trkpt>
      <trkpt lat="48.7444" lon="5.6331">
        <ele>240.451</ele>
        <time>2019-09-23T08:12:33.000Z</time>
      </trkpt>
      <trkpt lat="48.74429" lon="5.6333">
        <ele>240.284</ele>
        <time>2019-09-23T08:12:36.000Z</time>
      </trkpt>
      <trkpt lat="48.74419" lon="5.63349">
        <ele>239.836</ele>
        <time>2019-09-23T08:12:39.000Z</time>
      </trkpt>
      <trkpt lat="48.74408" lon="5.63367">
        <ele>239.937</ele>
        <time>2019-09-23T08:12:42.000Z</time>
      </trkpt>
      <trkpt lat="48.74397" lon="5.63388">
        <ele>239.84</ele>
        <time>2019-09-23T08:12:45.000Z</time>
      </trkpt>
      <trkpt lat="48.74385" lon="5.63409">
        <ele>239.342</ele>
        <time>2019-09-23T08:12:48.000Z</time>
      </trkpt>
      <trkpt lat="48.74373" lon="5.63431">
        <ele>238.639</ele>
        <time>2019-09-23T08:12:51.000Z</time>
      </trkpt>
      <trkpt lat="48.74363" lon="5.63453">
        <ele>238.355</ele>
        <time>2019-09-23T08:12:54.000Z</time>
      </trkpt>
      <trkpt lat="48.74352" lon="5.63476">
        <ele>238.265</ele>
        <time>2019-09-23T08:12:57.000Z</time>
      </trkpt>
      <trkpt lat="48.74342" lon="5.63499">
        <ele>237.94</ele>
        <time>2019-09-23T08:13:00.000Z</time>
      </trkpt>
      <trkpt lat="48.74332" lon="5.63522">
        <ele>238.01</ele>
        <time>2019-09-23T08:13:03.000Z</time>
      </trkpt>
      <trkpt lat="48.74321" lon="5.63543">
        <ele>238.954</ele>
        <time>2019-09-23T08:13:06.000Z</time>
      </trkpt>
      <trkpt lat="48.74312" lon="5.63564">
        <ele>239.418</ele>
        <time>2019-09-23T08:13:09.000Z</time>
      </trkpt>
      <trkpt lat="48.74304" lon="5.63585">
        <ele>239.687</ele>
        <time>2019-09-23T08:13:12.000Z</time>
      </trkpt>
      <trkpt lat="48.74298" lon="5.63606">
        <ele>239.264</ele>
        <time>2019-09-23T08:13:15.000Z</time>
      </trkpt>
      <trkpt lat="48.7429" lon="5.63628">
        <ele>237.544</ele>
        <time>2019-09-23T08:13:18.000Z</time>
      </trkpt>
      <trkpt lat="48.74284" lon="5.63646">
        <ele>237.471</ele>
        <time>2019-09-23T08:13:21.000Z</time>
      </trkpt>
      <trkpt lat="48.74278" lon="5.63663">
        <ele>238.097</ele>
        <time>2019-09-23T08:13:24.000Z</time>
      </trkpt>
      <trkpt lat="48.74268" lon="5.63672">
        <ele>237.909</ele>
        <time>2019-09-23T08:13:27.000Z</time>
      </trkpt>
      <trkpt lat="48.74255" lon="5.63665">
        <ele>237.968</ele>
        <time>2019-09-23T08:13:30.000Z</time>
      </trkpt>
      <trkpt lat="48.74244" lon="5.63659">
        <ele>237.755</ele>
        <time>2019-09-23T08:13:33.000Z</time>
      </trkpt>
      <trkpt lat="48.74234" lon="5.63654">
        <ele>237.445</ele>
        <time>2019-09-23T08:13:36.000Z</time>
      </trkpt>
      <trkpt lat="48.7422" lon="5.63648">
        <ele>237.763</ele>
        <time>2019-09-23T08:13:39.000Z</time>
      </trkpt>
      <trkpt lat="48.74204" lon="5.63642">
        <ele>237.645</ele>
        <time>2019-09-23T08:13:42.000Z</time>
      </trkpt>
      <trkpt lat="48.74185" lon="5.63633">
        <ele>237.049</ele>
        <time>2019-09-23T08:13:45.000Z</time>
      </trkpt>
      <trkpt lat="48.74167" lon="5.63624">
        <ele>236.962</ele>
        <time>2019-09-23T08:13:48.000Z</time>
      </trkpt>
      <trkpt lat="48.74151" lon="5.63616">
        <ele>235.978</ele>
        <time>2019-09-23T08:13:51.000Z</time>
      </trkpt>
      <trkpt lat="48.74135" lon="5.63609">
        <ele>236.064</ele>
        <time>2019-09-23T08:13:54.000Z</time>
      </trkpt>
      <trkpt lat="48.7412" lon="5.63602">
        <ele>236.008</ele>
        <time>2019-09-23T08:13:57.000Z</time>
      </trkpt>
      <trkpt lat="48.74105" lon="5.63594">
        <ele>236.028</ele>
        <time>2019-09-23T08:14:00.000Z</time>
      </trkpt>
      <trkpt lat="48.74087" lon="5.63586">
        <ele>235.462</ele>
        <time>2019-09-23T08:14:03.000Z</time>
      </trkpt>
      <trkpt lat="48.7407" lon="5.63578">
        <ele>235.258</ele>
        <time>2019-09-23T08:14:06.000Z</time>
      </trkpt>
      <trkpt lat="48.74052" lon="5.6357">
        <ele>234.898</ele>
        <time>2019-09-23T08:14:09.000Z</time>
      </trkpt>
      <trkpt lat="48.74036" lon="5.63563">
        <ele>234.731</ele>
        <time>2019-09-23T08:14:12.000Z</time>
      </trkpt>
      <trkpt lat="48.74021" lon="5.63555">
        <ele>234.615</ele>
        <time>2019-09-23T08:14:15.000Z</time>
      </trkpt>
      <trkpt lat="48.74006" lon="5.63548">
        <ele>234.443</ele>
        <time>2019-09-23T08:14:18.000Z</time>
      </trkpt>
      <trkpt lat="48.7399" lon="5.63541">
        <ele>233.623</ele>
        <time>2019-09-23T08:14:21.000Z</time>
      </trkpt>
      <trkpt lat="48.73974" lon="5.63535">
        <ele>233.059</ele>
        <time>2019-09-23T08:14:24.000Z</time>
      </trkpt>
      <trkpt lat="48.7396" lon="5.63529">
        <ele>233.148</ele>
        <time>2019-09-23T08:14:27.000Z</time>
      </trkpt>
      <trkpt lat="48.73946" lon="5.63523">
        <ele>233.222</ele>
        <time>2019-09-23T08:14:30.000Z</time>
      </trkpt>
      <trkpt lat="48.73933" lon="5.63517">
        <ele>233.188</ele>
        <time>2019-09-23T08:14:33.000Z</time>
      </trkpt>
      <trkpt lat="48.73922" lon="5.63512">
        <ele>233.154</ele>
        <time>2019-09-23T08:14:36.000Z</time>
      </trkpt>
      <trkpt lat="48.73911" lon="5.63508">
        <ele>233.232</ele>
        <time>2019-09-23T08:14:39.000Z</time>
      </trkpt>
      <trkpt lat="48.73898" lon="5.63502">
        <ele>233.245</ele>
        <time>2019-09-23T08:14:42.000Z</time>
      </trkpt>
      <trkpt lat="48.73883" lon="5.63495">
        <ele>232.773</ele>
        <time>2019-09-23T08:14:45.000Z</time>
      </trkpt>
      <trkpt lat="48.73866" lon="5.63487">
        <ele>232.275</ele>
        <time>2019-09-23T08:14:48.000Z</time>
      </trkpt>
      <trkpt lat="48.7385" lon="5.63479">
        <ele>232.241</ele>
        <time>2019-09-23T08:14:51.000Z</time>
      </trkpt>
      <trkpt lat="48.73833" lon="5.63471">
        <ele>232.741</ele>
        <time>2019-09-23T08:14:54.000Z</time>
      </trkpt>
      <trkpt lat="48.73818" lon="5.63465">
        <ele>232.918</ele>
        <time>2019-09-23T08:14:57.000Z</time>
      </trkpt>
      <trkpt lat="48.73803" lon="5.63458">
        <ele>233.3</ele>
        <time>2019-09-23T08:15:00.000Z</time>
      </trkpt>
      <trkpt lat="48.73788" lon="5.63452">
        <ele>233.154</ele>
        <time>2019-09-23T08:15:03.000Z</time>
      </trkpt>
      <trkpt lat="48.73775" lon="5.63446">
        <ele>232.862</ele>
        <time>2019-09-23T08:15:06.000Z</time>
      </trkpt>
      <trkpt lat="48.73761" lon="5.63441">
        <ele>232.889</ele>
        <time>2019-09-23T08:15:09.000Z</time>
      </trkpt>
      <trkpt lat="48.73749" lon="5.63435">
        <ele>232.687</ele>
        <time>2019-09-23T08:15:12.000Z</time>
      </trkpt>
      <trkpt lat="48.73737" lon="5.63432">
        <ele>232.806</ele>
        <time>2019-09-23T08:15:15.000Z</time>
      </trkpt>
      <trkpt lat="48.73727" lon="5.63427">
        <ele>233.413</ele>
        <time>2019-09-23T08:15:18.000Z</time>
      </trkpt>
      <trkpt lat="48.73715" lon="5.63422">
        <ele>234.675</ele>
        <time>2019-09-23T08:15:21.000Z</time>
      </trkpt>
      <trkpt lat="48.73703" lon="5.63416">
        <ele>235.712</ele>
        <time>2019-09-23T08:15:24.000Z</time>
      </trkpt>
      <trkpt lat="48.7369" lon="5.63409">
        <ele>236.027</ele>
        <time>2019-09-23T08:15:27.000Z</time>
      </trkpt>
      <trkpt lat="48.73677" lon="5.63404">
        <ele>236.237</ele>
        <time>2019-09-23T08:15:30.000Z</time>
      </trkpt>
      <trkpt lat="48.73664" lon="5.63397">
        <ele>236.19</ele>
        <time>2019-09-23T08:15:33.000Z</time>
      </trkpt>
      <trkpt lat="48.7365" lon="5.63382">
        <ele>236.526</ele>
        <time>2019-09-23T08:15:36.000Z</time>
      </trkpt>
      <trkpt lat="48.73637" lon="5.63362">
        <ele>237.293</ele>
        <time>2019-09-23T08:15:39.000Z</time>
      </trkpt>
      <trkpt lat="48.73625" lon="5.63346">
        <ele>238.437</ele>
        <time>2019-09-23T08:15:42.000Z</time>
      </trkpt>
      <trkpt lat="48.73614" lon="5.63341">
        <ele>238.971</ele>
        <time>2019-09-23T08:15:45.000Z</time>
      </trkpt>
      <trkpt lat="48.73606" lon="5.6335">
        <ele>239.043</ele>
        <time>2019-09-23T08:15:48.000Z</time>
      </trkpt>
      <trkpt lat="48.73598" lon="5.63361">
        <ele>239.632</ele>
        <time>2019-09-23T08:15:51.000Z</time>
      </trkpt>
      <trkpt lat="48.73589" lon="5.63371">
        <ele>240.289</ele>
        <time>2019-09-23T08:15:54.000Z</time>
      </trkpt>
      <trkpt lat="48.73582" lon="5.63383">
        <ele>241.173</ele>
        <time>2019-09-23T08:15:57.000Z</time>
      </trkpt>
      <trkpt lat="48.73571" lon="5.63396">
        <ele>242.03</ele>
        <time>2019-09-23T08:16:00.000Z</time>
      </trkpt>
      <trkpt lat="48.73561" lon="5.63409">
        <ele>243.29</ele>
        <time>2019-09-23T08:16:03.000Z</time>
      </trkpt>
      <trkpt lat="48.73552" lon="5.63423">
        <ele>244.681</ele>
        <time>2019-09-23T08:16:06.000Z</time>
      </trkpt>
      <trkpt lat="48.73545" lon="5.63438">
        <ele>246.268</ele>
        <time>2019-09-23T08:16:09.000Z</time>
      </trkpt>
      <trkpt lat="48.73537" lon="5.63451">
        <ele>247.266</ele>
        <time>2019-09-23T08:16:12.000Z</time>
      </trkpt>
      <trkpt lat="48.7353" lon="5.63463">
        <ele>248.107</ele>
        <time>2019-09-23T08:16:15.000Z</time>
      </trkpt>
      <trkpt lat="48.73523" lon="5.63476">
        <ele>249.268</ele>
        <time>2019-09-23T08:16:18.000Z</time>
      </trkpt>
      <trkpt lat="48.73516" lon="5.63488">
        <ele>249.64</ele>
        <time>2019-09-23T08:16:21.000Z</time>
      </trkpt>
      <trkpt lat="48.73511" lon="5.635">
        <ele>250.256</ele>
        <time>2019-09-23T08:16:24.000Z</time>
      </trkpt>
      <trkpt lat="48.73505" lon="5.63511">
        <ele>250.255</ele>
        <time>2019-09-23T08:16:27.000Z</time>
      </trkpt>
      <trkpt lat="48.73499" lon="5.63523">
        <ele>250.127</ele>
        <time>2019-09-23T08:16:30.000Z</time>
      </trkpt>
      <trkpt lat="48.73494" lon="5.63538">
        <ele>249.303</ele>
        <time>2019-09-23T08:16:33.000Z</time>
      </trkpt>
      <trkpt lat="48.73489" lon="5.63556">
        <ele>248.718</ele>
        <time>2019-09-23T08:16:36.000Z</time>
      </trkpt>
      <trkpt lat="48.73485" lon="5.63573">
        <ele>247.679</ele>
        <time>2019-09-23T08:16:39.000Z</time>
      </trkpt>
      <trkpt lat="48.73481" lon="5.63589">
        <ele>246.382</ele>
        <time>2019-09-23T08:16:42.000Z</time>
      </trkpt>
      <trkpt lat="48.73479" lon="5.63606">
        <ele>245.442</ele>
        <time>2019-09-23T08:16:45.000Z</time>
      </trkpt>
      <trkpt lat="48.73477" lon="5.63621">
        <ele>244.766</ele>
        <time>2019-09-23T08:16:48.000Z</time>
      </trkpt>
      <trkpt lat="48.73474" lon="5.63636">
        <ele>244.738</ele>
        <time>2019-09-23T08:16:51.000Z</time>
      </trkpt>
      <trkpt lat="48.73471" lon="5.6365">
        <ele>244.905</ele>
        <time>2019-09-23T08:16:54.000Z</time>
      </trkpt>
      <trkpt lat="48.73468" lon="5.63662">
        <ele>244.993</ele>
        <time>2019-09-23T08:16:57.000Z</time>
      </trkpt>
      <trkpt lat="48.73463" lon="5.6367">
        <ele>245.499</ele>
        <time>2019-09-23T08:17:00.000Z</time>
      </trkpt>
      <trkpt lat="48.73457" lon="5.6367">
        <ele>245.139</ele>
        <time>2019-09-23T08:17:03.000Z</time>
      </trkpt>
      <trkpt lat="48.73453" lon="5.63668">
        <ele>244.459</ele>
        <time>2019-09-23T08:17:06.000Z</time>
      </trkpt>
      <trkpt lat="48.73445" lon="5.63665">
        <ele>244.509</ele>
        <time>2019-09-23T08:17:09.000Z</time>
      </trkpt>
      <trkpt lat="48.73434" lon="5.63658">
        <ele>244.62</ele>
        <time>2019-09-23T08:17:12.000Z</time>
      </trkpt>
      <trkpt lat="48.73421" lon="5.63652">
        <ele>244.716</ele>
        <time>2019-09-23T08:17:15.000Z</time>
      </trkpt>
      <trkpt lat="48.73408" lon="5.63646">
        <ele>244.691</ele>
        <time>2019-09-23T08:17:18.000Z</time>
      </trkpt>
      <trkpt lat="48.73396" lon="5.63641">
        <ele>244.496</ele>
        <time>2019-09-23T08:17:21.000Z</time>
      </trkpt>
      <trkpt lat="48.73384" lon="5.63637">
        <ele>244.534</ele>
        <time>2019-09-23T08:17:24.000Z</time>
      </trkpt>
      <trkpt lat="48.73372" lon="5.63634">
        <ele>244.18</ele>
        <time>2019-09-23T08:17:27.000Z</time>
      </trkpt>
      <trkpt lat="48.73361" lon="5.63632">
        <ele>243.927</ele>
        <time>2019-09-23T08:17:30.000Z</time>
      </trkpt>
      <trkpt lat="48.7335" lon="5.6363">
        <ele>243.801</ele>
        <time>2019-09-23T08:17:33.000Z</time>
      </trkpt>
      <trkpt lat="48.73339" lon="5.63629">
        <ele>244.309</ele>
        <time>2019-09-23T08:17:36.000Z</time>
      </trkpt>
      <trkpt lat="48.73328" lon="5.63628">
        <ele>244.747</ele>
        <time>2019-09-23T08:17:39.000Z</time>
      </trkpt>
      <trkpt lat="48.73318" lon="5.63626">
        <ele>245.515</ele>
        <time>2019-09-23T08:17:42.000Z</time>
      </trkpt>
      <trkpt lat="48.73308" lon="5.63624">
        <ele>246.065</ele>
        <time>2019-09-23T08:17:45.000Z</time>
      </trkpt>
      <trkpt lat="48.73296" lon="5.63623">
        <ele>246.089</ele>
        <time>2019-09-23T08:17:48.000Z</time>
      </trkpt>
      <trkpt lat="48.73286" lon="5.63623">
        <ele>246.033</ele>
        <time>2019-09-23T08:17:51.000Z</time>
      </trkpt>
      <trkpt lat="48.73275" lon="5.63623">
        <ele>246.025</ele>
        <time>2019-09-23T08:17:54.000Z</time>
      </trkpt>
      <trkpt lat="48.73263" lon="5.63624">
        <ele>246.139</ele>
        <time>2019-09-23T08:17:57.000Z</time>
      </trkpt>
      <trkpt lat="48.7325" lon="5.63624">
        <ele>245.976</ele>
        <time>2019-09-23T08:18:00.000Z</time>
      </trkpt>
      <trkpt lat="48.73237" lon="5.63625">
        <ele>246.084</ele>
        <time>2019-09-23T08:18:03.000Z</time>
      </trkpt>
      <trkpt lat="48.73222" lon="5.63628">
        <ele>246.231</ele>
        <time>2019-09-23T08:18:06.000Z</time>
      </trkpt>
      <trkpt lat="48.73206" lon="5.63631">
        <ele>246.825</ele>
        <time>2019-09-23T08:18:09.000Z</time>
      </trkpt>
      <trkpt lat="48.73189" lon="5.6363">
        <ele>246.932</ele>
        <time>2019-09-23T08:18:12.000Z</time>
      </trkpt>
      <trkpt lat="48.73178" lon="5.63611">
        <ele>247.118</ele>
        <time>2019-09-23T08:18:15.000Z</time>
      </trkpt>
      <trkpt lat="48.7317" lon="5.63582">
        <ele>246.361</ele>
        <time>2019-09-23T08:18:18.000Z</time>
      </trkpt>
      <trkpt lat="48.73161" lon="5.63552">
        <ele>245.031</ele>
        <time>2019-09-23T08:18:21.000Z</time>
      </trkpt>
      <trkpt lat="48.73151" lon="5.63521">
        <ele>243.75</ele>
        <time>2019-09-23T08:18:24.000Z</time>
      </trkpt>
      <trkpt lat="48.7314" lon="5.63485">
        <ele>242.472</ele>
        <time>2019-09-23T08:18:27.000Z</time>
      </trkpt>
      <trkpt lat="48.73128" lon="5.6345">
        <ele>241.158</ele>
        <time>2019-09-23T08:18:30.000Z</time>
      </trkpt>
      <trkpt lat="48.73103" lon="5.63434">
        <ele>239.446</ele>
        <time>2019-09-23T08:18:33.000Z</time>
      </trkpt>
      <trkpt lat="48.73073" lon="5.63444">
        <ele>238.632</ele>
        <time>2019-09-23T08:18:36.000Z</time>
      </trkpt>
      <trkpt lat="48.73047" lon="5.63452">
        <ele>237.847</ele>
        <time>2019-09-23T08:18:39.000Z</time>
      </trkpt>
      <trkpt lat="48.73026" lon="5.63455">
        <ele>236.849</ele>
        <time>2019-09-23T08:18:42.000Z</time>
      </trkpt>
      <trkpt lat="48.73005" lon="5.63459">
        <ele>234.981</ele>
        <time>2019-09-23T08:18:45.000Z</time>
      </trkpt>
      <trkpt lat="48.72986" lon="5.63464">
        <ele>233.144</ele>
        <time>2019-09-23T08:18:48.000Z</time>
      </trkpt>
      <trkpt lat="48.72969" lon="5.63468">
        <ele>232.484</ele>
        <time>2019-09-23T08:18:51.000Z</time>
      </trkpt>
      <trkpt lat="48.72953" lon="5.63471">
        <ele>232.237</ele>
        <time>2019-09-23T08:18:54.000Z</time>
      </trkpt>
      <trkpt lat="48.72937" lon="5.63475">
        <ele>231.646</ele>
        <time>2019-09-23T08:18:57.000Z</time>
      </trkpt>
      <trkpt lat="48.72922" lon="5.63479">
        <ele>231.37</ele>
        <time>2019-09-23T08:19:00.000Z</time>
      </trkpt>
      <trkpt lat="48.72907" lon="5.63484">
        <ele>230.841</ele>
        <time>2019-09-23T08:19:03.000Z</time>
      </trkpt>
      <trkpt lat="48.72893" lon="5.63487">
        <ele>230.271</ele>
        <time>2019-09-23T08:19:06.000Z</time>
      </trkpt>
      <trkpt lat="48.72881" lon="5.63489">
        <ele>230.249</ele>
        <time>2019-09-23T08:19:09.000Z</time>
      </trkpt>
      <trkpt lat="48.72868" lon="5.63493">
        <ele>230.177</ele>
        <time>2019-09-23T08:19:12.000Z</time>
      </trkpt>
      <trkpt lat="48.72856" lon="5.63496">
        <ele>230.391</ele>
        <time>2019-09-23T08:19:15.000Z</time>
      </trkpt>
      <trkpt lat="48.72843" lon="5.635">
        <ele>230.744</ele>
        <time>2019-09-23T08:19:18.000Z</time>
      </trkpt>
      <trkpt lat="48.7283" lon="5.63504">
        <ele>231.01</ele>
        <time>2019-09-23T08:19:21.000Z</time>
      </trkpt>
      <trkpt lat="48.72816" lon="5.63507">
        <ele>230.962</ele>
        <time>2019-09-23T08:19:24.000Z</time>
      </trkpt>
      <trkpt lat="48.72803" lon="5.63509">
        <ele>231.089</ele>
        <time>2019-09-23T08:19:27.000Z</time>
      </trkpt>
      <trkpt lat="48.7279" lon="5.63512">
        <ele>231.099</ele>
        <time>2019-09-23T08:19:30.000Z</time>
      </trkpt>
      <trkpt lat="48.72778" lon="5.63514">
        <ele>231.314</ele>
        <time>2019-09-23T08:19:33.000Z</time>
      </trkpt>
      <trkpt lat="48.72766" lon="5.63517">
        <ele>231.648</ele>
        <time>2019-09-23T08:19:36.000Z</time>
      </trkpt>
      <trkpt lat="48.72753" lon="5.6352">
        <ele>232.229</ele>
        <time>2019-09-23T08:19:39.000Z</time>
      </trkpt>
      <trkpt lat="48.72741" lon="5.63523">
        <ele>232.717</ele>
        <time>2019-09-23T08:19:42.000Z</time>
      </trkpt>
      <trkpt lat="48.72729" lon="5.63526">
        <ele>232.794</ele>
        <time>2019-09-23T08:19:45.000Z</time>
      </trkpt>
      <trkpt lat="48.72716" lon="5.6353">
        <ele>232.727</ele>
        <time>2019-09-23T08:19:48.000Z</time>
      </trkpt>
      <trkpt lat="48.72703" lon="5.63533">
        <ele>232.556</ele>
        <time>2019-09-23T08:19:51.000Z</time>
      </trkpt>
      <trkpt lat="48.7269" lon="5.63536">
        <ele>232.822</ele>
        <time>2019-09-23T08:19:54.000Z</time>
      </trkpt>
      <trkpt lat="48.72677" lon="5.63539">
        <ele>233.014</ele>
        <time>2019-09-23T08:19:57.000Z</time>
      </trkpt>
      <trkpt lat="48.72663" lon="5.63542">
        <ele>232.762</ele>
        <time>2019-09-23T08:20:00.000Z</time>
      </trkpt>
      <trkpt lat="48.72651" lon="5.63545">
        <ele>233.091</ele>
        <time>2019-09-23T08:20:03.000Z</time>
      </trkpt>
      <trkpt lat="48.72638" lon="5.63546">
        <ele>233.414</ele>
        <time>2019-09-23T08:20:06.000Z</time>
      </trkpt>
      <trkpt lat="48.72625" lon="5.6355">
        <ele>233.435</ele>
        <time>2019-09-23T08:20:09.000Z</time>
      </trkpt>
      <trkpt lat="48.72612" lon="5.63553">
        <ele>233.293</ele>
        <time>2019-09-23T08:20:12.000Z</time>
      </trkpt>
      <trkpt lat="48.72599" lon="5.63556">
        <ele>233.493</ele>
        <time>2019-09-23T08:20:15.000Z</time>
      </trkpt>
      <trkpt lat="48.72586" lon="5.63559">
        <ele>233.454</ele>
        <time>2019-09-23T08:20:18.000Z</time>
      </trkpt>
      <trkpt lat="48.72573" lon="5.63563">
        <ele>233.107</ele>
        <time>2019-09-23T08:20:21.000Z</time>
      </trkpt>
      <trkpt lat="48.7256" lon="5.63567">
        <ele>232.963</ele>
        <time>2019-09-23T08:20:24.000Z</time>
      </trkpt>
      <trkpt lat="48.72547" lon="5.6357">
        <ele>233.404</ele>
        <time>2019-09-23T08:20:27.000Z</time>
      </trkpt>
      <trkpt lat="48.72534" lon="5.63573">
        <ele>233.433</ele>
        <time>2019-09-23T08:20:30.000Z</time>
      </trkpt>
      <trkpt lat="48.7252" lon="5.63576">
        <ele>233.508</ele>
        <time>2019-09-23T08:20:33.000Z</time>
      </trkpt>
      <trkpt lat="48.72508" lon="5.63579">
        <ele>233.885</ele>
        <time>2019-09-23T08:20:36.000Z</time>
      </trkpt>
      <trkpt lat="48.72495" lon="5.63583">
        <ele>233.872</ele>
        <time>2019-09-23T08:20:39.000Z</time>
      </trkpt>
      <trkpt lat="48.72482" lon="5.63586">
        <ele>234.326</ele>
        <time>2019-09-23T08:20:42.000Z</time>
      </trkpt>
      <trkpt lat="48.72469" lon="5.63589">
        <ele>234.385</ele>
        <time>2019-09-23T08:20:45.000Z</time>
      </trkpt>
      <trkpt lat="48.72456" lon="5.63591">
        <ele>234.127</ele>
        <time>2019-09-23T08:20:48.000Z</time>
      </trkpt>
      <trkpt lat="48.72443" lon="5.63595">
        <ele>233.271</ele>
        <time>2019-09-23T08:20:51.000Z</time>
      </trkpt>
      <trkpt lat="48.72431" lon="5.63598">
        <ele>232.594</ele>
        <time>2019-09-23T08:20:54.000Z</time>
      </trkpt>
      <trkpt lat="48.72418" lon="5.63603">
        <ele>231.967</ele>
        <time>2019-09-23T08:20:57.000Z</time>
      </trkpt>
      <trkpt lat="48.72405" lon="5.63605">
        <ele>231.736</ele>
        <time>2019-09-23T08:21:00.000Z</time>
      </trkpt>
      <trkpt lat="48.72392" lon="5.63609">
        <ele>231.7</ele>
        <time>2019-09-23T08:21:03.000Z</time>
      </trkpt>
      <trkpt lat="48.72379" lon="5.63611">
        <ele>231.402</ele>
        <time>2019-09-23T08:21:06.000Z</time>
      </trkpt>
      <trkpt lat="48.72366" lon="5.63614">
        <ele>231.419</ele>
        <time>2019-09-23T08:21:09.000Z</time>
      </trkpt>
      <trkpt lat="48.72352" lon="5.63618">
        <ele>231.226</ele>
        <time>2019-09-23T08:21:12.000Z</time>
      </trkpt>
      <trkpt lat="48.7234" lon="5.63621">
        <ele>231.061</ele>
        <time>2019-09-23T08:21:15.000Z</time>
      </trkpt>
      <trkpt lat="48.72328" lon="5.63624">
        <ele>231.093</ele>
        <time>2019-09-23T08:21:18.000Z</time>
      </trkpt>
      <trkpt lat="48.72315" lon="5.63626">
        <ele>231.007</ele>
        <time>2019-09-23T08:21:21.000Z</time>
      </trkpt>
      <trkpt lat="48.72304" lon="5.63629">
        <ele>231.157</ele>
        <time>2019-09-23T08:21:24.000Z</time>
      </trkpt>
      <trkpt lat="48.72291" lon="5.63631">
        <ele>231.092</ele>
        <time>2019-09-23T08:21:27.000Z</time>
      </trkpt>
      <trkpt lat="48.72277" lon="5.63634">
        <ele>231.408</ele>
        <time>2019-09-23T08:21:30.000Z</time>
      </trkpt>
      <trkpt lat="48.72265" lon="5.63637">
        <ele>231.826</ele>
        <time>2019-09-23T08:21:33.000Z</time>
      </trkpt>
      <trkpt lat="48.72253" lon="5.63641">
        <ele>232.29</ele>
        <time>2019-09-23T08:21:36.000Z</time>
      </trkpt>
      <trkpt lat="48.72243" lon="5.63643">
        <ele>233.325</ele>
        <time>2019-09-23T08:21:39.000Z</time>
      </trkpt>
      <trkpt lat="48.72234" lon="5.63646">
        <ele>233.934</ele>
        <time>2019-09-23T08:21:42.000Z</time>
      </trkpt>
      <trkpt lat="48.72225" lon="5.63648">
        <ele>234.592</ele>
        <time>2019-09-23T08:21:45.000Z</time>
      </trkpt>
      <trkpt lat="48.72215" lon="5.63651">
        <ele>235.304</ele>
        <time>2019-09-23T08:21:48.000Z</time>
      </trkpt>
      <trkpt lat="48.72205" lon="5.63653">
        <ele>235.802</ele>
        <time>2019-09-23T08:21:51.000Z</time>
      </trkpt>
      <trkpt lat="48.72193" lon="5.63656">
        <ele>236.325</ele>
        <time>2019-09-23T08:21:54.000Z</time>
      </trkpt>
      <trkpt lat="48.72181" lon="5.63658">
        <ele>236.653</ele>
        <time>2019-09-23T08:21:57.000Z</time>
      </trkpt>
      <trkpt lat="48.72169" lon="5.63661">
        <ele>237.062</ele>
        <time>2019-09-23T08:22:00.000Z</time>
      </trkpt>
      <trkpt lat="48.72157" lon="5.63664">
        <ele>237.158</ele>
        <time>2019-09-23T08:22:03.000Z</time>
      </trkpt>
      <trkpt lat="48.72143" lon="5.63668">
        <ele>236.573</ele>
        <time>2019-09-23T08:22:06.000Z</time>
      </trkpt>
      <trkpt lat="48.72127" lon="5.63673">
        <ele>236.237</ele>
        <time>2019-09-23T08:22:09.000Z</time>
      </trkpt>
      <trkpt lat="48.72111" lon="5.63677">
        <ele>236.106</ele>
        <time>2019-09-23T08:22:12.000Z</time>
      </trkpt>
      <trkpt lat="48.72094" lon="5.63683">
        <ele>236.173</ele>
        <time>2019-09-23T08:22:15.000Z</time>
      </trkpt>
      <trkpt lat="48.72077" lon="5.63687">
        <ele>235.922</ele>
        <time>2019-09-23T08:22:18.000Z</time>
      </trkpt>
      <trkpt lat="48.72061" lon="5.63689">
        <ele>235.638</ele>
        <time>2019-09-23T08:22:21.000Z</time>
      </trkpt>
      <trkpt lat="48.72047" lon="5.63693">
        <ele>234.813</ele>
        <time>2019-09-23T08:22:24.000Z</time>
      </trkpt>
      <trkpt lat="48.72033" lon="5.63696">
        <ele>234.756</ele>
        <time>2019-09-23T08:22:27.000Z</time>
      </trkpt>
      <trkpt lat="48.7202" lon="5.63698">
        <ele>234.703</ele>
        <time>2019-09-23T08:22:30.000Z</time>
      </trkpt>
      <trkpt lat="48.72005" lon="5.63695">
        <ele>234.324</ele>
        <time>2019-09-23T08:22:33.000Z</time>
      </trkpt>
      <trkpt lat="48.71992" lon="5.63688">
        <ele>234.232</ele>
        <time>2019-09-23T08:22:36.000Z</time>
      </trkpt>
      <trkpt lat="48.7198" lon="5.6368">
        <ele>234.599</ele>
        <time>2019-09-23T08:22:39.000Z</time>
      </trkpt>
      <trkpt lat="48.71967" lon="5.63674">
        <ele>234.835</ele>
        <time>2019-09-23T08:22:42.000Z</time>
      </trkpt>
      <trkpt lat="48.71954" lon="5.63668">
        <ele>235.057</ele>
        <time>2019-09-23T08:22:45.000Z</time>
      </trkpt>
      <trkpt lat="48.71941" lon="5.63662">
        <ele>235.575</ele>
        <time>2019-09-23T08:22:48.000Z</time>
      </trkpt>
      <trkpt lat="48.71929" lon="5.63652">
        <ele>236.295</ele>
        <time>2019-09-23T08:22:51.000Z</time>
      </trkpt>
      <trkpt lat="48.7192" lon="5.63638">
        <ele>236.826</ele>
        <time>2019-09-23T08:22:54.000Z</time>
      </trkpt>
      <trkpt lat="48.71914" lon="5.63623">
        <ele>237.259</ele>
        <time>2019-09-23T08:22:57.000Z</time>
      </trkpt>
      <trkpt lat="48.71908" lon="5.63607">
        <ele>238.811</ele>
        <time>2019-09-23T08:23:00.000Z</time>
      </trkpt>
      <trkpt lat="48.71896" lon="5.63596">
        <ele>240.273</ele>
        <time>2019-09-23T08:23:03.000Z</time>
      </trkpt>
      <trkpt lat="48.71883" lon="5.63589">
        <ele>241.484</ele>
        <time>2019-09-23T08:23:06.000Z</time>
      </trkpt>
      <trkpt lat="48.71871" lon="5.63585">
        <ele>242.404</ele>
        <time>2019-09-23T08:23:09.000Z</time>
      </trkpt>
      <trkpt lat="48.71861" lon="5.6358">
        <ele>242.76</ele>
        <time>2019-09-23T08:23:12.000Z</time>
      </trkpt>
      <trkpt lat="48.71851" lon="5.63576">
        <ele>242.957</ele>
        <time>2019-09-23T08:23:15.000Z</time>
      </trkpt>
      <trkpt lat="48.7184" lon="5.63574">
        <ele>243.456</ele>
        <time>2019-09-23T08:23:18.000Z</time>
      </trkpt>
      <trkpt lat="48.71831" lon="5.63572">
        <ele>243.942</ele>
        <time>2019-09-23T08:23:21.000Z</time>
      </trkpt>
      <trkpt lat="48.7182" lon="5.63571">
        <ele>244.642</ele>
        <time>2019-09-23T08:23:24.000Z</time>
      </trkpt>
      <trkpt lat="48.71808" lon="5.63568">
        <ele>245.316</ele>
        <time>2019-09-23T08:23:27.000Z</time>
      </trkpt>
      <trkpt lat="48.71795" lon="5.63565">
        <ele>245.012</ele>
        <time>2019-09-23T08:23:30.000Z</time>
      </trkpt>
      <trkpt lat="48.71783" lon="5.63562">
        <ele>245.236</ele>
        <time>2019-09-23T08:23:33.000Z</time>
      </trkpt>
      <trkpt lat="48.7177" lon="5.63559">
        <ele>245.218</ele>
        <time>2019-09-23T08:23:36.000Z</time>
      </trkpt>
      <trkpt lat="48.71758" lon="5.63557">
        <ele>244.329</ele>
        <time>2019-09-23T08:23:39.000Z</time>
      </trkpt>
      <trkpt lat="48.71746" lon="5.63555">
        <ele>244.327</ele>
        <time>2019-09-23T08:23:42.000Z</time>
      </trkpt>
      <trkpt lat="48.71734" lon="5.63554">
        <ele>244.764</ele>
        <time>2019-09-23T08:23:45.000Z</time>
      </trkpt>
      <trkpt lat="48.7172" lon="5.63553">
        <ele>245.166</ele>
        <time>2019-09-23T08:23:48.000Z</time>
      </trkpt>
      <trkpt lat="48.71706" lon="5.6355">
        <ele>245.6</ele>
        <time>2019-09-23T08:23:51.000Z</time>
      </trkpt>
      <trkpt lat="48.71693" lon="5.63548">
        <ele>245.506</ele>
        <time>2019-09-23T08:23:54.000Z</time>
      </trkpt>
      <trkpt lat="48.7168" lon="5.63546">
        <ele>245.124</ele>
        <time>2019-09-23T08:23:57.000Z</time>
      </trkpt>
      <trkpt lat="48.71666" lon="5.63546">
        <ele>245.079</ele>
        <time>2019-09-23T08:24:00.000Z</time>
      </trkpt>
      <trkpt lat="48.71652" lon="5.63546">
        <ele>245.093</ele>
        <time>2019-09-23T08:24:03.000Z</time>
      </trkpt>
      <trkpt lat="48.71638" lon="5.63545">
        <ele>244.897</ele>
        <time>2019-09-23T08:24:06.000Z</time>
      </trkpt>
      <trkpt lat="48.71625" lon="5.63545">
        <ele>245.521</ele>
        <time>2019-09-23T08:24:09.000Z</time>
      </trkpt>
      <trkpt lat="48.71611" lon="5.63546">
        <ele>245.942</ele>
        <time>2019-09-23T08:24:12.000Z</time>
      </trkpt>
      <trkpt lat="48.71597" lon="5.63545">
        <ele>246.124</ele>
        <time>2019-09-23T08:24:15.000Z</time>
      </trkpt>
      <trkpt lat="48.71582" lon="5.63542">
        <ele>245.322</ele>
        <time>2019-09-23T08:24:18.000Z</time>
      </trkpt>
      <trkpt lat="48.71569" lon="5.63538">
        <ele>243.57</ele>
        <time>2019-09-23T08:24:21.000Z</time>
      </trkpt>
      <trkpt lat="48.71555" lon="5.63535">
        <ele>242.156</ele>
        <time>2019-09-23T08:24:24.000Z</time>
      </trkpt>
      <trkpt lat="48.71541" lon="5.63534">
        <ele>241.468</ele>
        <time>2019-09-23T08:24:27.000Z</time>
      </trkpt>
      <trkpt lat="48.71527" lon="5.63531">
        <ele>241.179</ele>
        <time>2019-09-23T08:24:30.000Z</time>
      </trkpt>
      <trkpt lat="48.71515" lon="5.63527">
        <ele>241.318</ele>
        <time>2019-09-23T08:24:33.000Z</time>
      </trkpt>
      <trkpt lat="48.71503" lon="5.63521">
        <ele>241.577</ele>
        <time>2019-09-23T08:24:36.000Z</time>
      </trkpt>
      <trkpt lat="48.71491" lon="5.63514">
        <ele>242.078</ele>
        <time>2019-09-23T08:24:39.000Z</time>
      </trkpt>
      <trkpt lat="48.71477" lon="5.63506">
        <ele>242.334</ele>
        <time>2019-09-23T08:24:42.000Z</time>
      </trkpt>
      <trkpt lat="48.71463" lon="5.63498">
        <ele>242.8</ele>
        <time>2019-09-23T08:24:45.000Z</time>
      </trkpt>
      <trkpt lat="48.71451" lon="5.63488">
        <ele>242.995</ele>
        <time>2019-09-23T08:24:48.000Z</time>
      </trkpt>
      <trkpt lat="48.7144" lon="5.63478">
        <ele>243.691</ele>
        <time>2019-09-23T08:24:51.000Z</time>
      </trkpt>
      <trkpt lat="48.7143" lon="5.63467">
        <ele>244.38</ele>
        <time>2019-09-23T08:24:54.000Z</time>
      </trkpt>
      <trkpt lat="48.71419" lon="5.63458">
        <ele>245.26</ele>
        <time>2019-09-23T08:24:57.000Z</time>
      </trkpt>
      <trkpt lat="48.71407" lon="5.63451">
        <ele>244.842</ele>
        <time>2019-09-23T08:25:00.000Z</time>
      </trkpt>
      <trkpt lat="48.71394" lon="5.63449">
        <ele>244.03</ele>
        <time>2019-09-23T08:25:03.000Z</time>
      </trkpt>
      <trkpt lat="48.71381" lon="5.63447">
        <ele>244.216</ele>
        <time>2019-09-23T08:25:06.000Z</time>
      </trkpt>
      <trkpt lat="48.7137" lon="5.63445">
        <ele>244.63</ele>
        <time>2019-09-23T08:25:09.000Z</time>
      </trkpt>
      <trkpt lat="48.7136" lon="5.63446">
        <ele>244.925</ele>
        <time>2019-09-23T08:25:12.000Z</time>
      </trkpt>
      <trkpt lat="48.71349" lon="5.63447">
        <ele>245.382</ele>
        <time>2019-09-23T08:25:15.000Z</time>
      </trkpt>
      <trkpt lat="48.71338" lon="5.63448">
        <ele>245.397</ele>
        <time>2019-09-23T08:25:18.000Z</time>
      </trkpt>
      <trkpt lat="48.71328" lon="5.63449">
        <ele>245.794</ele>
        <time>2019-09-23T08:25:21.000Z</time>
      </trkpt>
      <trkpt lat="48.71319" lon="5.63449">
        <ele>247.467</ele>
        <time>2019-09-23T08:25:24.000Z</time>
      </trkpt>
      <trkpt lat="48.71309" lon="5.63451">
        <ele>248.669</ele>
        <time>2019-09-23T08:25:27.000Z</time>
      </trkpt>
      <trkpt lat="48.71298" lon="5.63453">
        <ele>250.66</ele>
        <time>2019-09-23T08:25:30.000Z</time>
      </trkpt>
      <trkpt lat="48.71287" lon="5.63458">
        <ele>251.214</ele>
        <time>2019-09-23T08:25:33.000Z</time>
      </trkpt>
      <trkpt lat="48.71276" lon="5.63462">
        <ele>251.599</ele>
        <time>2019-09-23T08:25:36.000Z</time>
      </trkpt>
      <trkpt lat="48.71268" lon="5.63466">
        <ele>252.356</ele>
        <time>2019-09-23T08:25:39.000Z</time>
      </trkpt>
      <trkpt lat="48.71259" lon="5.63471">
        <ele>253.368</ele>
        <time>2019-09-23T08:25:42.000Z</time>
      </trkpt>
      <trkpt lat="48.71251" lon="5.63475">
        <ele>254.493</ele>
        <time>2019-09-23T08:25:45.000Z</time>
      </trkpt>
      <trkpt lat="48.71241" lon="5.63476">
        <ele>254.908</ele>
        <time>2019-09-23T08:25:48.000Z</time>
      </trkpt>
      <trkpt lat="48.71231" lon="5.63476">
        <ele>254.77</ele>
        <time>2019-09-23T08:25:51.000Z</time>
      </trkpt>
      <trkpt lat="48.71219" lon="5.63473">
        <ele>255.691</ele>
        <time>2019-09-23T08:25:54.000Z</time>
      </trkpt>
      <trkpt lat="48.71205" lon="5.63468">
        <ele>257.56</ele>
        <time>2019-09-23T08:25:57.000Z</time>
      </trkpt>
      <trkpt lat="48.71192" lon="5.63452">
        <ele>257.675</ele>
        <time>2019-09-23T08:26:00.000Z</time>
      </trkpt>
      <trkpt lat="48.7118" lon="5.63433">
        <ele>258.139</ele>
        <time>2019-09-23T08:26:03.000Z</time>
      </trkpt>
      <trkpt lat="48.71168" lon="5.63418">
        <ele>258.725</ele>
        <time>2019-09-23T08:26:06.000Z</time>
      </trkpt>
      <trkpt lat="48.71164" lon="5.63405">
        <ele>259.818</ele>
        <time>2019-09-23T08:26:09.000Z</time>
      </trkpt>
      <trkpt lat="48.71159" lon="5.63394">
        <ele>259.564</ele>
        <time>2019-09-23T08:26:12.000Z</time>
      </trkpt>
      <trkpt lat="48.7115" lon="5.63379">
        <ele>259.484</ele>
        <time>2019-09-23T08:26:15.000Z</time>
      </trkpt>
      <trkpt lat="48.7114" lon="5.6336">
        <ele>258.73</ele>
        <time>2019-09-23T08:26:18.000Z</time>
      </trkpt>
      <trkpt lat="48.71133" lon="5.63339">
        <ele>256.365</ele>
        <time>2019-09-23T08:26:21.000Z</time>
      </trkpt>
      <trkpt lat="48.71124" lon="5.63314">
        <ele>255.412</ele>
        <time>2019-09-23T08:26:24.000Z</time>
      </trkpt>
      <trkpt lat="48.71116" lon="5.6329">
        <ele>254.421</ele>
        <time>2019-09-23T08:26:27.000Z</time>
      </trkpt>
      <trkpt lat="48.71109" lon="5.63266">
        <ele>252.914</ele>
        <time>2019-09-23T08:26:30.000Z</time>
      </trkpt>
      <trkpt lat="48.71104" lon="5.63244">
        <ele>251.548</ele>
        <time>2019-09-23T08:26:33.000Z</time>
      </trkpt>
      <trkpt lat="48.711" lon="5.63224">
        <ele>250.59</ele>
        <time>2019-09-23T08:26:36.000Z</time>
      </trkpt>
      <trkpt lat="48.71093" lon="5.63206">
        <ele>249.354</ele>
        <time>2019-09-23T08:26:39.000Z</time>
      </trkpt>
      <trkpt lat="48.71085" lon="5.63184">
        <ele>248.344</ele>
        <time>2019-09-23T08:26:42.000Z</time>
      </trkpt>
      <trkpt lat="48.71078" lon="5.63161">
        <ele>246.76</ele>
        <time>2019-09-23T08:26:45.000Z</time>
      </trkpt>
      <trkpt lat="48.71071" lon="5.6314">
        <ele>245.482</ele>
        <time>2019-09-23T08:26:48.000Z</time>
      </trkpt>
      <trkpt lat="48.71064" lon="5.63123">
        <ele>245.246</ele>
        <time>2019-09-23T08:26:51.000Z</time>
      </trkpt>
      <trkpt lat="48.71057" lon="5.63104">
        <ele>244.669</ele>
        <time>2019-09-23T08:26:54.000Z</time>
      </trkpt>
      <trkpt lat="48.71051" lon="5.63087">
        <ele>243.331</ele>
        <time>2019-09-23T08:26:57.000Z</time>
      </trkpt>
      <trkpt lat="48.71047" lon="5.6307">
        <ele>242.248</ele>
        <time>2019-09-23T08:27:00.000Z</time>
      </trkpt>
      <trkpt lat="48.71047" lon="5.63052">
        <ele>241.973</ele>
        <time>2019-09-23T08:27:03.000Z</time>
      </trkpt>
      <trkpt lat="48.71047" lon="5.63035">
        <ele>240.656</ele>
        <time>2019-09-23T08:27:06.000Z</time>
      </trkpt>
      <trkpt lat="48.71046" lon="5.63016">
        <ele>238.737</ele>
        <time>2019-09-23T08:27:09.000Z</time>
      </trkpt>
      <trkpt lat="48.71044" lon="5.62994">
        <ele>236.97</ele>
        <time>2019-09-23T08:27:12.000Z</time>
      </trkpt>
      <trkpt lat="48.71043" lon="5.62974">
        <ele>235.825</ele>
        <time>2019-09-23T08:27:15.000Z</time>
      </trkpt>
      <trkpt lat="48.71043" lon="5.62953">
        <ele>234.424</ele>
        <time>2019-09-23T08:27:18.000Z</time>
      </trkpt>
      <trkpt lat="48.71045" lon="5.62933">
        <ele>233.919</ele>
        <time>2019-09-23T08:27:21.000Z</time>
      </trkpt>
      <trkpt lat="48.71047" lon="5.62913">
        <ele>234.085</ele>
        <time>2019-09-23T08:27:24.000Z</time>
      </trkpt>
      <trkpt lat="48.7105" lon="5.62892">
        <ele>233.985</ele>
        <time>2019-09-23T08:27:27.000Z</time>
      </trkpt>
      <trkpt lat="48.71052" lon="5.6287">
        <ele>233.691</ele>
        <time>2019-09-23T08:27:30.000Z</time>
      </trkpt>
      <trkpt lat="48.71055" lon="5.62847">
        <ele>233.433</ele>
        <time>2019-09-23T08:27:33.000Z</time>
      </trkpt>
      <trkpt lat="48.71059" lon="5.62825">
        <ele>232.836</ele>
        <time>2019-09-23T08:27:36.000Z</time>
      </trkpt>
      <trkpt lat="48.71063" lon="5.62803">
        <ele>232.911</ele>
        <time>2019-09-23T08:27:39.000Z</time>
      </trkpt>
      <trkpt lat="48.71067" lon="5.62784">
        <ele>232.716</ele>
        <time>2019-09-23T08:27:42.000Z</time>
      </trkpt>
      <trkpt lat="48.7107" lon="5.62765">
        <ele>232.785</ele>
        <time>2019-09-23T08:27:45.000Z</time>
      </trkpt>
      <trkpt lat="48.71064" lon="5.62747">
        <ele>233.201</ele>
        <time>2019-09-23T08:27:48.000Z</time>
      </trkpt>
      <trkpt lat="48.71049" lon="5.62738">
        <ele>233.376</ele>
        <time>2019-09-23T08:27:51.000Z</time>
      </trkpt>
      <trkpt lat="48.71034" lon="5.62732">
        <ele>232.617</ele>
        <time>2019-09-23T08:27:54.000Z</time>
      </trkpt>
      <trkpt lat="48.71019" lon="5.62727">
        <ele>232.154</ele>
        <time>2019-09-23T08:27:57.000Z</time>
      </trkpt>
      <trkpt lat="48.71005" lon="5.62721">
        <ele>231.816</ele>
        <time>2019-09-23T08:28:00.000Z</time>
      </trkpt>
      <trkpt lat="48.70991" lon="5.62717">
        <ele>231.713</ele>
        <time>2019-09-23T08:28:03.000Z</time>
      </trkpt>
      <trkpt lat="48.70978" lon="5.62712">
        <ele>231.894</ele>
        <time>2019-09-23T08:28:06.000Z</time>
      </trkpt>
      <trkpt lat="48.70965" lon="5.62707">
        <ele>232.04</ele>
        <time>2019-09-23T08:28:09.000Z</time>
      </trkpt>
      <trkpt lat="48.70952" lon="5.62702">
        <ele>232.169</ele>
        <time>2019-09-23T08:28:12.000Z</time>
      </trkpt>
      <trkpt lat="48.70939" lon="5.62697">
        <ele>232.481</ele>
        <time>2019-09-23T08:28:15.000Z</time>
      </trkpt>
      <trkpt lat="48.70927" lon="5.62693">
        <ele>232.601</ele>
        <time>2019-09-23T08:28:18.000Z</time>
      </trkpt>
      <trkpt lat="48.70914" lon="5.62688">
        <ele>232.964</ele>
        <time>2019-09-23T08:28:21.000Z</time>
      </trkpt>
      <trkpt lat="48.70901" lon="5.62683">
        <ele>232.961</ele>
        <time>2019-09-23T08:28:24.000Z</time>
      </trkpt>
      <trkpt lat="48.70889" lon="5.62678">
        <ele>233.162</ele>
        <time>2019-09-23T08:28:27.000Z</time>
      </trkpt>
      <trkpt lat="48.70876" lon="5.62673">
        <ele>233.159</ele>
        <time>2019-09-23T08:28:30.000Z</time>
      </trkpt>
      <trkpt lat="48.70863" lon="5.62669">
        <ele>233.37</ele>
        <time>2019-09-23T08:28:33.000Z</time>
      </trkpt>
      <trkpt lat="48.70849" lon="5.62664">
        <ele>233.741</ele>
        <time>2019-09-23T08:28:36.000Z</time>
      </trkpt>
      <trkpt lat="48.70836" lon="5.62659">
        <ele>233.76</ele>
        <time>2019-09-23T08:28:39.000Z</time>
      </trkpt>
      <trkpt lat="48.70823" lon="5.62654">
        <ele>233.77</ele>
        <time>2019-09-23T08:28:42.000Z</time>
      </trkpt>
      <trkpt lat="48.7081" lon="5.62649">
        <ele>233.855</ele>
        <time>2019-09-23T08:28:45.000Z</time>
      </trkpt>
      <trkpt lat="48.70797" lon="5.62644">
        <ele>233.47</ele>
        <time>2019-09-23T08:28:48.000Z</time>
      </trkpt>
      <trkpt lat="48.70783" lon="5.62638">
        <ele>233.05</ele>
        <time>2019-09-23T08:28:51.000Z</time>
      </trkpt>
      <trkpt lat="48.7077" lon="5.62634">
        <ele>232.396</ele>
        <time>2019-09-23T08:28:54.000Z</time>
      </trkpt>
      <trkpt lat="48.70757" lon="5.62628">
        <ele>232.107</ele>
        <time>2019-09-23T08:28:57.000Z</time>
      </trkpt>
      <trkpt lat="48.70744" lon="5.62623">
        <ele>232.101</ele>
        <time>2019-09-23T08:29:00.000Z</time>
      </trkpt>
      <trkpt lat="48.70732" lon="5.6262">
        <ele>232.726</ele>
        <time>2019-09-23T08:29:03.000Z</time>
      </trkpt>
      <trkpt lat="48.70721" lon="5.62615">
        <ele>233.174</ele>
        <time>2019-09-23T08:29:06.000Z</time>
      </trkpt>
      <trkpt lat="48.70709" lon="5.62611">
        <ele>233.344</ele>
        <time>2019-09-23T08:29:09.000Z</time>
      </trkpt>
      <trkpt lat="48.70697" lon="5.62606">
        <ele>233.175</ele>
        <time>2019-09-23T08:29:12.000Z</time>
      </trkpt>
      <trkpt lat="48.70683" lon="5.62602">
        <ele>233.202</ele>
        <time>2019-09-23T08:29:15.000Z</time>
      </trkpt>
      <trkpt lat="48.7067" lon="5.62597">
        <ele>233.48</ele>
        <time>2019-09-23T08:29:18.000Z</time>
      </trkpt>
      <trkpt lat="48.70657" lon="5.62591">
        <ele>233.395</ele>
        <time>2019-09-23T08:29:21.000Z</time>
      </trkpt>
      <trkpt lat="48.70645" lon="5.62587">
        <ele>233.326</ele>
        <time>2019-09-23T08:29:24.000Z</time>
      </trkpt>
      <trkpt lat="48.70632" lon="5.62583">
        <ele>232.764</ele>
        <time>2019-09-23T08:29:27.000Z</time>
      </trkpt>
      <trkpt lat="48.70619" lon="5.62577">
        <ele>232.484</ele>
        <time>2019-09-23T08:29:30.000Z</time>
      </trkpt>
      <trkpt lat="48.70606" lon="5.62572">
        <ele>232.554</ele>
        <time>2019-09-23T08:29:33.000Z</time>
      </trkpt>
      <trkpt lat="48.70593" lon="5.62568">
        <ele>232.349</ele>
        <time>2019-09-23T08:29:36.000Z</time>
      </trkpt>
      <trkpt lat="48.70581" lon="5.62562">
        <ele>232.142</ele>
        <time>2019-09-23T08:29:39.000Z</time>
      </trkpt>
      <trkpt lat="48.70568" lon="5.62558">
        <ele>231.694</ele>
        <time>2019-09-23T08:29:42.000Z</time>
      </trkpt>
      <trkpt lat="48.70556" lon="5.62553">
        <ele>231.655</ele>
        <time>2019-09-23T08:29:45.000Z</time>
      </trkpt>
      <trkpt lat="48.70544" lon="5.62549">
        <ele>231.818</ele>
        <time>2019-09-23T08:29:48.000Z</time>
      </trkpt>
      <trkpt lat="48.70532" lon="5.62544">
        <ele>232.262</ele>
        <time>2019-09-23T08:29:51.000Z</time>
      </trkpt>
      <trkpt lat="48.70521" lon="5.62539">
        <ele>232.695</ele>
        <time>2019-09-23T08:29:54.000Z</time>
      </trkpt>
      <trkpt lat="48.70509" lon="5.62535">
        <ele>233.029</ele>
        <time>2019-09-23T08:29:57.000Z</time>
      </trkpt>
      <trkpt lat="48.70498" lon="5.6253">
        <ele>233.073</ele>
        <time>2019-09-23T08:30:00.000Z</time>
      </trkpt>
      <trkpt lat="48.70486" lon="5.62526">
        <ele>233.335</ele>
        <time>2019-09-23T08:30:03.000Z</time>
      </trkpt>
      <trkpt lat="48.70474" lon="5.62522">
        <ele>233.401</ele>
        <time>2019-09-23T08:30:06.000Z</time>
      </trkpt>
      <trkpt lat="48.70462" lon="5.62517">
        <ele>233.564</ele>
        <time>2019-09-23T08:30:09.000Z</time>
      </trkpt>
      <trkpt lat="48.7045" lon="5.62513">
        <ele>233.452</ele>
        <time>2019-09-23T08:30:12.000Z</time>
      </trkpt>
      <trkpt lat="48.70437" lon="5.62508">
        <ele>233.837</ele>
        <time>2019-09-23T08:30:15.000Z</time>
      </trkpt>
      <trkpt lat="48.70425" lon="5.62503">
        <ele>234.032</ele>
        <time>2019-09-23T08:30:18.000Z</time>
      </trkpt>
      <trkpt lat="48.70413" lon="5.62498">
        <ele>234.144</ele>
        <time>2019-09-23T08:30:21.000Z</time>
      </trkpt>
      <trkpt lat="48.70401" lon="5.62493">
        <ele>234.022</ele>
        <time>2019-09-23T08:30:24.000Z</time>
      </trkpt>
      <trkpt lat="48.70389" lon="5.62488">
        <ele>233.534</ele>
        <time>2019-09-23T08:30:27.000Z</time>
      </trkpt>
      <trkpt lat="48.70377" lon="5.62484">
        <ele>233.425</ele>
        <time>2019-09-23T08:30:30.000Z</time>
      </trkpt>
      <trkpt lat="48.70366" lon="5.62479">
        <ele>233.058</ele>
        <time>2019-09-23T08:30:33.000Z</time>
      </trkpt>
      <trkpt lat="48.70354" lon="5.62475">
        <ele>232.889</ele>
        <time>2019-09-23T08:30:36.000Z</time>
      </trkpt>
      <trkpt lat="48.70342" lon="5.62471">
        <ele>233.064</ele>
        <time>2019-09-23T08:30:39.000Z</time>
      </trkpt>
      <trkpt lat="48.70329" lon="5.62467">
        <ele>233.482</ele>
        <time>2019-09-23T08:30:42.000Z</time>
      </trkpt>
      <trkpt lat="48.70315" lon="5.62462">
        <ele>233.32</ele>
        <time>2019-09-23T08:30:45.000Z</time>
      </trkpt>
      <trkpt lat="48.70303" lon="5.62457">
        <ele>233.301</ele>
        <time>2019-09-23T08:30:48.000Z</time>
      </trkpt>
      <trkpt lat="48.70291" lon="5.62452">
        <ele>233.366</ele>
        <time>2019-09-23T08:30:51.000Z</time>
      </trkpt>
      <trkpt lat="48.70279" lon="5.62447">
        <ele>233.676</ele>
        <time>2019-09-23T08:30:54.000Z</time>
      </trkpt>
      <trkpt lat="48.70266" lon="5.62442">
        <ele>234.064</ele>
        <time>2019-09-23T08:30:57.000Z</time>
      </trkpt>
      <trkpt lat="48.70253" lon="5.62437">
        <ele>234.444</ele>
        <time>2019-09-23T08:31:00.000Z</time>
      </trkpt>
      <trkpt lat="48.70241" lon="5.62433">
        <ele>234.69</ele>
        <time>2019-09-23T08:31:03.000Z</time>
      </trkpt>
      <trkpt lat="48.70228" lon="5.62428">
        <ele>235.082</ele>
        <time>2019-09-23T08:31:06.000Z</time>
      </trkpt>
      <trkpt lat="48.70216" lon="5.62423">
        <ele>235.519</ele>
        <time>2019-09-23T08:31:09.000Z</time>
      </trkpt>
      <trkpt lat="48.70203" lon="5.62418">
        <ele>235.799</ele>
        <time>2019-09-23T08:31:12.000Z</time>
      </trkpt>
      <trkpt lat="48.70191" lon="5.62414">
        <ele>235.85</ele>
        <time>2019-09-23T08:31:15.000Z</time>
      </trkpt>
      <trkpt lat="48.70179" lon="5.6241">
        <ele>235.987</ele>
        <time>2019-09-23T08:31:18.000Z</time>
      </trkpt>
      <trkpt lat="48.70166" lon="5.62408">
        <ele>236.096</ele>
        <time>2019-09-23T08:31:21.000Z</time>
      </trkpt>
      <trkpt lat="48.70153" lon="5.62405">
        <ele>235.856</ele>
        <time>2019-09-23T08:31:24.000Z</time>
      </trkpt>
      <trkpt lat="48.7014" lon="5.62404">
        <ele>235.347</ele>
        <time>2019-09-23T08:31:27.000Z</time>
      </trkpt>
      <trkpt lat="48.70127" lon="5.62402">
        <ele>234.736</ele>
        <time>2019-09-23T08:31:30.000Z</time>
      </trkpt>
      <trkpt lat="48.70115" lon="5.62401">
        <ele>234.625</ele>
        <time>2019-09-23T08:31:33.000Z</time>
      </trkpt>
      <trkpt lat="48.70102" lon="5.624">
        <ele>234.489</ele>
        <time>2019-09-23T08:31:36.000Z</time>
      </trkpt>
      <trkpt lat="48.7009" lon="5.62399">
        <ele>234.297</ele>
        <time>2019-09-23T08:31:39.000Z</time>
      </trkpt>
      <trkpt lat="48.70078" lon="5.62398">
        <ele>234.002</ele>
        <time>2019-09-23T08:31:42.000Z</time>
      </trkpt>
      <trkpt lat="48.70066" lon="5.62397">
        <ele>233.924</ele>
        <time>2019-09-23T08:31:45.000Z</time>
      </trkpt>
      <trkpt lat="48.70053" lon="5.62396">
        <ele>233.828</ele>
        <time>2019-09-23T08:31:48.000Z</time>
      </trkpt>
      <trkpt lat="48.70041" lon="5.62395">
        <ele>233.675</ele>
        <time>2019-09-23T08:31:51.000Z</time>
      </trkpt>
      <trkpt lat="48.70029" lon="5.62394">
        <ele>233.507</ele>
        <time>2019-09-23T08:31:54.000Z</time>
      </trkpt>
      <trkpt lat="48.70017" lon="5.62394">
        <ele>233.557</ele>
        <time>2019-09-23T08:31:57.000Z</time>
      </trkpt>
      <trkpt lat="48.70004" lon="5.62394">
        <ele>233.629</ele>
        <time>2019-09-23T08:32:00.000Z</time>
      </trkpt>
      <trkpt lat="48.69993" lon="5.62394">
        <ele>233.43</ele>
        <time>2019-09-23T08:32:03.000Z</time>
      </trkpt>
      <trkpt lat="48.69981" lon="5.62393">
        <ele>233.608</ele>
        <time>2019-09-23T08:32:06.000Z</time>
      </trkpt>
      <trkpt lat="48.69969" lon="5.62393">
        <ele>233.432</ele>
        <time>2019-09-23T08:32:09.000Z</time>
      </trkpt>
      <trkpt lat="48.69957" lon="5.62393">
        <ele>233.28</ele>
        <time>2019-09-23T08:32:12.000Z</time>
      </trkpt>
      <trkpt lat="48.69945" lon="5.62393">
        <ele>233.436</ele>
        <time>2019-09-23T08:32:15.000Z</time>
      </trkpt>
      <trkpt lat="48.69933" lon="5.62392">
        <ele>233.517</ele>
        <time>2019-09-23T08:32:18.000Z</time>
      </trkpt>
      <trkpt lat="48.6992" lon="5.62391">
        <ele>233.324</ele>
        <time>2019-09-23T08:32:21.000Z</time>
      </trkpt>
      <trkpt lat="48.69907" lon="5.6239">
        <ele>233.088</ele>
        <time>2019-09-23T08:32:24.000Z</time>
      </trkpt>
      <trkpt lat="48.69896" lon="5.62389">
        <ele>232.729</ele>
        <time>2019-09-23T08:32:27.000Z</time>
      </trkpt>
      <trkpt lat="48.69884" lon="5.62388">
        <ele>232.794</ele>
        <time>2019-09-23T08:32:30.000Z</time>
      </trkpt>
      <trkpt lat="48.69873" lon="5.62388">
        <ele>232.743</ele>
        <time>2019-09-23T08:32:33.000Z</time>
      </trkpt>
      <trkpt lat="48.69861" lon="5.62388">
        <ele>232.897</ele>
        <time>2019-09-23T08:32:36.000Z</time>
      </trkpt>
      <trkpt lat="48.69849" lon="5.62386">
        <ele>232.541</ele>
        <time>2019-09-23T08:32:39.000Z</time>
      </trkpt>
      <trkpt lat="48.69838" lon="5.62386">
        <ele>232.504</ele>
        <time>2019-09-23T08:32:42.000Z</time>
      </trkpt>
      <trkpt lat="48.69826" lon="5.62386">
        <ele>232.595</ele>
        <time>2019-09-23T08:32:45.000Z</time>
      </trkpt>
      <trkpt lat="48.69814" lon="5.62386">
        <ele>232.864</ele>
        <time>2019-09-23T08:32:48.000Z</time>
      </trkpt>
      <trkpt lat="48.69801" lon="5.62385">
        <ele>233.095</ele>
        <time>2019-09-23T08:32:51.000Z</time>
      </trkpt>
      <trkpt lat="48.69788" lon="5.62384">
        <ele>233.453</ele>
        <time>2019-09-23T08:32:54.000Z</time>
      </trkpt>
      <trkpt lat="48.69775" lon="5.62382">
        <ele>233.83</ele>
        <time>2019-09-23T08:32:57.000Z</time>
      </trkpt>
      <trkpt lat="48.69762" lon="5.62381">
        <ele>234.033</ele>
        <time>2019-09-23T08:33:00.000Z</time>
      </trkpt>
      <trkpt lat="48.69749" lon="5.6238">
        <ele>234.281</ele>
        <time>2019-09-23T08:33:03.000Z</time>
      </trkpt>
      <trkpt lat="48.69738" lon="5.6238">
        <ele>233.785</ele>
        <time>2019-09-23T08:33:06.000Z</time>
      </trkpt>
      <trkpt lat="48.69725" lon="5.62379">
        <ele>234.172</ele>
        <time>2019-09-23T08:33:09.000Z</time>
      </trkpt>
      <trkpt lat="48.69712" lon="5.62379">
        <ele>234.305</ele>
        <time>2019-09-23T08:33:12.000Z</time>
      </trkpt>
      <trkpt lat="48.69699" lon="5.62378">
        <ele>234.333</ele>
        <time>2019-09-23T08:33:15.000Z</time>
      </trkpt>
      <trkpt lat="48.69687" lon="5.62378">
        <ele>234.601</ele>
        <time>2019-09-23T08:33:18.000Z</time>
      </trkpt>
      <trkpt lat="48.69674" lon="5.62377">
        <ele>234.693</ele>
        <time>2019-09-23T08:33:21.000Z</time>
      </trkpt>
      <trkpt lat="48.69662" lon="5.62377">
        <ele>234.866</ele>
        <time>2019-09-23T08:33:24.000Z</time>
      </trkpt>
      <trkpt lat="48.6965" lon="5.62376">
        <ele>234.843</ele>
        <time>2019-09-23T08:33:27.000Z</time>
      </trkpt>
      <trkpt lat="48.69638" lon="5.62375">
        <ele>235.146</ele>
        <time>2019-09-23T08:33:30.000Z</time>
      </trkpt>
      <trkpt lat="48.69626" lon="5.62374">
        <ele>235.737</ele>
        <time>2019-09-23T08:33:33.000Z</time>
      </trkpt>
      <trkpt lat="48.69615" lon="5.62373">
        <ele>236.01</ele>
        <time>2019-09-23T08:33:36.000Z</time>
      </trkpt>
      <trkpt lat="48.69603" lon="5.62372">
        <ele>236.238</ele>
        <time>2019-09-23T08:33:39.000Z</time>
      </trkpt>
      <trkpt lat="48.6959" lon="5.62371">
        <ele>236.137</ele>
        <time>2019-09-23T08:33:42.000Z</time>
      </trkpt>
      <trkpt lat="48.69579" lon="5.6237">
        <ele>236.457</ele>
        <time>2019-09-23T08:33:45.000Z</time>
      </trkpt>
      <trkpt lat="48.69566" lon="5.62369">
        <ele>236.339</ele>
        <time>2019-09-23T08:33:48.000Z</time>
      </trkpt>
      <trkpt lat="48.69555" lon="5.62369">
        <ele>236.673</ele>
        <time>2019-09-23T08:33:51.000Z</time>
      </trkpt>
      <trkpt lat="48.69544" lon="5.62369">
        <ele>236.781</ele>
        <time>2019-09-23T08:33:54.000Z</time>
      </trkpt>
      <trkpt lat="48.69533" lon="5.62369">
        <ele>237.139</ele>
        <time>2019-09-23T08:33:57.000Z</time>
      </trkpt>
      <trkpt lat="48.69521" lon="5.62369">
        <ele>237.678</ele>
        <time>2019-09-23T08:34:00.000Z</time>
      </trkpt>
      <trkpt lat="48.69508" lon="5.6237">
        <ele>238.173</ele>
        <time>2019-09-23T08:34:03.000Z</time>
      </trkpt>
      <trkpt lat="48.69494" lon="5.62371">
        <ele>238.656</ele>
        <time>2019-09-23T08:34:06.000Z</time>
      </trkpt>
      <trkpt lat="48.69482" lon="5.6237">
        <ele>238.338</ele>
        <time>2019-09-23T08:34:09.000Z</time>
      </trkpt>
      <trkpt lat="48.69471" lon="5.62369">
        <ele>238.806</ele>
        <time>2019-09-23T08:34:12.000Z</time>
      </trkpt>
      <trkpt lat="48.69458" lon="5.62366">
        <ele>239.422</ele>
        <time>2019-09-23T08:34:15.000Z</time>
      </trkpt>
      <trkpt lat="48.69446" lon="5.62364">
        <ele>239.844</ele>
        <time>2019-09-23T08:34:18.000Z</time>
      </trkpt>
      <trkpt lat="48.69433" lon="5.62363">
        <ele>240.23</ele>
        <time>2019-09-23T08:34:21.000Z</time>
      </trkpt>
      <trkpt lat="48.6942" lon="5.62362">
        <ele>239.928</ele>
        <time>2019-09-23T08:34:24.000Z</time>
      </trkpt>
      <trkpt lat="48.69406" lon="5.6236">
        <ele>239.141</ele>
        <time>2019-09-23T08:34:27.000Z</time>
      </trkpt>
      <trkpt lat="48.69392" lon="5.62359">
        <ele>238.503</ele>
        <time>2019-09-23T08:34:30.000Z</time>
      </trkpt>
      <trkpt lat="48.69379" lon="5.62357">
        <ele>238.3</ele>
        <time>2019-09-23T08:34:33.000Z</time>
      </trkpt>
      <trkpt lat="48.69364" lon="5.62356">
        <ele>238.051</ele>
        <time>2019-09-23T08:34:36.000Z</time>
      </trkpt>
      <trkpt lat="48.6935" lon="5.62353">
        <ele>237.624</ele>
        <time>2019-09-23T08:34:39.000Z</time>
      </trkpt>
      <trkpt lat="48.69338" lon="5.6235">
        <ele>237.481</ele>
        <time>2019-09-23T08:34:42.000Z</time>
      </trkpt>
      <trkpt lat="48.69325" lon="5.62346">
        <ele>236.947</ele>
        <time>2019-09-23T08:34:45.000Z</time>
      </trkpt>
      <trkpt lat="48.69313" lon="5.62343">
        <ele>237.027</ele>
        <time>2019-09-23T08:34:48.000Z</time>
      </trkpt>
      <trkpt lat="48.69301" lon="5.6234">
        <ele>238.008</ele>
        <time>2019-09-23T08:34:51.000Z</time>
      </trkpt>
      <trkpt lat="48.69291" lon="5.62336">
        <ele>238.117</ele>
        <time>2019-09-23T08:34:54.000Z</time>
      </trkpt>
      <trkpt lat="48.69279" lon="5.62329">
        <ele>238.168</ele>
        <time>2019-09-23T08:34:57.000Z</time>
      </trkpt>
      <trkpt lat="48.69268" lon="5.62323">
        <ele>238.124</ele>
        <time>2019-09-23T08:35:00.000Z</time>
      </trkpt>
      <trkpt lat="48.69256" lon="5.62316">
        <ele>237.933</ele>
        <time>2019-09-23T08:35:03.000Z</time>
      </trkpt>
      <trkpt lat="48.69247" lon="5.62305">
        <ele>237.982</ele>
        <time>2019-09-23T08:35:06.000Z</time>
      </trkpt>
      <trkpt lat="48.69239" lon="5.62293">
        <ele>237.472</ele>
        <time>2019-09-23T08:35:09.000Z</time>
      </trkpt>
      <trkpt lat="48.6923" lon="5.62281">
        <ele>237.183</ele>
        <time>2019-09-23T08:35:12.000Z</time>
      </trkpt>
      <trkpt lat="48.69227" lon="5.62262">
        <ele>236.953</ele>
        <time>2019-09-23T08:35:15.000Z</time>
      </trkpt>
      <trkpt lat="48.69224" lon="5.6224">
        <ele>236.908</ele>
        <time>2019-09-23T08:35:18.000Z</time>
      </trkpt>
      <trkpt lat="48.69213" lon="5.62227">
        <ele>236.935</ele>
        <time>2019-09-23T08:35:21.000Z</time>
      </trkpt>
      <trkpt lat="48.69199" lon="5.62228">
        <ele>237.361</ele>
        <time>2019-09-23T08:35:24.000Z</time>
      </trkpt>
      <trkpt lat="48.69186" lon="5.62237">
        <ele>237.785</ele>
        <time>2019-09-23T08:35:27.000Z</time>
      </trkpt>
      <trkpt lat="48.69173" lon="5.62243">
        <ele>238.096</ele>
        <time>2019-09-23T08:35:30.000Z</time>
      </trkpt>
      <trkpt lat="48.69159" lon="5.62245">
        <ele>237.879</ele>
        <time>2019-09-23T08:35:33.000Z</time>
      </trkpt>
      <trkpt lat="48.69145" lon="5.62247">
        <ele>237.972</ele>
        <time>2019-09-23T08:35:36.000Z</time>
      </trkpt>
      <trkpt lat="48.69132" lon="5.62248">
        <ele>238.01</ele>
        <time>2019-09-23T08:35:39.000Z</time>
      </trkpt>
      <trkpt lat="48.69121" lon="5.62247">
        <ele>238.069</ele>
        <time>2019-09-23T08:35:42.000Z</time>
      </trkpt>
      <trkpt lat="48.6911" lon="5.62233">
        <ele>238.123</ele>
        <time>2019-09-23T08:35:45.000Z</time>
      </trkpt>
      <trkpt lat="48.69101" lon="5.6222">
        <ele>238.225</ele>
        <time>2019-09-23T08:35:48.000Z</time>
      </trkpt>
      <trkpt lat="48.69088" lon="5.62215">
        <ele>238.955</ele>
        <time>2019-09-23T08:35:51.000Z</time>
      </trkpt>
      <trkpt lat="48.69078" lon="5.62205">
        <ele>238.953</ele>
        <time>2019-09-23T08:35:54.000Z</time>
      </trkpt>
      <trkpt lat="48.69074" lon="5.62189">
        <ele>239.307</ele>
        <time>2019-09-23T08:35:57.000Z</time>
      </trkpt>
      <trkpt lat="48.69069" lon="5.62176">
        <ele>239.726</ele>
        <time>2019-09-23T08:36:00.000Z</time>
      </trkpt>
      <trkpt lat="48.69066" lon="5.62166">
        <ele>240.397</ele>
        <time>2019-09-23T08:36:03.000Z</time>
      </trkpt>
      <trkpt lat="48.69062" lon="5.62159">
        <ele>241.281</ele>
        <time>2019-09-23T08:36:06.000Z</time>
      </trkpt>
      <trkpt lat="48.69054" lon="5.62165">
        <ele>243.934</ele>
        <time>2019-09-23T08:36:12.000Z</time>
      </trkpt>
      <trkpt lat="48.6906" lon="5.62172">
        <ele>245.327</ele>
        <time>2019-09-23T08:36:15.000Z</time>
      </trkpt>
      <trkpt lat="48.69068" lon="5.6218">
        <ele>245.659</ele>
        <time>2019-09-23T08:36:18.000Z</time>
      </trkpt>
      <trkpt lat="48.69073" lon="5.62193">
        <ele>245.942</ele>
        <time>2019-09-23T08:36:21.000Z</time>
      </trkpt>
      <trkpt lat="48.69076" lon="5.6221">
        <ele>245.306</ele>
        <time>2019-09-23T08:36:24.000Z</time>
      </trkpt>
      <trkpt lat="48.69072" lon="5.62229">
        <ele>244.908</ele>
        <time>2019-09-23T08:36:27.000Z</time>
      </trkpt>
      <trkpt lat="48.69059" lon="5.62238">
        <ele>243.797</ele>
        <time>2019-09-23T08:36:30.000Z</time>
      </trkpt>
      <trkpt lat="48.69046" lon="5.62235">
        <ele>243.188</ele>
        <time>2019-09-23T08:36:33.000Z</time>
      </trkpt>
      <trkpt lat="48.69035" lon="5.62231">
        <ele>242.261</ele>
        <time>2019-09-23T08:36:36.000Z</time>
      </trkpt>
      <trkpt lat="48.69024" lon="5.62227">
        <ele>241.984</ele>
        <time>2019-09-23T08:36:39.000Z</time>
      </trkpt>
      <trkpt lat="48.69011" lon="5.62223">
        <ele>241.85</ele>
        <time>2019-09-23T08:36:42.000Z</time>
      </trkpt>
      <trkpt lat="48.69" lon="5.62218">
        <ele>241.608</ele>
        <time>2019-09-23T08:36:45.000Z</time>
      </trkpt>
      <trkpt lat="48.68988" lon="5.62213">
        <ele>241.046</ele>
        <time>2019-09-23T08:36:48.000Z</time>
      </trkpt>
      <trkpt lat="48.68976" lon="5.6221">
        <ele>240.363</ele>
        <time>2019-09-23T08:36:51.000Z</time>
      </trkpt>
      <trkpt lat="48.68965" lon="5.62206">
        <ele>239.987</ele>
        <time>2019-09-23T08:36:54.000Z</time>
      </trkpt>
      <trkpt lat="48.68954" lon="5.62202">
        <ele>239.956</ele>
        <time>2019-09-23T08:36:57.000Z</time>
      </trkpt>
      <trkpt lat="48.68943" lon="5.62198">
        <ele>239.989</ele>
        <time>2019-09-23T08:37:00.000Z</time>
      </trkpt>
      <trkpt lat="48.68932" lon="5.62194">
        <ele>240.153</ele>
        <time>2019-09-23T08:37:03.000Z</time>
      </trkpt>
      <trkpt lat="48.68921" lon="5.6219">
        <ele>240.631</ele>
        <time>2019-09-23T08:37:06.000Z</time>
      </trkpt>
      <trkpt lat="48.6891" lon="5.62186">
        <ele>240.799</ele>
        <time>2019-09-23T08:37:09.000Z</time>
      </trkpt>
      <trkpt lat="48.68899" lon="5.62181">
        <ele>241.115</ele>
        <time>2019-09-23T08:37:12.000Z</time>
      </trkpt>
      <trkpt lat="48.68888" lon="5.62177">
        <ele>241.082</ele>
        <time>2019-09-23T08:37:15.000Z</time>
      </trkpt>
      <trkpt lat="48.68877" lon="5.62173">
        <ele>241.169</ele>
        <time>2019-09-23T08:37:18.000Z</time>
      </trkpt>
      <trkpt lat="48.68866" lon="5.62169">
        <ele>241.027</ele>
        <time>2019-09-23T08:37:21.000Z</time>
      </trkpt>
      <trkpt lat="48.68855" lon="5.62166">
        <ele>241.315</ele>
        <time>2019-09-23T08:37:24.000Z</time>
      </trkpt>
      <trkpt lat="48.68844" lon="5.62162">
        <ele>242.051</ele>
        <time>2019-09-23T08:37:27.000Z</time>
      </trkpt>
      <trkpt lat="48.68833" lon="5.62158">
        <ele>243.043</ele>
        <time>2019-09-23T08:37:30.000Z</time>
      </trkpt>
      <trkpt lat="48.68823" lon="5.62153">
        <ele>243.788</ele>
        <time>2019-09-23T08:37:33.000Z</time>
      </trkpt>
      <trkpt lat="48.68814" lon="5.62149">
        <ele>244.406</ele>
        <time>2019-09-23T08:37:36.000Z</time>
      </trkpt>
      <trkpt lat="48.68807" lon="5.62144">
        <ele>244.92</ele>
        <time>2019-09-23T08:37:39.000Z</time>
      </trkpt>
      <trkpt lat="48.68805" lon="5.62141">
        <ele>245.493</ele>
        <time>2019-09-23T08:37:42.000Z</time>
      </trkpt>
      <trkpt lat="48.68805" lon="5.62141">
        <ele>245.493</ele>
        <time>2019-09-23T08:38:39.000Z</time>
      </trkpt>
      <trkpt lat="48.68803" lon="5.62142">
        <ele>246.217</ele>
        <time>2019-09-23T08:38:42.000Z</time>
      </trkpt>
      <trkpt lat="48.68803" lon="5.62142">
        <ele>247.018</ele>
        <time>2019-09-23T08:38:45.000Z</time>
      </trkpt>
      <trkpt lat="48.68801" lon="5.62144">
        <ele>246.036</ele>
        <time>2019-09-23T08:41:45.000Z</time>
      </trkpt>
      <trkpt lat="48.688" lon="5.6214">
        <ele>246.274</ele>
        <time>2019-09-23T08:41:48.000Z</time>
      </trkpt>
      <trkpt lat="48.68796" lon="5.62131">
        <ele>246.203</ele>
        <time>2019-09-23T08:41:54.000Z</time>
      </trkpt>
      <trkpt lat="48.68794" lon="5.62123">
        <ele>246.43</ele>
        <time>2019-09-23T08:42:00.000Z</time>
      </trkpt>
      <trkpt lat="48.68793" lon="5.62122">
        <ele>246.652</ele>
        <time>2019-09-23T08:42:03.000Z</time>
      </trkpt>
      <trkpt lat="48.68792" lon="5.62121">
        <ele>246.629</ele>
        <time>2019-09-23T08:46:18.000Z</time>
      </trkpt>
      <trkpt lat="48.68792" lon="5.62119">
        <ele>246.071</ele>
        <time>2019-09-23T08:46:21.000Z</time>
      </trkpt>
      <trkpt lat="48.68783" lon="5.62116">
        <ele>246.316</ele>
        <time>2019-09-23T08:46:27.000Z</time>
      </trkpt>
      <trkpt lat="48.68778" lon="5.62125">
        <ele>246.393</ele>
        <time>2019-09-23T08:46:30.000Z</time>
      </trkpt>
      <trkpt lat="48.68772" lon="5.62131">
        <ele>246.647</ele>
        <time>2019-09-23T08:46:33.000Z</time>
      </trkpt>
      <trkpt lat="48.68763" lon="5.62134">
        <ele>246.614</ele>
        <time>2019-09-23T08:46:36.000Z</time>
      </trkpt>
      <trkpt lat="48.68757" lon="5.62135">
        <ele>247.752</ele>
        <time>2019-09-23T08:46:39.000Z</time>
      </trkpt>
      <trkpt lat="48.6875" lon="5.62135">
        <ele>248.868</ele>
        <time>2019-09-23T08:46:42.000Z</time>
      </trkpt>
      <trkpt lat="48.68744" lon="5.62134">
        <ele>249.55</ele>
        <time>2019-09-23T08:46:45.000Z</time>
      </trkpt>
      <trkpt lat="48.68739" lon="5.62133">
        <ele>250.003</ele>
        <time>2019-09-23T08:46:48.000Z</time>
      </trkpt>
      <trkpt lat="48.68733" lon="5.62133">
        <ele>249.255</ele>
        <time>2019-09-23T08:46:51.000Z</time>
      </trkpt>
      <trkpt lat="48.68724" lon="5.62132">
        <ele>249.207</ele>
        <time>2019-09-23T08:46:54.000Z</time>
      </trkpt>
      <trkpt lat="48.68717" lon="5.62131">
        <ele>249.974</ele>
        <time>2019-09-23T08:46:57.000Z</time>
      </trkpt>
      <trkpt lat="48.68711" lon="5.62131">
        <ele>249.659</ele>
        <time>2019-09-23T08:47:00.000Z</time>
      </trkpt>
      <trkpt lat="48.68703" lon="5.62131">
        <ele>249.036</ele>
        <time>2019-09-23T08:47:03.000Z</time>
      </trkpt>
      <trkpt lat="48.68695" lon="5.62131">
        <ele>248.999</ele>
        <time>2019-09-23T08:47:06.000Z</time>
      </trkpt>
      <trkpt lat="48.68688" lon="5.6213">
        <ele>249.167</ele>
        <time>2019-09-23T08:47:09.000Z</time>
      </trkpt>
      <trkpt lat="48.6868" lon="5.6213">
        <ele>249.086</ele>
        <time>2019-09-23T08:47:12.000Z</time>
      </trkpt>
      <trkpt lat="48.68673" lon="5.62129">
        <ele>249.055</ele>
        <time>2019-09-23T08:47:15.000Z</time>
      </trkpt>
      <trkpt lat="48.68666" lon="5.62128">
        <ele>249.194</ele>
        <time>2019-09-23T08:47:18.000Z</time>
      </trkpt>
      <trkpt lat="48.68659" lon="5.62126">
        <ele>249.503</ele>
        <time>2019-09-23T08:47:21.000Z</time>
      </trkpt>
      <trkpt lat="48.68653" lon="5.62126">
        <ele>249.868</ele>
        <time>2019-09-23T08:47:24.000Z</time>
      </trkpt>
      <trkpt lat="48.68646" lon="5.62126">
        <ele>249.803</ele>
        <time>2019-09-23T08:47:27.000Z</time>
      </trkpt>
      <trkpt lat="48.68637" lon="5.62127">
        <ele>250.199</ele>
        <time>2019-09-23T08:47:30.000Z</time>
      </trkpt>
      <trkpt lat="48.6863" lon="5.62125">
        <ele>249.957</ele>
        <time>2019-09-23T08:47:33.000Z</time>
      </trkpt>
      <trkpt lat="48.68622" lon="5.62123">
        <ele>249.931</ele>
        <time>2019-09-23T08:47:36.000Z</time>
      </trkpt>
      <trkpt lat="48.68613" lon="5.62121">
        <ele>250.273</ele>
        <time>2019-09-23T08:47:39.000Z</time>
      </trkpt>
      <trkpt lat="48.68603" lon="5.6212">
        <ele>250.506</ele>
        <time>2019-09-23T08:47:42.000Z</time>
      </trkpt>
      <trkpt lat="48.68592" lon="5.62119">
        <ele>250.503</ele>
        <time>2019-09-23T08:47:45.000Z</time>
      </trkpt>
      <trkpt lat="48.68579" lon="5.62118">
        <ele>250.676</ele>
        <time>2019-09-23T08:47:48.000Z</time>
      </trkpt>
      <trkpt lat="48.68565" lon="5.62117">
        <ele>251.235</ele>
        <time>2019-09-23T08:47:51.000Z</time>
      </trkpt>
      <trkpt lat="48.6855" lon="5.62115">
        <ele>251.356</ele>
        <time>2019-09-23T08:47:54.000Z</time>
      </trkpt>
      <trkpt lat="48.68535" lon="5.62114">
        <ele>251.402</ele>
        <time>2019-09-23T08:47:57.000Z</time>
      </trkpt>
      <trkpt lat="48.6852" lon="5.62113">
        <ele>251.433</ele>
        <time>2019-09-23T08:48:00.000Z</time>
      </trkpt>
      <trkpt lat="48.68506" lon="5.62113">
        <ele>251.387</ele>
        <time>2019-09-23T08:48:03.000Z</time>
      </trkpt>
      <trkpt lat="48.68494" lon="5.62112">
        <ele>251.885</ele>
        <time>2019-09-23T08:48:06.000Z</time>
      </trkpt>
      <trkpt lat="48.68484" lon="5.62113">
        <ele>252.418</ele>
        <time>2019-09-23T08:48:09.000Z</time>
      </trkpt>
      <trkpt lat="48.68475" lon="5.62113">
        <ele>253.014</ele>
        <time>2019-09-23T08:48:12.000Z</time>
      </trkpt>
      <trkpt lat="48.68467" lon="5.62113">
        <ele>254.01</ele>
        <time>2019-09-23T08:48:15.000Z</time>
      </trkpt>
      <trkpt lat="48.6846" lon="5.62114">
        <ele>254.954</ele>
        <time>2019-09-23T08:48:18.000Z</time>
      </trkpt>
      <trkpt lat="48.68451" lon="5.62116">
        <ele>256.079</ele>
        <time>2019-09-23T08:48:21.000Z</time>
      </trkpt>
      <trkpt lat="48.68444" lon="5.62115">
        <ele>256.582</ele>
        <time>2019-09-23T08:48:24.000Z</time>
      </trkpt>
      <trkpt lat="48.68439" lon="5.62108">
        <ele>257.514</ele>
        <time>2019-09-23T08:48:27.000Z</time>
      </trkpt>
      <trkpt lat="48.68437" lon="5.62095">
        <ele>257.498</ele>
        <time>2019-09-23T08:48:30.000Z</time>
      </trkpt>
      <trkpt lat="48.68445" lon="5.62087">
        <ele>257.514</ele>
        <time>2019-09-23T08:48:33.000Z</time>
      </trkpt>
      <trkpt lat="48.68461" lon="5.62095">
        <ele>257.321</ele>
        <time>2019-09-23T08:48:36.000Z</time>
      </trkpt>
      <trkpt lat="48.68476" lon="5.62101">
        <ele>257.581</ele>
        <time>2019-09-23T08:48:39.000Z</time>
      </trkpt>
      <trkpt lat="48.68492" lon="5.62101">
        <ele>257.417</ele>
        <time>2019-09-23T08:48:42.000Z</time>
      </trkpt>
      <trkpt lat="48.68511" lon="5.62099">
        <ele>257.794</ele>
        <time>2019-09-23T08:48:45.000Z</time>
      </trkpt>
      <trkpt lat="48.68532" lon="5.62093">
        <ele>257.725</ele>
        <time>2019-09-23T08:48:48.000Z</time>
      </trkpt>
      <trkpt lat="48.68554" lon="5.62086">
        <ele>256.743</ele>
        <time>2019-09-23T08:48:51.000Z</time>
      </trkpt>
      <trkpt lat="48.68571" lon="5.62084">
        <ele>255.228</ele>
        <time>2019-09-23T08:48:54.000Z</time>
      </trkpt>
      <trkpt lat="48.68585" lon="5.62103">
        <ele>253.583</ele>
        <time>2019-09-23T08:48:57.000Z</time>
      </trkpt>
      <trkpt lat="48.68595" lon="5.62127">
        <ele>253.017</ele>
        <time>2019-09-23T08:49:00.000Z</time>
      </trkpt>
      <trkpt lat="48.68605" lon="5.62151">
        <ele>252.432</ele>
        <time>2019-09-23T08:49:03.000Z</time>
      </trkpt>
      <trkpt lat="48.68616" lon="5.62175">
        <ele>252.046</ele>
        <time>2019-09-23T08:49:06.000Z</time>
      </trkpt>
      <trkpt lat="48.68623" lon="5.62195">
        <ele>251.211</ele>
        <time>2019-09-23T08:49:09.000Z</time>
      </trkpt>
      <trkpt lat="48.6863" lon="5.62211">
        <ele>250.57</ele>
        <time>2019-09-23T08:49:12.000Z</time>
      </trkpt>
      <trkpt lat="48.68637" lon="5.62226">
        <ele>250.336</ele>
        <time>2019-09-23T08:49:15.000Z</time>
      </trkpt>
      <trkpt lat="48.68644" lon="5.62243">
        <ele>249.953</ele>
        <time>2019-09-23T08:49:18.000Z</time>
      </trkpt>
      <trkpt lat="48.68653" lon="5.62261">
        <ele>249.611</ele>
        <time>2019-09-23T08:49:21.000Z</time>
      </trkpt>
      <trkpt lat="48.68662" lon="5.62277">
        <ele>249.92</ele>
        <time>2019-09-23T08:49:24.000Z</time>
      </trkpt>
      <trkpt lat="48.68668" lon="5.62293">
        <ele>250.007</ele>
        <time>2019-09-23T08:49:27.000Z</time>
      </trkpt>
      <trkpt lat="48.68674" lon="5.6231">
        <ele>250.975</ele>
        <time>2019-09-23T08:49:30.000Z</time>
      </trkpt>
      <trkpt lat="48.68682" lon="5.62326">
        <ele>250.705</ele>
        <time>2019-09-23T08:49:33.000Z</time>
      </trkpt>
      <trkpt lat="48.68689" lon="5.62343">
        <ele>250.217</ele>
        <time>2019-09-23T08:49:36.000Z</time>
      </trkpt>
      <trkpt lat="48.68694" lon="5.62359">
        <ele>250.442</ele>
        <time>2019-09-23T08:49:39.000Z</time>
      </trkpt>
      <trkpt lat="48.687" lon="5.62372">
        <ele>251.006</ele>
        <time>2019-09-23T08:49:42.000Z</time>
      </trkpt>
      <trkpt lat="48.68705" lon="5.62384">
        <ele>252.031</ele>
        <time>2019-09-23T08:49:45.000Z</time>
      </trkpt>
      <trkpt lat="48.6871" lon="5.62394">
        <ele>252.933</ele>
        <time>2019-09-23T08:49:48.000Z</time>
      </trkpt>
      <trkpt lat="48.68714" lon="5.62406">
        <ele>253.766</ele>
        <time>2019-09-23T08:49:51.000Z</time>
      </trkpt>
      <trkpt lat="48.68716" lon="5.6242">
        <ele>253.467</ele>
        <time>2019-09-23T08:49:54.000Z</time>
      </trkpt>
      <trkpt lat="48.68718" lon="5.6244">
        <ele>253.406</ele>
        <time>2019-09-23T08:49:57.000Z</time>
      </trkpt>
      <trkpt lat="48.68721" lon="5.62463">
        <ele>254.271</ele>
        <time>2019-09-23T08:50:00.000Z</time>
      </trkpt>
      <trkpt lat="48.68726" lon="5.62487">
        <ele>255.603</ele>
        <time>2019-09-23T08:50:03.000Z</time>
      </trkpt>
      <trkpt lat="48.68729" lon="5.62508">
        <ele>256.735</ele>
        <time>2019-09-23T08:50:06.000Z</time>
      </trkpt>
      <trkpt lat="48.68731" lon="5.62527">
        <ele>257.72</ele>
        <time>2019-09-23T08:50:09.000Z</time>
      </trkpt>
      <trkpt lat="48.68732" lon="5.62545">
        <ele>259.128</ele>
        <time>2019-09-23T08:50:12.000Z</time>
      </trkpt>
      <trkpt lat="48.68733" lon="5.62562">
        <ele>259.771</ele>
        <time>2019-09-23T08:50:15.000Z</time>
      </trkpt>
      <trkpt lat="48.68733" lon="5.62578">
        <ele>260.464</ele>
        <time>2019-09-23T08:50:18.000Z</time>
      </trkpt>
      <trkpt lat="48.68733" lon="5.62596">
        <ele>261.268</ele>
        <time>2019-09-23T08:50:21.000Z</time>
      </trkpt>
      <trkpt lat="48.68733" lon="5.62614">
        <ele>262.18</ele>
        <time>2019-09-23T08:50:24.000Z</time>
      </trkpt>
      <trkpt lat="48.68731" lon="5.62629">
        <ele>262.84</ele>
        <time>2019-09-23T08:50:27.000Z</time>
      </trkpt>
      <trkpt lat="48.6873" lon="5.62643">
        <ele>262.912</ele>
        <time>2019-09-23T08:50:30.000Z</time>
      </trkpt>
      <trkpt lat="48.68728" lon="5.62655">
        <ele>262.748</ele>
        <time>2019-09-23T08:50:33.000Z</time>
      </trkpt>
      <trkpt lat="48.68726" lon="5.6267">
        <ele>262.728</ele>
        <time>2019-09-23T08:50:36.000Z</time>
      </trkpt>
      <trkpt lat="48.68722" lon="5.62682">
        <ele>262.916</ele>
        <time>2019-09-23T08:50:39.000Z</time>
      </trkpt>
      <trkpt lat="48.68718" lon="5.62703">
        <ele>262.605</ele>
        <time>2019-09-23T08:50:42.000Z</time>
      </trkpt>
      <trkpt lat="48.6871" lon="5.62727">
        <ele>262.406</ele>
        <time>2019-09-23T08:50:45.000Z</time>
      </trkpt>
      <trkpt lat="48.68702" lon="5.62752">
        <ele>261.728</ele>
        <time>2019-09-23T08:50:48.000Z</time>
      </trkpt>
      <trkpt lat="48.68692" lon="5.62773">
        <ele>261.587</ele>
        <time>2019-09-23T08:50:51.000Z</time>
      </trkpt>
      <trkpt lat="48.68682" lon="5.62796">
        <ele>261.119</ele>
        <time>2019-09-23T08:50:54.000Z</time>
      </trkpt>
      <trkpt lat="48.68669" lon="5.6282">
        <ele>259.621</ele>
        <time>2019-09-23T08:50:57.000Z</time>
      </trkpt>
      <trkpt lat="48.68658" lon="5.62843">
        <ele>258.185</ele>
        <time>2019-09-23T08:51:00.000Z</time>
      </trkpt>
      <trkpt lat="48.68648" lon="5.62873">
        <ele>256.3</ele>
        <time>2019-09-23T08:51:03.000Z</time>
      </trkpt>
      <trkpt lat="48.68638" lon="5.629">
        <ele>256.068</ele>
        <time>2019-09-23T08:51:06.000Z</time>
      </trkpt>
      <trkpt lat="48.68628" lon="5.62925">
        <ele>255.563</ele>
        <time>2019-09-23T08:51:09.000Z</time>
      </trkpt>
      <trkpt lat="48.68617" lon="5.62951">
        <ele>253.794</ele>
        <time>2019-09-23T08:51:12.000Z</time>
      </trkpt>
      <trkpt lat="48.68604" lon="5.62978">
        <ele>252.348</ele>
        <time>2019-09-23T08:51:15.000Z</time>
      </trkpt>
      <trkpt lat="48.68595" lon="5.63">
        <ele>251.585</ele>
        <time>2019-09-23T08:51:18.000Z</time>
      </trkpt>
      <trkpt lat="48.68584" lon="5.63019">
        <ele>251.895</ele>
        <time>2019-09-23T08:51:21.000Z</time>
      </trkpt>
      <trkpt lat="48.68573" lon="5.63034">
        <ele>251.251</ele>
        <time>2019-09-23T08:51:24.000Z</time>
      </trkpt>
      <trkpt lat="48.6856" lon="5.63046">
        <ele>250.618</ele>
        <time>2019-09-23T08:51:27.000Z</time>
      </trkpt>
      <trkpt lat="48.68548" lon="5.63059">
        <ele>250.383</ele>
        <time>2019-09-23T08:51:30.000Z</time>
      </trkpt>
      <trkpt lat="48.68535" lon="5.63072">
        <ele>251.141</ele>
        <time>2019-09-23T08:51:33.000Z</time>
      </trkpt>
      <trkpt lat="48.68522" lon="5.63086">
        <ele>251.246</ele>
        <time>2019-09-23T08:51:36.000Z</time>
      </trkpt>
      <trkpt lat="48.68508" lon="5.63101">
        <ele>250.226</ele>
        <time>2019-09-23T08:51:39.000Z</time>
      </trkpt>
      <trkpt lat="48.68496" lon="5.63114">
        <ele>249.274</ele>
        <time>2019-09-23T08:51:42.000Z</time>
      </trkpt>
      <trkpt lat="48.68483" lon="5.63129">
        <ele>249.215</ele>
        <time>2019-09-23T08:51:45.000Z</time>
      </trkpt>
      <trkpt lat="48.68469" lon="5.63146">
        <ele>250.066</ele>
        <time>2019-09-23T08:51:48.000Z</time>
      </trkpt>
      <trkpt lat="48.68455" lon="5.63164">
        <ele>248.871</ele>
        <time>2019-09-23T08:51:51.000Z</time>
      </trkpt>
      <trkpt lat="48.68443" lon="5.63181">
        <ele>248.289</ele>
        <time>2019-09-23T08:51:54.000Z</time>
      </trkpt>
      <trkpt lat="48.68431" lon="5.63198">
        <ele>248.051</ele>
        <time>2019-09-23T08:51:57.000Z</time>
      </trkpt>
      <trkpt lat="48.6842" lon="5.63215">
        <ele>247.24</ele>
        <time>2019-09-23T08:52:00.000Z</time>
      </trkpt>
      <trkpt lat="48.68411" lon="5.63232">
        <ele>246.836</ele>
        <time>2019-09-23T08:52:03.000Z</time>
      </trkpt>
      <trkpt lat="48.68401" lon="5.6325">
        <ele>245.863</ele>
        <time>2019-09-23T08:52:06.000Z</time>
      </trkpt>
      <trkpt lat="48.68392" lon="5.63268">
        <ele>245.51</ele>
        <time>2019-09-23T08:52:09.000Z</time>
      </trkpt>
      <trkpt lat="48.68384" lon="5.63285">
        <ele>244.865</ele>
        <time>2019-09-23T08:52:12.000Z</time>
      </trkpt>
      <trkpt lat="48.68376" lon="5.63302">
        <ele>244.195</ele>
        <time>2019-09-23T08:52:15.000Z</time>
      </trkpt>
      <trkpt lat="48.68368" lon="5.6332">
        <ele>243.642</ele>
        <time>2019-09-23T08:52:18.000Z</time>
      </trkpt>
      <trkpt lat="48.6836" lon="5.63337">
        <ele>243.339</ele>
        <time>2019-09-23T08:52:21.000Z</time>
      </trkpt>
      <trkpt lat="48.68351" lon="5.63355">
        <ele>243.263</ele>
        <time>2019-09-23T08:52:24.000Z</time>
      </trkpt>
      <trkpt lat="48.68341" lon="5.63372">
        <ele>243.564</ele>
        <time>2019-09-23T08:52:27.000Z</time>
      </trkpt>
      <trkpt lat="48.68332" lon="5.63389">
        <ele>244.132</ele>
        <time>2019-09-23T08:52:30.000Z</time>
      </trkpt>
      <trkpt lat="48.68322" lon="5.63404">
        <ele>244.308</ele>
        <time>2019-09-23T08:52:33.000Z</time>
      </trkpt>
      <trkpt lat="48.68312" lon="5.63419">
        <ele>245.265</ele>
        <time>2019-09-23T08:52:36.000Z</time>
      </trkpt>
      <trkpt lat="48.68303" lon="5.63434">
        <ele>245.881</ele>
        <time>2019-09-23T08:52:39.000Z</time>
      </trkpt>
      <trkpt lat="48.68293" lon="5.63447">
        <ele>246.13</ele>
        <time>2019-09-23T08:52:42.000Z</time>
      </trkpt>
      <trkpt lat="48.68283" lon="5.63461">
        <ele>245.844</ele>
        <time>2019-09-23T08:52:45.000Z</time>
      </trkpt>
      <trkpt lat="48.68273" lon="5.63475">
        <ele>245.925</ele>
        <time>2019-09-23T08:52:48.000Z</time>
      </trkpt>
      <trkpt lat="48.68263" lon="5.63487">
        <ele>245.799</ele>
        <time>2019-09-23T08:52:51.000Z</time>
      </trkpt>
      <trkpt lat="48.68253" lon="5.63499">
        <ele>245.792</ele>
        <time>2019-09-23T08:52:54.000Z</time>
      </trkpt>
      <trkpt lat="48.68244" lon="5.6351">
        <ele>245.48</ele>
        <time>2019-09-23T08:52:57.000Z</time>
      </trkpt>
      <trkpt lat="48.68234" lon="5.63522">
        <ele>245.478</ele>
        <time>2019-09-23T08:53:00.000Z</time>
      </trkpt>
      <trkpt lat="48.68225" lon="5.63534">
        <ele>245.627</ele>
        <time>2019-09-23T08:53:03.000Z</time>
      </trkpt>
      <trkpt lat="48.68215" lon="5.63545">
        <ele>246.153</ele>
        <time>2019-09-23T08:53:06.000Z</time>
      </trkpt>
      <trkpt lat="48.68206" lon="5.63557">
        <ele>246.472</ele>
        <time>2019-09-23T08:53:09.000Z</time>
      </trkpt>
      <trkpt lat="48.68197" lon="5.63568">
        <ele>246.903</ele>
        <time>2019-09-23T08:53:12.000Z</time>
      </trkpt>
      <trkpt lat="48.68188" lon="5.63579">
        <ele>247.234</ele>
        <time>2019-09-23T08:53:15.000Z</time>
      </trkpt>
      <trkpt lat="48.6818" lon="5.6359">
        <ele>247.59</ele>
        <time>2019-09-23T08:53:18.000Z</time>
      </trkpt>
      <trkpt lat="48.68172" lon="5.63601">
        <ele>248.108</ele>
        <time>2019-09-23T08:53:21.000Z</time>
      </trkpt>
      <trkpt lat="48.68164" lon="5.63613">
        <ele>248.62</ele>
        <time>2019-09-23T08:53:24.000Z</time>
      </trkpt>
      <trkpt lat="48.68157" lon="5.63625">
        <ele>248.764</ele>
        <time>2019-09-23T08:53:27.000Z</time>
      </trkpt>
      <trkpt lat="48.68149" lon="5.63637">
        <ele>249.067</ele>
        <time>2019-09-23T08:53:30.000Z</time>
      </trkpt>
      <trkpt lat="48.68142" lon="5.63649">
        <ele>249.437</ele>
        <time>2019-09-23T08:53:33.000Z</time>
      </trkpt>
      <trkpt lat="48.68135" lon="5.6366">
        <ele>249.742</ele>
        <time>2019-09-23T08:53:36.000Z</time>
      </trkpt>
      <trkpt lat="48.6813" lon="5.63671">
        <ele>249.407</ele>
        <time>2019-09-23T08:53:39.000Z</time>
      </trkpt>
      <trkpt lat="48.68122" lon="5.63681">
        <ele>249.709</ele>
        <time>2019-09-23T08:53:42.000Z</time>
      </trkpt>
      <trkpt lat="48.68116" lon="5.63692">
        <ele>249.917</ele>
        <time>2019-09-23T08:53:45.000Z</time>
      </trkpt>
      <trkpt lat="48.6811" lon="5.63704">
        <ele>249.93</ele>
        <time>2019-09-23T08:53:48.000Z</time>
      </trkpt>
      <trkpt lat="48.68104" lon="5.63714">
        <ele>250.241</ele>
        <time>2019-09-23T08:53:51.000Z</time>
      </trkpt>
      <trkpt lat="48.68098" lon="5.63724">
        <ele>250.344</ele>
        <time>2019-09-23T08:53:54.000Z</time>
      </trkpt>
      <trkpt lat="48.68091" lon="5.63735">
        <ele>250.001</ele>
        <time>2019-09-23T08:53:57.000Z</time>
      </trkpt>
      <trkpt lat="48.68085" lon="5.63745">
        <ele>249.925</ele>
        <time>2019-09-23T08:54:00.000Z</time>
      </trkpt>
      <trkpt lat="48.68078" lon="5.63755">
        <ele>250.453</ele>
        <time>2019-09-23T08:54:03.000Z</time>
      </trkpt>
      <trkpt lat="48.68072" lon="5.63765">
        <ele>250.864</ele>
        <time>2019-09-23T08:54:06.000Z</time>
      </trkpt>
      <trkpt lat="48.68066" lon="5.63774">
        <ele>251.299</ele>
        <time>2019-09-23T08:54:09.000Z</time>
      </trkpt>
      <trkpt lat="48.68059" lon="5.63784">
        <ele>251.368</ele>
        <time>2019-09-23T08:54:12.000Z</time>
      </trkpt>
      <trkpt lat="48.68053" lon="5.63794">
        <ele>251.385</ele>
        <time>2019-09-23T08:54:15.000Z</time>
      </trkpt>
      <trkpt lat="48.68047" lon="5.63804">
        <ele>251.225</ele>
        <time>2019-09-23T08:54:18.000Z</time>
      </trkpt>
      <trkpt lat="48.68042" lon="5.63814">
        <ele>251.189</ele>
        <time>2019-09-23T08:54:21.000Z</time>
      </trkpt>
      <trkpt lat="48.68036" lon="5.63823">
        <ele>251.093</ele>
        <time>2019-09-23T08:54:24.000Z</time>
      </trkpt>
      <trkpt lat="48.6803" lon="5.63833">
        <ele>251.03</ele>
        <time>2019-09-23T08:54:27.000Z</time>
      </trkpt>
      <trkpt lat="48.68024" lon="5.63842">
        <ele>250.757</ele>
        <time>2019-09-23T08:54:30.000Z</time>
      </trkpt>
      <trkpt lat="48.68018" lon="5.63853">
        <ele>250.673</ele>
        <time>2019-09-23T08:54:33.000Z</time>
      </trkpt>
      <trkpt lat="48.68011" lon="5.63865">
        <ele>250.967</ele>
        <time>2019-09-23T08:54:36.000Z</time>
      </trkpt>
      <trkpt lat="48.68005" lon="5.63877">
        <ele>251.561</ele>
        <time>2019-09-23T08:54:39.000Z</time>
      </trkpt>
      <trkpt lat="48.67998" lon="5.63889">
        <ele>251.928</ele>
        <time>2019-09-23T08:54:42.000Z</time>
      </trkpt>
      <trkpt lat="48.6799" lon="5.63901">
        <ele>252.318</ele>
        <time>2019-09-23T08:54:45.000Z</time>
      </trkpt>
      <trkpt lat="48.67983" lon="5.63913">
        <ele>252.694</ele>
        <time>2019-09-23T08:54:48.000Z</time>
      </trkpt>
      <trkpt lat="48.67976" lon="5.63924">
        <ele>253.479</ele>
        <time>2019-09-23T08:54:51.000Z</time>
      </trkpt>
      <trkpt lat="48.67969" lon="5.63935">
        <ele>253.866</ele>
        <time>2019-09-23T08:54:54.000Z</time>
      </trkpt>
      <trkpt lat="48.67962" lon="5.63947">
        <ele>253.767</ele>
        <time>2019-09-23T08:54:57.000Z</time>
      </trkpt>
      <trkpt lat="48.67954" lon="5.6396">
        <ele>253.377</ele>
        <time>2019-09-23T08:55:00.000Z</time>
      </trkpt>
      <trkpt lat="48.67947" lon="5.63974">
        <ele>253.646</ele>
        <time>2019-09-23T08:55:03.000Z</time>
      </trkpt>
      <trkpt lat="48.67939" lon="5.63988">
        <ele>253.642</ele>
        <time>2019-09-23T08:55:06.000Z</time>
      </trkpt>
      <trkpt lat="48.67931" lon="5.64002">
        <ele>253.658</ele>
        <time>2019-09-23T08:55:09.000Z</time>
      </trkpt>
      <trkpt lat="48.67923" lon="5.64015">
        <ele>253.732</ele>
        <time>2019-09-23T08:55:12.000Z</time>
      </trkpt>
      <trkpt lat="48.67915" lon="5.64029">
        <ele>253.848</ele>
        <time>2019-09-23T08:55:15.000Z</time>
      </trkpt>
      <trkpt lat="48.67908" lon="5.64042">
        <ele>253.776</ele>
        <time>2019-09-23T08:55:18.000Z</time>
      </trkpt>
      <trkpt lat="48.679" lon="5.64055">
        <ele>254.002</ele>
        <time>2019-09-23T08:55:21.000Z</time>
      </trkpt>
      <trkpt lat="48.67893" lon="5.64068">
        <ele>254.131</ele>
        <time>2019-09-23T08:55:24.000Z</time>
      </trkpt>
      <trkpt lat="48.67885" lon="5.64082">
        <ele>254.435</ele>
        <time>2019-09-23T08:55:27.000Z</time>
      </trkpt>
      <trkpt lat="48.67877" lon="5.64095">
        <ele>254.377</ele>
        <time>2019-09-23T08:55:30.000Z</time>
      </trkpt>
      <trkpt lat="48.6787" lon="5.64107">
        <ele>254.509</ele>
        <time>2019-09-23T08:55:33.000Z</time>
      </trkpt>
      <trkpt lat="48.67863" lon="5.64119">
        <ele>254.537</ele>
        <time>2019-09-23T08:55:36.000Z</time>
      </trkpt>
      <trkpt lat="48.67856" lon="5.64131">
        <ele>254.209</ele>
        <time>2019-09-23T08:55:39.000Z</time>
      </trkpt>
      <trkpt lat="48.67848" lon="5.64143">
        <ele>254.358</ele>
        <time>2019-09-23T08:55:42.000Z</time>
      </trkpt>
      <trkpt lat="48.67841" lon="5.64154">
        <ele>254.65</ele>
        <time>2019-09-23T08:55:45.000Z</time>
      </trkpt>
      <trkpt lat="48.67835" lon="5.64165">
        <ele>254.977</ele>
        <time>2019-09-23T08:55:48.000Z</time>
      </trkpt>
      <trkpt lat="48.67828" lon="5.64176">
        <ele>255.508</ele>
        <time>2019-09-23T08:55:51.000Z</time>
      </trkpt>
      <trkpt lat="48.6782" lon="5.64187">
        <ele>255.966</ele>
        <time>2019-09-23T08:55:54.000Z</time>
      </trkpt>
      <trkpt lat="48.67813" lon="5.64197">
        <ele>256.403</ele>
        <time>2019-09-23T08:55:57.000Z</time>
      </trkpt>
      <trkpt lat="48.67807" lon="5.64209">
        <ele>256.941</ele>
        <time>2019-09-23T08:56:00.000Z</time>
      </trkpt>
      <trkpt lat="48.678" lon="5.64222">
        <ele>257.396</ele>
        <time>2019-09-23T08:56:03.000Z</time>
      </trkpt>
      <trkpt lat="48.67793" lon="5.64233">
        <ele>258.037</ele>
        <time>2019-09-23T08:56:06.000Z</time>
      </trkpt>
      <trkpt lat="48.67786" lon="5.64243">
        <ele>258.54</ele>
        <time>2019-09-23T08:56:09.000Z</time>
      </trkpt>
      <trkpt lat="48.6778" lon="5.64257">
        <ele>258.595</ele>
        <time>2019-09-23T08:56:12.000Z</time>
      </trkpt>
      <trkpt lat="48.67774" lon="5.6427">
        <ele>258.631</ele>
        <time>2019-09-23T08:56:15.000Z</time>
      </trkpt>
      <trkpt lat="48.67768" lon="5.64283">
        <ele>258.867</ele>
        <time>2019-09-23T08:56:18.000Z</time>
      </trkpt>
      <trkpt lat="48.67762" lon="5.64295">
        <ele>259.133</ele>
        <time>2019-09-23T08:56:21.000Z</time>
      </trkpt>
      <trkpt lat="48.67756" lon="5.64307">
        <ele>259.146</ele>
        <time>2019-09-23T08:56:24.000Z</time>
      </trkpt>
      <trkpt lat="48.67751" lon="5.64318">
        <ele>259.253</ele>
        <time>2019-09-23T08:56:27.000Z</time>
      </trkpt>
      <trkpt lat="48.67746" lon="5.64332">
        <ele>259.02</ele>
        <time>2019-09-23T08:56:30.000Z</time>
      </trkpt>
      <trkpt lat="48.67741" lon="5.64344">
        <ele>258.946</ele>
        <time>2019-09-23T08:56:33.000Z</time>
      </trkpt>
      <trkpt lat="48.67737" lon="5.64357">
        <ele>259.153</ele>
        <time>2019-09-23T08:56:36.000Z</time>
      </trkpt>
      <trkpt lat="48.67734" lon="5.6437">
        <ele>259.271</ele>
        <time>2019-09-23T08:56:39.000Z</time>
      </trkpt>
      <trkpt lat="48.6773" lon="5.64383">
        <ele>259.656</ele>
        <time>2019-09-23T08:56:42.000Z</time>
      </trkpt>
      <trkpt lat="48.67727" lon="5.64394">
        <ele>259.976</ele>
        <time>2019-09-23T08:56:45.000Z</time>
      </trkpt>
      <trkpt lat="48.67723" lon="5.64406">
        <ele>260.348</ele>
        <time>2019-09-23T08:56:48.000Z</time>
      </trkpt>
      <trkpt lat="48.67719" lon="5.64418">
        <ele>260.876</ele>
        <time>2019-09-23T08:56:51.000Z</time>
      </trkpt>
      <trkpt lat="48.67715" lon="5.6443">
        <ele>261.55</ele>
        <time>2019-09-23T08:56:54.000Z</time>
      </trkpt>
      <trkpt lat="48.67712" lon="5.64442">
        <ele>261.87</ele>
        <time>2019-09-23T08:56:57.000Z</time>
      </trkpt>
      <trkpt lat="48.67709" lon="5.64453">
        <ele>261.764</ele>
        <time>2019-09-23T08:57:00.000Z</time>
      </trkpt>
      <trkpt lat="48.67707" lon="5.64466">
        <ele>261.363</ele>
        <time>2019-09-23T08:57:03.000Z</time>
      </trkpt>
      <trkpt lat="48.67705" lon="5.64478">
        <ele>260.985</ele>
        <time>2019-09-23T08:57:06.000Z</time>
      </trkpt>
      <trkpt lat="48.67703" lon="5.6449">
        <ele>260.774</ele>
        <time>2019-09-23T08:57:09.000Z</time>
      </trkpt>
      <trkpt lat="48.677" lon="5.64502">
        <ele>260.686</ele>
        <time>2019-09-23T08:57:12.000Z</time>
      </trkpt>
      <trkpt lat="48.67697" lon="5.64514">
        <ele>260.551</ele>
        <time>2019-09-23T08:57:15.000Z</time>
      </trkpt>
      <trkpt lat="48.67694" lon="5.64526">
        <ele>260.616</ele>
        <time>2019-09-23T08:57:18.000Z</time>
      </trkpt>
      <trkpt lat="48.67692" lon="5.64537">
        <ele>260.825</ele>
        <time>2019-09-23T08:57:21.000Z</time>
      </trkpt>
      <trkpt lat="48.67689" lon="5.64549">
        <ele>261.163</ele>
        <time>2019-09-23T08:57:24.000Z</time>
      </trkpt>
      <trkpt lat="48.67687" lon="5.64561">
        <ele>261.52</ele>
        <time>2019-09-23T08:57:27.000Z</time>
      </trkpt>
      <trkpt lat="48.67684" lon="5.64573">
        <ele>261.313</ele>
        <time>2019-09-23T08:57:30.000Z</time>
      </trkpt>
      <trkpt lat="48.67681" lon="5.64584">
        <ele>261.198</ele>
        <time>2019-09-23T08:57:33.000Z</time>
      </trkpt>
      <trkpt lat="48.67679" lon="5.64597">
        <ele>261.666</ele>
        <time>2019-09-23T08:57:36.000Z</time>
      </trkpt>
      <trkpt lat="48.67676" lon="5.64608">
        <ele>262.06</ele>
        <time>2019-09-23T08:57:39.000Z</time>
      </trkpt>
      <trkpt lat="48.67671" lon="5.6462">
        <ele>262.401</ele>
        <time>2019-09-23T08:57:42.000Z</time>
      </trkpt>
      <trkpt lat="48.67669" lon="5.64631">
        <ele>263.019</ele>
        <time>2019-09-23T08:57:45.000Z</time>
      </trkpt>
      <trkpt lat="48.67665" lon="5.64642">
        <ele>264.437</ele>
        <time>2019-09-23T08:57:48.000Z</time>
      </trkpt>
      <trkpt lat="48.67661" lon="5.64654">
        <ele>265.629</ele>
        <time>2019-09-23T08:57:51.000Z</time>
      </trkpt>
      <trkpt lat="48.67658" lon="5.64664">
        <ele>266.334</ele>
        <time>2019-09-23T08:57:54.000Z</time>
      </trkpt>
      <trkpt lat="48.67654" lon="5.64674">
        <ele>267.108</ele>
        <time>2019-09-23T08:57:57.000Z</time>
      </trkpt>
      <trkpt lat="48.6765" lon="5.64684">
        <ele>267.665</ele>
        <time>2019-09-23T08:58:00.000Z</time>
      </trkpt>
      <trkpt lat="48.67647" lon="5.64695">
        <ele>268.184</ele>
        <time>2019-09-23T08:58:03.000Z</time>
      </trkpt>
      <trkpt lat="48.67645" lon="5.64705">
        <ele>268.186</ele>
        <time>2019-09-23T08:58:06.000Z</time>
      </trkpt>
      <trkpt lat="48.67641" lon="5.64715">
        <ele>268.201</ele>
        <time>2019-09-23T08:58:09.000Z</time>
      </trkpt>
      <trkpt lat="48.67638" lon="5.64726">
        <ele>268.449</ele>
        <time>2019-09-23T08:58:12.000Z</time>
      </trkpt>
      <trkpt lat="48.67634" lon="5.64736">
        <ele>268.606</ele>
        <time>2019-09-23T08:58:15.000Z</time>
      </trkpt>
      <trkpt lat="48.6763" lon="5.64747">
        <ele>269.104</ele>
        <time>2019-09-23T08:58:18.000Z</time>
      </trkpt>
      <trkpt lat="48.67626" lon="5.64759">
        <ele>270.348</ele>
        <time>2019-09-23T08:58:21.000Z</time>
      </trkpt>
      <trkpt lat="48.67622" lon="5.6477">
        <ele>270.74</ele>
        <time>2019-09-23T08:58:24.000Z</time>
      </trkpt>
      <trkpt lat="48.67618" lon="5.64781">
        <ele>271.446</ele>
        <time>2019-09-23T08:58:27.000Z</time>
      </trkpt>
      <trkpt lat="48.67614" lon="5.64792">
        <ele>272.046</ele>
        <time>2019-09-23T08:58:30.000Z</time>
      </trkpt>
      <trkpt lat="48.67611" lon="5.64802">
        <ele>273.028</ele>
        <time>2019-09-23T08:58:33.000Z</time>
      </trkpt>
      <trkpt lat="48.67608" lon="5.64812">
        <ele>273.114</ele>
        <time>2019-09-23T08:58:36.000Z</time>
      </trkpt>
      <trkpt lat="48.67605" lon="5.6482">
        <ele>272.794</ele>
        <time>2019-09-23T08:58:39.000Z</time>
      </trkpt>
      <trkpt lat="48.67603" lon="5.64829">
        <ele>272.789</ele>
        <time>2019-09-23T08:58:42.000Z</time>
      </trkpt>
      <trkpt lat="48.67601" lon="5.64838">
        <ele>272.716</ele>
        <time>2019-09-23T08:58:45.000Z</time>
      </trkpt>
      <trkpt lat="48.67598" lon="5.64847">
        <ele>272.943</ele>
        <time>2019-09-23T08:58:48.000Z</time>
      </trkpt>
      <trkpt lat="48.67595" lon="5.64856">
        <ele>273.086</ele>
        <time>2019-09-23T08:58:51.000Z</time>
      </trkpt>
      <trkpt lat="48.67592" lon="5.64865">
        <ele>273.255</ele>
        <time>2019-09-23T08:58:54.000Z</time>
      </trkpt>
      <trkpt lat="48.67589" lon="5.64873">
        <ele>273.395</ele>
        <time>2019-09-23T08:58:57.000Z</time>
      </trkpt>
      <trkpt lat="48.67586" lon="5.64882">
        <ele>274.403</ele>
        <time>2019-09-23T08:59:00.000Z</time>
      </trkpt>
      <trkpt lat="48.67583" lon="5.6489">
        <ele>275.36</ele>
        <time>2019-09-23T08:59:03.000Z</time>
      </trkpt>
      <trkpt lat="48.67581" lon="5.64898">
        <ele>275.955</ele>
        <time>2019-09-23T08:59:06.000Z</time>
      </trkpt>
      <trkpt lat="48.67578" lon="5.64906">
        <ele>276.865</ele>
        <time>2019-09-23T08:59:09.000Z</time>
      </trkpt>
      <trkpt lat="48.67576" lon="5.64914">
        <ele>276.778</ele>
        <time>2019-09-23T08:59:12.000Z</time>
      </trkpt>
      <trkpt lat="48.67572" lon="5.64922">
        <ele>276.956</ele>
        <time>2019-09-23T08:59:15.000Z</time>
      </trkpt>
      <trkpt lat="48.67569" lon="5.64929">
        <ele>277.199</ele>
        <time>2019-09-23T08:59:18.000Z</time>
      </trkpt>
      <trkpt lat="48.67567" lon="5.64937">
        <ele>277.156</ele>
        <time>2019-09-23T08:59:21.000Z</time>
      </trkpt>
      <trkpt lat="48.67564" lon="5.64946">
        <ele>277.261</ele>
        <time>2019-09-23T08:59:24.000Z</time>
      </trkpt>
      <trkpt lat="48.67562" lon="5.64954">
        <ele>277.333</ele>
        <time>2019-09-23T08:59:27.000Z</time>
      </trkpt>
      <trkpt lat="48.67561" lon="5.64962">
        <ele>277.746</ele>
        <time>2019-09-23T08:59:30.000Z</time>
      </trkpt>
      <trkpt lat="48.67558" lon="5.6497">
        <ele>278.443</ele>
        <time>2019-09-23T08:59:33.000Z</time>
      </trkpt>
      <trkpt lat="48.67555" lon="5.64977">
        <ele>278.898</ele>
        <time>2019-09-23T08:59:36.000Z</time>
      </trkpt>
      <trkpt lat="48.67553" lon="5.64983">
        <ele>279.378</ele>
        <time>2019-09-23T08:59:39.000Z</time>
      </trkpt>
      <trkpt lat="48.67551" lon="5.6499">
        <ele>279.513</ele>
        <time>2019-09-23T08:59:42.000Z</time>
      </trkpt>
      <trkpt lat="48.67549" lon="5.64998">
        <ele>279.918</ele>
        <time>2019-09-23T08:59:45.000Z</time>
      </trkpt>
      <trkpt lat="48.67546" lon="5.65005">
        <ele>280.353</ele>
        <time>2019-09-23T08:59:48.000Z</time>
      </trkpt>
      <trkpt lat="48.67544" lon="5.65014">
        <ele>279.91</ele>
        <time>2019-09-23T08:59:51.000Z</time>
      </trkpt>
      <trkpt lat="48.67541" lon="5.65022">
        <ele>280.106</ele>
        <time>2019-09-23T08:59:54.000Z</time>
      </trkpt>
      <trkpt lat="48.67539" lon="5.65031">
        <ele>280.404</ele>
        <time>2019-09-23T08:59:57.000Z</time>
      </trkpt>
      <trkpt lat="48.67535" lon="5.65041">
        <ele>280.638</ele>
        <time>2019-09-23T09:00:00.000Z</time>
      </trkpt>
      <trkpt lat="48.67532" lon="5.65049">
        <ele>281.015</ele>
        <time>2019-09-23T09:00:03.000Z</time>
      </trkpt>
      <trkpt lat="48.67528" lon="5.65057">
        <ele>281.709</ele>
        <time>2019-09-23T09:00:06.000Z</time>
      </trkpt>
      <trkpt lat="48.67524" lon="5.65065">
        <ele>282.06</ele>
        <time>2019-09-23T09:00:09.000Z</time>
      </trkpt>
      <trkpt lat="48.67519" lon="5.65072">
        <ele>282.084</ele>
        <time>2019-09-23T09:00:12.000Z</time>
      </trkpt>
      <trkpt lat="48.67515" lon="5.6508">
        <ele>282.225</ele>
        <time>2019-09-23T09:00:15.000Z</time>
      </trkpt>
      <trkpt lat="48.67512" lon="5.65087">
        <ele>282.834</ele>
        <time>2019-09-23T09:00:18.000Z</time>
      </trkpt>
      <trkpt lat="48.67509" lon="5.65094">
        <ele>283.009</ele>
        <time>2019-09-23T09:00:21.000Z</time>
      </trkpt>
      <trkpt lat="48.67503" lon="5.65099">
        <ele>282.869</ele>
        <time>2019-09-23T09:00:24.000Z</time>
      </trkpt>
      <trkpt lat="48.67499" lon="5.65104">
        <ele>282.852</ele>
        <time>2019-09-23T09:00:27.000Z</time>
      </trkpt>
      <trkpt lat="48.67494" lon="5.6511">
        <ele>283.391</ele>
        <time>2019-09-23T09:00:30.000Z</time>
      </trkpt>
      <trkpt lat="48.67489" lon="5.65117">
        <ele>283.674</ele>
        <time>2019-09-23T09:00:33.000Z</time>
      </trkpt>
      <trkpt lat="48.67483" lon="5.65123">
        <ele>284.258</ele>
        <time>2019-09-23T09:00:36.000Z</time>
      </trkpt>
      <trkpt lat="48.67477" lon="5.65128">
        <ele>284.822</ele>
        <time>2019-09-23T09:00:39.000Z</time>
      </trkpt>
      <trkpt lat="48.67472" lon="5.65132">
        <ele>285.214</ele>
        <time>2019-09-23T09:00:42.000Z</time>
      </trkpt>
      <trkpt lat="48.67466" lon="5.65136">
        <ele>285.627</ele>
        <time>2019-09-23T09:00:45.000Z</time>
      </trkpt>
      <trkpt lat="48.67461" lon="5.6514">
        <ele>286.142</ele>
        <time>2019-09-23T09:00:48.000Z</time>
      </trkpt>
      <trkpt lat="48.67455" lon="5.65143">
        <ele>286.695</ele>
        <time>2019-09-23T09:00:51.000Z</time>
      </trkpt>
      <trkpt lat="48.67449" lon="5.65147">
        <ele>287.314</ele>
        <time>2019-09-23T09:00:54.000Z</time>
      </trkpt>
      <trkpt lat="48.67443" lon="5.65149">
        <ele>287.589</ele>
        <time>2019-09-23T09:00:57.000Z</time>
      </trkpt>
      <trkpt lat="48.67437" lon="5.65151">
        <ele>288.331</ele>
        <time>2019-09-23T09:01:00.000Z</time>
      </trkpt>
      <trkpt lat="48.67431" lon="5.65153">
        <ele>289.216</ele>
        <time>2019-09-23T09:01:03.000Z</time>
      </trkpt>
      <trkpt lat="48.67427" lon="5.65153">
        <ele>290.906</ele>
        <time>2019-09-23T09:01:06.000Z</time>
      </trkpt>
      <trkpt lat="48.67421" lon="5.65156">
        <ele>291.451</ele>
        <time>2019-09-23T09:01:09.000Z</time>
      </trkpt>
      <trkpt lat="48.67416" lon="5.65157">
        <ele>291.87</ele>
        <time>2019-09-23T09:01:12.000Z</time>
      </trkpt>
      <trkpt lat="48.6741" lon="5.65157">
        <ele>292.436</ele>
        <time>2019-09-23T09:01:15.000Z</time>
      </trkpt>
      <trkpt lat="48.67403" lon="5.65157">
        <ele>292.11</ele>
        <time>2019-09-23T09:01:18.000Z</time>
      </trkpt>
      <trkpt lat="48.67395" lon="5.65156">
        <ele>292.452</ele>
        <time>2019-09-23T09:01:21.000Z</time>
      </trkpt>
      <trkpt lat="48.67387" lon="5.65155">
        <ele>293.44</ele>
        <time>2019-09-23T09:01:24.000Z</time>
      </trkpt>
      <trkpt lat="48.6738" lon="5.65154">
        <ele>294.289</ele>
        <time>2019-09-23T09:01:27.000Z</time>
      </trkpt>
      <trkpt lat="48.67374" lon="5.65154">
        <ele>294.46</ele>
        <time>2019-09-23T09:01:30.000Z</time>
      </trkpt>
      <trkpt lat="48.67368" lon="5.65154">
        <ele>294.975</ele>
        <time>2019-09-23T09:01:33.000Z</time>
      </trkpt>
      <trkpt lat="48.67361" lon="5.65154">
        <ele>295.451</ele>
        <time>2019-09-23T09:01:36.000Z</time>
      </trkpt>
      <trkpt lat="48.67355" lon="5.65154">
        <ele>295.746</ele>
        <time>2019-09-23T09:01:39.000Z</time>
      </trkpt>
      <trkpt lat="48.67349" lon="5.65152">
        <ele>295.913</ele>
        <time>2019-09-23T09:01:42.000Z</time>
      </trkpt>
      <trkpt lat="48.67344" lon="5.65151">
        <ele>296.314</ele>
        <time>2019-09-23T09:01:45.000Z</time>
      </trkpt>
      <trkpt lat="48.67336" lon="5.6515">
        <ele>296.322</ele>
        <time>2019-09-23T09:01:48.000Z</time>
      </trkpt>
      <trkpt lat="48.6733" lon="5.65149">
        <ele>296.135</ele>
        <time>2019-09-23T09:01:51.000Z</time>
      </trkpt>
      <trkpt lat="48.67322" lon="5.65148">
        <ele>295.971</ele>
        <time>2019-09-23T09:01:54.000Z</time>
      </trkpt>
      <trkpt lat="48.67315" lon="5.65148">
        <ele>296.139</ele>
        <time>2019-09-23T09:01:57.000Z</time>
      </trkpt>
      <trkpt lat="48.67309" lon="5.65147">
        <ele>296.712</ele>
        <time>2019-09-23T09:02:00.000Z</time>
      </trkpt>
      <trkpt lat="48.67304" lon="5.65146">
        <ele>297.35</ele>
        <time>2019-09-23T09:02:03.000Z</time>
      </trkpt>
      <trkpt lat="48.67299" lon="5.65145">
        <ele>298.117</ele>
        <time>2019-09-23T09:02:06.000Z</time>
      </trkpt>
      <trkpt lat="48.67293" lon="5.65144">
        <ele>298.669</ele>
        <time>2019-09-23T09:02:09.000Z</time>
      </trkpt>
      <trkpt lat="48.67287" lon="5.65144">
        <ele>299.18</ele>
        <time>2019-09-23T09:02:12.000Z</time>
      </trkpt>
      <trkpt lat="48.67281" lon="5.65143">
        <ele>299.257</ele>
        <time>2019-09-23T09:02:15.000Z</time>
      </trkpt>
      <trkpt lat="48.67276" lon="5.65142">
        <ele>299.655</ele>
        <time>2019-09-23T09:02:18.000Z</time>
      </trkpt>
      <trkpt lat="48.67271" lon="5.65141">
        <ele>300.062</ele>
        <time>2019-09-23T09:02:21.000Z</time>
      </trkpt>
      <trkpt lat="48.67265" lon="5.65142">
        <ele>300.255</ele>
        <time>2019-09-23T09:02:24.000Z</time>
      </trkpt>
      <trkpt lat="48.6726" lon="5.65142">
        <ele>300.408</ele>
        <time>2019-09-23T09:02:27.000Z</time>
      </trkpt>
      <trkpt lat="48.67253" lon="5.65141">
        <ele>300.826</ele>
        <time>2019-09-23T09:02:30.000Z</time>
      </trkpt>
      <trkpt lat="48.67246" lon="5.6514">
        <ele>301.47</ele>
        <time>2019-09-23T09:02:33.000Z</time>
      </trkpt>
      <trkpt lat="48.67239" lon="5.65139">
        <ele>302.269</ele>
        <time>2019-09-23T09:02:36.000Z</time>
      </trkpt>
      <trkpt lat="48.67233" lon="5.65138">
        <ele>303.285</ele>
        <time>2019-09-23T09:02:39.000Z</time>
      </trkpt>
      <trkpt lat="48.67227" lon="5.65138">
        <ele>303.359</ele>
        <time>2019-09-23T09:02:42.000Z</time>
      </trkpt>
      <trkpt lat="48.67219" lon="5.65138">
        <ele>304.527</ele>
        <time>2019-09-23T09:02:45.000Z</time>
      </trkpt>
      <trkpt lat="48.67214" lon="5.65138">
        <ele>305.083</ele>
        <time>2019-09-23T09:02:48.000Z</time>
      </trkpt>
      <trkpt lat="48.67209" lon="5.65138">
        <ele>305.911</ele>
        <time>2019-09-23T09:02:51.000Z</time>
      </trkpt>
      <trkpt lat="48.67204" lon="5.65139">
        <ele>306.569</ele>
        <time>2019-09-23T09:02:54.000Z</time>
      </trkpt>
      <trkpt lat="48.67196" lon="5.65141">
        <ele>308.627</ele>
        <time>2019-09-23T09:03:00.000Z</time>
      </trkpt>
      <trkpt lat="48.67191" lon="5.65145">
        <ele>310.127</ele>
        <time>2019-09-23T09:03:03.000Z</time>
      </trkpt>
      <trkpt lat="48.67184" lon="5.65151">
        <ele>309.861</ele>
        <time>2019-09-23T09:03:06.000Z</time>
      </trkpt>
      <trkpt lat="48.67177" lon="5.65157">
        <ele>309.888</ele>
        <time>2019-09-23T09:03:09.000Z</time>
      </trkpt>
      <trkpt lat="48.67171" lon="5.65163">
        <ele>309.539</ele>
        <time>2019-09-23T09:03:12.000Z</time>
      </trkpt>
      <trkpt lat="48.67167" lon="5.65171">
        <ele>308.968</ele>
        <time>2019-09-23T09:03:15.000Z</time>
      </trkpt>
      <trkpt lat="48.67163" lon="5.65182">
        <ele>309.656</ele>
        <time>2019-09-23T09:03:18.000Z</time>
      </trkpt>
      <trkpt lat="48.6716" lon="5.65192">
        <ele>310.269</ele>
        <time>2019-09-23T09:03:21.000Z</time>
      </trkpt>
      <trkpt lat="48.67157" lon="5.65202">
        <ele>310.822</ele>
        <time>2019-09-23T09:03:24.000Z</time>
      </trkpt>
      <trkpt lat="48.67155" lon="5.6521">
        <ele>311.402</ele>
        <time>2019-09-23T09:03:27.000Z</time>
      </trkpt>
      <trkpt lat="48.67153" lon="5.65219">
        <ele>311.996</ele>
        <time>2019-09-23T09:03:30.000Z</time>
      </trkpt>
      <trkpt lat="48.67152" lon="5.65228">
        <ele>313.184</ele>
        <time>2019-09-23T09:03:33.000Z</time>
      </trkpt>
      <trkpt lat="48.67152" lon="5.65237">
        <ele>313.633</ele>
        <time>2019-09-23T09:03:36.000Z</time>
      </trkpt>
      <trkpt lat="48.67152" lon="5.65246">
        <ele>313.303</ele>
        <time>2019-09-23T09:03:39.000Z</time>
      </trkpt>
      <trkpt lat="48.67154" lon="5.65255">
        <ele>312.718</ele>
        <time>2019-09-23T09:03:42.000Z</time>
      </trkpt>
      <trkpt lat="48.67156" lon="5.65264">
        <ele>312.134</ele>
        <time>2019-09-23T09:03:45.000Z</time>
      </trkpt>
      <trkpt lat="48.67158" lon="5.65274">
        <ele>312.196</ele>
        <time>2019-09-23T09:03:48.000Z</time>
      </trkpt>
      <trkpt lat="48.6716" lon="5.65283">
        <ele>312.38</ele>
        <time>2019-09-23T09:03:51.000Z</time>
      </trkpt>
      <trkpt lat="48.67161" lon="5.65292">
        <ele>312.66</ele>
        <time>2019-09-23T09:03:54.000Z</time>
      </trkpt>
      <trkpt lat="48.67164" lon="5.653">
        <ele>313.183</ele>
        <time>2019-09-23T09:03:57.000Z</time>
      </trkpt>
      <trkpt lat="48.67167" lon="5.65309">
        <ele>312.692</ele>
        <time>2019-09-23T09:04:00.000Z</time>
      </trkpt>
      <trkpt lat="48.67169" lon="5.65317">
        <ele>312.303</ele>
        <time>2019-09-23T09:04:03.000Z</time>
      </trkpt>
      <trkpt lat="48.6717" lon="5.65325">
        <ele>312.403</ele>
        <time>2019-09-23T09:04:06.000Z</time>
      </trkpt>
      <trkpt lat="48.67172" lon="5.65333">
        <ele>312.607</ele>
        <time>2019-09-23T09:04:09.000Z</time>
      </trkpt>
      <trkpt lat="48.67174" lon="5.65341">
        <ele>313.158</ele>
        <time>2019-09-23T09:04:12.000Z</time>
      </trkpt>
      <trkpt lat="48.67174" lon="5.6535">
        <ele>313.611</ele>
        <time>2019-09-23T09:04:15.000Z</time>
      </trkpt>
      <trkpt lat="48.67176" lon="5.65357">
        <ele>314.017</ele>
        <time>2019-09-23T09:04:18.000Z</time>
      </trkpt>
      <trkpt lat="48.67177" lon="5.65365">
        <ele>314.511</ele>
        <time>2019-09-23T09:04:21.000Z</time>
      </trkpt>
      <trkpt lat="48.67178" lon="5.65373">
        <ele>315.234</ele>
        <time>2019-09-23T09:04:24.000Z</time>
      </trkpt>
      <trkpt lat="48.6718" lon="5.65382">
        <ele>316.138</ele>
        <time>2019-09-23T09:04:27.000Z</time>
      </trkpt>
      <trkpt lat="48.67181" lon="5.6539">
        <ele>317.898</ele>
        <time>2019-09-23T09:04:30.000Z</time>
      </trkpt>
      <trkpt lat="48.67181" lon="5.65398">
        <ele>319.733</ele>
        <time>2019-09-23T09:04:33.000Z</time>
      </trkpt>
      <trkpt lat="48.67184" lon="5.65405">
        <ele>321.063</ele>
        <time>2019-09-23T09:04:36.000Z</time>
      </trkpt>
      <trkpt lat="48.67186" lon="5.65414">
        <ele>321.65</ele>
        <time>2019-09-23T09:04:39.000Z</time>
      </trkpt>
      <trkpt lat="48.67188" lon="5.65423">
        <ele>321.795</ele>
        <time>2019-09-23T09:04:42.000Z</time>
      </trkpt>
      <trkpt lat="48.67191" lon="5.6543">
        <ele>322.187</ele>
        <time>2019-09-23T09:04:45.000Z</time>
      </trkpt>
      <trkpt lat="48.67193" lon="5.65438">
        <ele>323.391</ele>
        <time>2019-09-23T09:04:48.000Z</time>
      </trkpt>
      <trkpt lat="48.67194" lon="5.65445">
        <ele>323.276</ele>
        <time>2019-09-23T09:04:51.000Z</time>
      </trkpt>
      <trkpt lat="48.67194" lon="5.65454">
        <ele>322.958</ele>
        <time>2019-09-23T09:04:54.000Z</time>
      </trkpt>
      <trkpt lat="48.67195" lon="5.65463">
        <ele>322.926</ele>
        <time>2019-09-23T09:04:57.000Z</time>
      </trkpt>
      <trkpt lat="48.67195" lon="5.65472">
        <ele>323.221</ele>
        <time>2019-09-23T09:05:00.000Z</time>
      </trkpt>
      <trkpt lat="48.67196" lon="5.6548">
        <ele>323.852</ele>
        <time>2019-09-23T09:05:03.000Z</time>
      </trkpt>
      <trkpt lat="48.67197" lon="5.65489">
        <ele>325.091</ele>
        <time>2019-09-23T09:05:06.000Z</time>
      </trkpt>
      <trkpt lat="48.67199" lon="5.65498">
        <ele>326.581</ele>
        <time>2019-09-23T09:05:09.000Z</time>
      </trkpt>
      <trkpt lat="48.67201" lon="5.65506">
        <ele>327.684</ele>
        <time>2019-09-23T09:05:12.000Z</time>
      </trkpt>
      <trkpt lat="48.67204" lon="5.65517">
        <ele>329.613</ele>
        <time>2019-09-23T09:05:15.000Z</time>
      </trkpt>
      <trkpt lat="48.67204" lon="5.65527">
        <ele>330.382</ele>
        <time>2019-09-23T09:05:18.000Z</time>
      </trkpt>
      <trkpt lat="48.67207" lon="5.65538">
        <ele>331.023</ele>
        <time>2019-09-23T09:05:21.000Z</time>
      </trkpt>
      <trkpt lat="48.67209" lon="5.65548">
        <ele>331.253</ele>
        <time>2019-09-23T09:05:24.000Z</time>
      </trkpt>
      <trkpt lat="48.67208" lon="5.65559">
        <ele>331.498</ele>
        <time>2019-09-23T09:05:27.000Z</time>
      </trkpt>
      <trkpt lat="48.67208" lon="5.65568">
        <ele>331.33</ele>
        <time>2019-09-23T09:05:30.000Z</time>
      </trkpt>
      <trkpt lat="48.67209" lon="5.65575">
        <ele>331.122</ele>
        <time>2019-09-23T09:05:33.000Z</time>
      </trkpt>
      <trkpt lat="48.6721" lon="5.65584">
        <ele>331.008</ele>
        <time>2019-09-23T09:05:36.000Z</time>
      </trkpt>
      <trkpt lat="48.6721" lon="5.65591">
        <ele>330.326</ele>
        <time>2019-09-23T09:05:39.000Z</time>
      </trkpt>
      <trkpt lat="48.67211" lon="5.65599">
        <ele>330.986</ele>
        <time>2019-09-23T09:05:42.000Z</time>
      </trkpt>
      <trkpt lat="48.67212" lon="5.65607">
        <ele>331.424</ele>
        <time>2019-09-23T09:05:45.000Z</time>
      </trkpt>
      <trkpt lat="48.67212" lon="5.65615">
        <ele>331.443</ele>
        <time>2019-09-23T09:05:48.000Z</time>
      </trkpt>
      <trkpt lat="48.67212" lon="5.65623">
        <ele>331.564</ele>
        <time>2019-09-23T09:05:51.000Z</time>
      </trkpt>
      <trkpt lat="48.67211" lon="5.65632">
        <ele>331.254</ele>
        <time>2019-09-23T09:05:54.000Z</time>
      </trkpt>
      <trkpt lat="48.6721" lon="5.6564">
        <ele>330.852</ele>
        <time>2019-09-23T09:05:57.000Z</time>
      </trkpt>
      <trkpt lat="48.67209" lon="5.65649">
        <ele>330.915</ele>
        <time>2019-09-23T09:06:00.000Z</time>
      </trkpt>
      <trkpt lat="48.67208" lon="5.6566">
        <ele>330.822</ele>
        <time>2019-09-23T09:06:03.000Z</time>
      </trkpt>
      <trkpt lat="48.67208" lon="5.65671">
        <ele>330.637</ele>
        <time>2019-09-23T09:06:06.000Z</time>
      </trkpt>
      <trkpt lat="48.67209" lon="5.65679">
        <ele>331.005</ele>
        <time>2019-09-23T09:06:09.000Z</time>
      </trkpt>
      <trkpt lat="48.6721" lon="5.65687">
        <ele>331.862</ele>
        <time>2019-09-23T09:06:12.000Z</time>
      </trkpt>
      <trkpt lat="48.67209" lon="5.65697">
        <ele>332.636</ele>
        <time>2019-09-23T09:06:15.000Z</time>
      </trkpt>
      <trkpt lat="48.67209" lon="5.65705">
        <ele>333.023</ele>
        <time>2019-09-23T09:06:18.000Z</time>
      </trkpt>
      <trkpt lat="48.6721" lon="5.65714">
        <ele>333.296</ele>
        <time>2019-09-23T09:06:21.000Z</time>
      </trkpt>
      <trkpt lat="48.6721" lon="5.65722">
        <ele>332.827</ele>
        <time>2019-09-23T09:06:24.000Z</time>
      </trkpt>
      <trkpt lat="48.6721" lon="5.65731">
        <ele>333.102</ele>
        <time>2019-09-23T09:06:27.000Z</time>
      </trkpt>
      <trkpt lat="48.67209" lon="5.65742">
        <ele>333.633</ele>
        <time>2019-09-23T09:06:30.000Z</time>
      </trkpt>
      <trkpt lat="48.67209" lon="5.65752">
        <ele>333.859</ele>
        <time>2019-09-23T09:06:33.000Z</time>
      </trkpt>
      <trkpt lat="48.67211" lon="5.65759">
        <ele>334.755</ele>
        <time>2019-09-23T09:06:36.000Z</time>
      </trkpt>
      <trkpt lat="48.6721" lon="5.65767">
        <ele>334.986</ele>
        <time>2019-09-23T09:06:39.000Z</time>
      </trkpt>
      <trkpt lat="48.67211" lon="5.65777">
        <ele>335.208</ele>
        <time>2019-09-23T09:06:42.000Z</time>
      </trkpt>
      <trkpt lat="48.67211" lon="5.6579">
        <ele>335.957</ele>
        <time>2019-09-23T09:06:45.000Z</time>
      </trkpt>
      <trkpt lat="48.6721" lon="5.658">
        <ele>336.196</ele>
        <time>2019-09-23T09:06:48.000Z</time>
      </trkpt>
      <trkpt lat="48.6721" lon="5.65809">
        <ele>335.115</ele>
        <time>2019-09-23T09:06:51.000Z</time>
      </trkpt>
      <trkpt lat="48.67211" lon="5.6582">
        <ele>334.529</ele>
        <time>2019-09-23T09:06:54.000Z</time>
      </trkpt>
      <trkpt lat="48.6721" lon="5.65831">
        <ele>334.625</ele>
        <time>2019-09-23T09:06:57.000Z</time>
      </trkpt>
      <trkpt lat="48.6721" lon="5.65843">
        <ele>335.032</ele>
        <time>2019-09-23T09:07:00.000Z</time>
      </trkpt>
      <trkpt lat="48.67209" lon="5.65855">
        <ele>336.27</ele>
        <time>2019-09-23T09:07:03.000Z</time>
      </trkpt>
      <trkpt lat="48.67209" lon="5.65866">
        <ele>336.51</ele>
        <time>2019-09-23T09:07:06.000Z</time>
      </trkpt>
      <trkpt lat="48.67208" lon="5.65876">
        <ele>337.142</ele>
        <time>2019-09-23T09:07:09.000Z</time>
      </trkpt>
      <trkpt lat="48.67208" lon="5.65887">
        <ele>338.01</ele>
        <time>2019-09-23T09:07:12.000Z</time>
      </trkpt>
      <trkpt lat="48.67208" lon="5.65898">
        <ele>338.314</ele>
        <time>2019-09-23T09:07:15.000Z</time>
      </trkpt>
      <trkpt lat="48.67207" lon="5.65909">
        <ele>337.648</ele>
        <time>2019-09-23T09:07:18.000Z</time>
      </trkpt>
      <trkpt lat="48.67207" lon="5.65919">
        <ele>337.726</ele>
        <time>2019-09-23T09:07:21.000Z</time>
      </trkpt>
      <trkpt lat="48.67207" lon="5.6593">
        <ele>337.261</ele>
        <time>2019-09-23T09:07:24.000Z</time>
      </trkpt>
      <trkpt lat="48.67205" lon="5.6594">
        <ele>337.062</ele>
        <time>2019-09-23T09:07:27.000Z</time>
      </trkpt>
      <trkpt lat="48.67205" lon="5.6595">
        <ele>336.9</ele>
        <time>2019-09-23T09:07:30.000Z</time>
      </trkpt>
      <trkpt lat="48.67205" lon="5.65958">
        <ele>336.964</ele>
        <time>2019-09-23T09:07:33.000Z</time>
      </trkpt>
      <trkpt lat="48.67205" lon="5.65966">
        <ele>336.726</ele>
        <time>2019-09-23T09:07:36.000Z</time>
      </trkpt>
      <trkpt lat="48.67203" lon="5.65973">
        <ele>336.877</ele>
        <time>2019-09-23T09:07:39.000Z</time>
      </trkpt>
      <trkpt lat="48.67202" lon="5.65981">
        <ele>336.965</ele>
        <time>2019-09-23T09:07:42.000Z</time>
      </trkpt>
      <trkpt lat="48.672" lon="5.65993">
        <ele>336.641</ele>
        <time>2019-09-23T09:07:45.000Z</time>
      </trkpt>
      <trkpt lat="48.67199" lon="5.66003">
        <ele>336.981</ele>
        <time>2019-09-23T09:07:48.000Z</time>
      </trkpt>
      <trkpt lat="48.67197" lon="5.66013">
        <ele>336.692</ele>
        <time>2019-09-23T09:07:51.000Z</time>
      </trkpt>
      <trkpt lat="48.67196" lon="5.66023">
        <ele>336.756</ele>
        <time>2019-09-23T09:07:54.000Z</time>
      </trkpt>
      <trkpt lat="48.67193" lon="5.66033">
        <ele>336.648</ele>
        <time>2019-09-23T09:07:57.000Z</time>
      </trkpt>
      <trkpt lat="48.6719" lon="5.66043">
        <ele>337.29</ele>
        <time>2019-09-23T09:08:00.000Z</time>
      </trkpt>
      <trkpt lat="48.67187" lon="5.66054">
        <ele>338.144</ele>
        <time>2019-09-23T09:08:03.000Z</time>
      </trkpt>
      <trkpt lat="48.67184" lon="5.66064">
        <ele>338.821</ele>
        <time>2019-09-23T09:08:06.000Z</time>
      </trkpt>
      <trkpt lat="48.67181" lon="5.66074">
        <ele>338.386</ele>
        <time>2019-09-23T09:08:09.000Z</time>
      </trkpt>
      <trkpt lat="48.67178" lon="5.66083">
        <ele>338.613</ele>
        <time>2019-09-23T09:08:12.000Z</time>
      </trkpt>
      <trkpt lat="48.67175" lon="5.66091">
        <ele>339.063</ele>
        <time>2019-09-23T09:08:15.000Z</time>
      </trkpt>
      <trkpt lat="48.67172" lon="5.66099">
        <ele>339.156</ele>
        <time>2019-09-23T09:08:18.000Z</time>
      </trkpt>
      <trkpt lat="48.6717" lon="5.66108">
        <ele>339.568</ele>
        <time>2019-09-23T09:08:21.000Z</time>
      </trkpt>
      <trkpt lat="48.67169" lon="5.66116">
        <ele>340.442</ele>
        <time>2019-09-23T09:08:24.000Z</time>
      </trkpt>
      <trkpt lat="48.67166" lon="5.66125">
        <ele>341.173</ele>
        <time>2019-09-23T09:08:27.000Z</time>
      </trkpt>
      <trkpt lat="48.67163" lon="5.66133">
        <ele>341.151</ele>
        <time>2019-09-23T09:08:30.000Z</time>
      </trkpt>
      <trkpt lat="48.67161" lon="5.66142">
        <ele>341.563</ele>
        <time>2019-09-23T09:08:33.000Z</time>
      </trkpt>
      <trkpt lat="48.67158" lon="5.66151">
        <ele>341.573</ele>
        <time>2019-09-23T09:08:36.000Z</time>
      </trkpt>
      <trkpt lat="48.67155" lon="5.66159">
        <ele>341.86</ele>
        <time>2019-09-23T09:08:39.000Z</time>
      </trkpt>
      <trkpt lat="48.67153" lon="5.66167">
        <ele>342.353</ele>
        <time>2019-09-23T09:08:42.000Z</time>
      </trkpt>
      <trkpt lat="48.6715" lon="5.66176">
        <ele>342.724</ele>
        <time>2019-09-23T09:08:45.000Z</time>
      </trkpt>
      <trkpt lat="48.67147" lon="5.66186">
        <ele>343.141</ele>
        <time>2019-09-23T09:08:48.000Z</time>
      </trkpt>
      <trkpt lat="48.67143" lon="5.66196">
        <ele>343.446</ele>
        <time>2019-09-23T09:08:51.000Z</time>
      </trkpt>
      <trkpt lat="48.67138" lon="5.66206">
        <ele>342.759</ele>
        <time>2019-09-23T09:08:54.000Z</time>
      </trkpt>
      <trkpt lat="48.67135" lon="5.66217">
        <ele>342.614</ele>
        <time>2019-09-23T09:08:57.000Z</time>
      </trkpt>
      <trkpt lat="48.67131" lon="5.66228">
        <ele>342.581</ele>
        <time>2019-09-23T09:09:00.000Z</time>
      </trkpt>
      <trkpt lat="48.67128" lon="5.66239">
        <ele>342.828</ele>
        <time>2019-09-23T09:09:03.000Z</time>
      </trkpt>
      <trkpt lat="48.67124" lon="5.66251">
        <ele>342.766</ele>
        <time>2019-09-23T09:09:06.000Z</time>
      </trkpt>
      <trkpt lat="48.67119" lon="5.66263">
        <ele>342.281</ele>
        <time>2019-09-23T09:09:09.000Z</time>
      </trkpt>
      <trkpt lat="48.67114" lon="5.66278">
        <ele>342.01</ele>
        <time>2019-09-23T09:09:12.000Z</time>
      </trkpt>
      <trkpt lat="48.67108" lon="5.66293">
        <ele>341.668</ele>
        <time>2019-09-23T09:09:15.000Z</time>
      </trkpt>
      <trkpt lat="48.67101" lon="5.66308">
        <ele>342.043</ele>
        <time>2019-09-23T09:09:18.000Z</time>
      </trkpt>
      <trkpt lat="48.67095" lon="5.66322">
        <ele>341.998</ele>
        <time>2019-09-23T09:09:21.000Z</time>
      </trkpt>
      <trkpt lat="48.67087" lon="5.66341">
        <ele>341.874</ele>
        <time>2019-09-23T09:09:24.000Z</time>
      </trkpt>
      <trkpt lat="48.67078" lon="5.66364">
        <ele>341.484</ele>
        <time>2019-09-23T09:09:27.000Z</time>
      </trkpt>
      <trkpt lat="48.67065" lon="5.66389">
        <ele>341.507</ele>
        <time>2019-09-23T09:09:30.000Z</time>
      </trkpt>
      <trkpt lat="48.67052" lon="5.6641">
        <ele>341.184</ele>
        <time>2019-09-23T09:09:33.000Z</time>
      </trkpt>
      <trkpt lat="48.6704" lon="5.66423">
        <ele>340.625</ele>
        <time>2019-09-23T09:09:36.000Z</time>
      </trkpt>
      <trkpt lat="48.67025" lon="5.66432">
        <ele>340.117</ele>
        <time>2019-09-23T09:09:39.000Z</time>
      </trkpt>
      <trkpt lat="48.67007" lon="5.6644">
        <ele>339.935</ele>
        <time>2019-09-23T09:09:42.000Z</time>
      </trkpt>
      <trkpt lat="48.66982" lon="5.6645">
        <ele>339.654</ele>
        <time>2019-09-23T09:09:45.000Z</time>
      </trkpt>
      <trkpt lat="48.66954" lon="5.66458">
        <ele>338.542</ele>
        <time>2019-09-23T09:09:48.000Z</time>
      </trkpt>
      <trkpt lat="48.66927" lon="5.66463">
        <ele>338.19</ele>
        <time>2019-09-23T09:09:51.000Z</time>
      </trkpt>
      <trkpt lat="48.66901" lon="5.66467">
        <ele>337.632</ele>
        <time>2019-09-23T09:09:54.000Z</time>
      </trkpt>
      <trkpt lat="48.66875" lon="5.66472">
        <ele>336.783</ele>
        <time>2019-09-23T09:09:57.000Z</time>
      </trkpt>
      <trkpt lat="48.66846" lon="5.66477">
        <ele>334.767</ele>
        <time>2019-09-23T09:10:00.000Z</time>
      </trkpt>
      <trkpt lat="48.66819" lon="5.66484">
        <ele>332.972</ele>
        <time>2019-09-23T09:10:03.000Z</time>
      </trkpt>
      <trkpt lat="48.66792" lon="5.66502">
        <ele>331.66</ele>
        <time>2019-09-23T09:10:06.000Z</time>
      </trkpt>
      <trkpt lat="48.66769" lon="5.66532">
        <ele>329.39</ele>
        <time>2019-09-23T09:10:09.000Z</time>
      </trkpt>
      <trkpt lat="48.66753" lon="5.66572">
        <ele>327.801</ele>
        <time>2019-09-23T09:10:12.000Z</time>
      </trkpt>
      <trkpt lat="48.66744" lon="5.66614">
        <ele>327.701</ele>
        <time>2019-09-23T09:10:15.000Z</time>
      </trkpt>
      <trkpt lat="48.66735" lon="5.66656">
        <ele>327.52</ele>
        <time>2019-09-23T09:10:18.000Z</time>
      </trkpt>
      <trkpt lat="48.66727" lon="5.66701">
        <ele>327.324</ele>
        <time>2019-09-23T09:10:21.000Z</time>
      </trkpt>
      <trkpt lat="48.66719" lon="5.66741">
        <ele>326.748</ele>
        <time>2019-09-23T09:10:24.000Z</time>
      </trkpt>
      <trkpt lat="48.66713" lon="5.66779">
        <ele>325.328</ele>
        <time>2019-09-23T09:10:27.000Z</time>
      </trkpt>
      <trkpt lat="48.66707" lon="5.66819">
        <ele>324.003</ele>
        <time>2019-09-23T09:10:30.000Z</time>
      </trkpt>
      <trkpt lat="48.66703" lon="5.66861">
        <ele>320.865</ele>
        <time>2019-09-23T09:10:33.000Z</time>
      </trkpt>
      <trkpt lat="48.66697" lon="5.669">
        <ele>319.036</ele>
        <time>2019-09-23T09:10:36.000Z</time>
      </trkpt>
      <trkpt lat="48.66692" lon="5.6694">
        <ele>318.798</ele>
        <time>2019-09-23T09:10:39.000Z</time>
      </trkpt>
      <trkpt lat="48.66686" lon="5.66976">
        <ele>318.328</ele>
        <time>2019-09-23T09:10:42.000Z</time>
      </trkpt>
      <trkpt lat="48.66681" lon="5.67014">
        <ele>317.212</ele>
        <time>2019-09-23T09:10:45.000Z</time>
      </trkpt>
      <trkpt lat="48.66677" lon="5.67053">
        <ele>316.099</ele>
        <time>2019-09-23T09:10:48.000Z</time>
      </trkpt>
      <trkpt lat="48.66674" lon="5.67097">
        <ele>315.521</ele>
        <time>2019-09-23T09:10:51.000Z</time>
      </trkpt>
      <trkpt lat="48.66673" lon="5.67149">
        <ele>314.263</ele>
        <time>2019-09-23T09:10:54.000Z</time>
      </trkpt>
      <trkpt lat="48.66679" lon="5.67208">
        <ele>312.537</ele>
        <time>2019-09-23T09:10:57.000Z</time>
      </trkpt>
      <trkpt lat="48.66687" lon="5.67265">
        <ele>309.239</ele>
        <time>2019-09-23T09:11:00.001Z</time>
      </trkpt>
      <trkpt lat="48.66695" lon="5.67319">
        <ele>305.911</ele>
        <time>2019-09-23T09:11:03.000Z</time>
      </trkpt>
      <trkpt lat="48.667" lon="5.67372">
        <ele>305.239</ele>
        <time>2019-09-23T09:11:06.000Z</time>
      </trkpt>
      <trkpt lat="48.66707" lon="5.67426">
        <ele>300.814</ele>
        <time>2019-09-23T09:11:09.000Z</time>
      </trkpt>
      <trkpt lat="48.66714" lon="5.6748">
        <ele>297.285</ele>
        <time>2019-09-23T09:11:12.000Z</time>
      </trkpt>
      <trkpt lat="48.66722" lon="5.67534">
        <ele>295.469</ele>
        <time>2019-09-23T09:11:15.000Z</time>
      </trkpt>
      <trkpt lat="48.6673" lon="5.67587">
        <ele>293.013</ele>
        <time>2019-09-23T09:11:18.000Z</time>
      </trkpt>
      <trkpt lat="48.66738" lon="5.67636">
        <ele>290.748</ele>
        <time>2019-09-23T09:11:21.000Z</time>
      </trkpt>
      <trkpt lat="48.66744" lon="5.67684">
        <ele>289.068</ele>
        <time>2019-09-23T09:11:24.000Z</time>
      </trkpt>
      <trkpt lat="48.66748" lon="5.67732">
        <ele>287.834</ele>
        <time>2019-09-23T09:11:27.000Z</time>
      </trkpt>
      <trkpt lat="48.66742" lon="5.67776">
        <ele>286.336</ele>
        <time>2019-09-23T09:11:30.000Z</time>
      </trkpt>
      <trkpt lat="48.66732" lon="5.67818">
        <ele>285.123</ele>
        <time>2019-09-23T09:11:33.000Z</time>
      </trkpt>
      <trkpt lat="48.66723" lon="5.6786">
        <ele>283.769</ele>
        <time>2019-09-23T09:11:36.000Z</time>
      </trkpt>
      <trkpt lat="48.66716" lon="5.67903">
        <ele>282.006</ele>
        <time>2019-09-23T09:11:39.000Z</time>
      </trkpt>
      <trkpt lat="48.66707" lon="5.67947">
        <ele>281.683</ele>
        <time>2019-09-23T09:11:42.000Z</time>
      </trkpt>
      <trkpt lat="48.667" lon="5.6799">
        <ele>281.207</ele>
        <time>2019-09-23T09:11:45.000Z</time>
      </trkpt>
      <trkpt lat="48.66693" lon="5.68033">
        <ele>280.48</ele>
        <time>2019-09-23T09:11:48.000Z</time>
      </trkpt>
      <trkpt lat="48.66687" lon="5.68075">
        <ele>279.842</ele>
        <time>2019-09-23T09:11:51.000Z</time>
      </trkpt>
      <trkpt lat="48.66681" lon="5.68115">
        <ele>279.2</ele>
        <time>2019-09-23T09:11:54.000Z</time>
      </trkpt>
      <trkpt lat="48.66675" lon="5.68153">
        <ele>278.509</ele>
        <time>2019-09-23T09:11:57.000Z</time>
      </trkpt>
      <trkpt lat="48.66667" lon="5.68188">
        <ele>277.927</ele>
        <time>2019-09-23T09:12:00.000Z</time>
      </trkpt>
      <trkpt lat="48.66659" lon="5.68219">
        <ele>277.311</ele>
        <time>2019-09-23T09:12:03.000Z</time>
      </trkpt>
      <trkpt lat="48.66647" lon="5.68247">
        <ele>276.817</ele>
        <time>2019-09-23T09:12:06.000Z</time>
      </trkpt>
      <trkpt lat="48.66634" lon="5.68274">
        <ele>276.326</ele>
        <time>2019-09-23T09:12:09.000Z</time>
      </trkpt>
      <trkpt lat="48.66619" lon="5.68299">
        <ele>275.796</ele>
        <time>2019-09-23T09:12:12.000Z</time>
      </trkpt>
      <trkpt lat="48.66603" lon="5.68322">
        <ele>275.036</ele>
        <time>2019-09-23T09:12:15.000Z</time>
      </trkpt>
      <trkpt lat="48.66584" lon="5.68343">
        <ele>274.577</ele>
        <time>2019-09-23T09:12:18.000Z</time>
      </trkpt>
      <trkpt lat="48.66564" lon="5.6836">
        <ele>274.435</ele>
        <time>2019-09-23T09:12:21.000Z</time>
      </trkpt>
      <trkpt lat="48.66543" lon="5.68374">
        <ele>274.377</ele>
        <time>2019-09-23T09:12:24.000Z</time>
      </trkpt>
      <trkpt lat="48.66521" lon="5.68385">
        <ele>273.267</ele>
        <time>2019-09-23T09:12:27.000Z</time>
      </trkpt>
      <trkpt lat="48.66498" lon="5.68398">
        <ele>271.976</ele>
        <time>2019-09-23T09:12:30.000Z</time>
      </trkpt>
      <trkpt lat="48.66475" lon="5.68412">
        <ele>271.14</ele>
        <time>2019-09-23T09:12:33.000Z</time>
      </trkpt>
      <trkpt lat="48.66452" lon="5.68429">
        <ele>270.238</ele>
        <time>2019-09-23T09:12:36.000Z</time>
      </trkpt>
      <trkpt lat="48.6643" lon="5.68449">
        <ele>269.137</ele>
        <time>2019-09-23T09:12:39.000Z</time>
      </trkpt>
      <trkpt lat="48.66408" lon="5.6847">
        <ele>268.573</ele>
        <time>2019-09-23T09:12:42.000Z</time>
      </trkpt>
      <trkpt lat="48.66387" lon="5.68494">
        <ele>267.913</ele>
        <time>2019-09-23T09:12:45.000Z</time>
      </trkpt>
      <trkpt lat="48.66366" lon="5.68517">
        <ele>267.013</ele>
        <time>2019-09-23T09:12:48.000Z</time>
      </trkpt>
      <trkpt lat="48.66343" lon="5.68531">
        <ele>265.765</ele>
        <time>2019-09-23T09:12:51.000Z</time>
      </trkpt>
      <trkpt lat="48.66318" lon="5.68528">
        <ele>264.694</ele>
        <time>2019-09-23T09:12:54.000Z</time>
      </trkpt>
      <trkpt lat="48.66294" lon="5.68513">
        <ele>263.646</ele>
        <time>2019-09-23T09:12:57.000Z</time>
      </trkpt>
      <trkpt lat="48.66271" lon="5.68499">
        <ele>262.84</ele>
        <time>2019-09-23T09:13:00.000Z</time>
      </trkpt>
      <trkpt lat="48.66246" lon="5.68489">
        <ele>261.552</ele>
        <time>2019-09-23T09:13:03.000Z</time>
      </trkpt>
      <trkpt lat="48.6622" lon="5.68484">
        <ele>259.853</ele>
        <time>2019-09-23T09:13:06.000Z</time>
      </trkpt>
      <trkpt lat="48.66193" lon="5.68481">
        <ele>258.662</ele>
        <time>2019-09-23T09:13:09.000Z</time>
      </trkpt>
      <trkpt lat="48.66167" lon="5.68483">
        <ele>257.211</ele>
        <time>2019-09-23T09:13:12.000Z</time>
      </trkpt>
      <trkpt lat="48.66143" lon="5.68489">
        <ele>256.477</ele>
        <time>2019-09-23T09:13:15.000Z</time>
      </trkpt>
      <trkpt lat="48.66118" lon="5.68498">
        <ele>255.038</ele>
        <time>2019-09-23T09:13:18.000Z</time>
      </trkpt>
      <trkpt lat="48.66093" lon="5.6851">
        <ele>253.813</ele>
        <time>2019-09-23T09:13:21.000Z</time>
      </trkpt>
      <trkpt lat="48.66067" lon="5.68525">
        <ele>253.237</ele>
        <time>2019-09-23T09:13:24.000Z</time>
      </trkpt>
      <trkpt lat="48.66043" lon="5.68541">
        <ele>252.365</ele>
        <time>2019-09-23T09:13:27.000Z</time>
      </trkpt>
      <trkpt lat="48.66019" lon="5.68558">
        <ele>251.562</ele>
        <time>2019-09-23T09:13:30.000Z</time>
      </trkpt>
      <trkpt lat="48.65995" lon="5.68577">
        <ele>250.481</ele>
        <time>2019-09-23T09:13:33.000Z</time>
      </trkpt>
      <trkpt lat="48.65972" lon="5.68595">
        <ele>249.549</ele>
        <time>2019-09-23T09:13:36.000Z</time>
      </trkpt>
      <trkpt lat="48.65949" lon="5.68612">
        <ele>248.806</ele>
        <time>2019-09-23T09:13:39.000Z</time>
      </trkpt>
      <trkpt lat="48.65928" lon="5.68627">
        <ele>247.918</ele>
        <time>2019-09-23T09:13:42.000Z</time>
      </trkpt>
      <trkpt lat="48.65912" lon="5.68641">
        <ele>247.487</ele>
        <time>2019-09-23T09:13:45.000Z</time>
      </trkpt>
      <trkpt lat="48.659" lon="5.68653">
        <ele>247.427</ele>
        <time>2019-09-23T09:13:48.000Z</time>
      </trkpt>
      <trkpt lat="48.65894" lon="5.68659">
        <ele>246.767</ele>
        <time>2019-09-23T09:13:51.000Z</time>
      </trkpt>
      <trkpt lat="48.65893" lon="5.6866">
        <ele>246.432</ele>
        <time>2019-09-23T09:13:54.000Z</time>
      </trkpt>
      <trkpt lat="48.65893" lon="5.6866">
        <ele>246.432</ele>
        <time>2019-09-23T09:14:21.000Z</time>
      </trkpt>
      <trkpt lat="48.65892" lon="5.6866">
        <ele>246.524</ele>
        <time>2019-09-23T09:14:24.000Z</time>
      </trkpt>
      <trkpt lat="48.6589" lon="5.68656">
        <ele>246.433</ele>
        <time>2019-09-23T09:14:27.000Z</time>
      </trkpt>
      <trkpt lat="48.65889" lon="5.68655">
        <ele>245.863</ele>
        <time>2019-09-23T09:14:30.000Z</time>
      </trkpt>
      <trkpt lat="48.65889" lon="5.68655">
        <ele>245.863</ele>
        <time>2019-09-23T09:14:36.000Z</time>
      </trkpt>
      <trkpt lat="48.65887" lon="5.68651">
        <ele>245.621</ele>
        <time>2019-09-23T09:14:39.000Z</time>
      </trkpt>
      <trkpt lat="48.65882" lon="5.68645">
        <ele>245.272</ele>
        <time>2019-09-23T09:14:42.000Z</time>
      </trkpt>
      <trkpt lat="48.65879" lon="5.68639">
        <ele>245.161</ele>
        <time>2019-09-23T09:14:45.000Z</time>
      </trkpt>
      <trkpt lat="48.65876" lon="5.68633">
        <ele>245.18</ele>
        <time>2019-09-23T09:14:48.000Z</time>
      </trkpt>
      <trkpt lat="48.65873" lon="5.68626">
        <ele>245.442</ele>
        <time>2019-09-23T09:14:51.000Z</time>
      </trkpt>
      <trkpt lat="48.65871" lon="5.6862">
        <ele>245.217</ele>
        <time>2019-09-23T09:14:54.000Z</time>
      </trkpt>
      <trkpt lat="48.65869" lon="5.68615">
        <ele>244.651</ele>
        <time>2019-09-23T09:14:57.000Z</time>
      </trkpt>
      <trkpt lat="48.65869" lon="5.68612">
        <ele>243.786</ele>
        <time>2019-09-23T09:15:39.000Z</time>
      </trkpt>
      <trkpt lat="48.65868" lon="5.68611">
        <ele>243.831</ele>
        <time>2019-09-23T09:15:42.000Z</time>
      </trkpt>
      <trkpt lat="48.65864" lon="5.68603">
        <ele>244.059</ele>
        <time>2019-09-23T09:15:45.000Z</time>
      </trkpt>
      <trkpt lat="48.65857" lon="5.68593">
        <ele>244.645</ele>
        <time>2019-09-23T09:15:48.000Z</time>
      </trkpt>
      <trkpt lat="48.6585" lon="5.68578">
        <ele>244.558</ele>
        <time>2019-09-23T09:15:51.000Z</time>
      </trkpt>
      <trkpt lat="48.65841" lon="5.68562">
        <ele>244.502</ele>
        <time>2019-09-23T09:15:54.000Z</time>
      </trkpt>
      <trkpt lat="48.65832" lon="5.68549">
        <ele>244.215</ele>
        <time>2019-09-23T09:15:57.000Z</time>
      </trkpt>
      <trkpt lat="48.65822" lon="5.68536">
        <ele>244.004</ele>
        <time>2019-09-23T09:16:00.000Z</time>
      </trkpt>
      <trkpt lat="48.6581" lon="5.68524">
        <ele>243.822</ele>
        <time>2019-09-23T09:16:03.000Z</time>
      </trkpt>
      <trkpt lat="48.65799" lon="5.68512">
        <ele>243.82</ele>
        <time>2019-09-23T09:16:06.000Z</time>
      </trkpt>
      <trkpt lat="48.65788" lon="5.68503">
        <ele>243.647</ele>
        <time>2019-09-23T09:16:09.000Z</time>
      </trkpt>
      <trkpt lat="48.65776" lon="5.68494">
        <ele>243.575</ele>
        <time>2019-09-23T09:16:12.000Z</time>
      </trkpt>
      <trkpt lat="48.65764" lon="5.68488">
        <ele>244.067</ele>
        <time>2019-09-23T09:16:15.000Z</time>
      </trkpt>
      <trkpt lat="48.65752" lon="5.68482">
        <ele>244.014</ele>
        <time>2019-09-23T09:16:18.000Z</time>
      </trkpt>
      <trkpt lat="48.65738" lon="5.68477">
        <ele>244.155</ele>
        <time>2019-09-23T09:16:21.000Z</time>
      </trkpt>
      <trkpt lat="48.65725" lon="5.68471">
        <ele>244.116</ele>
        <time>2019-09-23T09:16:24.000Z</time>
      </trkpt>
      <trkpt lat="48.65712" lon="5.68467">
        <ele>243.98</ele>
        <time>2019-09-23T09:16:27.000Z</time>
      </trkpt>
      <trkpt lat="48.65699" lon="5.68461">
        <ele>243.349</ele>
        <time>2019-09-23T09:16:30.000Z</time>
      </trkpt>
      <trkpt lat="48.65687" lon="5.68457">
        <ele>243.381</ele>
        <time>2019-09-23T09:16:33.000Z</time>
      </trkpt>
      <trkpt lat="48.65675" lon="5.68453">
        <ele>243.454</ele>
        <time>2019-09-23T09:16:36.000Z</time>
      </trkpt>
      <trkpt lat="48.65663" lon="5.68448">
        <ele>243.811</ele>
        <time>2019-09-23T09:16:39.000Z</time>
      </trkpt>
      <trkpt lat="48.6565" lon="5.68442">
        <ele>243.753</ele>
        <time>2019-09-23T09:16:42.000Z</time>
      </trkpt>
      <trkpt lat="48.65637" lon="5.68438">
        <ele>243.937</ele>
        <time>2019-09-23T09:16:45.000Z</time>
      </trkpt>
      <trkpt lat="48.65625" lon="5.68432">
        <ele>243.771</ele>
        <time>2019-09-23T09:16:48.000Z</time>
      </trkpt>
      <trkpt lat="48.65613" lon="5.68428">
        <ele>243.913</ele>
        <time>2019-09-23T09:16:51.000Z</time>
      </trkpt>
      <trkpt lat="48.656" lon="5.68423">
        <ele>244.001</ele>
        <time>2019-09-23T09:16:54.000Z</time>
      </trkpt>
      <trkpt lat="48.65588" lon="5.68419">
        <ele>243.878</ele>
        <time>2019-09-23T09:16:57.000Z</time>
      </trkpt>
      <trkpt lat="48.65574" lon="5.68413">
        <ele>244.108</ele>
        <time>2019-09-23T09:17:00.000Z</time>
      </trkpt>
      <trkpt lat="48.65561" lon="5.68408">
        <ele>243.968</ele>
        <time>2019-09-23T09:17:03.000Z</time>
      </trkpt>
      <trkpt lat="48.65549" lon="5.68404">
        <ele>243.642</ele>
        <time>2019-09-23T09:17:06.000Z</time>
      </trkpt>
      <trkpt lat="48.65538" lon="5.68399">
        <ele>243.845</ele>
        <time>2019-09-23T09:17:09.000Z</time>
      </trkpt>
      <trkpt lat="48.65527" lon="5.68394">
        <ele>244.01</ele>
        <time>2019-09-23T09:17:12.000Z</time>
      </trkpt>
      <trkpt lat="48.65515" lon="5.68389">
        <ele>244.665</ele>
        <time>2019-09-23T09:17:15.000Z</time>
      </trkpt>
      <trkpt lat="48.65503" lon="5.68385">
        <ele>245.121</ele>
        <time>2019-09-23T09:17:18.000Z</time>
      </trkpt>
      <trkpt lat="48.6549" lon="5.68381">
        <ele>245.07</ele>
        <time>2019-09-23T09:17:21.000Z</time>
      </trkpt>
      <trkpt lat="48.65477" lon="5.68376">
        <ele>245.117</ele>
        <time>2019-09-23T09:17:24.000Z</time>
      </trkpt>
      <trkpt lat="48.65463" lon="5.68371">
        <ele>244.991</ele>
        <time>2019-09-23T09:17:27.000Z</time>
      </trkpt>
      <trkpt lat="48.65449" lon="5.68366">
        <ele>244.484</ele>
        <time>2019-09-23T09:17:30.000Z</time>
      </trkpt>
      <trkpt lat="48.65435" lon="5.6836">
        <ele>244.232</ele>
        <time>2019-09-23T09:17:33.000Z</time>
      </trkpt>
      <trkpt lat="48.65422" lon="5.68354">
        <ele>244.627</ele>
        <time>2019-09-23T09:17:36.000Z</time>
      </trkpt>
      <trkpt lat="48.65408" lon="5.6835">
        <ele>245.362</ele>
        <time>2019-09-23T09:17:39.000Z</time>
      </trkpt>
      <trkpt lat="48.65395" lon="5.68344">
        <ele>245.042</ele>
        <time>2019-09-23T09:17:42.000Z</time>
      </trkpt>
      <trkpt lat="48.65382" lon="5.68339">
        <ele>245.144</ele>
        <time>2019-09-23T09:17:45.000Z</time>
      </trkpt>
      <trkpt lat="48.6537" lon="5.68334">
        <ele>244.735</ele>
        <time>2019-09-23T09:17:48.000Z</time>
      </trkpt>
      <trkpt lat="48.65357" lon="5.68329">
        <ele>244.626</ele>
        <time>2019-09-23T09:17:51.000Z</time>
      </trkpt>
      <trkpt lat="48.65344" lon="5.68322">
        <ele>244.458</ele>
        <time>2019-09-23T09:17:54.000Z</time>
      </trkpt>
      <trkpt lat="48.6533" lon="5.68317">
        <ele>244.66</ele>
        <time>2019-09-23T09:17:57.000Z</time>
      </trkpt>
      <trkpt lat="48.65317" lon="5.68311">
        <ele>244.835</ele>
        <time>2019-09-23T09:18:00.000Z</time>
      </trkpt>
      <trkpt lat="48.65304" lon="5.68305">
        <ele>244.852</ele>
        <time>2019-09-23T09:18:03.000Z</time>
      </trkpt>
      <trkpt lat="48.65291" lon="5.683">
        <ele>244.439</ele>
        <time>2019-09-23T09:18:06.000Z</time>
      </trkpt>
      <trkpt lat="48.65278" lon="5.68295">
        <ele>243.84</ele>
        <time>2019-09-23T09:18:09.000Z</time>
      </trkpt>
      <trkpt lat="48.65265" lon="5.68291">
        <ele>243.311</ele>
        <time>2019-09-23T09:18:12.000Z</time>
      </trkpt>
      <trkpt lat="48.65252" lon="5.68287">
        <ele>242.082</ele>
        <time>2019-09-23T09:18:15.000Z</time>
      </trkpt>
      <trkpt lat="48.65239" lon="5.68282">
        <ele>242.557</ele>
        <time>2019-09-23T09:18:18.000Z</time>
      </trkpt>
      <trkpt lat="48.65225" lon="5.68276">
        <ele>242.27</ele>
        <time>2019-09-23T09:18:21.000Z</time>
      </trkpt>
      <trkpt lat="48.65212" lon="5.6827">
        <ele>242.382</ele>
        <time>2019-09-23T09:18:24.000Z</time>
      </trkpt>
      <trkpt lat="48.65199" lon="5.68265">
        <ele>242.675</ele>
        <time>2019-09-23T09:18:27.000Z</time>
      </trkpt>
      <trkpt lat="48.65187" lon="5.68259">
        <ele>242.985</ele>
        <time>2019-09-23T09:18:30.000Z</time>
      </trkpt>
      <trkpt lat="48.65174" lon="5.68255">
        <ele>243.347</ele>
        <time>2019-09-23T09:18:33.000Z</time>
      </trkpt>
      <trkpt lat="48.65161" lon="5.68251">
        <ele>243.567</ele>
        <time>2019-09-23T09:18:36.000Z</time>
      </trkpt>
      <trkpt lat="48.65149" lon="5.68248">
        <ele>243.772</ele>
        <time>2019-09-23T09:18:39.000Z</time>
      </trkpt>
      <trkpt lat="48.65137" lon="5.68243">
        <ele>243.636</ele>
        <time>2019-09-23T09:18:42.000Z</time>
      </trkpt>
      <trkpt lat="48.65125" lon="5.68238">
        <ele>243.792</ele>
        <time>2019-09-23T09:18:45.000Z</time>
      </trkpt>
      <trkpt lat="48.65112" lon="5.68231">
        <ele>244.212</ele>
        <time>2019-09-23T09:18:48.000Z</time>
      </trkpt>
      <trkpt lat="48.65099" lon="5.68225">
        <ele>244.525</ele>
        <time>2019-09-23T09:18:51.000Z</time>
      </trkpt>
      <trkpt lat="48.65087" lon="5.6822">
        <ele>244.346</ele>
        <time>2019-09-23T09:18:54.000Z</time>
      </trkpt>
      <trkpt lat="48.65075" lon="5.68214">
        <ele>244.508</ele>
        <time>2019-09-23T09:18:57.000Z</time>
      </trkpt>
      <trkpt lat="48.65063" lon="5.68209">
        <ele>244.621</ele>
        <time>2019-09-23T09:19:00.000Z</time>
      </trkpt>
      <trkpt lat="48.65051" lon="5.68204">
        <ele>244.399</ele>
        <time>2019-09-23T09:19:03.000Z</time>
      </trkpt>
      <trkpt lat="48.65039" lon="5.68199">
        <ele>243.962</ele>
        <time>2019-09-23T09:19:06.000Z</time>
      </trkpt>
      <trkpt lat="48.65027" lon="5.68194">
        <ele>243.915</ele>
        <time>2019-09-23T09:19:09.000Z</time>
      </trkpt>
      <trkpt lat="48.65014" lon="5.68189">
        <ele>244.664</ele>
        <time>2019-09-23T09:19:12.000Z</time>
      </trkpt>
      <trkpt lat="48.65001" lon="5.68184">
        <ele>244.853</ele>
        <time>2019-09-23T09:19:15.000Z</time>
      </trkpt>
      <trkpt lat="48.64989" lon="5.68178">
        <ele>244.815</ele>
        <time>2019-09-23T09:19:18.000Z</time>
      </trkpt>
      <trkpt lat="48.64977" lon="5.68173">
        <ele>244.412</ele>
        <time>2019-09-23T09:19:21.000Z</time>
      </trkpt>
      <trkpt lat="48.64964" lon="5.6817">
        <ele>244.552</ele>
        <time>2019-09-23T09:19:24.000Z</time>
      </trkpt>
      <trkpt lat="48.64952" lon="5.68172">
        <ele>244.828</ele>
        <time>2019-09-23T09:19:27.000Z</time>
      </trkpt>
      <trkpt lat="48.64942" lon="5.68177">
        <ele>245.57</ele>
        <time>2019-09-23T09:19:30.000Z</time>
      </trkpt>
      <trkpt lat="48.64934" lon="5.68189">
        <ele>245.397</ele>
        <time>2019-09-23T09:19:33.000Z</time>
      </trkpt>
      <trkpt lat="48.6493" lon="5.68203">
        <ele>245.543</ele>
        <time>2019-09-23T09:19:36.000Z</time>
      </trkpt>
      <trkpt lat="48.64927" lon="5.68216">
        <ele>245.509</ele>
        <time>2019-09-23T09:19:39.000Z</time>
      </trkpt>
      <trkpt lat="48.64925" lon="5.68228">
        <ele>245.691</ele>
        <time>2019-09-23T09:19:42.000Z</time>
      </trkpt>
      <trkpt lat="48.64923" lon="5.68243">
        <ele>245.671</ele>
        <time>2019-09-23T09:19:45.000Z</time>
      </trkpt>
      <trkpt lat="48.6492" lon="5.6826">
        <ele>245.259</ele>
        <time>2019-09-23T09:19:48.000Z</time>
      </trkpt>
      <trkpt lat="48.64918" lon="5.68278">
        <ele>245.224</ele>
        <time>2019-09-23T09:19:51.000Z</time>
      </trkpt>
      <trkpt lat="48.64916" lon="5.68296">
        <ele>245.74</ele>
        <time>2019-09-23T09:19:54.000Z</time>
      </trkpt>
      <trkpt lat="48.64915" lon="5.68315">
        <ele>245.726</ele>
        <time>2019-09-23T09:19:57.000Z</time>
      </trkpt>
      <trkpt lat="48.64913" lon="5.68336">
        <ele>245.913</ele>
        <time>2019-09-23T09:20:00.000Z</time>
      </trkpt>
      <trkpt lat="48.64912" lon="5.68361">
        <ele>246.081</ele>
        <time>2019-09-23T09:20:03.000Z</time>
      </trkpt>
      <trkpt lat="48.6491" lon="5.68388">
        <ele>245.845</ele>
        <time>2019-09-23T09:20:06.000Z</time>
      </trkpt>
      <trkpt lat="48.64909" lon="5.68414">
        <ele>245.835</ele>
        <time>2019-09-23T09:20:09.000Z</time>
      </trkpt>
      <trkpt lat="48.64908" lon="5.68439">
        <ele>245.533</ele>
        <time>2019-09-23T09:20:12.000Z</time>
      </trkpt>
      <trkpt lat="48.64906" lon="5.68459">
        <ele>245.505</ele>
        <time>2019-09-23T09:20:15.000Z</time>
      </trkpt>
      <trkpt lat="48.64905" lon="5.68476">
        <ele>245.252</ele>
        <time>2019-09-23T09:20:18.000Z</time>
      </trkpt>
      <trkpt lat="48.64905" lon="5.6849">
        <ele>245.704</ele>
        <time>2019-09-23T09:20:21.000Z</time>
      </trkpt>
      <trkpt lat="48.64902" lon="5.68503">
        <ele>246.433</ele>
        <time>2019-09-23T09:20:24.000Z</time>
      </trkpt>
      <trkpt lat="48.64901" lon="5.68517">
        <ele>247.08</ele>
        <time>2019-09-23T09:20:27.000Z</time>
      </trkpt>
      <trkpt lat="48.64899" lon="5.68528">
        <ele>247.251</ele>
        <time>2019-09-23T09:20:30.000Z</time>
      </trkpt>
      <trkpt lat="48.64898" lon="5.68539">
        <ele>247.678</ele>
        <time>2019-09-23T09:20:33.000Z</time>
      </trkpt>
      <trkpt lat="48.64898" lon="5.68551">
        <ele>247.998</ele>
        <time>2019-09-23T09:20:36.000Z</time>
      </trkpt>
      <trkpt lat="48.64897" lon="5.68563">
        <ele>248.329</ele>
        <time>2019-09-23T09:20:39.000Z</time>
      </trkpt>
      <trkpt lat="48.64896" lon="5.68575">
        <ele>249.254</ele>
        <time>2019-09-23T09:20:42.000Z</time>
      </trkpt>
      <trkpt lat="48.64896" lon="5.68588">
        <ele>249.859</ele>
        <time>2019-09-23T09:20:45.000Z</time>
      </trkpt>
      <trkpt lat="48.64896" lon="5.686">
        <ele>249.938</ele>
        <time>2019-09-23T09:20:48.000Z</time>
      </trkpt>
      <trkpt lat="48.64895" lon="5.68613">
        <ele>249.652</ele>
        <time>2019-09-23T09:20:51.000Z</time>
      </trkpt>
      <trkpt lat="48.64895" lon="5.68626">
        <ele>249.784</ele>
        <time>2019-09-23T09:20:54.000Z</time>
      </trkpt>
      <trkpt lat="48.64895" lon="5.68637">
        <ele>250.061</ele>
        <time>2019-09-23T09:20:57.000Z</time>
      </trkpt>
      <trkpt lat="48.64895" lon="5.68648">
        <ele>249.166</ele>
        <time>2019-09-23T09:21:00.000Z</time>
      </trkpt>
      <trkpt lat="48.64895" lon="5.68659">
        <ele>248.984</ele>
        <time>2019-09-23T09:21:03.000Z</time>
      </trkpt>
      <trkpt lat="48.64893" lon="5.68668">
        <ele>249.238</ele>
        <time>2019-09-23T09:21:06.000Z</time>
      </trkpt>
      <trkpt lat="48.64893" lon="5.68677">
        <ele>249.228</ele>
        <time>2019-09-23T09:21:09.000Z</time>
      </trkpt>
      <trkpt lat="48.64892" lon="5.68687">
        <ele>249.374</ele>
        <time>2019-09-23T09:21:12.000Z</time>
      </trkpt>
      <trkpt lat="48.64891" lon="5.68695">
        <ele>249.714</ele>
        <time>2019-09-23T09:21:15.000Z</time>
      </trkpt>
      <trkpt lat="48.6489" lon="5.68706">
        <ele>248.802</ele>
        <time>2019-09-23T09:21:18.000Z</time>
      </trkpt>
      <trkpt lat="48.6489" lon="5.68717">
        <ele>249.682</ele>
        <time>2019-09-23T09:21:21.000Z</time>
      </trkpt>
      <trkpt lat="48.6489" lon="5.68726">
        <ele>251.474</ele>
        <time>2019-09-23T09:21:24.000Z</time>
      </trkpt>
      <trkpt lat="48.6489" lon="5.68737">
        <ele>254.004</ele>
        <time>2019-09-23T09:21:27.000Z</time>
      </trkpt>
      <trkpt lat="48.64891" lon="5.68747">
        <ele>257.132</ele>
        <time>2019-09-23T09:21:30.000Z</time>
      </trkpt>
      <trkpt lat="48.64889" lon="5.68755">
        <ele>257.516</ele>
        <time>2019-09-23T09:21:33.000Z</time>
      </trkpt>
      <trkpt lat="48.64889" lon="5.68765">
        <ele>258.372</ele>
        <time>2019-09-23T09:21:36.000Z</time>
      </trkpt>
      <trkpt lat="48.64889" lon="5.68774">
        <ele>258.358</ele>
        <time>2019-09-23T09:21:39.000Z</time>
      </trkpt>
      <trkpt lat="48.64889" lon="5.68786">
        <ele>258.496</ele>
        <time>2019-09-23T09:21:42.000Z</time>
      </trkpt>
      <trkpt lat="48.64887" lon="5.68795">
        <ele>257.754</ele>
        <time>2019-09-23T09:21:45.000Z</time>
      </trkpt>
      <trkpt lat="48.64886" lon="5.68805">
        <ele>257.985</ele>
        <time>2019-09-23T09:21:48.000Z</time>
      </trkpt>
      <trkpt lat="48.64885" lon="5.68816">
        <ele>258.08</ele>
        <time>2019-09-23T09:21:51.000Z</time>
      </trkpt>
      <trkpt lat="48.64885" lon="5.68828">
        <ele>258.321</ele>
        <time>2019-09-23T09:21:54.000Z</time>
      </trkpt>
      <trkpt lat="48.64886" lon="5.68839">
        <ele>259.277</ele>
        <time>2019-09-23T09:21:57.000Z</time>
      </trkpt>
      <trkpt lat="48.64888" lon="5.68851">
        <ele>260.562</ele>
        <time>2019-09-23T09:22:00.000Z</time>
      </trkpt>
      <trkpt lat="48.64889" lon="5.68861">
        <ele>261.594</ele>
        <time>2019-09-23T09:22:03.000Z</time>
      </trkpt>
      <trkpt lat="48.64889" lon="5.6887">
        <ele>262.279</ele>
        <time>2019-09-23T09:22:06.000Z</time>
      </trkpt>
      <trkpt lat="48.6489" lon="5.68882">
        <ele>263.149</ele>
        <time>2019-09-23T09:22:09.000Z</time>
      </trkpt>
      <trkpt lat="48.64892" lon="5.68895">
        <ele>263.387</ele>
        <time>2019-09-23T09:22:12.000Z</time>
      </trkpt>
      <trkpt lat="48.64893" lon="5.68908">
        <ele>263.45</ele>
        <time>2019-09-23T09:22:15.000Z</time>
      </trkpt>
      <trkpt lat="48.64893" lon="5.68921">
        <ele>263.996</ele>
        <time>2019-09-23T09:22:18.000Z</time>
      </trkpt>
      <trkpt lat="48.64893" lon="5.68935">
        <ele>263.91</ele>
        <time>2019-09-23T09:22:21.000Z</time>
      </trkpt>
      <trkpt lat="48.64895" lon="5.68949">
        <ele>264.511</ele>
        <time>2019-09-23T09:22:24.000Z</time>
      </trkpt>
      <trkpt lat="48.64899" lon="5.68962">
        <ele>265.366</ele>
        <time>2019-09-23T09:22:27.000Z</time>
      </trkpt>
      <trkpt lat="48.64901" lon="5.68975">
        <ele>265.926</ele>
        <time>2019-09-23T09:22:30.000Z</time>
      </trkpt>
      <trkpt lat="48.649" lon="5.68986">
        <ele>266.506</ele>
        <time>2019-09-23T09:22:33.000Z</time>
      </trkpt>
      <trkpt lat="48.64897" lon="5.68996">
        <ele>265.733</ele>
        <time>2019-09-23T09:22:36.000Z</time>
      </trkpt>
      <trkpt lat="48.64897" lon="5.6901">
        <ele>265.404</ele>
        <time>2019-09-23T09:22:39.000Z</time>
      </trkpt>
      <trkpt lat="48.64899" lon="5.69023">
        <ele>266.356</ele>
        <time>2019-09-23T09:22:42.000Z</time>
      </trkpt>
      <trkpt lat="48.64899" lon="5.69034">
        <ele>266.705</ele>
        <time>2019-09-23T09:22:45.000Z</time>
      </trkpt>
      <trkpt lat="48.64898" lon="5.69044">
        <ele>267.768</ele>
        <time>2019-09-23T09:22:48.000Z</time>
      </trkpt>
      <trkpt lat="48.64897" lon="5.69055">
        <ele>268.239</ele>
        <time>2019-09-23T09:22:51.000Z</time>
      </trkpt>
      <trkpt lat="48.64897" lon="5.69067">
        <ele>269.291</ele>
        <time>2019-09-23T09:22:54.000Z</time>
      </trkpt>
      <trkpt lat="48.64896" lon="5.69079">
        <ele>269.27</ele>
        <time>2019-09-23T09:22:57.000Z</time>
      </trkpt>
      <trkpt lat="48.64895" lon="5.69091">
        <ele>269.381</ele>
        <time>2019-09-23T09:23:00.000Z</time>
      </trkpt>
      <trkpt lat="48.64895" lon="5.69105">
        <ele>269.267</ele>
        <time>2019-09-23T09:23:03.000Z</time>
      </trkpt>
      <trkpt lat="48.64894" lon="5.69116">
        <ele>269.312</ele>
        <time>2019-09-23T09:23:06.000Z</time>
      </trkpt>
      <trkpt lat="48.6489" lon="5.69126">
        <ele>269.13</ele>
        <time>2019-09-23T09:23:09.000Z</time>
      </trkpt>
      <trkpt lat="48.64882" lon="5.69131">
        <ele>268.943</ele>
        <time>2019-09-23T09:23:12.000Z</time>
      </trkpt>
      <trkpt lat="48.64874" lon="5.6913">
        <ele>269.053</ele>
        <time>2019-09-23T09:23:15.000Z</time>
      </trkpt>
      <trkpt lat="48.64864" lon="5.6913">
        <ele>269.137</ele>
        <time>2019-09-23T09:23:18.000Z</time>
      </trkpt>
      <trkpt lat="48.64853" lon="5.69135">
        <ele>268.201</ele>
        <time>2019-09-23T09:23:21.000Z</time>
      </trkpt>
      <trkpt lat="48.64843" lon="5.69143">
        <ele>267.803</ele>
        <time>2019-09-23T09:23:24.000Z</time>
      </trkpt>
      <trkpt lat="48.64835" lon="5.69156">
        <ele>266.919</ele>
        <time>2019-09-23T09:23:27.000Z</time>
      </trkpt>
      <trkpt lat="48.64828" lon="5.69177">
        <ele>266.679</ele>
        <time>2019-09-23T09:23:30.000Z</time>
      </trkpt>
      <trkpt lat="48.64823" lon="5.69197">
        <ele>265.888</ele>
        <time>2019-09-23T09:23:33.000Z</time>
      </trkpt>
      <trkpt lat="48.6482" lon="5.69218">
        <ele>265.647</ele>
        <time>2019-09-23T09:23:36.000Z</time>
      </trkpt>
      <trkpt lat="48.64818" lon="5.69241">
        <ele>265.166</ele>
        <time>2019-09-23T09:23:39.000Z</time>
      </trkpt>
      <trkpt lat="48.64817" lon="5.69264">
        <ele>265.336</ele>
        <time>2019-09-23T09:23:42.000Z</time>
      </trkpt>
      <trkpt lat="48.64816" lon="5.69288">
        <ele>265.275</ele>
        <time>2019-09-23T09:23:45.000Z</time>
      </trkpt>
      <trkpt lat="48.64814" lon="5.69312">
        <ele>264.717</ele>
        <time>2019-09-23T09:23:48.000Z</time>
      </trkpt>
      <trkpt lat="48.64812" lon="5.69337">
        <ele>263.401</ele>
        <time>2019-09-23T09:23:51.000Z</time>
      </trkpt>
      <trkpt lat="48.64811" lon="5.69362">
        <ele>262.65</ele>
        <time>2019-09-23T09:23:54.000Z</time>
      </trkpt>
      <trkpt lat="48.64811" lon="5.69389">
        <ele>261.683</ele>
        <time>2019-09-23T09:23:57.000Z</time>
      </trkpt>
      <trkpt lat="48.6481" lon="5.69415">
        <ele>260.566</ele>
        <time>2019-09-23T09:24:00.000Z</time>
      </trkpt>
      <trkpt lat="48.64809" lon="5.6944">
        <ele>259.735</ele>
        <time>2019-09-23T09:24:03.000Z</time>
      </trkpt>
      <trkpt lat="48.64808" lon="5.69467">
        <ele>258.999</ele>
        <time>2019-09-23T09:24:06.000Z</time>
      </trkpt>
      <trkpt lat="48.64808" lon="5.69495">
        <ele>258.275</ele>
        <time>2019-09-23T09:24:09.000Z</time>
      </trkpt>
      <trkpt lat="48.64807" lon="5.69523">
        <ele>257.768</ele>
        <time>2019-09-23T09:24:12.000Z</time>
      </trkpt>
      <trkpt lat="48.64806" lon="5.69552">
        <ele>256.82</ele>
        <time>2019-09-23T09:24:15.000Z</time>
      </trkpt>
      <trkpt lat="48.64807" lon="5.69586">
        <ele>255.141</ele>
        <time>2019-09-23T09:24:18.000Z</time>
      </trkpt>
      <trkpt lat="48.64809" lon="5.69621">
        <ele>254.013</ele>
        <time>2019-09-23T09:24:21.000Z</time>
      </trkpt>
      <trkpt lat="48.6481" lon="5.69658">
        <ele>253.324</ele>
        <time>2019-09-23T09:24:24.000Z</time>
      </trkpt>
      <trkpt lat="48.64811" lon="5.69695">
        <ele>252.218</ele>
        <time>2019-09-23T09:24:27.000Z</time>
      </trkpt>
      <trkpt lat="48.64811" lon="5.69729">
        <ele>251.086</ele>
        <time>2019-09-23T09:24:30.000Z</time>
      </trkpt>
      <trkpt lat="48.64811" lon="5.69766">
        <ele>251.107</ele>
        <time>2019-09-23T09:24:33.000Z</time>
      </trkpt>
      <trkpt lat="48.64812" lon="5.69805">
        <ele>250.785</ele>
        <time>2019-09-23T09:24:36.000Z</time>
      </trkpt>
      <trkpt lat="48.64814" lon="5.69841">
        <ele>250.494</ele>
        <time>2019-09-23T09:24:39.000Z</time>
      </trkpt>
      <trkpt lat="48.64816" lon="5.69878">
        <ele>250.133</ele>
        <time>2019-09-23T09:24:42.000Z</time>
      </trkpt>
      <trkpt lat="48.64819" lon="5.69912">
        <ele>249.99</ele>
        <time>2019-09-23T09:24:45.000Z</time>
      </trkpt>
      <trkpt lat="48.64819" lon="5.69946">
        <ele>250.424</ele>
        <time>2019-09-23T09:24:48.000Z</time>
      </trkpt>
      <trkpt lat="48.64819" lon="5.6998">
        <ele>250.695</ele>
        <time>2019-09-23T09:24:51.000Z</time>
      </trkpt>
      <trkpt lat="48.64816" lon="5.70013">
        <ele>251.156</ele>
        <time>2019-09-23T09:24:54.000Z</time>
      </trkpt>
      <trkpt lat="48.64813" lon="5.70047">
        <ele>250.372</ele>
        <time>2019-09-23T09:24:57.000Z</time>
      </trkpt>
      <trkpt lat="48.64809" lon="5.70084">
        <ele>249.446</ele>
        <time>2019-09-23T09:25:00.000Z</time>
      </trkpt>
      <trkpt lat="48.64803" lon="5.70116">
        <ele>248.76</ele>
        <time>2019-09-23T09:25:03.000Z</time>
      </trkpt>
      <trkpt lat="48.64798" lon="5.70143">
        <ele>247.996</ele>
        <time>2019-09-23T09:25:06.000Z</time>
      </trkpt>
      <trkpt lat="48.64792" lon="5.7017">
        <ele>247.749</ele>
        <time>2019-09-23T09:25:09.000Z</time>
      </trkpt>
      <trkpt lat="48.64785" lon="5.70193">
        <ele>248.637</ele>
        <time>2019-09-23T09:25:12.000Z</time>
      </trkpt>
      <trkpt lat="48.64781" lon="5.70218">
        <ele>249.106</ele>
        <time>2019-09-23T09:25:15.000Z</time>
      </trkpt>
      <trkpt lat="48.64776" lon="5.70244">
        <ele>249.083</ele>
        <time>2019-09-23T09:25:18.000Z</time>
      </trkpt>
      <trkpt lat="48.64771" lon="5.70271">
        <ele>248.661</ele>
        <time>2019-09-23T09:25:21.000Z</time>
      </trkpt>
      <trkpt lat="48.64764" lon="5.70296">
        <ele>247.987</ele>
        <time>2019-09-23T09:25:24.000Z</time>
      </trkpt>
      <trkpt lat="48.64756" lon="5.70321">
        <ele>248.157</ele>
        <time>2019-09-23T09:25:27.000Z</time>
      </trkpt>
      <trkpt lat="48.64749" lon="5.70344">
        <ele>248.406</ele>
        <time>2019-09-23T09:25:30.000Z</time>
      </trkpt>
      <trkpt lat="48.64739" lon="5.70364">
        <ele>248.672</ele>
        <time>2019-09-23T09:25:33.000Z</time>
      </trkpt>
      <trkpt lat="48.6473" lon="5.70382">
        <ele>248.88</ele>
        <time>2019-09-23T09:25:36.000Z</time>
      </trkpt>
      <trkpt lat="48.6472" lon="5.70398">
        <ele>248.497</ele>
        <time>2019-09-23T09:25:39.000Z</time>
      </trkpt>
      <trkpt lat="48.6471" lon="5.70414">
        <ele>247.932</ele>
        <time>2019-09-23T09:25:42.000Z</time>
      </trkpt>
      <trkpt lat="48.647" lon="5.7043">
        <ele>247.394</ele>
        <time>2019-09-23T09:25:45.000Z</time>
      </trkpt>
      <trkpt lat="48.64689" lon="5.70445">
        <ele>247.762</ele>
        <time>2019-09-23T09:25:48.000Z</time>
      </trkpt>
      <trkpt lat="48.64679" lon="5.7046">
        <ele>248.099</ele>
        <time>2019-09-23T09:25:51.000Z</time>
      </trkpt>
      <trkpt lat="48.64669" lon="5.70474">
        <ele>248.524</ele>
        <time>2019-09-23T09:25:54.000Z</time>
      </trkpt>
      <trkpt lat="48.64658" lon="5.70489">
        <ele>248.496</ele>
        <time>2019-09-23T09:25:57.000Z</time>
      </trkpt>
      <trkpt lat="48.64647" lon="5.70503">
        <ele>248.615</ele>
        <time>2019-09-23T09:26:00.000Z</time>
      </trkpt>
      <trkpt lat="48.64637" lon="5.70518">
        <ele>248.782</ele>
        <time>2019-09-23T09:26:03.000Z</time>
      </trkpt>
      <trkpt lat="48.64626" lon="5.70532">
        <ele>248.613</ele>
        <time>2019-09-23T09:26:06.000Z</time>
      </trkpt>
      <trkpt lat="48.64615" lon="5.70546">
        <ele>248.707</ele>
        <time>2019-09-23T09:26:09.000Z</time>
      </trkpt>
      <trkpt lat="48.64605" lon="5.70561">
        <ele>248.614</ele>
        <time>2019-09-23T09:26:12.000Z</time>
      </trkpt>
      <trkpt lat="48.64594" lon="5.70575">
        <ele>248.708</ele>
        <time>2019-09-23T09:26:15.000Z</time>
      </trkpt>
      <trkpt lat="48.64585" lon="5.70588">
        <ele>248.749</ele>
        <time>2019-09-23T09:26:18.000Z</time>
      </trkpt>
      <trkpt lat="48.64575" lon="5.70602">
        <ele>248.567</ele>
        <time>2019-09-23T09:26:21.000Z</time>
      </trkpt>
      <trkpt lat="48.64564" lon="5.70617">
        <ele>248.565</ele>
        <time>2019-09-23T09:26:24.000Z</time>
      </trkpt>
      <trkpt lat="48.64553" lon="5.70631">
        <ele>248.355</ele>
        <time>2019-09-23T09:26:27.000Z</time>
      </trkpt>
      <trkpt lat="48.64541" lon="5.70644">
        <ele>247.658</ele>
        <time>2019-09-23T09:26:30.000Z</time>
      </trkpt>
      <trkpt lat="48.6453" lon="5.70657">
        <ele>247.16</ele>
        <time>2019-09-23T09:26:33.000Z</time>
      </trkpt>
      <trkpt lat="48.64518" lon="5.70668">
        <ele>246.896</ele>
        <time>2019-09-23T09:26:36.000Z</time>
      </trkpt>
      <trkpt lat="48.64505" lon="5.70677">
        <ele>246.335</ele>
        <time>2019-09-23T09:26:39.000Z</time>
      </trkpt>
      <trkpt lat="48.64492" lon="5.70684">
        <ele>246.505</ele>
        <time>2019-09-23T09:26:42.000Z</time>
      </trkpt>
      <trkpt lat="48.64478" lon="5.70688">
        <ele>246.027</ele>
        <time>2019-09-23T09:26:45.000Z</time>
      </trkpt>
      <trkpt lat="48.64464" lon="5.70691">
        <ele>245.974</ele>
        <time>2019-09-23T09:26:48.000Z</time>
      </trkpt>
      <trkpt lat="48.6445" lon="5.70691">
        <ele>245.95</ele>
        <time>2019-09-23T09:26:51.000Z</time>
      </trkpt>
      <trkpt lat="48.64436" lon="5.70689">
        <ele>245.458</ele>
        <time>2019-09-23T09:26:54.000Z</time>
      </trkpt>
      <trkpt lat="48.64422" lon="5.70685">
        <ele>245.158</ele>
        <time>2019-09-23T09:26:57.000Z</time>
      </trkpt>
      <trkpt lat="48.64409" lon="5.70679">
        <ele>245.106</ele>
        <time>2019-09-23T09:27:00.000Z</time>
      </trkpt>
      <trkpt lat="48.64397" lon="5.70671">
        <ele>244.918</ele>
        <time>2019-09-23T09:27:03.000Z</time>
      </trkpt>
      <trkpt lat="48.64387" lon="5.70662">
        <ele>244.991</ele>
        <time>2019-09-23T09:27:06.000Z</time>
      </trkpt>
      <trkpt lat="48.64375" lon="5.70653">
        <ele>245.026</ele>
        <time>2019-09-23T09:27:09.000Z</time>
      </trkpt>
      <trkpt lat="48.64362" lon="5.70641">
        <ele>245.231</ele>
        <time>2019-09-23T09:27:12.000Z</time>
      </trkpt>
      <trkpt lat="48.64349" lon="5.7063">
        <ele>245.122</ele>
        <time>2019-09-23T09:27:15.000Z</time>
      </trkpt>
      <trkpt lat="48.64336" lon="5.70618">
        <ele>245.188</ele>
        <time>2019-09-23T09:27:18.000Z</time>
      </trkpt>
      <trkpt lat="48.64323" lon="5.70606">
        <ele>245.338</ele>
        <time>2019-09-23T09:27:21.000Z</time>
      </trkpt>
      <trkpt lat="48.64311" lon="5.70594">
        <ele>245.179</ele>
        <time>2019-09-23T09:27:24.000Z</time>
      </trkpt>
      <trkpt lat="48.64299" lon="5.70583">
        <ele>245.307</ele>
        <time>2019-09-23T09:27:27.000Z</time>
      </trkpt>
      <trkpt lat="48.64287" lon="5.70571">
        <ele>245.267</ele>
        <time>2019-09-23T09:27:30.000Z</time>
      </trkpt>
      <trkpt lat="48.64275" lon="5.7056">
        <ele>244.858</ele>
        <time>2019-09-23T09:27:33.000Z</time>
      </trkpt>
      <trkpt lat="48.64262" lon="5.70548">
        <ele>244.868</ele>
        <time>2019-09-23T09:27:36.000Z</time>
      </trkpt>
      <trkpt lat="48.6425" lon="5.70537">
        <ele>245.106</ele>
        <time>2019-09-23T09:27:39.000Z</time>
      </trkpt>
      <trkpt lat="48.64237" lon="5.70526">
        <ele>245.189</ele>
        <time>2019-09-23T09:27:42.000Z</time>
      </trkpt>
      <trkpt lat="48.64226" lon="5.70516">
        <ele>245.067</ele>
        <time>2019-09-23T09:27:45.000Z</time>
      </trkpt>
      <trkpt lat="48.64214" lon="5.70504">
        <ele>246.548</ele>
        <time>2019-09-23T09:27:48.000Z</time>
      </trkpt>
      <trkpt lat="48.64202" lon="5.70493">
        <ele>246.502</ele>
        <time>2019-09-23T09:27:51.000Z</time>
      </trkpt>
      <trkpt lat="48.64189" lon="5.70482">
        <ele>246.899</ele>
        <time>2019-09-23T09:27:54.000Z</time>
      </trkpt>
      <trkpt lat="48.64177" lon="5.70471">
        <ele>247.145</ele>
        <time>2019-09-23T09:27:57.000Z</time>
      </trkpt>
      <trkpt lat="48.64165" lon="5.70463">
        <ele>246.961</ele>
        <time>2019-09-23T09:28:00.000Z</time>
      </trkpt>
      <trkpt lat="48.64152" lon="5.70462">
        <ele>247.36</ele>
        <time>2019-09-23T09:28:03.000Z</time>
      </trkpt>
      <trkpt lat="48.64139" lon="5.7047">
        <ele>247.636</ele>
        <time>2019-09-23T09:28:06.000Z</time>
      </trkpt>
      <trkpt lat="48.64127" lon="5.70483">
        <ele>247.555</ele>
        <time>2019-09-23T09:28:09.000Z</time>
      </trkpt>
      <trkpt lat="48.64115" lon="5.70495">
        <ele>249.001</ele>
        <time>2019-09-23T09:28:12.000Z</time>
      </trkpt>
      <trkpt lat="48.64101" lon="5.70505">
        <ele>251.374</ele>
        <time>2019-09-23T09:28:15.000Z</time>
      </trkpt>
      <trkpt lat="48.64087" lon="5.70515">
        <ele>252.743</ele>
        <time>2019-09-23T09:28:18.000Z</time>
      </trkpt>
      <trkpt lat="48.64072" lon="5.70521">
        <ele>253.186</ele>
        <time>2019-09-23T09:28:21.000Z</time>
      </trkpt>
      <trkpt lat="48.64057" lon="5.70523">
        <ele>253.857</ele>
        <time>2019-09-23T09:28:24.000Z</time>
      </trkpt>
      <trkpt lat="48.64042" lon="5.70523">
        <ele>253.771</ele>
        <time>2019-09-23T09:28:27.000Z</time>
      </trkpt>
      <trkpt lat="48.64028" lon="5.70524">
        <ele>253.978</ele>
        <time>2019-09-23T09:28:30.000Z</time>
      </trkpt>
      <trkpt lat="48.64013" lon="5.70529">
        <ele>254.763</ele>
        <time>2019-09-23T09:28:33.000Z</time>
      </trkpt>
      <trkpt lat="48.63999" lon="5.70535">
        <ele>255.372</ele>
        <time>2019-09-23T09:28:36.000Z</time>
      </trkpt>
      <trkpt lat="48.63986" lon="5.7054">
        <ele>255.954</ele>
        <time>2019-09-23T09:28:39.000Z</time>
      </trkpt>
      <trkpt lat="48.63974" lon="5.70545">
        <ele>256.457</ele>
        <time>2019-09-23T09:28:42.000Z</time>
      </trkpt>
      <trkpt lat="48.63959" lon="5.7055">
        <ele>256.395</ele>
        <time>2019-09-23T09:28:45.000Z</time>
      </trkpt>
      <trkpt lat="48.63944" lon="5.70552">
        <ele>256.441</ele>
        <time>2019-09-23T09:28:48.000Z</time>
      </trkpt>
      <trkpt lat="48.63928" lon="5.70553">
        <ele>256.273</ele>
        <time>2019-09-23T09:28:51.000Z</time>
      </trkpt>
      <trkpt lat="48.63914" lon="5.70551">
        <ele>255.932</ele>
        <time>2019-09-23T09:28:54.000Z</time>
      </trkpt>
      <trkpt lat="48.639" lon="5.70547">
        <ele>256.134</ele>
        <time>2019-09-23T09:28:57.000Z</time>
      </trkpt>
      <trkpt lat="48.63888" lon="5.70543">
        <ele>256.635</ele>
        <time>2019-09-23T09:29:00.000Z</time>
      </trkpt>
      <trkpt lat="48.63873" lon="5.7054">
        <ele>257.105</ele>
        <time>2019-09-23T09:29:03.000Z</time>
      </trkpt>
      <trkpt lat="48.6386" lon="5.70535">
        <ele>257.25</ele>
        <time>2019-09-23T09:29:06.000Z</time>
      </trkpt>
      <trkpt lat="48.63848" lon="5.7053">
        <ele>257.023</ele>
        <time>2019-09-23T09:29:09.000Z</time>
      </trkpt>
      <trkpt lat="48.63836" lon="5.70525">
        <ele>257.261</ele>
        <time>2019-09-23T09:29:12.000Z</time>
      </trkpt>
      <trkpt lat="48.63823" lon="5.70519">
        <ele>257.77</ele>
        <time>2019-09-23T09:29:15.000Z</time>
      </trkpt>
      <trkpt lat="48.63809" lon="5.70512">
        <ele>258.528</ele>
        <time>2019-09-23T09:29:18.000Z</time>
      </trkpt>
      <trkpt lat="48.63796" lon="5.70506">
        <ele>259.544</ele>
        <time>2019-09-23T09:29:21.000Z</time>
      </trkpt>
      <trkpt lat="48.63782" lon="5.705">
        <ele>259.372</ele>
        <time>2019-09-23T09:29:24.000Z</time>
      </trkpt>
      <trkpt lat="48.63768" lon="5.70494">
        <ele>259.253</ele>
        <time>2019-09-23T09:29:27.000Z</time>
      </trkpt>
      <trkpt lat="48.63756" lon="5.70487">
        <ele>259.713</ele>
        <time>2019-09-23T09:29:30.000Z</time>
      </trkpt>
      <trkpt lat="48.63744" lon="5.70481">
        <ele>260.119</ele>
        <time>2019-09-23T09:29:33.000Z</time>
      </trkpt>
      <trkpt lat="48.63732" lon="5.70475">
        <ele>260.764</ele>
        <time>2019-09-23T09:29:36.000Z</time>
      </trkpt>
      <trkpt lat="48.63717" lon="5.70468">
        <ele>260.963</ele>
        <time>2019-09-23T09:29:39.000Z</time>
      </trkpt>
      <trkpt lat="48.63702" lon="5.7046">
        <ele>260.993</ele>
        <time>2019-09-23T09:29:42.000Z</time>
      </trkpt>
      <trkpt lat="48.63688" lon="5.70455">
        <ele>260.998</ele>
        <time>2019-09-23T09:29:45.000Z</time>
      </trkpt>
      <trkpt lat="48.63673" lon="5.70448">
        <ele>261.247</ele>
        <time>2019-09-23T09:29:48.000Z</time>
      </trkpt>
      <trkpt lat="48.63659" lon="5.70441">
        <ele>261.194</ele>
        <time>2019-09-23T09:29:51.000Z</time>
      </trkpt>
      <trkpt lat="48.63646" lon="5.70434">
        <ele>261.422</ele>
        <time>2019-09-23T09:29:54.000Z</time>
      </trkpt>
      <trkpt lat="48.63636" lon="5.70424">
        <ele>260.114</ele>
        <time>2019-09-23T09:29:57.000Z</time>
      </trkpt>
      <trkpt lat="48.63626" lon="5.70414">
        <ele>259.906</ele>
        <time>2019-09-23T09:30:00.000Z</time>
      </trkpt>
      <trkpt lat="48.63616" lon="5.70407">
        <ele>258.701</ele>
        <time>2019-09-23T09:30:03.000Z</time>
      </trkpt>
      <trkpt lat="48.63606" lon="5.704">
        <ele>257.184</ele>
        <time>2019-09-23T09:30:06.000Z</time>
      </trkpt>
      <trkpt lat="48.63594" lon="5.70392">
        <ele>256.222</ele>
        <time>2019-09-23T09:30:09.000Z</time>
      </trkpt>
      <trkpt lat="48.63583" lon="5.70383">
        <ele>255.514</ele>
        <time>2019-09-23T09:30:12.000Z</time>
      </trkpt>
      <trkpt lat="48.63571" lon="5.70372">
        <ele>255.156</ele>
        <time>2019-09-23T09:30:15.000Z</time>
      </trkpt>
      <trkpt lat="48.63559" lon="5.70358">
        <ele>255.047</ele>
        <time>2019-09-23T09:30:18.000Z</time>
      </trkpt>
      <trkpt lat="48.63546" lon="5.70345">
        <ele>254.824</ele>
        <time>2019-09-23T09:30:21.000Z</time>
      </trkpt>
      <trkpt lat="48.63532" lon="5.7033">
        <ele>255.035</ele>
        <time>2019-09-23T09:30:24.000Z</time>
      </trkpt>
      <trkpt lat="48.63516" lon="5.70317">
        <ele>254.531</ele>
        <time>2019-09-23T09:30:27.000Z</time>
      </trkpt>
      <trkpt lat="48.63498" lon="5.70305">
        <ele>253.461</ele>
        <time>2019-09-23T09:30:30.000Z</time>
      </trkpt>
      <trkpt lat="48.6348" lon="5.70293">
        <ele>253.219</ele>
        <time>2019-09-23T09:30:33.000Z</time>
      </trkpt>
      <trkpt lat="48.63462" lon="5.70284">
        <ele>253.638</ele>
        <time>2019-09-23T09:30:36.000Z</time>
      </trkpt>
      <trkpt lat="48.63446" lon="5.70275">
        <ele>254.052</ele>
        <time>2019-09-23T09:30:39.000Z</time>
      </trkpt>
      <trkpt lat="48.63431" lon="5.70266">
        <ele>253.903</ele>
        <time>2019-09-23T09:30:42.000Z</time>
      </trkpt>
      <trkpt lat="48.63417" lon="5.70257">
        <ele>253.751</ele>
        <time>2019-09-23T09:30:45.000Z</time>
      </trkpt>
      <trkpt lat="48.63403" lon="5.7025">
        <ele>253.742</ele>
        <time>2019-09-23T09:30:48.000Z</time>
      </trkpt>
      <trkpt lat="48.63389" lon="5.7024">
        <ele>254.023</ele>
        <time>2019-09-23T09:30:51.000Z</time>
      </trkpt>
      <trkpt lat="48.63375" lon="5.70231">
        <ele>254.145</ele>
        <time>2019-09-23T09:30:54.000Z</time>
      </trkpt>
      <trkpt lat="48.63362" lon="5.70221">
        <ele>253.671</ele>
        <time>2019-09-23T09:30:57.000Z</time>
      </trkpt>
      <trkpt lat="48.63348" lon="5.7021">
        <ele>253.011</ele>
        <time>2019-09-23T09:31:00.000Z</time>
      </trkpt>
      <trkpt lat="48.63335" lon="5.702">
        <ele>253.192</ele>
        <time>2019-09-23T09:31:03.000Z</time>
      </trkpt>
      <trkpt lat="48.63322" lon="5.70187">
        <ele>253.768</ele>
        <time>2019-09-23T09:31:06.000Z</time>
      </trkpt>
      <trkpt lat="48.63311" lon="5.70176">
        <ele>253.622</ele>
        <time>2019-09-23T09:31:09.000Z</time>
      </trkpt>
      <trkpt lat="48.63297" lon="5.70164">
        <ele>253.753</ele>
        <time>2019-09-23T09:31:12.000Z</time>
      </trkpt>
      <trkpt lat="48.63284" lon="5.70153">
        <ele>253.785</ele>
        <time>2019-09-23T09:31:15.000Z</time>
      </trkpt>
      <trkpt lat="48.63271" lon="5.70143">
        <ele>254.36</ele>
        <time>2019-09-23T09:31:18.000Z</time>
      </trkpt>
      <trkpt lat="48.63258" lon="5.70133">
        <ele>254.753</ele>
        <time>2019-09-23T09:31:21.000Z</time>
      </trkpt>
      <trkpt lat="48.63244" lon="5.70119">
        <ele>253.802</ele>
        <time>2019-09-23T09:31:24.000Z</time>
      </trkpt>
      <trkpt lat="48.63233" lon="5.70107">
        <ele>254.081</ele>
        <time>2019-09-23T09:31:27.000Z</time>
      </trkpt>
      <trkpt lat="48.63221" lon="5.70093">
        <ele>253.871</ele>
        <time>2019-09-23T09:31:30.000Z</time>
      </trkpt>
      <trkpt lat="48.63209" lon="5.7008">
        <ele>253.103</ele>
        <time>2019-09-23T09:31:33.000Z</time>
      </trkpt>
      <trkpt lat="48.63197" lon="5.70067">
        <ele>252.15</ele>
        <time>2019-09-23T09:31:36.000Z</time>
      </trkpt>
      <trkpt lat="48.63186" lon="5.7005">
        <ele>252.409</ele>
        <time>2019-09-23T09:31:39.000Z</time>
      </trkpt>
      <trkpt lat="48.63176" lon="5.70033">
        <ele>252.78</ele>
        <time>2019-09-23T09:31:42.000Z</time>
      </trkpt>
      <trkpt lat="48.63166" lon="5.70014">
        <ele>253.064</ele>
        <time>2019-09-23T09:31:45.000Z</time>
      </trkpt>
      <trkpt lat="48.63157" lon="5.69998">
        <ele>254.095</ele>
        <time>2019-09-23T09:31:48.000Z</time>
      </trkpt>
      <trkpt lat="48.63148" lon="5.69982">
        <ele>254.719</ele>
        <time>2019-09-23T09:31:51.000Z</time>
      </trkpt>
      <trkpt lat="48.6314" lon="5.69967">
        <ele>255.089</ele>
        <time>2019-09-23T09:31:54.000Z</time>
      </trkpt>
      <trkpt lat="48.63132" lon="5.6995">
        <ele>255.164</ele>
        <time>2019-09-23T09:31:57.000Z</time>
      </trkpt>
      <trkpt lat="48.63126" lon="5.69934">
        <ele>255.343</ele>
        <time>2019-09-23T09:32:00.000Z</time>
      </trkpt>
      <trkpt lat="48.63118" lon="5.69917">
        <ele>255.757</ele>
        <time>2019-09-23T09:32:03.000Z</time>
      </trkpt>
      <trkpt lat="48.63108" lon="5.69899">
        <ele>256.513</ele>
        <time>2019-09-23T09:32:06.000Z</time>
      </trkpt>
      <trkpt lat="48.63099" lon="5.69881">
        <ele>257.405</ele>
        <time>2019-09-23T09:32:09.000Z</time>
      </trkpt>
      <trkpt lat="48.6309" lon="5.6986">
        <ele>258.751</ele>
        <time>2019-09-23T09:32:12.000Z</time>
      </trkpt>
      <trkpt lat="48.63081" lon="5.69841">
        <ele>259.631</ele>
        <time>2019-09-23T09:32:15.000Z</time>
      </trkpt>
      <trkpt lat="48.63071" lon="5.69822">
        <ele>260.45</ele>
        <time>2019-09-23T09:32:18.000Z</time>
      </trkpt>
      <trkpt lat="48.63061" lon="5.69804">
        <ele>261.291</ele>
        <time>2019-09-23T09:32:21.000Z</time>
      </trkpt>
      <trkpt lat="48.63054" lon="5.69786">
        <ele>261.46</ele>
        <time>2019-09-23T09:32:24.000Z</time>
      </trkpt>
      <trkpt lat="48.63048" lon="5.69769">
        <ele>261.578</ele>
        <time>2019-09-23T09:32:27.000Z</time>
      </trkpt>
      <trkpt lat="48.6304" lon="5.69748">
        <ele>262.68</ele>
        <time>2019-09-23T09:32:30.000Z</time>
      </trkpt>
      <trkpt lat="48.63031" lon="5.69728">
        <ele>263.598</ele>
        <time>2019-09-23T09:32:33.000Z</time>
      </trkpt>
      <trkpt lat="48.63022" lon="5.69709">
        <ele>265.008</ele>
        <time>2019-09-23T09:32:36.000Z</time>
      </trkpt>
      <trkpt lat="48.63015" lon="5.69689">
        <ele>265.819</ele>
        <time>2019-09-23T09:32:39.000Z</time>
      </trkpt>
      <trkpt lat="48.63007" lon="5.69671">
        <ele>267.037</ele>
        <time>2019-09-23T09:32:42.000Z</time>
      </trkpt>
      <trkpt lat="48.63001" lon="5.69651">
        <ele>267.1</ele>
        <time>2019-09-23T09:32:45.000Z</time>
      </trkpt>
      <trkpt lat="48.62994" lon="5.69633">
        <ele>266.943</ele>
        <time>2019-09-23T09:32:48.000Z</time>
      </trkpt>
      <trkpt lat="48.62987" lon="5.69615">
        <ele>266.73</ele>
        <time>2019-09-23T09:32:51.000Z</time>
      </trkpt>
      <trkpt lat="48.62979" lon="5.69598">
        <ele>265.953</ele>
        <time>2019-09-23T09:32:54.000Z</time>
      </trkpt>
      <trkpt lat="48.62971" lon="5.69578">
        <ele>264.754</ele>
        <time>2019-09-23T09:32:57.000Z</time>
      </trkpt>
      <trkpt lat="48.62964" lon="5.6956">
        <ele>263.43</ele>
        <time>2019-09-23T09:33:00.000Z</time>
      </trkpt>
      <trkpt lat="48.62958" lon="5.69542">
        <ele>262.651</ele>
        <time>2019-09-23T09:33:03.000Z</time>
      </trkpt>
      <trkpt lat="48.62952" lon="5.69523">
        <ele>261.619</ele>
        <time>2019-09-23T09:33:06.000Z</time>
      </trkpt>
      <trkpt lat="48.62945" lon="5.69506">
        <ele>261.872</ele>
        <time>2019-09-23T09:33:09.000Z</time>
      </trkpt>
      <trkpt lat="48.62939" lon="5.69486">
        <ele>262.194</ele>
        <time>2019-09-23T09:33:12.000Z</time>
      </trkpt>
      <trkpt lat="48.62934" lon="5.69466">
        <ele>262.285</ele>
        <time>2019-09-23T09:33:15.000Z</time>
      </trkpt>
      <trkpt lat="48.62929" lon="5.69443">
        <ele>262.404</ele>
        <time>2019-09-23T09:33:18.000Z</time>
      </trkpt>
      <trkpt lat="48.62923" lon="5.6942">
        <ele>262.232</ele>
        <time>2019-09-23T09:33:21.000Z</time>
      </trkpt>
      <trkpt lat="48.62915" lon="5.69393">
        <ele>261.672</ele>
        <time>2019-09-23T09:33:24.000Z</time>
      </trkpt>
      <trkpt lat="48.62907" lon="5.69366">
        <ele>261.316</ele>
        <time>2019-09-23T09:33:27.000Z</time>
      </trkpt>
      <trkpt lat="48.62902" lon="5.69346">
        <ele>261.399</ele>
        <time>2019-09-23T09:33:30.000Z</time>
      </trkpt>
      <trkpt lat="48.62898" lon="5.69328">
        <ele>260.738</ele>
        <time>2019-09-23T09:33:33.000Z</time>
      </trkpt>
      <trkpt lat="48.62895" lon="5.69311">
        <ele>260.414</ele>
        <time>2019-09-23T09:33:36.000Z</time>
      </trkpt>
      <trkpt lat="48.62894" lon="5.69296">
        <ele>260.245</ele>
        <time>2019-09-23T09:33:39.000Z</time>
      </trkpt>
      <trkpt lat="48.62893" lon="5.69279">
        <ele>260.901</ele>
        <time>2019-09-23T09:33:42.000Z</time>
      </trkpt>
      <trkpt lat="48.6289" lon="5.6926">
        <ele>261.092</ele>
        <time>2019-09-23T09:33:45.000Z</time>
      </trkpt>
      <trkpt lat="48.62889" lon="5.69242">
        <ele>260.232</ele>
        <time>2019-09-23T09:33:48.000Z</time>
      </trkpt>
      <trkpt lat="48.62885" lon="5.69222">
        <ele>259.19</ele>
        <time>2019-09-23T09:33:51.000Z</time>
      </trkpt>
      <trkpt lat="48.62883" lon="5.692">
        <ele>257.23</ele>
        <time>2019-09-23T09:33:54.000Z</time>
      </trkpt>
      <trkpt lat="48.62881" lon="5.69177">
        <ele>255.683</ele>
        <time>2019-09-23T09:33:57.000Z</time>
      </trkpt>
      <trkpt lat="48.62877" lon="5.69152">
        <ele>253.752</ele>
        <time>2019-09-23T09:34:00.000Z</time>
      </trkpt>
      <trkpt lat="48.62874" lon="5.69129">
        <ele>251.383</ele>
        <time>2019-09-23T09:34:03.000Z</time>
      </trkpt>
      <trkpt lat="48.62872" lon="5.69109">
        <ele>250.081</ele>
        <time>2019-09-23T09:34:06.000Z</time>
      </trkpt>
      <trkpt lat="48.62869" lon="5.69088">
        <ele>249.945</ele>
        <time>2019-09-23T09:34:09.000Z</time>
      </trkpt>
      <trkpt lat="48.62867" lon="5.69067">
        <ele>249.849</ele>
        <time>2019-09-23T09:34:12.000Z</time>
      </trkpt>
      <trkpt lat="48.62865" lon="5.69046">
        <ele>249.713</ele>
        <time>2019-09-23T09:34:15.000Z</time>
      </trkpt>
      <trkpt lat="48.62862" lon="5.69025">
        <ele>249.796</ele>
        <time>2019-09-23T09:34:18.000Z</time>
      </trkpt>
      <trkpt lat="48.62859" lon="5.69004">
        <ele>249.147</ele>
        <time>2019-09-23T09:34:21.000Z</time>
      </trkpt>
      <trkpt lat="48.62858" lon="5.68983">
        <ele>249.115</ele>
        <time>2019-09-23T09:34:24.000Z</time>
      </trkpt>
      <trkpt lat="48.62855" lon="5.6896">
        <ele>248.909</ele>
        <time>2019-09-23T09:34:27.000Z</time>
      </trkpt>
      <trkpt lat="48.62853" lon="5.68937">
        <ele>248.6</ele>
        <time>2019-09-23T09:34:30.000Z</time>
      </trkpt>
      <trkpt lat="48.6285" lon="5.68915">
        <ele>248.042</ele>
        <time>2019-09-23T09:34:33.000Z</time>
      </trkpt>
      <trkpt lat="48.62848" lon="5.68893">
        <ele>247.679</ele>
        <time>2019-09-23T09:34:36.000Z</time>
      </trkpt>
      <trkpt lat="48.62846" lon="5.6887">
        <ele>248.11</ele>
        <time>2019-09-23T09:34:39.000Z</time>
      </trkpt>
      <trkpt lat="48.62844" lon="5.68847">
        <ele>248.198</ele>
        <time>2019-09-23T09:34:42.000Z</time>
      </trkpt>
      <trkpt lat="48.62841" lon="5.68824">
        <ele>248.464</ele>
        <time>2019-09-23T09:34:45.000Z</time>
      </trkpt>
      <trkpt lat="48.62839" lon="5.68802">
        <ele>248.564</ele>
        <time>2019-09-23T09:34:48.000Z</time>
      </trkpt>
      <trkpt lat="48.62836" lon="5.68783">
        <ele>248.431</ele>
        <time>2019-09-23T09:34:51.000Z</time>
      </trkpt>
      <trkpt lat="48.62833" lon="5.68762">
        <ele>248.74</ele>
        <time>2019-09-23T09:34:54.000Z</time>
      </trkpt>
      <trkpt lat="48.62828" lon="5.68736">
        <ele>248.713</ele>
        <time>2019-09-23T09:34:57.000Z</time>
      </trkpt>
      <trkpt lat="48.62823" lon="5.6871">
        <ele>248.259</ele>
        <time>2019-09-23T09:35:00.000Z</time>
      </trkpt>
      <trkpt lat="48.62819" lon="5.68685">
        <ele>247.952</ele>
        <time>2019-09-23T09:35:03.000Z</time>
      </trkpt>
      <trkpt lat="48.62814" lon="5.68662">
        <ele>247.6</ele>
        <time>2019-09-23T09:35:06.000Z</time>
      </trkpt>
      <trkpt lat="48.62809" lon="5.68641">
        <ele>247.39</ele>
        <time>2019-09-23T09:35:09.000Z</time>
      </trkpt>
      <trkpt lat="48.62803" lon="5.6862">
        <ele>246.884</ele>
        <time>2019-09-23T09:35:12.000Z</time>
      </trkpt>
      <trkpt lat="48.62798" lon="5.68599">
        <ele>246.995</ele>
        <time>2019-09-23T09:35:15.000Z</time>
      </trkpt>
      <trkpt lat="48.62792" lon="5.68579">
        <ele>247.128</ele>
        <time>2019-09-23T09:35:18.000Z</time>
      </trkpt>
      <trkpt lat="48.62787" lon="5.68558">
        <ele>247.378</ele>
        <time>2019-09-23T09:35:21.000Z</time>
      </trkpt>
      <trkpt lat="48.62782" lon="5.68539">
        <ele>247.281</ele>
        <time>2019-09-23T09:35:24.000Z</time>
      </trkpt>
      <trkpt lat="48.62778" lon="5.6852">
        <ele>248.223</ele>
        <time>2019-09-23T09:35:27.000Z</time>
      </trkpt>
      <trkpt lat="48.62775" lon="5.68503">
        <ele>249.124</ele>
        <time>2019-09-23T09:35:30.000Z</time>
      </trkpt>
      <trkpt lat="48.62772" lon="5.68487">
        <ele>250.007</ele>
        <time>2019-09-23T09:35:33.000Z</time>
      </trkpt>
      <trkpt lat="48.62769" lon="5.68472">
        <ele>250.749</ele>
        <time>2019-09-23T09:35:36.000Z</time>
      </trkpt>
      <trkpt lat="48.62767" lon="5.68458">
        <ele>251.31</ele>
        <time>2019-09-23T09:35:39.000Z</time>
      </trkpt>
      <trkpt lat="48.62764" lon="5.68443">
        <ele>251.776</ele>
        <time>2019-09-23T09:35:42.000Z</time>
      </trkpt>
      <trkpt lat="48.62761" lon="5.68429">
        <ele>251.959</ele>
        <time>2019-09-23T09:35:45.000Z</time>
      </trkpt>
      <trkpt lat="48.62756" lon="5.68415">
        <ele>251.747</ele>
        <time>2019-09-23T09:35:48.000Z</time>
      </trkpt>
      <trkpt lat="48.62751" lon="5.684">
        <ele>251.145</ele>
        <time>2019-09-23T09:35:51.000Z</time>
      </trkpt>
      <trkpt lat="48.62747" lon="5.68385">
        <ele>251.335</ele>
        <time>2019-09-23T09:35:54.000Z</time>
      </trkpt>
      <trkpt lat="48.62742" lon="5.68371">
        <ele>251.503</ele>
        <time>2019-09-23T09:35:57.000Z</time>
      </trkpt>
      <trkpt lat="48.62738" lon="5.68356">
        <ele>251.896</ele>
        <time>2019-09-23T09:36:00.000Z</time>
      </trkpt>
      <trkpt lat="48.62733" lon="5.68343">
        <ele>252.407</ele>
        <time>2019-09-23T09:36:03.000Z</time>
      </trkpt>
      <trkpt lat="48.62729" lon="5.68329">
        <ele>252.248</ele>
        <time>2019-09-23T09:36:06.000Z</time>
      </trkpt>
      <trkpt lat="48.62724" lon="5.68315">
        <ele>252.562</ele>
        <time>2019-09-23T09:36:09.000Z</time>
      </trkpt>
      <trkpt lat="48.62718" lon="5.683">
        <ele>251.607</ele>
        <time>2019-09-23T09:36:12.000Z</time>
      </trkpt>
      <trkpt lat="48.62711" lon="5.68284">
        <ele>251.104</ele>
        <time>2019-09-23T09:36:15.000Z</time>
      </trkpt>
      <trkpt lat="48.62705" lon="5.68266">
        <ele>250.331</ele>
        <time>2019-09-23T09:36:18.000Z</time>
      </trkpt>
      <trkpt lat="48.62698" lon="5.68247">
        <ele>250.133</ele>
        <time>2019-09-23T09:36:21.000Z</time>
      </trkpt>
      <trkpt lat="48.62691" lon="5.68229">
        <ele>248.704</ele>
        <time>2019-09-23T09:36:24.000Z</time>
      </trkpt>
      <trkpt lat="48.62684" lon="5.68211">
        <ele>248.012</ele>
        <time>2019-09-23T09:36:27.000Z</time>
      </trkpt>
      <trkpt lat="48.62677" lon="5.68193">
        <ele>247.556</ele>
        <time>2019-09-23T09:36:30.000Z</time>
      </trkpt>
      <trkpt lat="48.62668" lon="5.68175">
        <ele>247.57</ele>
        <time>2019-09-23T09:36:33.000Z</time>
      </trkpt>
      <trkpt lat="48.62658" lon="5.68157">
        <ele>247.617</ele>
        <time>2019-09-23T09:36:36.000Z</time>
      </trkpt>
      <trkpt lat="48.62648" lon="5.68141">
        <ele>247.065</ele>
        <time>2019-09-23T09:36:39.000Z</time>
      </trkpt>
      <trkpt lat="48.62637" lon="5.68126">
        <ele>246.955</ele>
        <time>2019-09-23T09:36:42.000Z</time>
      </trkpt>
      <trkpt lat="48.62625" lon="5.68112">
        <ele>247.043</ele>
        <time>2019-09-23T09:36:45.000Z</time>
      </trkpt>
      <trkpt lat="48.62614" lon="5.681">
        <ele>246.984</ele>
        <time>2019-09-23T09:36:48.000Z</time>
      </trkpt>
      <trkpt lat="48.62602" lon="5.68088">
        <ele>247.122</ele>
        <time>2019-09-23T09:36:51.000Z</time>
      </trkpt>
      <trkpt lat="48.62589" lon="5.68076">
        <ele>247.038</ele>
        <time>2019-09-23T09:36:54.000Z</time>
      </trkpt>
      <trkpt lat="48.62576" lon="5.68064">
        <ele>247.097</ele>
        <time>2019-09-23T09:36:57.000Z</time>
      </trkpt>
      <trkpt lat="48.62563" lon="5.68053">
        <ele>247.634</ele>
        <time>2019-09-23T09:37:00.000Z</time>
      </trkpt>
      <trkpt lat="48.6255" lon="5.68041">
        <ele>248.142</ele>
        <time>2019-09-23T09:37:03.000Z</time>
      </trkpt>
      <trkpt lat="48.62537" lon="5.68029">
        <ele>248.662</ele>
        <time>2019-09-23T09:37:06.000Z</time>
      </trkpt>
      <trkpt lat="48.62524" lon="5.68017">
        <ele>248.985</ele>
        <time>2019-09-23T09:37:09.000Z</time>
      </trkpt>
      <trkpt lat="48.6251" lon="5.68006">
        <ele>249.138</ele>
        <time>2019-09-23T09:37:12.000Z</time>
      </trkpt>
      <trkpt lat="48.62497" lon="5.67994">
        <ele>248.973</ele>
        <time>2019-09-23T09:37:15.000Z</time>
      </trkpt>
      <trkpt lat="48.62484" lon="5.67984">
        <ele>248.582</ele>
        <time>2019-09-23T09:37:18.000Z</time>
      </trkpt>
      <trkpt lat="48.62471" lon="5.67973">
        <ele>248.717</ele>
        <time>2019-09-23T09:37:21.000Z</time>
      </trkpt>
      <trkpt lat="48.6246" lon="5.67963">
        <ele>249.282</ele>
        <time>2019-09-23T09:37:24.000Z</time>
      </trkpt>
      <trkpt lat="48.62449" lon="5.67951">
        <ele>249.537</ele>
        <time>2019-09-23T09:37:27.000Z</time>
      </trkpt>
      <trkpt lat="48.62438" lon="5.67941">
        <ele>249.238</ele>
        <time>2019-09-23T09:37:30.000Z</time>
      </trkpt>
      <trkpt lat="48.62426" lon="5.67931">
        <ele>249.494</ele>
        <time>2019-09-23T09:37:33.000Z</time>
      </trkpt>
      <trkpt lat="48.62415" lon="5.6792">
        <ele>249.462</ele>
        <time>2019-09-23T09:37:36.000Z</time>
      </trkpt>
      <trkpt lat="48.62404" lon="5.6791">
        <ele>249.661</ele>
        <time>2019-09-23T09:37:39.000Z</time>
      </trkpt>
      <trkpt lat="48.62391" lon="5.67898">
        <ele>250.413</ele>
        <time>2019-09-23T09:37:42.000Z</time>
      </trkpt>
      <trkpt lat="48.62379" lon="5.67888">
        <ele>250.664</ele>
        <time>2019-09-23T09:37:45.000Z</time>
      </trkpt>
      <trkpt lat="48.62367" lon="5.67877">
        <ele>250.763</ele>
        <time>2019-09-23T09:37:48.000Z</time>
      </trkpt>
      <trkpt lat="48.62355" lon="5.67865">
        <ele>250.804</ele>
        <time>2019-09-23T09:37:51.000Z</time>
      </trkpt>
      <trkpt lat="48.62343" lon="5.67853">
        <ele>251.295</ele>
        <time>2019-09-23T09:37:54.000Z</time>
      </trkpt>
      <trkpt lat="48.62332" lon="5.67841">
        <ele>251.231</ele>
        <time>2019-09-23T09:37:57.000Z</time>
      </trkpt>
      <trkpt lat="48.6232" lon="5.6783">
        <ele>251.413</ele>
        <time>2019-09-23T09:38:00.000Z</time>
      </trkpt>
      <trkpt lat="48.6231" lon="5.6782">
        <ele>252.109</ele>
        <time>2019-09-23T09:38:03.000Z</time>
      </trkpt>
      <trkpt lat="48.62297" lon="5.6781">
        <ele>252.971</ele>
        <time>2019-09-23T09:38:06.000Z</time>
      </trkpt>
      <trkpt lat="48.62283" lon="5.67799">
        <ele>252.837</ele>
        <time>2019-09-23T09:38:09.000Z</time>
      </trkpt>
      <trkpt lat="48.6227" lon="5.67788">
        <ele>252.462</ele>
        <time>2019-09-23T09:38:12.000Z</time>
      </trkpt>
      <trkpt lat="48.62258" lon="5.67777">
        <ele>252.179</ele>
        <time>2019-09-23T09:38:15.000Z</time>
      </trkpt>
      <trkpt lat="48.62245" lon="5.67766">
        <ele>252.252</ele>
        <time>2019-09-23T09:38:18.000Z</time>
      </trkpt>
      <trkpt lat="48.62232" lon="5.67756">
        <ele>252.134</ele>
        <time>2019-09-23T09:38:21.000Z</time>
      </trkpt>
      <trkpt lat="48.62219" lon="5.67746">
        <ele>251.502</ele>
        <time>2019-09-23T09:38:24.000Z</time>
      </trkpt>
      <trkpt lat="48.62206" lon="5.67736">
        <ele>251.221</ele>
        <time>2019-09-23T09:38:27.000Z</time>
      </trkpt>
      <trkpt lat="48.62193" lon="5.67727">
        <ele>250.861</ele>
        <time>2019-09-23T09:38:30.000Z</time>
      </trkpt>
      <trkpt lat="48.62181" lon="5.67716">
        <ele>250.425</ele>
        <time>2019-09-23T09:38:33.000Z</time>
      </trkpt>
      <trkpt lat="48.62168" lon="5.67705">
        <ele>250.296</ele>
        <time>2019-09-23T09:38:36.000Z</time>
      </trkpt>
      <trkpt lat="48.62156" lon="5.67695">
        <ele>249.976</ele>
        <time>2019-09-23T09:38:39.000Z</time>
      </trkpt>
      <trkpt lat="48.62143" lon="5.67685">
        <ele>249.93</ele>
        <time>2019-09-23T09:38:42.000Z</time>
      </trkpt>
      <trkpt lat="48.6213" lon="5.67674">
        <ele>249.881</ele>
        <time>2019-09-23T09:38:45.000Z</time>
      </trkpt>
      <trkpt lat="48.62118" lon="5.67662">
        <ele>250.275</ele>
        <time>2019-09-23T09:38:48.000Z</time>
      </trkpt>
      <trkpt lat="48.62106" lon="5.67652">
        <ele>250.58</ele>
        <time>2019-09-23T09:38:51.000Z</time>
      </trkpt>
      <trkpt lat="48.62093" lon="5.67642">
        <ele>250.57</ele>
        <time>2019-09-23T09:38:54.000Z</time>
      </trkpt>
      <trkpt lat="48.62081" lon="5.67631">
        <ele>250.889</ele>
        <time>2019-09-23T09:38:57.000Z</time>
      </trkpt>
      <trkpt lat="48.6207" lon="5.67621">
        <ele>250.607</ele>
        <time>2019-09-23T09:39:00.000Z</time>
      </trkpt>
      <trkpt lat="48.62058" lon="5.6761">
        <ele>250.601</ele>
        <time>2019-09-23T09:39:03.000Z</time>
      </trkpt>
      <trkpt lat="48.62045" lon="5.67598">
        <ele>250.331</ele>
        <time>2019-09-23T09:39:06.000Z</time>
      </trkpt>
      <trkpt lat="48.62032" lon="5.67588">
        <ele>250.043</ele>
        <time>2019-09-23T09:39:09.000Z</time>
      </trkpt>
      <trkpt lat="48.6202" lon="5.67577">
        <ele>249.9</ele>
        <time>2019-09-23T09:39:12.000Z</time>
      </trkpt>
      <trkpt lat="48.62008" lon="5.67565">
        <ele>249.611</ele>
        <time>2019-09-23T09:39:15.000Z</time>
      </trkpt>
      <trkpt lat="48.61996" lon="5.67556">
        <ele>250.249</ele>
        <time>2019-09-23T09:39:18.000Z</time>
      </trkpt>
      <trkpt lat="48.61984" lon="5.67546">
        <ele>250.312</ele>
        <time>2019-09-23T09:39:21.000Z</time>
      </trkpt>
      <trkpt lat="48.61972" lon="5.67535">
        <ele>250.8</ele>
        <time>2019-09-23T09:39:24.000Z</time>
      </trkpt>
      <trkpt lat="48.61959" lon="5.67524">
        <ele>251.18</ele>
        <time>2019-09-23T09:39:27.000Z</time>
      </trkpt>
      <trkpt lat="48.61946" lon="5.67513">
        <ele>251.448</ele>
        <time>2019-09-23T09:39:30.000Z</time>
      </trkpt>
      <trkpt lat="48.61935" lon="5.67503">
        <ele>251.68</ele>
        <time>2019-09-23T09:39:33.000Z</time>
      </trkpt>
      <trkpt lat="48.61923" lon="5.67492">
        <ele>251.512</ele>
        <time>2019-09-23T09:39:36.000Z</time>
      </trkpt>
      <trkpt lat="48.6191" lon="5.67481">
        <ele>251.312</ele>
        <time>2019-09-23T09:39:39.000Z</time>
      </trkpt>
      <trkpt lat="48.61895" lon="5.67469">
        <ele>251.172</ele>
        <time>2019-09-23T09:39:42.000Z</time>
      </trkpt>
      <trkpt lat="48.6188" lon="5.67456">
        <ele>250.608</ele>
        <time>2019-09-23T09:39:45.000Z</time>
      </trkpt>
      <trkpt lat="48.61867" lon="5.67445">
        <ele>250.111</ele>
        <time>2019-09-23T09:39:48.000Z</time>
      </trkpt>
      <trkpt lat="48.61855" lon="5.67434">
        <ele>250.214</ele>
        <time>2019-09-23T09:39:51.000Z</time>
      </trkpt>
      <trkpt lat="48.61841" lon="5.67422">
        <ele>249.574</ele>
        <time>2019-09-23T09:39:54.000Z</time>
      </trkpt>
      <trkpt lat="48.61827" lon="5.67408">
        <ele>249.468</ele>
        <time>2019-09-23T09:39:57.000Z</time>
      </trkpt>
      <trkpt lat="48.61814" lon="5.67396">
        <ele>249.603</ele>
        <time>2019-09-23T09:40:00.000Z</time>
      </trkpt>
      <trkpt lat="48.61801" lon="5.67385">
        <ele>249.384</ele>
        <time>2019-09-23T09:40:03.000Z</time>
      </trkpt>
      <trkpt lat="48.61789" lon="5.67374">
        <ele>249.141</ele>
        <time>2019-09-23T09:40:06.000Z</time>
      </trkpt>
      <trkpt lat="48.61776" lon="5.67364">
        <ele>249.177</ele>
        <time>2019-09-23T09:40:09.000Z</time>
      </trkpt>
      <trkpt lat="48.61764" lon="5.67355">
        <ele>249.441</ele>
        <time>2019-09-23T09:40:12.000Z</time>
      </trkpt>
      <trkpt lat="48.61754" lon="5.67345">
        <ele>249.196</ele>
        <time>2019-09-23T09:40:15.000Z</time>
      </trkpt>
      <trkpt lat="48.61744" lon="5.67334">
        <ele>249.512</ele>
        <time>2019-09-23T09:40:18.000Z</time>
      </trkpt>
      <trkpt lat="48.61733" lon="5.67324">
        <ele>250.208</ele>
        <time>2019-09-23T09:40:21.000Z</time>
      </trkpt>
      <trkpt lat="48.61723" lon="5.67314">
        <ele>250.884</ele>
        <time>2019-09-23T09:40:24.000Z</time>
      </trkpt>
      <trkpt lat="48.61711" lon="5.67305">
        <ele>251.508</ele>
        <time>2019-09-23T09:40:27.000Z</time>
      </trkpt>
      <trkpt lat="48.61699" lon="5.67295">
        <ele>251.964</ele>
        <time>2019-09-23T09:40:30.000Z</time>
      </trkpt>
      <trkpt lat="48.61687" lon="5.67286">
        <ele>252.142</ele>
        <time>2019-09-23T09:40:33.000Z</time>
      </trkpt>
      <trkpt lat="48.61676" lon="5.67277">
        <ele>252.897</ele>
        <time>2019-09-23T09:40:36.000Z</time>
      </trkpt>
      <trkpt lat="48.61664" lon="5.67269">
        <ele>253.402</ele>
        <time>2019-09-23T09:40:39.000Z</time>
      </trkpt>
      <trkpt lat="48.61653" lon="5.67258">
        <ele>253.894</ele>
        <time>2019-09-23T09:40:42.000Z</time>
      </trkpt>
      <trkpt lat="48.61643" lon="5.67248">
        <ele>254.102</ele>
        <time>2019-09-23T09:40:45.000Z</time>
      </trkpt>
      <trkpt lat="48.61632" lon="5.67239">
        <ele>254.294</ele>
        <time>2019-09-23T09:40:48.000Z</time>
      </trkpt>
      <trkpt lat="48.6162" lon="5.67228">
        <ele>253.819</ele>
        <time>2019-09-23T09:40:51.000Z</time>
      </trkpt>
      <trkpt lat="48.6161" lon="5.67218">
        <ele>253.288</ele>
        <time>2019-09-23T09:40:54.000Z</time>
      </trkpt>
      <trkpt lat="48.61599" lon="5.67209">
        <ele>252.402</ele>
        <time>2019-09-23T09:40:57.000Z</time>
      </trkpt>
      <trkpt lat="48.61588" lon="5.67199">
        <ele>252.506</ele>
        <time>2019-09-23T09:41:00.000Z</time>
      </trkpt>
      <trkpt lat="48.61577" lon="5.6719">
        <ele>252.965</ele>
        <time>2019-09-23T09:41:03.000Z</time>
      </trkpt>
      <trkpt lat="48.61565" lon="5.6718">
        <ele>253.101</ele>
        <time>2019-09-23T09:41:06.000Z</time>
      </trkpt>
      <trkpt lat="48.61555" lon="5.67171">
        <ele>253.517</ele>
        <time>2019-09-23T09:41:09.000Z</time>
      </trkpt>
      <trkpt lat="48.61545" lon="5.67162">
        <ele>253.574</ele>
        <time>2019-09-23T09:41:12.000Z</time>
      </trkpt>
      <trkpt lat="48.61536" lon="5.67153">
        <ele>253.77</ele>
        <time>2019-09-23T09:41:15.000Z</time>
      </trkpt>
      <trkpt lat="48.61525" lon="5.67144">
        <ele>254.502</ele>
        <time>2019-09-23T09:41:18.000Z</time>
      </trkpt>
      <trkpt lat="48.61512" lon="5.67134">
        <ele>255.346</ele>
        <time>2019-09-23T09:41:21.000Z</time>
      </trkpt>
      <trkpt lat="48.615" lon="5.67124">
        <ele>255.965</ele>
        <time>2019-09-23T09:41:24.000Z</time>
      </trkpt>
      <trkpt lat="48.61488" lon="5.67114">
        <ele>256.627</ele>
        <time>2019-09-23T09:41:27.000Z</time>
      </trkpt>
      <trkpt lat="48.61476" lon="5.67104">
        <ele>256.828</ele>
        <time>2019-09-23T09:41:30.000Z</time>
      </trkpt>
      <trkpt lat="48.61463" lon="5.67093">
        <ele>256.861</ele>
        <time>2019-09-23T09:41:33.000Z</time>
      </trkpt>
      <trkpt lat="48.6145" lon="5.67081">
        <ele>257.04</ele>
        <time>2019-09-23T09:41:36.000Z</time>
      </trkpt>
      <trkpt lat="48.61437" lon="5.6707">
        <ele>255.826</ele>
        <time>2019-09-23T09:41:39.000Z</time>
      </trkpt>
      <trkpt lat="48.61425" lon="5.67059">
        <ele>254.94</ele>
        <time>2019-09-23T09:41:42.000Z</time>
      </trkpt>
      <trkpt lat="48.61414" lon="5.67048">
        <ele>254.712</ele>
        <time>2019-09-23T09:41:45.000Z</time>
      </trkpt>
      <trkpt lat="48.61403" lon="5.67039">
        <ele>254.268</ele>
        <time>2019-09-23T09:41:48.000Z</time>
      </trkpt>
      <trkpt lat="48.61391" lon="5.67028">
        <ele>253.857</ele>
        <time>2019-09-23T09:41:51.000Z</time>
      </trkpt>
      <trkpt lat="48.61378" lon="5.67018">
        <ele>253.329</ele>
        <time>2019-09-23T09:41:54.000Z</time>
      </trkpt>
      <trkpt lat="48.61366" lon="5.67008">
        <ele>252.225</ele>
        <time>2019-09-23T09:41:57.000Z</time>
      </trkpt>
      <trkpt lat="48.61355" lon="5.66999">
        <ele>251.266</ele>
        <time>2019-09-23T09:42:00.000Z</time>
      </trkpt>
      <trkpt lat="48.61343" lon="5.66988">
        <ele>250.571</ele>
        <time>2019-09-23T09:42:03.000Z</time>
      </trkpt>
      <trkpt lat="48.6133" lon="5.66979">
        <ele>250.039</ele>
        <time>2019-09-23T09:42:06.000Z</time>
      </trkpt>
      <trkpt lat="48.61319" lon="5.66969">
        <ele>250.493</ele>
        <time>2019-09-23T09:42:09.000Z</time>
      </trkpt>
      <trkpt lat="48.61308" lon="5.66959">
        <ele>251.003</ele>
        <time>2019-09-23T09:42:12.000Z</time>
      </trkpt>
      <trkpt lat="48.61297" lon="5.6695">
        <ele>251.672</ele>
        <time>2019-09-23T09:42:15.000Z</time>
      </trkpt>
      <trkpt lat="48.61286" lon="5.66941">
        <ele>252.554</ele>
        <time>2019-09-23T09:42:18.000Z</time>
      </trkpt>
      <trkpt lat="48.61275" lon="5.66931">
        <ele>252.483</ele>
        <time>2019-09-23T09:42:21.000Z</time>
      </trkpt>
      <trkpt lat="48.61263" lon="5.66922">
        <ele>252.617</ele>
        <time>2019-09-23T09:42:24.000Z</time>
      </trkpt>
      <trkpt lat="48.61251" lon="5.66911">
        <ele>252.522</ele>
        <time>2019-09-23T09:42:27.000Z</time>
      </trkpt>
      <trkpt lat="48.61239" lon="5.66901">
        <ele>252.805</ele>
        <time>2019-09-23T09:42:30.000Z</time>
      </trkpt>
      <trkpt lat="48.61226" lon="5.66889">
        <ele>252.199</ele>
        <time>2019-09-23T09:42:33.000Z</time>
      </trkpt>
      <trkpt lat="48.61214" lon="5.66878">
        <ele>252.106</ele>
        <time>2019-09-23T09:42:36.000Z</time>
      </trkpt>
      <trkpt lat="48.61201" lon="5.66867">
        <ele>251.916</ele>
        <time>2019-09-23T09:42:39.000Z</time>
      </trkpt>
      <trkpt lat="48.61187" lon="5.66855">
        <ele>251.339</ele>
        <time>2019-09-23T09:42:42.000Z</time>
      </trkpt>
      <trkpt lat="48.61175" lon="5.66844">
        <ele>250.746</ele>
        <time>2019-09-23T09:42:45.000Z</time>
      </trkpt>
      <trkpt lat="48.61163" lon="5.66833">
        <ele>250.124</ele>
        <time>2019-09-23T09:42:48.000Z</time>
      </trkpt>
      <trkpt lat="48.6115" lon="5.66823">
        <ele>249.367</ele>
        <time>2019-09-23T09:42:51.000Z</time>
      </trkpt>
      <trkpt lat="48.61138" lon="5.66812">
        <ele>249.108</ele>
        <time>2019-09-23T09:42:54.000Z</time>
      </trkpt>
      <trkpt lat="48.61126" lon="5.66801">
        <ele>248.859</ele>
        <time>2019-09-23T09:42:57.000Z</time>
      </trkpt>
      <trkpt lat="48.61116" lon="5.66791">
        <ele>248.62</ele>
        <time>2019-09-23T09:43:00.000Z</time>
      </trkpt>
      <trkpt lat="48.61105" lon="5.66782">
        <ele>248.155</ele>
        <time>2019-09-23T09:43:03.000Z</time>
      </trkpt>
      <trkpt lat="48.61094" lon="5.66774">
        <ele>247.637</ele>
        <time>2019-09-23T09:43:06.000Z</time>
      </trkpt>
      <trkpt lat="48.61082" lon="5.66766">
        <ele>247.026</ele>
        <time>2019-09-23T09:43:09.000Z</time>
      </trkpt>
      <trkpt lat="48.6107" lon="5.66758">
        <ele>245.944</ele>
        <time>2019-09-23T09:43:12.000Z</time>
      </trkpt>
      <trkpt lat="48.61058" lon="5.66749">
        <ele>245.712</ele>
        <time>2019-09-23T09:43:15.000Z</time>
      </trkpt>
      <trkpt lat="48.61046" lon="5.66739">
        <ele>245.691</ele>
        <time>2019-09-23T09:43:18.000Z</time>
      </trkpt>
      <trkpt lat="48.61034" lon="5.6673">
        <ele>245.929</ele>
        <time>2019-09-23T09:43:21.000Z</time>
      </trkpt>
      <trkpt lat="48.61022" lon="5.66722">
        <ele>246.085</ele>
        <time>2019-09-23T09:43:24.000Z</time>
      </trkpt>
      <trkpt lat="48.61009" lon="5.66715">
        <ele>246.252</ele>
        <time>2019-09-23T09:43:27.000Z</time>
      </trkpt>
      <trkpt lat="48.60997" lon="5.6671">
        <ele>246.473</ele>
        <time>2019-09-23T09:43:30.000Z</time>
      </trkpt>
      <trkpt lat="48.60985" lon="5.66705">
        <ele>246.691</ele>
        <time>2019-09-23T09:43:33.000Z</time>
      </trkpt>
      <trkpt lat="48.60973" lon="5.667">
        <ele>247.286</ele>
        <time>2019-09-23T09:43:36.000Z</time>
      </trkpt>
      <trkpt lat="48.60961" lon="5.66696">
        <ele>247.414</ele>
        <time>2019-09-23T09:43:39.000Z</time>
      </trkpt>
      <trkpt lat="48.60949" lon="5.66692">
        <ele>247.689</ele>
        <time>2019-09-23T09:43:42.000Z</time>
      </trkpt>
      <trkpt lat="48.60936" lon="5.66688">
        <ele>247.671</ele>
        <time>2019-09-23T09:43:45.000Z</time>
      </trkpt>
      <trkpt lat="48.60925" lon="5.66684">
        <ele>247.929</ele>
        <time>2019-09-23T09:43:48.000Z</time>
      </trkpt>
      <trkpt lat="48.60914" lon="5.66681">
        <ele>248.322</ele>
        <time>2019-09-23T09:43:51.000Z</time>
      </trkpt>
      <trkpt lat="48.60903" lon="5.66676">
        <ele>248.962</ele>
        <time>2019-09-23T09:43:54.000Z</time>
      </trkpt>
      <trkpt lat="48.60892" lon="5.6667">
        <ele>249.185</ele>
        <time>2019-09-23T09:43:57.000Z</time>
      </trkpt>
      <trkpt lat="48.60885" lon="5.66657">
        <ele>249.181</ele>
        <time>2019-09-23T09:44:00.000Z</time>
      </trkpt>
      <trkpt lat="48.60885" lon="5.66642">
        <ele>249.576</ele>
        <time>2019-09-23T09:44:03.000Z</time>
      </trkpt>
      <trkpt lat="48.60886" lon="5.66625">
        <ele>250.78</ele>
        <time>2019-09-23T09:44:06.000Z</time>
      </trkpt>
      <trkpt lat="48.60882" lon="5.66611">
        <ele>251.714</ele>
        <time>2019-09-23T09:44:09.000Z</time>
      </trkpt>
      <trkpt lat="48.60872" lon="5.66604">
        <ele>252.071</ele>
        <time>2019-09-23T09:44:12.001Z</time>
      </trkpt>
      <trkpt lat="48.6086" lon="5.66615">
        <ele>251.93</ele>
        <time>2019-09-23T09:44:15.000Z</time>
      </trkpt>
      <trkpt lat="48.60847" lon="5.66629">
        <ele>252.072</ele>
        <time>2019-09-23T09:44:18.000Z</time>
      </trkpt>
      <trkpt lat="48.6083" lon="5.66634">
        <ele>251.178</ele>
        <time>2019-09-23T09:44:21.000Z</time>
      </trkpt>
      <trkpt lat="48.60811" lon="5.66638">
        <ele>250.523</ele>
        <time>2019-09-23T09:44:24.000Z</time>
      </trkpt>
      <trkpt lat="48.6079" lon="5.66643">
        <ele>250.31</ele>
        <time>2019-09-23T09:44:27.000Z</time>
      </trkpt>
      <trkpt lat="48.60769" lon="5.66649">
        <ele>250.145</ele>
        <time>2019-09-23T09:44:30.000Z</time>
      </trkpt>
      <trkpt lat="48.60749" lon="5.66654">
        <ele>250.021</ele>
        <time>2019-09-23T09:44:33.000Z</time>
      </trkpt>
      <trkpt lat="48.60732" lon="5.66657">
        <ele>249.855</ele>
        <time>2019-09-23T09:44:36.000Z</time>
      </trkpt>
      <trkpt lat="48.60715" lon="5.66662">
        <ele>249.733</ele>
        <time>2019-09-23T09:44:39.000Z</time>
      </trkpt>
      <trkpt lat="48.60699" lon="5.66666">
        <ele>249.832</ele>
        <time>2019-09-23T09:44:42.000Z</time>
      </trkpt>
      <trkpt lat="48.60684" lon="5.66671">
        <ele>249.779</ele>
        <time>2019-09-23T09:44:45.000Z</time>
      </trkpt>
      <trkpt lat="48.60669" lon="5.66677">
        <ele>249.751</ele>
        <time>2019-09-23T09:44:48.000Z</time>
      </trkpt>
      <trkpt lat="48.60655" lon="5.66682">
        <ele>249.784</ele>
        <time>2019-09-23T09:44:51.000Z</time>
      </trkpt>
      <trkpt lat="48.60641" lon="5.66688">
        <ele>249.904</ele>
        <time>2019-09-23T09:44:54.000Z</time>
      </trkpt>
      <trkpt lat="48.60628" lon="5.66694">
        <ele>249.612</ele>
        <time>2019-09-23T09:44:57.000Z</time>
      </trkpt>
      <trkpt lat="48.60614" lon="5.667">
        <ele>249.821</ele>
        <time>2019-09-23T09:45:00.000Z</time>
      </trkpt>
      <trkpt lat="48.60601" lon="5.66708">
        <ele>250.07</ele>
        <time>2019-09-23T09:45:03.000Z</time>
      </trkpt>
      <trkpt lat="48.60588" lon="5.66715">
        <ele>249.862</ele>
        <time>2019-09-23T09:45:06.000Z</time>
      </trkpt>
      <trkpt lat="48.60574" lon="5.6672">
        <ele>250.224</ele>
        <time>2019-09-23T09:45:09.000Z</time>
      </trkpt>
      <trkpt lat="48.60561" lon="5.66728">
        <ele>249.894</ele>
        <time>2019-09-23T09:45:12.000Z</time>
      </trkpt>
      <trkpt lat="48.60557" lon="5.66743">
        <ele>250.119</ele>
        <time>2019-09-23T09:45:15.000Z</time>
      </trkpt>
      <trkpt lat="48.60554" lon="5.66754">
        <ele>250.913</ele>
        <time>2019-09-23T09:45:18.000Z</time>
      </trkpt>
      <trkpt lat="48.6055" lon="5.66761">
        <ele>251.172</ele>
        <time>2019-09-23T09:45:21.000Z</time>
      </trkpt>
      <trkpt lat="48.60546" lon="5.66766">
        <ele>252.103</ele>
        <time>2019-09-23T09:45:24.000Z</time>
      </trkpt>
      <trkpt lat="48.60539" lon="5.66769">
        <ele>252.457</ele>
        <time>2019-09-23T09:45:27.000Z</time>
      </trkpt>
      <trkpt lat="48.60532" lon="5.66771">
        <ele>251.813</ele>
        <time>2019-09-23T09:45:30.000Z</time>
      </trkpt>
      <trkpt lat="48.60527" lon="5.66777">
        <ele>251.554</ele>
        <time>2019-09-23T09:45:33.000Z</time>
      </trkpt>
      <trkpt lat="48.60522" lon="5.66784">
        <ele>251.069</ele>
        <time>2019-09-23T09:45:36.000Z</time>
      </trkpt>
      <trkpt lat="48.60516" lon="5.66791">
        <ele>250.035</ele>
        <time>2019-09-23T09:45:39.000Z</time>
      </trkpt>
      <trkpt lat="48.60513" lon="5.66796">
        <ele>249.361</ele>
        <time>2019-09-23T09:45:42.000Z</time>
      </trkpt>
      <trkpt lat="48.60513" lon="5.66796">
        <ele>249.361</ele>
        <time>2019-09-23T09:48:36.000Z</time>
      </trkpt>
      <trkpt lat="48.60513" lon="5.66796">
        <ele>249.137</ele>
        <time>2019-09-23T09:48:39.000Z</time>
      </trkpt>
      <trkpt lat="48.60512" lon="5.66795">
        <ele>248.824</ele>
        <time>2019-09-23T09:48:42.000Z</time>
      </trkpt>
      <trkpt lat="48.60512" lon="5.66795">
        <ele>250.969</ele>
        <time>2019-09-23T10:09:42.000Z</time>
      </trkpt>
      <trkpt lat="48.60498" lon="5.66802">
        <ele>251.092</ele>
        <time>2019-09-23T10:09:45.000Z</time>
      </trkpt>
      <trkpt lat="48.60492" lon="5.66807">
        <ele>250.929</ele>
        <time>2019-09-23T10:09:48.000Z</time>
      </trkpt>
      <trkpt lat="48.60487" lon="5.66813">
        <ele>251.582</ele>
        <time>2019-09-23T10:09:51.000Z</time>
      </trkpt>
      <trkpt lat="48.6048" lon="5.66818">
        <ele>251.499</ele>
        <time>2019-09-23T10:09:54.000Z</time>
      </trkpt>
      <trkpt lat="48.60472" lon="5.66825">
        <ele>251.519</ele>
        <time>2019-09-23T10:09:57.000Z</time>
      </trkpt>
      <trkpt lat="48.60465" lon="5.6683">
        <ele>250.87</ele>
        <time>2019-09-23T10:10:00.000Z</time>
      </trkpt>
      <trkpt lat="48.60457" lon="5.66836">
        <ele>251.044</ele>
        <time>2019-09-23T10:10:03.000Z</time>
      </trkpt>
      <trkpt lat="48.6045" lon="5.66842">
        <ele>251.324</ele>
        <time>2019-09-23T10:10:06.000Z</time>
      </trkpt>
      <trkpt lat="48.60443" lon="5.66849">
        <ele>252.063</ele>
        <time>2019-09-23T10:10:09.000Z</time>
      </trkpt>
      <trkpt lat="48.60436" lon="5.66855">
        <ele>252.374</ele>
        <time>2019-09-23T10:10:12.000Z</time>
      </trkpt>
      <trkpt lat="48.6043" lon="5.66862">
        <ele>252.187</ele>
        <time>2019-09-23T10:10:15.000Z</time>
      </trkpt>
      <trkpt lat="48.60423" lon="5.66866">
        <ele>252.352</ele>
        <time>2019-09-23T10:10:18.000Z</time>
      </trkpt>
      <trkpt lat="48.60416" lon="5.66873">
        <ele>252.057</ele>
        <time>2019-09-23T10:10:21.000Z</time>
      </trkpt>
      <trkpt lat="48.60409" lon="5.6688">
        <ele>251.121</ele>
        <time>2019-09-23T10:10:24.000Z</time>
      </trkpt>
      <trkpt lat="48.60401" lon="5.66887">
        <ele>250.521</ele>
        <time>2019-09-23T10:10:27.000Z</time>
      </trkpt>
      <trkpt lat="48.60393" lon="5.66894">
        <ele>249.883</ele>
        <time>2019-09-23T10:10:30.000Z</time>
      </trkpt>
      <trkpt lat="48.60385" lon="5.669">
        <ele>249.189</ele>
        <time>2019-09-23T10:10:33.000Z</time>
      </trkpt>
      <trkpt lat="48.60377" lon="5.66906">
        <ele>249.031</ele>
        <time>2019-09-23T10:10:36.000Z</time>
      </trkpt>
      <trkpt lat="48.60369" lon="5.66912">
        <ele>248.782</ele>
        <time>2019-09-23T10:10:39.000Z</time>
      </trkpt>
      <trkpt lat="48.60362" lon="5.66919">
        <ele>248.78</ele>
        <time>2019-09-23T10:10:42.000Z</time>
      </trkpt>
      <trkpt lat="48.60355" lon="5.66926">
        <ele>248.766</ele>
        <time>2019-09-23T10:10:45.000Z</time>
      </trkpt>
      <trkpt lat="48.60347" lon="5.66929">
        <ele>248.179</ele>
        <time>2019-09-23T10:10:48.000Z</time>
      </trkpt>
      <trkpt lat="48.60341" lon="5.66934">
        <ele>248.291</ele>
        <time>2019-09-23T10:10:51.000Z</time>
      </trkpt>
      <trkpt lat="48.60336" lon="5.66939">
        <ele>248.966</ele>
        <time>2019-09-23T10:10:54.000Z</time>
      </trkpt>
      <trkpt lat="48.60329" lon="5.66945">
        <ele>249.996</ele>
        <time>2019-09-23T10:10:57.000Z</time>
      </trkpt>
      <trkpt lat="48.60321" lon="5.66947">
        <ele>250.324</ele>
        <time>2019-09-23T10:11:00.000Z</time>
      </trkpt>
      <trkpt lat="48.60314" lon="5.66949">
        <ele>250.421</ele>
        <time>2019-09-23T10:11:03.000Z</time>
      </trkpt>
      <trkpt lat="48.60308" lon="5.66954">
        <ele>251.316</ele>
        <time>2019-09-23T10:11:06.000Z</time>
      </trkpt>
      <trkpt lat="48.60302" lon="5.66956">
        <ele>251.373</ele>
        <time>2019-09-23T10:11:09.000Z</time>
      </trkpt>
      <trkpt lat="48.60297" lon="5.66959">
        <ele>251.929</ele>
        <time>2019-09-23T10:11:12.000Z</time>
      </trkpt>
      <trkpt lat="48.60291" lon="5.66962">
        <ele>252.038</ele>
        <time>2019-09-23T10:11:15.000Z</time>
      </trkpt>
      <trkpt lat="48.60285" lon="5.66964">
        <ele>248.657</ele>
        <time>2019-09-23T10:11:18.000Z</time>
      </trkpt>
      <trkpt lat="48.60278" lon="5.66966">
        <ele>249.188</ele>
        <time>2019-09-23T10:11:21.000Z</time>
      </trkpt>
      <trkpt lat="48.60272" lon="5.66967">
        <ele>249.554</ele>
        <time>2019-09-23T10:11:24.000Z</time>
      </trkpt>
      <trkpt lat="48.60267" lon="5.66968">
        <ele>250.42</ele>
        <time>2019-09-23T10:11:27.000Z</time>
      </trkpt>
      <trkpt lat="48.6026" lon="5.66968">
        <ele>251.363</ele>
        <time>2019-09-23T10:11:30.000Z</time>
      </trkpt>
      <trkpt lat="48.60253" lon="5.66968">
        <ele>251.968</ele>
        <time>2019-09-23T10:11:33.000Z</time>
      </trkpt>
      <trkpt lat="48.60249" lon="5.66962">
        <ele>252.448</ele>
        <time>2019-09-23T10:11:36.000Z</time>
      </trkpt>
      <trkpt lat="48.60247" lon="5.6695">
        <ele>252.528</ele>
        <time>2019-09-23T10:11:39.000Z</time>
      </trkpt>
      <trkpt lat="48.6024" lon="5.66945">
        <ele>252.798</ele>
        <time>2019-09-23T10:11:42.000Z</time>
      </trkpt>
      <trkpt lat="48.6023" lon="5.66942">
        <ele>253.407</ele>
        <time>2019-09-23T10:11:45.000Z</time>
      </trkpt>
      <trkpt lat="48.6022" lon="5.66941">
        <ele>253.606</ele>
        <time>2019-09-23T10:11:48.000Z</time>
      </trkpt>
      <trkpt lat="48.60213" lon="5.6695">
        <ele>253.758</ele>
        <time>2019-09-23T10:11:51.000Z</time>
      </trkpt>
      <trkpt lat="48.60209" lon="5.66963">
        <ele>253.948</ele>
        <time>2019-09-23T10:11:54.000Z</time>
      </trkpt>
      <trkpt lat="48.60212" lon="5.66979">
        <ele>253.957</ele>
        <time>2019-09-23T10:11:57.000Z</time>
      </trkpt>
      <trkpt lat="48.60215" lon="5.66996">
        <ele>254.119</ele>
        <time>2019-09-23T10:12:00.000Z</time>
      </trkpt>
      <trkpt lat="48.60214" lon="5.67016">
        <ele>254.064</ele>
        <time>2019-09-23T10:12:03.000Z</time>
      </trkpt>
      <trkpt lat="48.60212" lon="5.67036">
        <ele>254.096</ele>
        <time>2019-09-23T10:12:06.000Z</time>
      </trkpt>
      <trkpt lat="48.6021" lon="5.67055">
        <ele>254.751</ele>
        <time>2019-09-23T10:12:09.000Z</time>
      </trkpt>
      <trkpt lat="48.60209" lon="5.67073">
        <ele>255.291</ele>
        <time>2019-09-23T10:12:12.000Z</time>
      </trkpt>
      <trkpt lat="48.60208" lon="5.67092">
        <ele>255.645</ele>
        <time>2019-09-23T10:12:15.000Z</time>
      </trkpt>
      <trkpt lat="48.60207" lon="5.67113">
        <ele>255.45</ele>
        <time>2019-09-23T10:12:18.000Z</time>
      </trkpt>
      <trkpt lat="48.60206" lon="5.67134">
        <ele>255.392</ele>
        <time>2019-09-23T10:12:21.000Z</time>
      </trkpt>
      <trkpt lat="48.60203" lon="5.67154">
        <ele>254.953</ele>
        <time>2019-09-23T10:12:24.000Z</time>
      </trkpt>
      <trkpt lat="48.60202" lon="5.67173">
        <ele>254.584</ele>
        <time>2019-09-23T10:12:27.000Z</time>
      </trkpt>
      <trkpt lat="48.60201" lon="5.67193">
        <ele>254.875</ele>
        <time>2019-09-23T10:12:30.000Z</time>
      </trkpt>
      <trkpt lat="48.60201" lon="5.67211">
        <ele>254.985</ele>
        <time>2019-09-23T10:12:33.000Z</time>
      </trkpt>
      <trkpt lat="48.602" lon="5.67228">
        <ele>255.262</ele>
        <time>2019-09-23T10:12:36.000Z</time>
      </trkpt>
      <trkpt lat="48.60198" lon="5.67246">
        <ele>255.196</ele>
        <time>2019-09-23T10:12:39.000Z</time>
      </trkpt>
      <trkpt lat="48.60196" lon="5.67265">
        <ele>254.707</ele>
        <time>2019-09-23T10:12:42.000Z</time>
      </trkpt>
      <trkpt lat="48.60194" lon="5.67285">
        <ele>254.548</ele>
        <time>2019-09-23T10:12:45.000Z</time>
      </trkpt>
      <trkpt lat="48.60192" lon="5.67305">
        <ele>254.403</ele>
        <time>2019-09-23T10:12:48.000Z</time>
      </trkpt>
      <trkpt lat="48.60191" lon="5.67324">
        <ele>254.377</ele>
        <time>2019-09-23T10:12:51.000Z</time>
      </trkpt>
      <trkpt lat="48.60189" lon="5.67342">
        <ele>254.595</ele>
        <time>2019-09-23T10:12:54.000Z</time>
      </trkpt>
      <trkpt lat="48.60187" lon="5.67359">
        <ele>254.593</ele>
        <time>2019-09-23T10:12:57.000Z</time>
      </trkpt>
      <trkpt lat="48.60185" lon="5.67376">
        <ele>254.722</ele>
        <time>2019-09-23T10:13:00.000Z</time>
      </trkpt>
      <trkpt lat="48.60184" lon="5.67393">
        <ele>253.909</ele>
        <time>2019-09-23T10:13:03.000Z</time>
      </trkpt>
      <trkpt lat="48.60183" lon="5.67413">
        <ele>253.827</ele>
        <time>2019-09-23T10:13:06.000Z</time>
      </trkpt>
      <trkpt lat="48.6018" lon="5.67434">
        <ele>253.906</ele>
        <time>2019-09-23T10:13:09.000Z</time>
      </trkpt>
      <trkpt lat="48.60178" lon="5.67453">
        <ele>253.79</ele>
        <time>2019-09-23T10:13:12.000Z</time>
      </trkpt>
      <trkpt lat="48.60175" lon="5.67475">
        <ele>253.579</ele>
        <time>2019-09-23T10:13:15.000Z</time>
      </trkpt>
      <trkpt lat="48.60174" lon="5.67496">
        <ele>253.216</ele>
        <time>2019-09-23T10:13:18.000Z</time>
      </trkpt>
      <trkpt lat="48.60172" lon="5.67516">
        <ele>253.33</ele>
        <time>2019-09-23T10:13:21.000Z</time>
      </trkpt>
      <trkpt lat="48.60171" lon="5.67535">
        <ele>252.986</ele>
        <time>2019-09-23T10:13:24.000Z</time>
      </trkpt>
      <trkpt lat="48.60169" lon="5.67558">
        <ele>252.809</ele>
        <time>2019-09-23T10:13:27.000Z</time>
      </trkpt>
      <trkpt lat="48.60167" lon="5.67581">
        <ele>252.866</ele>
        <time>2019-09-23T10:13:30.000Z</time>
      </trkpt>
      <trkpt lat="48.60166" lon="5.67601">
        <ele>252.902</ele>
        <time>2019-09-23T10:13:33.000Z</time>
      </trkpt>
      <trkpt lat="48.60165" lon="5.67622">
        <ele>253.811</ele>
        <time>2019-09-23T10:13:36.000Z</time>
      </trkpt>
      <trkpt lat="48.60165" lon="5.67642">
        <ele>253.52</ele>
        <time>2019-09-23T10:13:39.000Z</time>
      </trkpt>
      <trkpt lat="48.60164" lon="5.67663">
        <ele>253.185</ele>
        <time>2019-09-23T10:13:42.000Z</time>
      </trkpt>
      <trkpt lat="48.60163" lon="5.67683">
        <ele>253.408</ele>
        <time>2019-09-23T10:13:45.000Z</time>
      </trkpt>
      <trkpt lat="48.60162" lon="5.67703">
        <ele>253.887</ele>
        <time>2019-09-23T10:13:48.000Z</time>
      </trkpt>
      <trkpt lat="48.60162" lon="5.67722">
        <ele>253.514</ele>
        <time>2019-09-23T10:13:51.000Z</time>
      </trkpt>
      <trkpt lat="48.60164" lon="5.6774">
        <ele>253.636</ele>
        <time>2019-09-23T10:13:54.000Z</time>
      </trkpt>
      <trkpt lat="48.60166" lon="5.67757">
        <ele>254.409</ele>
        <time>2019-09-23T10:13:57.000Z</time>
      </trkpt>
      <trkpt lat="48.60169" lon="5.67774">
        <ele>255.211</ele>
        <time>2019-09-23T10:14:00.000Z</time>
      </trkpt>
      <trkpt lat="48.60173" lon="5.67789">
        <ele>256.212</ele>
        <time>2019-09-23T10:14:03.000Z</time>
      </trkpt>
      <trkpt lat="48.60176" lon="5.67804">
        <ele>257.13</ele>
        <time>2019-09-23T10:14:06.000Z</time>
      </trkpt>
      <trkpt lat="48.60179" lon="5.67818">
        <ele>258.143</ele>
        <time>2019-09-23T10:14:09.000Z</time>
      </trkpt>
      <trkpt lat="48.60182" lon="5.67833">
        <ele>258.825</ele>
        <time>2019-09-23T10:14:12.000Z</time>
      </trkpt>
      <trkpt lat="48.60185" lon="5.6785">
        <ele>258.375</ele>
        <time>2019-09-23T10:14:15.000Z</time>
      </trkpt>
      <trkpt lat="48.60189" lon="5.6787">
        <ele>257.383</ele>
        <time>2019-09-23T10:14:18.000Z</time>
      </trkpt>
      <trkpt lat="48.60194" lon="5.67887">
        <ele>256.62</ele>
        <time>2019-09-23T10:14:21.000Z</time>
      </trkpt>
      <trkpt lat="48.60199" lon="5.67906">
        <ele>256.148</ele>
        <time>2019-09-23T10:14:24.000Z</time>
      </trkpt>
      <trkpt lat="48.60203" lon="5.67923">
        <ele>255.63</ele>
        <time>2019-09-23T10:14:27.000Z</time>
      </trkpt>
      <trkpt lat="48.60207" lon="5.67939">
        <ele>255.253</ele>
        <time>2019-09-23T10:14:30.000Z</time>
      </trkpt>
      <trkpt lat="48.60211" lon="5.67954">
        <ele>254.729</ele>
        <time>2019-09-23T10:14:33.000Z</time>
      </trkpt>
      <trkpt lat="48.60215" lon="5.6797">
        <ele>254.57</ele>
        <time>2019-09-23T10:14:36.000Z</time>
      </trkpt>
      <trkpt lat="48.60219" lon="5.67986">
        <ele>254.796</ele>
        <time>2019-09-23T10:14:39.000Z</time>
      </trkpt>
      <trkpt lat="48.60224" lon="5.68002">
        <ele>254.691</ele>
        <time>2019-09-23T10:14:42.000Z</time>
      </trkpt>
      <trkpt lat="48.60228" lon="5.68016">
        <ele>254.606</ele>
        <time>2019-09-23T10:14:45.000Z</time>
      </trkpt>
      <trkpt lat="48.60232" lon="5.68028">
        <ele>253.975</ele>
        <time>2019-09-23T10:14:48.000Z</time>
      </trkpt>
      <trkpt lat="48.60236" lon="5.6804">
        <ele>254.034</ele>
        <time>2019-09-23T10:14:51.000Z</time>
      </trkpt>
      <trkpt lat="48.60239" lon="5.68051">
        <ele>254.551</ele>
        <time>2019-09-23T10:14:54.000Z</time>
      </trkpt>
      <trkpt lat="48.60242" lon="5.68062">
        <ele>255.538</ele>
        <time>2019-09-23T10:14:57.000Z</time>
      </trkpt>
      <trkpt lat="48.60244" lon="5.68074">
        <ele>256.921</ele>
        <time>2019-09-23T10:15:00.000Z</time>
      </trkpt>
      <trkpt lat="48.60247" lon="5.68086">
        <ele>258.475</ele>
        <time>2019-09-23T10:15:03.000Z</time>
      </trkpt>
      <trkpt lat="48.6025" lon="5.68095">
        <ele>258.877</ele>
        <time>2019-09-23T10:15:06.000Z</time>
      </trkpt>
      <trkpt lat="48.60253" lon="5.68105">
        <ele>259.767</ele>
        <time>2019-09-23T10:15:09.000Z</time>
      </trkpt>
      <trkpt lat="48.60255" lon="5.68114">
        <ele>260.795</ele>
        <time>2019-09-23T10:15:12.000Z</time>
      </trkpt>
      <trkpt lat="48.60252" lon="5.6812">
        <ele>263.827</ele>
        <time>2019-09-23T10:15:15.000Z</time>
      </trkpt>
      <trkpt lat="48.60246" lon="5.68125">
        <ele>264.228</ele>
        <time>2019-09-23T10:15:18.000Z</time>
      </trkpt>
      <trkpt lat="48.60241" lon="5.68129">
        <ele>264.851</ele>
        <time>2019-09-23T10:15:21.000Z</time>
      </trkpt>
      <trkpt lat="48.60236" lon="5.68134">
        <ele>265.707</ele>
        <time>2019-09-23T10:15:24.000Z</time>
      </trkpt>
      <trkpt lat="48.60231" lon="5.68137">
        <ele>266.761</ele>
        <time>2019-09-23T10:15:27.000Z</time>
      </trkpt>
      <trkpt lat="48.60226" lon="5.68138">
        <ele>267.603</ele>
        <time>2019-09-23T10:15:30.000Z</time>
      </trkpt>
      <trkpt lat="48.60222" lon="5.6814">
        <ele>267.821</ele>
        <time>2019-09-23T10:15:33.000Z</time>
      </trkpt>
      <trkpt lat="48.60216" lon="5.68142">
        <ele>268.006</ele>
        <time>2019-09-23T10:15:36.000Z</time>
      </trkpt>
      <trkpt lat="48.6021" lon="5.68144">
        <ele>267.808</ele>
        <time>2019-09-23T10:15:39.000Z</time>
      </trkpt>
      <trkpt lat="48.60205" lon="5.68147">
        <ele>268.283</ele>
        <time>2019-09-23T10:15:42.000Z</time>
      </trkpt>
      <trkpt lat="48.60199" lon="5.6815">
        <ele>269.648</ele>
        <time>2019-09-23T10:15:45.000Z</time>
      </trkpt>
      <trkpt lat="48.60194" lon="5.68152">
        <ele>270.508</ele>
        <time>2019-09-23T10:15:48.000Z</time>
      </trkpt>
      <trkpt lat="48.60188" lon="5.68154">
        <ele>270.346</ele>
        <time>2019-09-23T10:15:51.000Z</time>
      </trkpt>
      <trkpt lat="48.60183" lon="5.68156">
        <ele>270.501</ele>
        <time>2019-09-23T10:15:54.000Z</time>
      </trkpt>
      <trkpt lat="48.60177" lon="5.68159">
        <ele>270.163</ele>
        <time>2019-09-23T10:15:57.000Z</time>
      </trkpt>
      <trkpt lat="48.60173" lon="5.68163">
        <ele>270.08</ele>
        <time>2019-09-23T10:16:00.000Z</time>
      </trkpt>
      <trkpt lat="48.60168" lon="5.68166">
        <ele>270.528</ele>
        <time>2019-09-23T10:16:03.000Z</time>
      </trkpt>
      <trkpt lat="48.60162" lon="5.6817">
        <ele>270.707</ele>
        <time>2019-09-23T10:16:06.000Z</time>
      </trkpt>
      <trkpt lat="48.60157" lon="5.68176">
        <ele>270.272</ele>
        <time>2019-09-23T10:16:09.000Z</time>
      </trkpt>
      <trkpt lat="48.60151" lon="5.68181">
        <ele>270.138</ele>
        <time>2019-09-23T10:16:12.000Z</time>
      </trkpt>
      <trkpt lat="48.60146" lon="5.68186">
        <ele>270.312</ele>
        <time>2019-09-23T10:16:15.000Z</time>
      </trkpt>
      <trkpt lat="48.6014" lon="5.68192">
        <ele>270.839</ele>
        <time>2019-09-23T10:16:18.000Z</time>
      </trkpt>
      <trkpt lat="48.60135" lon="5.68199">
        <ele>271.471</ele>
        <time>2019-09-23T10:16:21.000Z</time>
      </trkpt>
      <trkpt lat="48.60128" lon="5.68205">
        <ele>271.63</ele>
        <time>2019-09-23T10:16:24.000Z</time>
      </trkpt>
      <trkpt lat="48.60122" lon="5.68211">
        <ele>271.954</ele>
        <time>2019-09-23T10:16:27.000Z</time>
      </trkpt>
      <trkpt lat="48.60115" lon="5.68216">
        <ele>272.734</ele>
        <time>2019-09-23T10:16:30.000Z</time>
      </trkpt>
      <trkpt lat="48.60109" lon="5.68221">
        <ele>272.758</ele>
        <time>2019-09-23T10:16:33.000Z</time>
      </trkpt>
      <trkpt lat="48.60101" lon="5.68225">
        <ele>272.405</ele>
        <time>2019-09-23T10:16:36.000Z</time>
      </trkpt>
      <trkpt lat="48.60092" lon="5.68231">
        <ele>272.962</ele>
        <time>2019-09-23T10:16:39.000Z</time>
      </trkpt>
      <trkpt lat="48.60083" lon="5.68238">
        <ele>273.43</ele>
        <time>2019-09-23T10:16:42.000Z</time>
      </trkpt>
      <trkpt lat="48.60074" lon="5.68246">
        <ele>273.695</ele>
        <time>2019-09-23T10:16:45.000Z</time>
      </trkpt>
      <trkpt lat="48.60066" lon="5.68253">
        <ele>273.641</ele>
        <time>2019-09-23T10:16:48.000Z</time>
      </trkpt>
      <trkpt lat="48.60057" lon="5.6826">
        <ele>273.634</ele>
        <time>2019-09-23T10:16:51.000Z</time>
      </trkpt>
      <trkpt lat="48.60049" lon="5.68269">
        <ele>273.898</ele>
        <time>2019-09-23T10:16:54.000Z</time>
      </trkpt>
      <trkpt lat="48.60041" lon="5.68281">
        <ele>273.809</ele>
        <time>2019-09-23T10:16:57.000Z</time>
      </trkpt>
      <trkpt lat="48.60032" lon="5.68295">
        <ele>273.649</ele>
        <time>2019-09-23T10:17:00.000Z</time>
      </trkpt>
      <trkpt lat="48.60022" lon="5.6831">
        <ele>273.64</ele>
        <time>2019-09-23T10:17:03.000Z</time>
      </trkpt>
      <trkpt lat="48.6001" lon="5.68326">
        <ele>273.685</ele>
        <time>2019-09-23T10:17:06.000Z</time>
      </trkpt>
      <trkpt lat="48.59999" lon="5.68343">
        <ele>273.417</ele>
        <time>2019-09-23T10:17:09.000Z</time>
      </trkpt>
      <trkpt lat="48.59988" lon="5.6836">
        <ele>272.77</ele>
        <time>2019-09-23T10:17:12.000Z</time>
      </trkpt>
      <trkpt lat="48.59977" lon="5.68376">
        <ele>272.227</ele>
        <time>2019-09-23T10:17:15.000Z</time>
      </trkpt>
      <trkpt lat="48.59967" lon="5.68392">
        <ele>272.285</ele>
        <time>2019-09-23T10:17:18.000Z</time>
      </trkpt>
      <trkpt lat="48.59956" lon="5.68407">
        <ele>272.061</ele>
        <time>2019-09-23T10:17:21.000Z</time>
      </trkpt>
      <trkpt lat="48.59943" lon="5.68419">
        <ele>271.12</ele>
        <time>2019-09-23T10:17:24.000Z</time>
      </trkpt>
      <trkpt lat="48.59932" lon="5.68432">
        <ele>271.486</ele>
        <time>2019-09-23T10:17:27.000Z</time>
      </trkpt>
      <trkpt lat="48.59922" lon="5.68444">
        <ele>270.964</ele>
        <time>2019-09-23T10:17:30.000Z</time>
      </trkpt>
      <trkpt lat="48.59909" lon="5.68455">
        <ele>271.263</ele>
        <time>2019-09-23T10:17:33.000Z</time>
      </trkpt>
      <trkpt lat="48.59892" lon="5.68469">
        <ele>270.999</ele>
        <time>2019-09-23T10:17:36.000Z</time>
      </trkpt>
      <trkpt lat="48.59867" lon="5.6848">
        <ele>269.971</ele>
        <time>2019-09-23T10:17:39.000Z</time>
      </trkpt>
      <trkpt lat="48.5984" lon="5.68494">
        <ele>269.235</ele>
        <time>2019-09-23T10:17:42.000Z</time>
      </trkpt>
      <trkpt lat="48.5981" lon="5.68506">
        <ele>265.925</ele>
        <time>2019-09-23T10:17:45.000Z</time>
      </trkpt>
      <trkpt lat="48.5978" lon="5.6852">
        <ele>262.976</ele>
        <time>2019-09-23T10:17:48.000Z</time>
      </trkpt>
      <trkpt lat="48.59747" lon="5.68539">
        <ele>261.293</ele>
        <time>2019-09-23T10:17:51.000Z</time>
      </trkpt>
      <trkpt lat="48.59715" lon="5.68562">
        <ele>261.164</ele>
        <time>2019-09-23T10:17:54.000Z</time>
      </trkpt>
      <trkpt lat="48.59689" lon="5.68589">
        <ele>261.567</ele>
        <time>2019-09-23T10:17:57.000Z</time>
      </trkpt>
      <trkpt lat="48.59668" lon="5.68611">
        <ele>261.216</ele>
        <time>2019-09-23T10:18:00.000Z</time>
      </trkpt>
      <trkpt lat="48.5965" lon="5.68629">
        <ele>261.865</ele>
        <time>2019-09-23T10:18:03.000Z</time>
      </trkpt>
      <trkpt lat="48.59635" lon="5.68643">
        <ele>261.711</ele>
        <time>2019-09-23T10:18:06.000Z</time>
      </trkpt>
      <trkpt lat="48.59622" lon="5.68655">
        <ele>261.252</ele>
        <time>2019-09-23T10:18:09.000Z</time>
      </trkpt>
      <trkpt lat="48.5961" lon="5.68665">
        <ele>261.149</ele>
        <time>2019-09-23T10:18:12.000Z</time>
      </trkpt>
      <trkpt lat="48.59598" lon="5.68674">
        <ele>260.282</ele>
        <time>2019-09-23T10:18:15.000Z</time>
      </trkpt>
      <trkpt lat="48.59588" lon="5.68682">
        <ele>260.098</ele>
        <time>2019-09-23T10:18:18.000Z</time>
      </trkpt>
      <trkpt lat="48.59579" lon="5.68689">
        <ele>259.384</ele>
        <time>2019-09-23T10:18:21.000Z</time>
      </trkpt>
      <trkpt lat="48.5957" lon="5.68694">
        <ele>258.203</ele>
        <time>2019-09-23T10:18:24.000Z</time>
      </trkpt>
      <trkpt lat="48.59561" lon="5.687">
        <ele>257.464</ele>
        <time>2019-09-23T10:18:27.000Z</time>
      </trkpt>
      <trkpt lat="48.59554" lon="5.68705">
        <ele>257.417</ele>
        <time>2019-09-23T10:18:30.000Z</time>
      </trkpt>
      <trkpt lat="48.59546" lon="5.6871">
        <ele>257.957</ele>
        <time>2019-09-23T10:18:33.000Z</time>
      </trkpt>
      <trkpt lat="48.59538" lon="5.68715">
        <ele>258.978</ele>
        <time>2019-09-23T10:18:36.000Z</time>
      </trkpt>
      <trkpt lat="48.5953" lon="5.6872">
        <ele>259.859</ele>
        <time>2019-09-23T10:18:39.000Z</time>
      </trkpt>
      <trkpt lat="48.59522" lon="5.68724">
        <ele>259.99</ele>
        <time>2019-09-23T10:18:42.000Z</time>
      </trkpt>
      <trkpt lat="48.59514" lon="5.68728">
        <ele>260.236</ele>
        <time>2019-09-23T10:18:45.000Z</time>
      </trkpt>
      <trkpt lat="48.59506" lon="5.68731">
        <ele>260.298</ele>
        <time>2019-09-23T10:18:48.000Z</time>
      </trkpt>
      <trkpt lat="48.59498" lon="5.68735">
        <ele>260.703</ele>
        <time>2019-09-23T10:18:51.000Z</time>
      </trkpt>
      <trkpt lat="48.59491" lon="5.68739">
        <ele>260.994</ele>
        <time>2019-09-23T10:18:54.000Z</time>
      </trkpt>
      <trkpt lat="48.59483" lon="5.68743">
        <ele>261.332</ele>
        <time>2019-09-23T10:18:57.000Z</time>
      </trkpt>
      <trkpt lat="48.59475" lon="5.68748">
        <ele>261.421</ele>
        <time>2019-09-23T10:19:00.000Z</time>
      </trkpt>
      <trkpt lat="48.59466" lon="5.68752">
        <ele>261.402</ele>
        <time>2019-09-23T10:19:03.000Z</time>
      </trkpt>
      <trkpt lat="48.59459" lon="5.68756">
        <ele>261.462</ele>
        <time>2019-09-23T10:19:06.000Z</time>
      </trkpt>
      <trkpt lat="48.59451" lon="5.6876">
        <ele>261.686</ele>
        <time>2019-09-23T10:19:09.000Z</time>
      </trkpt>
      <trkpt lat="48.59442" lon="5.68763">
        <ele>262.101</ele>
        <time>2019-09-23T10:19:12.000Z</time>
      </trkpt>
      <trkpt lat="48.59435" lon="5.68767">
        <ele>262.703</ele>
        <time>2019-09-23T10:19:15.000Z</time>
      </trkpt>
      <trkpt lat="48.59427" lon="5.68772">
        <ele>263.342</ele>
        <time>2019-09-23T10:19:18.000Z</time>
      </trkpt>
      <trkpt lat="48.59418" lon="5.68776">
        <ele>264.002</ele>
        <time>2019-09-23T10:19:21.000Z</time>
      </trkpt>
      <trkpt lat="48.5941" lon="5.6878">
        <ele>264.692</ele>
        <time>2019-09-23T10:19:24.000Z</time>
      </trkpt>
      <trkpt lat="48.59402" lon="5.68785">
        <ele>265.197</ele>
        <time>2019-09-23T10:19:27.000Z</time>
      </trkpt>
      <trkpt lat="48.59394" lon="5.68789">
        <ele>265.884</ele>
        <time>2019-09-23T10:19:30.000Z</time>
      </trkpt>
      <trkpt lat="48.59386" lon="5.68794">
        <ele>266.592</ele>
        <time>2019-09-23T10:19:33.000Z</time>
      </trkpt>
      <trkpt lat="48.59378" lon="5.68798">
        <ele>267.289</ele>
        <time>2019-09-23T10:19:36.000Z</time>
      </trkpt>
      <trkpt lat="48.5937" lon="5.68802">
        <ele>268.164</ele>
        <time>2019-09-23T10:19:39.000Z</time>
      </trkpt>
      <trkpt lat="48.59362" lon="5.68807">
        <ele>269.078</ele>
        <time>2019-09-23T10:19:42.000Z</time>
      </trkpt>
      <trkpt lat="48.59354" lon="5.68811">
        <ele>269.878</ele>
        <time>2019-09-23T10:19:45.000Z</time>
      </trkpt>
      <trkpt lat="48.59346" lon="5.68817">
        <ele>270.576</ele>
        <time>2019-09-23T10:19:48.000Z</time>
      </trkpt>
      <trkpt lat="48.59338" lon="5.68822">
        <ele>271.248</ele>
        <time>2019-09-23T10:19:51.000Z</time>
      </trkpt>
      <trkpt lat="48.5933" lon="5.68827">
        <ele>271.52</ele>
        <time>2019-09-23T10:19:54.000Z</time>
      </trkpt>
      <trkpt lat="48.59323" lon="5.68834">
        <ele>271.169</ele>
        <time>2019-09-23T10:19:57.000Z</time>
      </trkpt>
      <trkpt lat="48.59315" lon="5.6884">
        <ele>271.182</ele>
        <time>2019-09-23T10:20:00.000Z</time>
      </trkpt>
      <trkpt lat="48.59307" lon="5.68846">
        <ele>271.023</ele>
        <time>2019-09-23T10:20:03.000Z</time>
      </trkpt>
      <trkpt lat="48.593" lon="5.68852">
        <ele>270.922</ele>
        <time>2019-09-23T10:20:06.000Z</time>
      </trkpt>
      <trkpt lat="48.59293" lon="5.68859">
        <ele>270.865</ele>
        <time>2019-09-23T10:20:09.000Z</time>
      </trkpt>
      <trkpt lat="48.59286" lon="5.68865">
        <ele>270.658</ele>
        <time>2019-09-23T10:20:12.000Z</time>
      </trkpt>
      <trkpt lat="48.59279" lon="5.68871">
        <ele>269.976</ele>
        <time>2019-09-23T10:20:15.000Z</time>
      </trkpt>
      <trkpt lat="48.59272" lon="5.68879">
        <ele>269.997</ele>
        <time>2019-09-23T10:20:18.000Z</time>
      </trkpt>
      <trkpt lat="48.59266" lon="5.68886">
        <ele>269.943</ele>
        <time>2019-09-23T10:20:21.000Z</time>
      </trkpt>
      <trkpt lat="48.59259" lon="5.68892">
        <ele>270.13</ele>
        <time>2019-09-23T10:20:24.000Z</time>
      </trkpt>
      <trkpt lat="48.59253" lon="5.68899">
        <ele>270.518</ele>
        <time>2019-09-23T10:20:27.000Z</time>
      </trkpt>
      <trkpt lat="48.59246" lon="5.68907">
        <ele>271.029</ele>
        <time>2019-09-23T10:20:30.000Z</time>
      </trkpt>
      <trkpt lat="48.5924" lon="5.68914">
        <ele>271.295</ele>
        <time>2019-09-23T10:20:33.000Z</time>
      </trkpt>
      <trkpt lat="48.59235" lon="5.68921">
        <ele>271.564</ele>
        <time>2019-09-23T10:20:36.000Z</time>
      </trkpt>
      <trkpt lat="48.59229" lon="5.68928">
        <ele>272.464</ele>
        <time>2019-09-23T10:20:39.000Z</time>
      </trkpt>
      <trkpt lat="48.59223" lon="5.68935">
        <ele>273.355</ele>
        <time>2019-09-23T10:20:42.000Z</time>
      </trkpt>
      <trkpt lat="48.59217" lon="5.68941">
        <ele>273.773</ele>
        <time>2019-09-23T10:20:45.000Z</time>
      </trkpt>
      <trkpt lat="48.59211" lon="5.68948">
        <ele>273.856</ele>
        <time>2019-09-23T10:20:48.000Z</time>
      </trkpt>
      <trkpt lat="48.59206" lon="5.68953">
        <ele>274.258</ele>
        <time>2019-09-23T10:20:51.000Z</time>
      </trkpt>
      <trkpt lat="48.59201" lon="5.6896">
        <ele>274.839</ele>
        <time>2019-09-23T10:20:54.000Z</time>
      </trkpt>
      <trkpt lat="48.59196" lon="5.68966">
        <ele>275.66</ele>
        <time>2019-09-23T10:20:57.000Z</time>
      </trkpt>
      <trkpt lat="48.59192" lon="5.68972">
        <ele>275.842</ele>
        <time>2019-09-23T10:21:00.000Z</time>
      </trkpt>
      <trkpt lat="48.59187" lon="5.68976">
        <ele>275.908</ele>
        <time>2019-09-23T10:21:03.000Z</time>
      </trkpt>
      <trkpt lat="48.59182" lon="5.68982">
        <ele>276.339</ele>
        <time>2019-09-23T10:21:06.000Z</time>
      </trkpt>
      <trkpt lat="48.59177" lon="5.68988">
        <ele>277.135</ele>
        <time>2019-09-23T10:21:09.000Z</time>
      </trkpt>
      <trkpt lat="48.59171" lon="5.68994">
        <ele>278.281</ele>
        <time>2019-09-23T10:21:12.000Z</time>
      </trkpt>
      <trkpt lat="48.59166" lon="5.69">
        <ele>278.686</ele>
        <time>2019-09-23T10:21:15.000Z</time>
      </trkpt>
      <trkpt lat="48.5916" lon="5.69007">
        <ele>278.916</ele>
        <time>2019-09-23T10:21:18.000Z</time>
      </trkpt>
      <trkpt lat="48.59154" lon="5.69014">
        <ele>279.255</ele>
        <time>2019-09-23T10:21:21.000Z</time>
      </trkpt>
      <trkpt lat="48.59148" lon="5.6902">
        <ele>280.24</ele>
        <time>2019-09-23T10:21:24.000Z</time>
      </trkpt>
      <trkpt lat="48.59142" lon="5.69026">
        <ele>280.421</ele>
        <time>2019-09-23T10:21:27.000Z</time>
      </trkpt>
      <trkpt lat="48.59135" lon="5.69031">
        <ele>280.525</ele>
        <time>2019-09-23T10:21:30.000Z</time>
      </trkpt>
      <trkpt lat="48.5913" lon="5.69037">
        <ele>280.91</ele>
        <time>2019-09-23T10:21:33.000Z</time>
      </trkpt>
      <trkpt lat="48.59124" lon="5.69043">
        <ele>281.11</ele>
        <time>2019-09-23T10:21:36.000Z</time>
      </trkpt>
      <trkpt lat="48.59117" lon="5.69048">
        <ele>281.287</ele>
        <time>2019-09-23T10:21:39.000Z</time>
      </trkpt>
      <trkpt lat="48.5911" lon="5.69054">
        <ele>281.828</ele>
        <time>2019-09-23T10:21:42.000Z</time>
      </trkpt>
      <trkpt lat="48.59104" lon="5.69059">
        <ele>282.217</ele>
        <time>2019-09-23T10:21:45.000Z</time>
      </trkpt>
      <trkpt lat="48.59098" lon="5.69064">
        <ele>282.051</ele>
        <time>2019-09-23T10:21:48.000Z</time>
      </trkpt>
      <trkpt lat="48.59092" lon="5.69069">
        <ele>281.628</ele>
        <time>2019-09-23T10:21:51.000Z</time>
      </trkpt>
      <trkpt lat="48.59083" lon="5.69075">
        <ele>281.195</ele>
        <time>2019-09-23T10:21:54.000Z</time>
      </trkpt>
      <trkpt lat="48.59074" lon="5.69082">
        <ele>280.624</ele>
        <time>2019-09-23T10:21:57.000Z</time>
      </trkpt>
      <trkpt lat="48.59064" lon="5.6909">
        <ele>280.05</ele>
        <time>2019-09-23T10:22:00.000Z</time>
      </trkpt>
      <trkpt lat="48.59053" lon="5.69097">
        <ele>279.83</ele>
        <time>2019-09-23T10:22:03.000Z</time>
      </trkpt>
      <trkpt lat="48.59041" lon="5.69105">
        <ele>279.479</ele>
        <time>2019-09-23T10:22:06.000Z</time>
      </trkpt>
      <trkpt lat="48.59028" lon="5.69112">
        <ele>278.92</ele>
        <time>2019-09-23T10:22:09.000Z</time>
      </trkpt>
      <trkpt lat="48.59013" lon="5.69119">
        <ele>278.705</ele>
        <time>2019-09-23T10:22:12.000Z</time>
      </trkpt>
      <trkpt lat="48.58996" lon="5.69127">
        <ele>278.062</ele>
        <time>2019-09-23T10:22:15.000Z</time>
      </trkpt>
      <trkpt lat="48.58978" lon="5.69134">
        <ele>276.976</ele>
        <time>2019-09-23T10:22:18.000Z</time>
      </trkpt>
      <trkpt lat="48.58959" lon="5.6914">
        <ele>275.968</ele>
        <time>2019-09-23T10:22:21.000Z</time>
      </trkpt>
      <trkpt lat="48.58939" lon="5.69146">
        <ele>275.405</ele>
        <time>2019-09-23T10:22:24.000Z</time>
      </trkpt>
      <trkpt lat="48.58919" lon="5.6915">
        <ele>274.81</ele>
        <time>2019-09-23T10:22:27.000Z</time>
      </trkpt>
      <trkpt lat="48.58902" lon="5.69154">
        <ele>274.829</ele>
        <time>2019-09-23T10:22:30.000Z</time>
      </trkpt>
      <trkpt lat="48.58888" lon="5.69156">
        <ele>275.148</ele>
        <time>2019-09-23T10:22:33.000Z</time>
      </trkpt>
      <trkpt lat="48.58876" lon="5.69157">
        <ele>275.016</ele>
        <time>2019-09-23T10:22:36.000Z</time>
      </trkpt>
      <trkpt lat="48.58864" lon="5.69159">
        <ele>275.066</ele>
        <time>2019-09-23T10:22:39.000Z</time>
      </trkpt>
      <trkpt lat="48.58853" lon="5.69161">
        <ele>275.17</ele>
        <time>2019-09-23T10:22:42.000Z</time>
      </trkpt>
      <trkpt lat="48.58843" lon="5.69163">
        <ele>275.473</ele>
        <time>2019-09-23T10:22:45.000Z</time>
      </trkpt>
      <trkpt lat="48.58832" lon="5.69164">
        <ele>275.914</ele>
        <time>2019-09-23T10:22:48.000Z</time>
      </trkpt>
      <trkpt lat="48.58821" lon="5.69166">
        <ele>276.202</ele>
        <time>2019-09-23T10:22:51.000Z</time>
      </trkpt>
      <trkpt lat="48.5881" lon="5.69167">
        <ele>276.796</ele>
        <time>2019-09-23T10:22:54.000Z</time>
      </trkpt>
      <trkpt lat="48.58799" lon="5.69168">
        <ele>277.129</ele>
        <time>2019-09-23T10:22:57.000Z</time>
      </trkpt>
      <trkpt lat="48.58788" lon="5.69169">
        <ele>277.394</ele>
        <time>2019-09-23T10:23:00.000Z</time>
      </trkpt>
      <trkpt lat="48.58777" lon="5.69171">
        <ele>277.781</ele>
        <time>2019-09-23T10:23:03.000Z</time>
      </trkpt>
      <trkpt lat="48.58765" lon="5.69172">
        <ele>277.842</ele>
        <time>2019-09-23T10:23:06.000Z</time>
      </trkpt>
      <trkpt lat="48.58753" lon="5.69174">
        <ele>278.066</ele>
        <time>2019-09-23T10:23:09.000Z</time>
      </trkpt>
      <trkpt lat="48.58742" lon="5.69176">
        <ele>278.131</ele>
        <time>2019-09-23T10:23:12.000Z</time>
      </trkpt>
      <trkpt lat="48.5873" lon="5.69178">
        <ele>278.56</ele>
        <time>2019-09-23T10:23:15.000Z</time>
      </trkpt>
      <trkpt lat="48.58717" lon="5.69181">
        <ele>278.865</ele>
        <time>2019-09-23T10:23:18.000Z</time>
      </trkpt>
      <trkpt lat="48.58704" lon="5.69182">
        <ele>278.786</ele>
        <time>2019-09-23T10:23:21.000Z</time>
      </trkpt>
      <trkpt lat="48.58689" lon="5.69184">
        <ele>278.079</ele>
        <time>2019-09-23T10:23:24.000Z</time>
      </trkpt>
      <trkpt lat="48.58673" lon="5.69186">
        <ele>277.578</ele>
        <time>2019-09-23T10:23:27.000Z</time>
      </trkpt>
      <trkpt lat="48.58656" lon="5.69189">
        <ele>276.978</ele>
        <time>2019-09-23T10:23:30.000Z</time>
      </trkpt>
      <trkpt lat="48.58637" lon="5.69192">
        <ele>275.949</ele>
        <time>2019-09-23T10:23:33.000Z</time>
      </trkpt>
      <trkpt lat="48.58619" lon="5.69195">
        <ele>275.575</ele>
        <time>2019-09-23T10:23:36.000Z</time>
      </trkpt>
      <trkpt lat="48.58602" lon="5.69196">
        <ele>275.194</ele>
        <time>2019-09-23T10:23:39.000Z</time>
      </trkpt>
      <trkpt lat="48.58588" lon="5.69197">
        <ele>275.122</ele>
        <time>2019-09-23T10:23:42.000Z</time>
      </trkpt>
      <trkpt lat="48.58576" lon="5.69198">
        <ele>275.137</ele>
        <time>2019-09-23T10:23:45.000Z</time>
      </trkpt>
      <trkpt lat="48.58567" lon="5.69199">
        <ele>275.143</ele>
        <time>2019-09-23T10:23:48.000Z</time>
      </trkpt>
      <trkpt lat="48.58563" lon="5.692">
        <ele>274.7</ele>
        <time>2019-09-23T10:23:51.000Z</time>
      </trkpt>
      <trkpt lat="48.58561" lon="5.69202">
        <ele>274.652</ele>
        <time>2019-09-23T10:33:42.000Z</time>
      </trkpt>
      <trkpt lat="48.58559" lon="5.69203">
        <ele>274.548</ele>
        <time>2019-09-23T10:33:45.000Z</time>
      </trkpt>
      <trkpt lat="48.58559" lon="5.69203">
        <ele>274.533</ele>
        <time>2019-09-23T10:33:48.000Z</time>
      </trkpt>
      <trkpt lat="48.58559" lon="5.69203">
        <ele>274.533</ele>
        <time>2019-09-23T10:34:03.000Z</time>
      </trkpt>
      <trkpt lat="48.58555" lon="5.69204">
        <ele>274.575</ele>
        <time>2019-09-23T10:34:06.000Z</time>
      </trkpt>
      <trkpt lat="48.58548" lon="5.69205">
        <ele>274.315</ele>
        <time>2019-09-23T10:34:09.000Z</time>
      </trkpt>
      <trkpt lat="48.5854" lon="5.69207">
        <ele>274.391</ele>
        <time>2019-09-23T10:34:12.000Z</time>
      </trkpt>
      <trkpt lat="48.5853" lon="5.69208">
        <ele>274.748</ele>
        <time>2019-09-23T10:34:15.000Z</time>
      </trkpt>
      <trkpt lat="48.58521" lon="5.6921">
        <ele>274.903</ele>
        <time>2019-09-23T10:34:18.000Z</time>
      </trkpt>
      <trkpt lat="48.58511" lon="5.69211">
        <ele>274.587</ele>
        <time>2019-09-23T10:34:21.000Z</time>
      </trkpt>
      <trkpt lat="48.58501" lon="5.69212">
        <ele>274.415</ele>
        <time>2019-09-23T10:34:24.000Z</time>
      </trkpt>
      <trkpt lat="48.58491" lon="5.69213">
        <ele>274.433</ele>
        <time>2019-09-23T10:34:27.000Z</time>
      </trkpt>
      <trkpt lat="48.58482" lon="5.69212">
        <ele>274.381</ele>
        <time>2019-09-23T10:34:30.000Z</time>
      </trkpt>
      <trkpt lat="48.58472" lon="5.69212">
        <ele>274.363</ele>
        <time>2019-09-23T10:34:33.000Z</time>
      </trkpt>
      <trkpt lat="48.58463" lon="5.69212">
        <ele>274.345</ele>
        <time>2019-09-23T10:34:36.000Z</time>
      </trkpt>
      <trkpt lat="48.58453" lon="5.69212">
        <ele>274.665</ele>
        <time>2019-09-23T10:34:39.000Z</time>
      </trkpt>
      <trkpt lat="48.58443" lon="5.69211">
        <ele>274.771</ele>
        <time>2019-09-23T10:34:42.000Z</time>
      </trkpt>
      <trkpt lat="48.58433" lon="5.69211">
        <ele>275.124</ele>
        <time>2019-09-23T10:34:45.000Z</time>
      </trkpt>
      <trkpt lat="48.58423" lon="5.69211">
        <ele>275.105</ele>
        <time>2019-09-23T10:34:48.000Z</time>
      </trkpt>
      <trkpt lat="48.58413" lon="5.69211">
        <ele>275.44</ele>
        <time>2019-09-23T10:34:51.000Z</time>
      </trkpt>
      <trkpt lat="48.58403" lon="5.69211">
        <ele>275.696</ele>
        <time>2019-09-23T10:34:54.000Z</time>
      </trkpt>
      <trkpt lat="48.58392" lon="5.69209">
        <ele>276.07</ele>
        <time>2019-09-23T10:34:57.000Z</time>
      </trkpt>
      <trkpt lat="48.58381" lon="5.69207">
        <ele>276.047</ele>
        <time>2019-09-23T10:35:00.000Z</time>
      </trkpt>
      <trkpt lat="48.5837" lon="5.69205">
        <ele>276.011</ele>
        <time>2019-09-23T10:35:03.000Z</time>
      </trkpt>
      <trkpt lat="48.58357" lon="5.69204">
        <ele>275.782</ele>
        <time>2019-09-23T10:35:06.000Z</time>
      </trkpt>
      <trkpt lat="48.58344" lon="5.69202">
        <ele>275.355</ele>
        <time>2019-09-23T10:35:09.000Z</time>
      </trkpt>
      <trkpt lat="48.5833" lon="5.69201">
        <ele>274.671</ele>
        <time>2019-09-23T10:35:12.000Z</time>
      </trkpt>
      <trkpt lat="48.58316" lon="5.69199">
        <ele>274.319</ele>
        <time>2019-09-23T10:35:15.000Z</time>
      </trkpt>
      <trkpt lat="48.58302" lon="5.69197">
        <ele>274.082</ele>
        <time>2019-09-23T10:35:18.000Z</time>
      </trkpt>
      <trkpt lat="48.58287" lon="5.69194">
        <ele>273.798</ele>
        <time>2019-09-23T10:35:21.000Z</time>
      </trkpt>
      <trkpt lat="48.58272" lon="5.69191">
        <ele>273.785</ele>
        <time>2019-09-23T10:35:24.000Z</time>
      </trkpt>
      <trkpt lat="48.58257" lon="5.69189">
        <ele>273.307</ele>
        <time>2019-09-23T10:35:27.000Z</time>
      </trkpt>
      <trkpt lat="48.58242" lon="5.69187">
        <ele>272.965</ele>
        <time>2019-09-23T10:35:30.000Z</time>
      </trkpt>
      <trkpt lat="48.58227" lon="5.69184">
        <ele>272.493</ele>
        <time>2019-09-23T10:35:33.000Z</time>
      </trkpt>
      <trkpt lat="48.58212" lon="5.69182">
        <ele>272.312</ele>
        <time>2019-09-23T10:35:36.000Z</time>
      </trkpt>
      <trkpt lat="48.58196" lon="5.6918">
        <ele>272.298</ele>
        <time>2019-09-23T10:35:39.000Z</time>
      </trkpt>
      <trkpt lat="48.5818" lon="5.69178">
        <ele>272.19</ele>
        <time>2019-09-23T10:35:42.000Z</time>
      </trkpt>
      <trkpt lat="48.58164" lon="5.69175">
        <ele>271.797</ele>
        <time>2019-09-23T10:35:45.000Z</time>
      </trkpt>
      <trkpt lat="48.58149" lon="5.69172">
        <ele>271.513</ele>
        <time>2019-09-23T10:35:48.000Z</time>
      </trkpt>
      <trkpt lat="48.58135" lon="5.6917">
        <ele>271.196</ele>
        <time>2019-09-23T10:35:51.000Z</time>
      </trkpt>
      <trkpt lat="48.58121" lon="5.69168">
        <ele>270.819</ele>
        <time>2019-09-23T10:35:54.000Z</time>
      </trkpt>
      <trkpt lat="48.58107" lon="5.69166">
        <ele>270.839</ele>
        <time>2019-09-23T10:35:57.000Z</time>
      </trkpt>
      <trkpt lat="48.58092" lon="5.69164">
        <ele>270.562</ele>
        <time>2019-09-23T10:36:00.000Z</time>
      </trkpt>
      <trkpt lat="48.58078" lon="5.69162">
        <ele>270.744</ele>
        <time>2019-09-23T10:36:03.000Z</time>
      </trkpt>
      <trkpt lat="48.58063" lon="5.69159">
        <ele>270.634</ele>
        <time>2019-09-23T10:36:06.000Z</time>
      </trkpt>
      <trkpt lat="48.58048" lon="5.69156">
        <ele>270.612</ele>
        <time>2019-09-23T10:36:09.000Z</time>
      </trkpt>
      <trkpt lat="48.58031" lon="5.69154">
        <ele>270.555</ele>
        <time>2019-09-23T10:36:12.000Z</time>
      </trkpt>
      <trkpt lat="48.58014" lon="5.69151">
        <ele>270.316</ele>
        <time>2019-09-23T10:36:15.000Z</time>
      </trkpt>
      <trkpt lat="48.57997" lon="5.6915">
        <ele>270.074</ele>
        <time>2019-09-23T10:36:18.000Z</time>
      </trkpt>
      <trkpt lat="48.57979" lon="5.69148">
        <ele>270.307</ele>
        <time>2019-09-23T10:36:21.000Z</time>
      </trkpt>
      <trkpt lat="48.57961" lon="5.69145">
        <ele>269.946</ele>
        <time>2019-09-23T10:36:24.000Z</time>
      </trkpt>
      <trkpt lat="48.57943" lon="5.69142">
        <ele>269.031</ele>
        <time>2019-09-23T10:36:27.000Z</time>
      </trkpt>
      <trkpt lat="48.57924" lon="5.69139">
        <ele>268.12</ele>
        <time>2019-09-23T10:36:30.000Z</time>
      </trkpt>
      <trkpt lat="48.57905" lon="5.69136">
        <ele>267.561</ele>
        <time>2019-09-23T10:36:33.000Z</time>
      </trkpt>
      <trkpt lat="48.57887" lon="5.69133">
        <ele>267.057</ele>
        <time>2019-09-23T10:36:36.000Z</time>
      </trkpt>
      <trkpt lat="48.57871" lon="5.6913">
        <ele>267.031</ele>
        <time>2019-09-23T10:36:39.000Z</time>
      </trkpt>
      <trkpt lat="48.57856" lon="5.69128">
        <ele>267.155</ele>
        <time>2019-09-23T10:36:42.000Z</time>
      </trkpt>
      <trkpt lat="48.57842" lon="5.69126">
        <ele>267.842</ele>
        <time>2019-09-23T10:36:45.000Z</time>
      </trkpt>
      <trkpt lat="48.57828" lon="5.69124">
        <ele>268.924</ele>
        <time>2019-09-23T10:36:48.000Z</time>
      </trkpt>
      <trkpt lat="48.57815" lon="5.69122">
        <ele>269.964</ele>
        <time>2019-09-23T10:36:51.000Z</time>
      </trkpt>
      <trkpt lat="48.57803" lon="5.69121">
        <ele>271.146</ele>
        <time>2019-09-23T10:36:54.000Z</time>
      </trkpt>
      <trkpt lat="48.57791" lon="5.69118">
        <ele>271.859</ele>
        <time>2019-09-23T10:36:57.000Z</time>
      </trkpt>
      <trkpt lat="48.5778" lon="5.69116">
        <ele>272.232</ele>
        <time>2019-09-23T10:37:00.000Z</time>
      </trkpt>
      <trkpt lat="48.57768" lon="5.69114">
        <ele>272.437</ele>
        <time>2019-09-23T10:37:03.000Z</time>
      </trkpt>
      <trkpt lat="48.57756" lon="5.69113">
        <ele>272.971</ele>
        <time>2019-09-23T10:37:06.000Z</time>
      </trkpt>
      <trkpt lat="48.57744" lon="5.69111">
        <ele>273.499</ele>
        <time>2019-09-23T10:37:09.000Z</time>
      </trkpt>
      <trkpt lat="48.57733" lon="5.69109">
        <ele>273.876</ele>
        <time>2019-09-23T10:37:12.000Z</time>
      </trkpt>
      <trkpt lat="48.57722" lon="5.69107">
        <ele>274.166</ele>
        <time>2019-09-23T10:37:15.000Z</time>
      </trkpt>
      <trkpt lat="48.57711" lon="5.69105">
        <ele>274.346</ele>
        <time>2019-09-23T10:37:18.000Z</time>
      </trkpt>
      <trkpt lat="48.577" lon="5.69103">
        <ele>274.731</ele>
        <time>2019-09-23T10:37:21.000Z</time>
      </trkpt>
      <trkpt lat="48.57689" lon="5.69102">
        <ele>274.846</ele>
        <time>2019-09-23T10:37:24.000Z</time>
      </trkpt>
      <trkpt lat="48.57679" lon="5.69101">
        <ele>275.178</ele>
        <time>2019-09-23T10:37:27.000Z</time>
      </trkpt>
      <trkpt lat="48.57668" lon="5.69099">
        <ele>275.906</ele>
        <time>2019-09-23T10:37:30.000Z</time>
      </trkpt>
      <trkpt lat="48.57657" lon="5.69098">
        <ele>276.956</ele>
        <time>2019-09-23T10:37:33.000Z</time>
      </trkpt>
      <trkpt lat="48.57645" lon="5.69096">
        <ele>277.121</ele>
        <time>2019-09-23T10:37:36.000Z</time>
      </trkpt>
      <trkpt lat="48.57634" lon="5.69094">
        <ele>277.571</ele>
        <time>2019-09-23T10:37:39.000Z</time>
      </trkpt>
      <trkpt lat="48.57623" lon="5.69091">
        <ele>277.246</ele>
        <time>2019-09-23T10:37:42.000Z</time>
      </trkpt>
      <trkpt lat="48.57611" lon="5.69088">
        <ele>277.19</ele>
        <time>2019-09-23T10:37:45.000Z</time>
      </trkpt>
      <trkpt lat="48.57599" lon="5.69085">
        <ele>276.669</ele>
        <time>2019-09-23T10:37:48.000Z</time>
      </trkpt>
      <trkpt lat="48.57588" lon="5.69083">
        <ele>276.035</ele>
        <time>2019-09-23T10:37:51.000Z</time>
      </trkpt>
      <trkpt lat="48.57575" lon="5.6908">
        <ele>275.021</ele>
        <time>2019-09-23T10:37:54.000Z</time>
      </trkpt>
      <trkpt lat="48.57561" lon="5.69077">
        <ele>274.102</ele>
        <time>2019-09-23T10:37:57.000Z</time>
      </trkpt>
      <trkpt lat="48.57547" lon="5.69073">
        <ele>273.342</ele>
        <time>2019-09-23T10:38:00.000Z</time>
      </trkpt>
      <trkpt lat="48.57531" lon="5.69068">
        <ele>272.683</ele>
        <time>2019-09-23T10:38:03.000Z</time>
      </trkpt>
      <trkpt lat="48.57515" lon="5.69064">
        <ele>272.483</ele>
        <time>2019-09-23T10:38:06.000Z</time>
      </trkpt>
      <trkpt lat="48.57498" lon="5.69058">
        <ele>271.749</ele>
        <time>2019-09-23T10:38:09.000Z</time>
      </trkpt>
      <trkpt lat="48.57477" lon="5.69054">
        <ele>269.897</ele>
        <time>2019-09-23T10:38:12.000Z</time>
      </trkpt>
      <trkpt lat="48.57453" lon="5.69049">
        <ele>267.323</ele>
        <time>2019-09-23T10:38:15.000Z</time>
      </trkpt>
      <trkpt lat="48.57428" lon="5.69044">
        <ele>265.031</ele>
        <time>2019-09-23T10:38:18.000Z</time>
      </trkpt>
      <trkpt lat="48.57403" lon="5.69038">
        <ele>263.35</ele>
        <time>2019-09-23T10:38:21.000Z</time>
      </trkpt>
      <trkpt lat="48.57381" lon="5.69032">
        <ele>262.418</ele>
        <time>2019-09-23T10:38:24.000Z</time>
      </trkpt>
      <trkpt lat="48.57361" lon="5.69027">
        <ele>261.805</ele>
        <time>2019-09-23T10:38:27.000Z</time>
      </trkpt>
      <trkpt lat="48.57343" lon="5.69022">
        <ele>261.286</ele>
        <time>2019-09-23T10:38:30.000Z</time>
      </trkpt>
      <trkpt lat="48.57327" lon="5.69018">
        <ele>260.83</ele>
        <time>2019-09-23T10:38:33.000Z</time>
      </trkpt>
      <trkpt lat="48.5731" lon="5.69014">
        <ele>261.11</ele>
        <time>2019-09-23T10:38:36.000Z</time>
      </trkpt>
      <trkpt lat="48.57294" lon="5.6901">
        <ele>261.3</ele>
        <time>2019-09-23T10:38:39.000Z</time>
      </trkpt>
      <trkpt lat="48.5728" lon="5.69007">
        <ele>261.53</ele>
        <time>2019-09-23T10:38:42.000Z</time>
      </trkpt>
      <trkpt lat="48.57266" lon="5.69003">
        <ele>261.46</ele>
        <time>2019-09-23T10:38:45.000Z</time>
      </trkpt>
      <trkpt lat="48.57251" lon="5.68999">
        <ele>261.509</ele>
        <time>2019-09-23T10:38:48.000Z</time>
      </trkpt>
      <trkpt lat="48.57237" lon="5.68995">
        <ele>261.408</ele>
        <time>2019-09-23T10:38:51.000Z</time>
      </trkpt>
      <trkpt lat="48.57223" lon="5.6899">
        <ele>261.253</ele>
        <time>2019-09-23T10:38:54.000Z</time>
      </trkpt>
      <trkpt lat="48.57208" lon="5.68986">
        <ele>261.133</ele>
        <time>2019-09-23T10:38:57.000Z</time>
      </trkpt>
      <trkpt lat="48.57194" lon="5.68983">
        <ele>261.044</ele>
        <time>2019-09-23T10:39:00.000Z</time>
      </trkpt>
      <trkpt lat="48.57179" lon="5.6898">
        <ele>260.903</ele>
        <time>2019-09-23T10:39:03.000Z</time>
      </trkpt>
      <trkpt lat="48.57166" lon="5.68975">
        <ele>260.869</ele>
        <time>2019-09-23T10:39:06.000Z</time>
      </trkpt>
      <trkpt lat="48.57152" lon="5.68971">
        <ele>260.79</ele>
        <time>2019-09-23T10:39:09.000Z</time>
      </trkpt>
      <trkpt lat="48.57137" lon="5.68967">
        <ele>260.502</ele>
        <time>2019-09-23T10:39:12.000Z</time>
      </trkpt>
      <trkpt lat="48.57123" lon="5.68964">
        <ele>260.422</ele>
        <time>2019-09-23T10:39:15.000Z</time>
      </trkpt>
      <trkpt lat="48.57108" lon="5.68961">
        <ele>260.528</ele>
        <time>2019-09-23T10:39:18.000Z</time>
      </trkpt>
      <trkpt lat="48.57092" lon="5.68958">
        <ele>260.738</ele>
        <time>2019-09-23T10:39:21.000Z</time>
      </trkpt>
      <trkpt lat="48.57077" lon="5.68955">
        <ele>261.166</ele>
        <time>2019-09-23T10:39:24.000Z</time>
      </trkpt>
      <trkpt lat="48.57062" lon="5.68951">
        <ele>261.109</ele>
        <time>2019-09-23T10:39:27.000Z</time>
      </trkpt>
      <trkpt lat="48.57047" lon="5.68947">
        <ele>261.235</ele>
        <time>2019-09-23T10:39:30.000Z</time>
      </trkpt>
      <trkpt lat="48.57033" lon="5.68942">
        <ele>261.571</ele>
        <time>2019-09-23T10:39:33.000Z</time>
      </trkpt>
      <trkpt lat="48.57018" lon="5.68939">
        <ele>261.876</ele>
        <time>2019-09-23T10:39:36.000Z</time>
      </trkpt>
      <trkpt lat="48.57004" lon="5.68935">
        <ele>262.184</ele>
        <time>2019-09-23T10:39:39.000Z</time>
      </trkpt>
      <trkpt lat="48.5699" lon="5.68932">
        <ele>262.486</ele>
        <time>2019-09-23T10:39:42.000Z</time>
      </trkpt>
      <trkpt lat="48.56976" lon="5.68928">
        <ele>262.802</ele>
        <time>2019-09-23T10:39:45.000Z</time>
      </trkpt>
      <trkpt lat="48.56963" lon="5.68925">
        <ele>263.345</ele>
        <time>2019-09-23T10:39:48.000Z</time>
      </trkpt>
      <trkpt lat="48.56949" lon="5.68922">
        <ele>263.815</ele>
        <time>2019-09-23T10:39:51.000Z</time>
      </trkpt>
      <trkpt lat="48.56934" lon="5.68918">
        <ele>264.46</ele>
        <time>2019-09-23T10:39:54.000Z</time>
      </trkpt>
      <trkpt lat="48.5692" lon="5.68914">
        <ele>264.479</ele>
        <time>2019-09-23T10:39:57.000Z</time>
      </trkpt>
      <trkpt lat="48.56906" lon="5.6891">
        <ele>264.086</ele>
        <time>2019-09-23T10:40:00.000Z</time>
      </trkpt>
      <trkpt lat="48.56893" lon="5.68907">
        <ele>264.026</ele>
        <time>2019-09-23T10:40:03.000Z</time>
      </trkpt>
      <trkpt lat="48.5688" lon="5.68904">
        <ele>264.118</ele>
        <time>2019-09-23T10:40:06.000Z</time>
      </trkpt>
      <trkpt lat="48.56866" lon="5.68901">
        <ele>264.272</ele>
        <time>2019-09-23T10:40:09.000Z</time>
      </trkpt>
      <trkpt lat="48.56853" lon="5.68898">
        <ele>264.622</ele>
        <time>2019-09-23T10:40:12.000Z</time>
      </trkpt>
      <trkpt lat="48.56839" lon="5.68895">
        <ele>264.551</ele>
        <time>2019-09-23T10:40:15.000Z</time>
      </trkpt>
      <trkpt lat="48.56826" lon="5.6889">
        <ele>264.435</ele>
        <time>2019-09-23T10:40:18.000Z</time>
      </trkpt>
      <trkpt lat="48.56812" lon="5.68887">
        <ele>264.129</ele>
        <time>2019-09-23T10:40:21.000Z</time>
      </trkpt>
      <trkpt lat="48.56799" lon="5.68883">
        <ele>264.314</ele>
        <time>2019-09-23T10:40:24.000Z</time>
      </trkpt>
      <trkpt lat="48.56785" lon="5.6888">
        <ele>263.789</ele>
        <time>2019-09-23T10:40:27.000Z</time>
      </trkpt>
      <trkpt lat="48.56771" lon="5.68878">
        <ele>263.486</ele>
        <time>2019-09-23T10:40:30.000Z</time>
      </trkpt>
      <trkpt lat="48.56757" lon="5.68874">
        <ele>263.233</ele>
        <time>2019-09-23T10:40:33.000Z</time>
      </trkpt>
      <trkpt lat="48.56742" lon="5.68871">
        <ele>263.627</ele>
        <time>2019-09-23T10:40:36.000Z</time>
      </trkpt>
      <trkpt lat="48.56728" lon="5.68867">
        <ele>263.46</ele>
        <time>2019-09-23T10:40:39.000Z</time>
      </trkpt>
      <trkpt lat="48.56714" lon="5.68862">
        <ele>263.001</ele>
        <time>2019-09-23T10:40:42.000Z</time>
      </trkpt>
      <trkpt lat="48.56701" lon="5.68856">
        <ele>262.777</ele>
        <time>2019-09-23T10:40:45.000Z</time>
      </trkpt>
      <trkpt lat="48.56687" lon="5.68852">
        <ele>262.762</ele>
        <time>2019-09-23T10:40:48.000Z</time>
      </trkpt>
      <trkpt lat="48.56673" lon="5.68848">
        <ele>262.543</ele>
        <time>2019-09-23T10:40:51.000Z</time>
      </trkpt>
      <trkpt lat="48.5666" lon="5.68846">
        <ele>262.696</ele>
        <time>2019-09-23T10:40:54.000Z</time>
      </trkpt>
      <trkpt lat="48.56647" lon="5.68843">
        <ele>262.955</ele>
        <time>2019-09-23T10:40:57.000Z</time>
      </trkpt>
      <trkpt lat="48.56634" lon="5.68839">
        <ele>262.975</ele>
        <time>2019-09-23T10:41:00.000Z</time>
      </trkpt>
      <trkpt lat="48.56621" lon="5.68836">
        <ele>262.988</ele>
        <time>2019-09-23T10:41:03.000Z</time>
      </trkpt>
      <trkpt lat="48.56607" lon="5.68833">
        <ele>263.278</ele>
        <time>2019-09-23T10:41:06.000Z</time>
      </trkpt>
      <trkpt lat="48.56594" lon="5.6883">
        <ele>263.359</ele>
        <time>2019-09-23T10:41:09.000Z</time>
      </trkpt>
      <trkpt lat="48.56583" lon="5.68827">
        <ele>263.304</ele>
        <time>2019-09-23T10:41:12.000Z</time>
      </trkpt>
      <trkpt lat="48.56571" lon="5.68823">
        <ele>263.437</ele>
        <time>2019-09-23T10:41:15.000Z</time>
      </trkpt>
      <trkpt lat="48.56559" lon="5.68819">
        <ele>263.421</ele>
        <time>2019-09-23T10:41:18.000Z</time>
      </trkpt>
      <trkpt lat="48.56547" lon="5.68815">
        <ele>263.398</ele>
        <time>2019-09-23T10:41:21.000Z</time>
      </trkpt>
      <trkpt lat="48.56535" lon="5.68813">
        <ele>263.553</ele>
        <time>2019-09-23T10:41:24.000Z</time>
      </trkpt>
      <trkpt lat="48.56524" lon="5.68812">
        <ele>263.317</ele>
        <time>2019-09-23T10:41:27.000Z</time>
      </trkpt>
      <trkpt lat="48.56513" lon="5.68809">
        <ele>263.171</ele>
        <time>2019-09-23T10:41:30.000Z</time>
      </trkpt>
      <trkpt lat="48.56502" lon="5.68806">
        <ele>263.303</ele>
        <time>2019-09-23T10:41:33.000Z</time>
      </trkpt>
      <trkpt lat="48.5649" lon="5.68804">
        <ele>263.871</ele>
        <time>2019-09-23T10:41:36.000Z</time>
      </trkpt>
      <trkpt lat="48.5648" lon="5.68799">
        <ele>264.499</ele>
        <time>2019-09-23T10:41:39.000Z</time>
      </trkpt>
      <trkpt lat="48.5647" lon="5.68796">
        <ele>265.443</ele>
        <time>2019-09-23T10:41:42.000Z</time>
      </trkpt>
      <trkpt lat="48.5646" lon="5.68793">
        <ele>266.165</ele>
        <time>2019-09-23T10:41:45.000Z</time>
      </trkpt>
      <trkpt lat="48.56449" lon="5.6879">
        <ele>266.384</ele>
        <time>2019-09-23T10:41:48.000Z</time>
      </trkpt>
      <trkpt lat="48.56436" lon="5.68787">
        <ele>266.6</ele>
        <time>2019-09-23T10:41:51.000Z</time>
      </trkpt>
      <trkpt lat="48.56424" lon="5.68784">
        <ele>266.945</ele>
        <time>2019-09-23T10:41:54.000Z</time>
      </trkpt>
      <trkpt lat="48.56413" lon="5.68782">
        <ele>267.082</ele>
        <time>2019-09-23T10:41:57.000Z</time>
      </trkpt>
      <trkpt lat="48.56402" lon="5.6878">
        <ele>267.681</ele>
        <time>2019-09-23T10:42:00.000Z</time>
      </trkpt>
      <trkpt lat="48.56391" lon="5.68777">
        <ele>267.984</ele>
        <time>2019-09-23T10:42:03.000Z</time>
      </trkpt>
      <trkpt lat="48.56381" lon="5.68773">
        <ele>268.274</ele>
        <time>2019-09-23T10:42:06.000Z</time>
      </trkpt>
      <trkpt lat="48.56371" lon="5.6877">
        <ele>268.09</ele>
        <time>2019-09-23T10:42:09.000Z</time>
      </trkpt>
      <trkpt lat="48.5636" lon="5.68767">
        <ele>267.868</ele>
        <time>2019-09-23T10:42:12.000Z</time>
      </trkpt>
      <trkpt lat="48.5635" lon="5.68765">
        <ele>267.685</ele>
        <time>2019-09-23T10:42:15.000Z</time>
      </trkpt>
      <trkpt lat="48.56341" lon="5.68762">
        <ele>267.333</ele>
        <time>2019-09-23T10:42:18.000Z</time>
      </trkpt>
      <trkpt lat="48.56331" lon="5.6876">
        <ele>267.542</ele>
        <time>2019-09-23T10:42:21.000Z</time>
      </trkpt>
      <trkpt lat="48.56322" lon="5.68757">
        <ele>267.591</ele>
        <time>2019-09-23T10:42:24.000Z</time>
      </trkpt>
      <trkpt lat="48.56312" lon="5.68754">
        <ele>267.778</ele>
        <time>2019-09-23T10:42:27.000Z</time>
      </trkpt>
      <trkpt lat="48.56302" lon="5.68751">
        <ele>267.684</ele>
        <time>2019-09-23T10:42:30.000Z</time>
      </trkpt>
      <trkpt lat="48.56293" lon="5.68748">
        <ele>267.59</ele>
        <time>2019-09-23T10:42:33.000Z</time>
      </trkpt>
      <trkpt lat="48.56284" lon="5.68745">
        <ele>267.658</ele>
        <time>2019-09-23T10:42:36.000Z</time>
      </trkpt>
      <trkpt lat="48.56275" lon="5.68743">
        <ele>267.665</ele>
        <time>2019-09-23T10:42:39.000Z</time>
      </trkpt>
      <trkpt lat="48.56266" lon="5.6874">
        <ele>268.117</ele>
        <time>2019-09-23T10:42:42.000Z</time>
      </trkpt>
      <trkpt lat="48.56256" lon="5.68737">
        <ele>268.74</ele>
        <time>2019-09-23T10:42:45.000Z</time>
      </trkpt>
      <trkpt lat="48.56246" lon="5.68734">
        <ele>269.156</ele>
        <time>2019-09-23T10:42:48.000Z</time>
      </trkpt>
      <trkpt lat="48.56237" lon="5.68731">
        <ele>269.505</ele>
        <time>2019-09-23T10:42:51.000Z</time>
      </trkpt>
      <trkpt lat="48.56228" lon="5.68729">
        <ele>269.998</ele>
        <time>2019-09-23T10:42:54.000Z</time>
      </trkpt>
      <trkpt lat="48.56218" lon="5.68726">
        <ele>270.156</ele>
        <time>2019-09-23T10:42:57.000Z</time>
      </trkpt>
      <trkpt lat="48.56209" lon="5.68722">
        <ele>270.408</ele>
        <time>2019-09-23T10:43:00.000Z</time>
      </trkpt>
      <trkpt lat="48.562" lon="5.68719">
        <ele>270.028</ele>
        <time>2019-09-23T10:43:03.000Z</time>
      </trkpt>
      <trkpt lat="48.5619" lon="5.68715">
        <ele>269.458</ele>
        <time>2019-09-23T10:43:06.000Z</time>
      </trkpt>
      <trkpt lat="48.5618" lon="5.68711">
        <ele>268.682</ele>
        <time>2019-09-23T10:43:09.000Z</time>
      </trkpt>
      <trkpt lat="48.56169" lon="5.68707">
        <ele>267.882</ele>
        <time>2019-09-23T10:43:12.000Z</time>
      </trkpt>
      <trkpt lat="48.56158" lon="5.68704">
        <ele>267.4</ele>
        <time>2019-09-23T10:43:15.000Z</time>
      </trkpt>
      <trkpt lat="48.56147" lon="5.687">
        <ele>267.759</ele>
        <time>2019-09-23T10:43:18.000Z</time>
      </trkpt>
      <trkpt lat="48.56135" lon="5.68696">
        <ele>267.777</ele>
        <time>2019-09-23T10:43:21.000Z</time>
      </trkpt>
      <trkpt lat="48.56123" lon="5.68692">
        <ele>267.819</ele>
        <time>2019-09-23T10:43:24.000Z</time>
      </trkpt>
      <trkpt lat="48.56111" lon="5.68689">
        <ele>267.494</ele>
        <time>2019-09-23T10:43:27.000Z</time>
      </trkpt>
      <trkpt lat="48.56099" lon="5.68685">
        <ele>267.462</ele>
        <time>2019-09-23T10:43:30.000Z</time>
      </trkpt>
      <trkpt lat="48.56087" lon="5.68682">
        <ele>267.531</ele>
        <time>2019-09-23T10:43:33.000Z</time>
      </trkpt>
      <trkpt lat="48.56076" lon="5.68678">
        <ele>267.689</ele>
        <time>2019-09-23T10:43:36.000Z</time>
      </trkpt>
      <trkpt lat="48.56064" lon="5.68675">
        <ele>268.168</ele>
        <time>2019-09-23T10:43:39.000Z</time>
      </trkpt>
      <trkpt lat="48.56052" lon="5.68673">
        <ele>268.634</ele>
        <time>2019-09-23T10:43:42.000Z</time>
      </trkpt>
      <trkpt lat="48.56041" lon="5.68669">
        <ele>268.829</ele>
        <time>2019-09-23T10:43:45.000Z</time>
      </trkpt>
      <trkpt lat="48.56029" lon="5.68665">
        <ele>268.702</ele>
        <time>2019-09-23T10:43:48.000Z</time>
      </trkpt>
      <trkpt lat="48.56018" lon="5.6866">
        <ele>268.61</ele>
        <time>2019-09-23T10:43:51.000Z</time>
      </trkpt>
      <trkpt lat="48.56005" lon="5.68655">
        <ele>268.155</ele>
        <time>2019-09-23T10:43:54.000Z</time>
      </trkpt>
      <trkpt lat="48.55991" lon="5.6865">
        <ele>267.981</ele>
        <time>2019-09-23T10:43:57.000Z</time>
      </trkpt>
      <trkpt lat="48.55976" lon="5.68645">
        <ele>267.528</ele>
        <time>2019-09-23T10:44:00.000Z</time>
      </trkpt>
      <trkpt lat="48.55961" lon="5.6864">
        <ele>266.584</ele>
        <time>2019-09-23T10:44:03.000Z</time>
      </trkpt>
      <trkpt lat="48.55942" lon="5.68634">
        <ele>264.992</ele>
        <time>2019-09-23T10:44:06.000Z</time>
      </trkpt>
      <trkpt lat="48.55923" lon="5.6863">
        <ele>264.524</ele>
        <time>2019-09-23T10:44:09.000Z</time>
      </trkpt>
      <trkpt lat="48.55901" lon="5.68628">
        <ele>263.65</ele>
        <time>2019-09-23T10:44:12.000Z</time>
      </trkpt>
      <trkpt lat="48.55878" lon="5.68628">
        <ele>262.89</ele>
        <time>2019-09-23T10:44:15.000Z</time>
      </trkpt>
      <trkpt lat="48.55856" lon="5.68632">
        <ele>262.242</ele>
        <time>2019-09-23T10:44:18.000Z</time>
      </trkpt>
      <trkpt lat="48.55836" lon="5.68638">
        <ele>261.293</ele>
        <time>2019-09-23T10:44:21.000Z</time>
      </trkpt>
      <trkpt lat="48.55818" lon="5.68643">
        <ele>260.729</ele>
        <time>2019-09-23T10:44:24.000Z</time>
      </trkpt>
      <trkpt lat="48.55804" lon="5.68646">
        <ele>260.39</ele>
        <time>2019-09-23T10:44:27.000Z</time>
      </trkpt>
      <trkpt lat="48.55797" lon="5.68648">
        <ele>260.426</ele>
        <time>2019-09-23T10:44:30.000Z</time>
      </trkpt>
      <trkpt lat="48.55796" lon="5.68647">
        <ele>260.671</ele>
        <time>2019-09-23T10:44:33.000Z</time>
      </trkpt>
      <trkpt lat="48.55796" lon="5.68647">
        <ele>260.671</ele>
        <time>2019-09-23T10:48:15.000Z</time>
      </trkpt>
      <trkpt lat="48.55794" lon="5.68649">
        <ele>260.741</ele>
        <time>2019-09-23T10:48:18.000Z</time>
      </trkpt>
      <trkpt lat="48.55792" lon="5.68651">
        <ele>261.08</ele>
        <time>2019-09-23T10:48:21.000Z</time>
      </trkpt>
      <trkpt lat="48.55792" lon="5.68651">
        <ele>261.192</ele>
        <time>2019-09-23T10:48:30.000Z</time>
      </trkpt>
      <trkpt lat="48.55791" lon="5.68651">
        <ele>261.064</ele>
        <time>2019-09-23T10:48:33.000Z</time>
      </trkpt>
      <trkpt lat="48.55787" lon="5.68653">
        <ele>261.392</ele>
        <time>2019-09-23T10:48:36.000Z</time>
      </trkpt>
      <trkpt lat="48.55779" lon="5.68657">
        <ele>261.123</ele>
        <time>2019-09-23T10:48:39.000Z</time>
      </trkpt>
      <trkpt lat="48.5577" lon="5.6866">
        <ele>261.469</ele>
        <time>2019-09-23T10:48:42.000Z</time>
      </trkpt>
      <trkpt lat="48.5576" lon="5.68663">
        <ele>261.597</ele>
        <time>2019-09-23T10:48:45.000Z</time>
      </trkpt>
      <trkpt lat="48.5575" lon="5.68665">
        <ele>262.059</ele>
        <time>2019-09-23T10:48:48.000Z</time>
      </trkpt>
      <trkpt lat="48.5574" lon="5.68668">
        <ele>262.355</ele>
        <time>2019-09-23T10:48:51.000Z</time>
      </trkpt>
      <trkpt lat="48.55728" lon="5.68672">
        <ele>262.412</ele>
        <time>2019-09-23T10:48:54.000Z</time>
      </trkpt>
      <trkpt lat="48.55717" lon="5.68676">
        <ele>262.663</ele>
        <time>2019-09-23T10:48:57.000Z</time>
      </trkpt>
      <trkpt lat="48.55705" lon="5.68679">
        <ele>262.899</ele>
        <time>2019-09-23T10:49:00.000Z</time>
      </trkpt>
      <trkpt lat="48.55694" lon="5.68682">
        <ele>263.273</ele>
        <time>2019-09-23T10:49:03.000Z</time>
      </trkpt>
      <trkpt lat="48.55683" lon="5.68685">
        <ele>263.21</ele>
        <time>2019-09-23T10:49:06.000Z</time>
      </trkpt>
      <trkpt lat="48.55672" lon="5.6869">
        <ele>263.178</ele>
        <time>2019-09-23T10:49:09.000Z</time>
      </trkpt>
      <trkpt lat="48.55661" lon="5.68693">
        <ele>262.617</ele>
        <time>2019-09-23T10:49:12.000Z</time>
      </trkpt>
      <trkpt lat="48.55651" lon="5.68696">
        <ele>261.852</ele>
        <time>2019-09-23T10:49:15.000Z</time>
      </trkpt>
      <trkpt lat="48.55639" lon="5.687">
        <ele>261.302</ele>
        <time>2019-09-23T10:49:18.000Z</time>
      </trkpt>
      <trkpt lat="48.55627" lon="5.68704">
        <ele>261.184</ele>
        <time>2019-09-23T10:49:21.000Z</time>
      </trkpt>
      <trkpt lat="48.55617" lon="5.68708">
        <ele>260.557</ele>
        <time>2019-09-23T10:49:24.000Z</time>
      </trkpt>
      <trkpt lat="48.55606" lon="5.68711">
        <ele>260.217</ele>
        <time>2019-09-23T10:49:27.000Z</time>
      </trkpt>
      <trkpt lat="48.55594" lon="5.68715">
        <ele>260.161</ele>
        <time>2019-09-23T10:49:30.000Z</time>
      </trkpt>
      <trkpt lat="48.55582" lon="5.68719">
        <ele>260.565</ele>
        <time>2019-09-23T10:49:33.000Z</time>
      </trkpt>
      <trkpt lat="48.55571" lon="5.68723">
        <ele>260.591</ele>
        <time>2019-09-23T10:49:36.000Z</time>
      </trkpt>
      <trkpt lat="48.5556" lon="5.68726">
        <ele>260.896</ele>
        <time>2019-09-23T10:49:39.000Z</time>
      </trkpt>
      <trkpt lat="48.55549" lon="5.6873">
        <ele>261.477</ele>
        <time>2019-09-23T10:49:42.000Z</time>
      </trkpt>
      <trkpt lat="48.55539" lon="5.68733">
        <ele>262.051</ele>
        <time>2019-09-23T10:49:45.000Z</time>
      </trkpt>
      <trkpt lat="48.55529" lon="5.68737">
        <ele>262.541</ele>
        <time>2019-09-23T10:49:48.000Z</time>
      </trkpt>
      <trkpt lat="48.55518" lon="5.68741">
        <ele>263.218</ele>
        <time>2019-09-23T10:49:51.000Z</time>
      </trkpt>
      <trkpt lat="48.55508" lon="5.68745">
        <ele>263.993</ele>
        <time>2019-09-23T10:49:54.000Z</time>
      </trkpt>
      <trkpt lat="48.55499" lon="5.68749">
        <ele>264.732</ele>
        <time>2019-09-23T10:49:57.000Z</time>
      </trkpt>
      <trkpt lat="48.55491" lon="5.68751">
        <ele>265.244</ele>
        <time>2019-09-23T10:50:00.000Z</time>
      </trkpt>
      <trkpt lat="48.55483" lon="5.68754">
        <ele>265.514</ele>
        <time>2019-09-23T10:50:03.000Z</time>
      </trkpt>
      <trkpt lat="48.55474" lon="5.68757">
        <ele>266.025</ele>
        <time>2019-09-23T10:50:06.000Z</time>
      </trkpt>
      <trkpt lat="48.55464" lon="5.68759">
        <ele>266.409</ele>
        <time>2019-09-23T10:50:09.000Z</time>
      </trkpt>
      <trkpt lat="48.55456" lon="5.68761">
        <ele>266.368</ele>
        <time>2019-09-23T10:50:12.000Z</time>
      </trkpt>
      <trkpt lat="48.55448" lon="5.68763">
        <ele>266.292</ele>
        <time>2019-09-23T10:50:15.000Z</time>
      </trkpt>
      <trkpt lat="48.55439" lon="5.68765">
        <ele>266.498</ele>
        <time>2019-09-23T10:50:18.000Z</time>
      </trkpt>
      <trkpt lat="48.55431" lon="5.68768">
        <ele>266.293</ele>
        <time>2019-09-23T10:50:21.000Z</time>
      </trkpt>
      <trkpt lat="48.55423" lon="5.6877">
        <ele>265.683</ele>
        <time>2019-09-23T10:50:24.000Z</time>
      </trkpt>
      <trkpt lat="48.55414" lon="5.68771">
        <ele>265.927</ele>
        <time>2019-09-23T10:50:27.000Z</time>
      </trkpt>
      <trkpt lat="48.55404" lon="5.68772">
        <ele>266.572</ele>
        <time>2019-09-23T10:50:30.000Z</time>
      </trkpt>
      <trkpt lat="48.55396" lon="5.68773">
        <ele>267.207</ele>
        <time>2019-09-23T10:50:33.000Z</time>
      </trkpt>
      <trkpt lat="48.55386" lon="5.68773">
        <ele>266.985</ele>
        <time>2019-09-23T10:50:36.000Z</time>
      </trkpt>
      <trkpt lat="48.55377" lon="5.68774">
        <ele>267.137</ele>
        <time>2019-09-23T10:50:39.000Z</time>
      </trkpt>
      <trkpt lat="48.55369" lon="5.68775">
        <ele>267.333</ele>
        <time>2019-09-23T10:50:42.000Z</time>
      </trkpt>
      <trkpt lat="48.55361" lon="5.68775">
        <ele>267.259</ele>
        <time>2019-09-23T10:50:45.000Z</time>
      </trkpt>
      <trkpt lat="48.55352" lon="5.68776">
        <ele>267.633</ele>
        <time>2019-09-23T10:50:48.000Z</time>
      </trkpt>
      <trkpt lat="48.55343" lon="5.68778">
        <ele>267.878</ele>
        <time>2019-09-23T10:50:51.000Z</time>
      </trkpt>
      <trkpt lat="48.55334" lon="5.6878">
        <ele>268.068</ele>
        <time>2019-09-23T10:50:54.000Z</time>
      </trkpt>
      <trkpt lat="48.55324" lon="5.68781">
        <ele>268.234</ele>
        <time>2019-09-23T10:50:57.000Z</time>
      </trkpt>
      <trkpt lat="48.55316" lon="5.68782">
        <ele>268.76</ele>
        <time>2019-09-23T10:51:00.000Z</time>
      </trkpt>
      <trkpt lat="48.55307" lon="5.68784">
        <ele>269.314</ele>
        <time>2019-09-23T10:51:03.000Z</time>
      </trkpt>
      <trkpt lat="48.55297" lon="5.68785">
        <ele>269.496</ele>
        <time>2019-09-23T10:51:06.000Z</time>
      </trkpt>
      <trkpt lat="48.55288" lon="5.68786">
        <ele>269.525</ele>
        <time>2019-09-23T10:51:09.000Z</time>
      </trkpt>
      <trkpt lat="48.55278" lon="5.68787">
        <ele>269.226</ele>
        <time>2019-09-23T10:51:12.000Z</time>
      </trkpt>
      <trkpt lat="48.55269" lon="5.68788">
        <ele>269.451</ele>
        <time>2019-09-23T10:51:15.000Z</time>
      </trkpt>
      <trkpt lat="48.5526" lon="5.68789">
        <ele>269.769</ele>
        <time>2019-09-23T10:51:18.000Z</time>
      </trkpt>
      <trkpt lat="48.55251" lon="5.68791">
        <ele>270.031</ele>
        <time>2019-09-23T10:51:21.000Z</time>
      </trkpt>
      <trkpt lat="48.55242" lon="5.68793">
        <ele>270.145</ele>
        <time>2019-09-23T10:51:24.000Z</time>
      </trkpt>
      <trkpt lat="48.55233" lon="5.68795">
        <ele>270.448</ele>
        <time>2019-09-23T10:51:27.000Z</time>
      </trkpt>
      <trkpt lat="48.55224" lon="5.68796">
        <ele>270.757</ele>
        <time>2019-09-23T10:51:30.000Z</time>
      </trkpt>
      <trkpt lat="48.55215" lon="5.68797">
        <ele>270.598</ele>
        <time>2019-09-23T10:51:33.000Z</time>
      </trkpt>
      <trkpt lat="48.55206" lon="5.68798">
        <ele>270.784</ele>
        <time>2019-09-23T10:51:36.000Z</time>
      </trkpt>
      <trkpt lat="48.55197" lon="5.68799">
        <ele>271.136</ele>
        <time>2019-09-23T10:51:39.000Z</time>
      </trkpt>
      <trkpt lat="48.55188" lon="5.688">
        <ele>271.318</ele>
        <time>2019-09-23T10:51:42.000Z</time>
      </trkpt>
      <trkpt lat="48.5518" lon="5.68801">
        <ele>271.635</ele>
        <time>2019-09-23T10:51:45.000Z</time>
      </trkpt>
      <trkpt lat="48.55172" lon="5.68803">
        <ele>271.987</ele>
        <time>2019-09-23T10:51:48.000Z</time>
      </trkpt>
      <trkpt lat="48.55164" lon="5.68805">
        <ele>272.3</ele>
        <time>2019-09-23T10:51:51.000Z</time>
      </trkpt>
      <trkpt lat="48.55156" lon="5.68807">
        <ele>272.448</ele>
        <time>2019-09-23T10:51:54.000Z</time>
      </trkpt>
      <trkpt lat="48.55147" lon="5.68811">
        <ele>272.839</ele>
        <time>2019-09-23T10:51:57.000Z</time>
      </trkpt>
      <trkpt lat="48.55139" lon="5.68814">
        <ele>273.041</ele>
        <time>2019-09-23T10:52:00.000Z</time>
      </trkpt>
      <trkpt lat="48.55132" lon="5.68817">
        <ele>272.989</ele>
        <time>2019-09-23T10:52:03.000Z</time>
      </trkpt>
      <trkpt lat="48.55125" lon="5.68821">
        <ele>271.797</ele>
        <time>2019-09-23T10:52:06.000Z</time>
      </trkpt>
      <trkpt lat="48.55117" lon="5.68822">
        <ele>272</ele>
        <time>2019-09-23T10:52:09.000Z</time>
      </trkpt>
      <trkpt lat="48.55109" lon="5.68824">
        <ele>272.288</ele>
        <time>2019-09-23T10:52:12.000Z</time>
      </trkpt>
      <trkpt lat="48.55101" lon="5.68827">
        <ele>272.774</ele>
        <time>2019-09-23T10:52:15.000Z</time>
      </trkpt>
      <trkpt lat="48.55092" lon="5.6883">
        <ele>273.185</ele>
        <time>2019-09-23T10:52:18.000Z</time>
      </trkpt>
      <trkpt lat="48.55084" lon="5.68834">
        <ele>273.298</ele>
        <time>2019-09-23T10:52:21.000Z</time>
      </trkpt>
      <trkpt lat="48.55076" lon="5.68837">
        <ele>273.973</ele>
        <time>2019-09-23T10:52:24.000Z</time>
      </trkpt>
      <trkpt lat="48.55068" lon="5.68841">
        <ele>274.689</ele>
        <time>2019-09-23T10:52:27.000Z</time>
      </trkpt>
      <trkpt lat="48.55059" lon="5.68844">
        <ele>274.789</ele>
        <time>2019-09-23T10:52:30.000Z</time>
      </trkpt>
      <trkpt lat="48.55051" lon="5.68847">
        <ele>275.072</ele>
        <time>2019-09-23T10:52:33.000Z</time>
      </trkpt>
      <trkpt lat="48.55044" lon="5.68851">
        <ele>275.248</ele>
        <time>2019-09-23T10:52:36.000Z</time>
      </trkpt>
      <trkpt lat="48.55036" lon="5.68855">
        <ele>275.64</ele>
        <time>2019-09-23T10:52:39.000Z</time>
      </trkpt>
      <trkpt lat="48.55029" lon="5.68859">
        <ele>275.538</ele>
        <time>2019-09-23T10:52:42.000Z</time>
      </trkpt>
      <trkpt lat="48.55021" lon="5.68864">
        <ele>275.671</ele>
        <time>2019-09-23T10:52:45.000Z</time>
      </trkpt>
      <trkpt lat="48.55014" lon="5.68868">
        <ele>276.072</ele>
        <time>2019-09-23T10:52:48.000Z</time>
      </trkpt>
      <trkpt lat="48.55007" lon="5.68871">
        <ele>277.161</ele>
        <time>2019-09-23T10:52:51.000Z</time>
      </trkpt>
      <trkpt lat="48.54999" lon="5.68874">
        <ele>277.725</ele>
        <time>2019-09-23T10:52:54.000Z</time>
      </trkpt>
      <trkpt lat="48.54991" lon="5.68877">
        <ele>277.782</ele>
        <time>2019-09-23T10:52:57.000Z</time>
      </trkpt>
      <trkpt lat="48.54984" lon="5.6888">
        <ele>277.985</ele>
        <time>2019-09-23T10:53:00.000Z</time>
      </trkpt>
      <trkpt lat="48.54977" lon="5.68883">
        <ele>277.918</ele>
        <time>2019-09-23T10:53:03.000Z</time>
      </trkpt>
      <trkpt lat="48.54969" lon="5.68886">
        <ele>277.719</ele>
        <time>2019-09-23T10:53:06.000Z</time>
      </trkpt>
      <trkpt lat="48.54962" lon="5.68888">
        <ele>277.654</ele>
        <time>2019-09-23T10:53:09.000Z</time>
      </trkpt>
      <trkpt lat="48.54954" lon="5.68891">
        <ele>277.668</ele>
        <time>2019-09-23T10:53:12.000Z</time>
      </trkpt>
      <trkpt lat="48.54947" lon="5.68893">
        <ele>278.083</ele>
        <time>2019-09-23T10:53:15.000Z</time>
      </trkpt>
      <trkpt lat="48.54938" lon="5.68895">
        <ele>278.661</ele>
        <time>2019-09-23T10:53:18.000Z</time>
      </trkpt>
      <trkpt lat="48.54929" lon="5.68896">
        <ele>279.294</ele>
        <time>2019-09-23T10:53:21.000Z</time>
      </trkpt>
      <trkpt lat="48.54918" lon="5.68898">
        <ele>279.353</ele>
        <time>2019-09-23T10:53:24.000Z</time>
      </trkpt>
      <trkpt lat="48.54906" lon="5.68899">
        <ele>279.121</ele>
        <time>2019-09-23T10:53:27.000Z</time>
      </trkpt>
      <trkpt lat="48.54891" lon="5.689">
        <ele>279.146</ele>
        <time>2019-09-23T10:53:30.000Z</time>
      </trkpt>
      <trkpt lat="48.54875" lon="5.689">
        <ele>278.763</ele>
        <time>2019-09-23T10:53:33.000Z</time>
      </trkpt>
      <trkpt lat="48.54859" lon="5.68899">
        <ele>278.173</ele>
        <time>2019-09-23T10:53:36.000Z</time>
      </trkpt>
      <trkpt lat="48.54839" lon="5.68898">
        <ele>276.983</ele>
        <time>2019-09-23T10:53:39.000Z</time>
      </trkpt>
      <trkpt lat="48.54814" lon="5.68896">
        <ele>275.933</ele>
        <time>2019-09-23T10:53:42.000Z</time>
      </trkpt>
      <trkpt lat="48.54785" lon="5.68898">
        <ele>274.561</ele>
        <time>2019-09-23T10:53:45.000Z</time>
      </trkpt>
      <trkpt lat="48.54756" lon="5.68915">
        <ele>272.056</ele>
        <time>2019-09-23T10:53:48.000Z</time>
      </trkpt>
      <trkpt lat="48.54735" lon="5.68955">
        <ele>270.117</ele>
        <time>2019-09-23T10:53:51.000Z</time>
      </trkpt>
      <trkpt lat="48.54723" lon="5.69004">
        <ele>268.468</ele>
        <time>2019-09-23T10:53:54.000Z</time>
      </trkpt>
      <trkpt lat="48.5471" lon="5.6905">
        <ele>266.675</ele>
        <time>2019-09-23T10:53:57.000Z</time>
      </trkpt>
      <trkpt lat="48.54698" lon="5.69093">
        <ele>264.486</ele>
        <time>2019-09-23T10:54:00.000Z</time>
      </trkpt>
      <trkpt lat="48.54685" lon="5.69133">
        <ele>262.924</ele>
        <time>2019-09-23T10:54:03.000Z</time>
      </trkpt>
      <trkpt lat="48.54675" lon="5.69171">
        <ele>261.735</ele>
        <time>2019-09-23T10:54:06.000Z</time>
      </trkpt>
      <trkpt lat="48.54666" lon="5.69203">
        <ele>260.678</ele>
        <time>2019-09-23T10:54:09.000Z</time>
      </trkpt>
      <trkpt lat="48.54658" lon="5.69232">
        <ele>259.466</ele>
        <time>2019-09-23T10:54:12.000Z</time>
      </trkpt>
      <trkpt lat="48.54652" lon="5.69258">
        <ele>258.763</ele>
        <time>2019-09-23T10:54:15.000Z</time>
      </trkpt>
      <trkpt lat="48.54647" lon="5.69282">
        <ele>258.264</ele>
        <time>2019-09-23T10:54:18.000Z</time>
      </trkpt>
      <trkpt lat="48.54642" lon="5.69305">
        <ele>258.213</ele>
        <time>2019-09-23T10:54:21.000Z</time>
      </trkpt>
      <trkpt lat="48.54638" lon="5.69328">
        <ele>258.169</ele>
        <time>2019-09-23T10:54:24.000Z</time>
      </trkpt>
      <trkpt lat="48.54634" lon="5.69349">
        <ele>258.398</ele>
        <time>2019-09-23T10:54:27.000Z</time>
      </trkpt>
      <trkpt lat="48.5463" lon="5.6937">
        <ele>258.462</ele>
        <time>2019-09-23T10:54:30.000Z</time>
      </trkpt>
      <trkpt lat="48.54625" lon="5.6939">
        <ele>258.703</ele>
        <time>2019-09-23T10:54:33.000Z</time>
      </trkpt>
      <trkpt lat="48.54618" lon="5.6941">
        <ele>258.434</ele>
        <time>2019-09-23T10:54:36.000Z</time>
      </trkpt>
      <trkpt lat="48.54608" lon="5.69426">
        <ele>258.651</ele>
        <time>2019-09-23T10:54:39.000Z</time>
      </trkpt>
      <trkpt lat="48.54592" lon="5.69438">
        <ele>257.873</ele>
        <time>2019-09-23T10:54:42.000Z</time>
      </trkpt>
      <trkpt lat="48.54575" lon="5.6945">
        <ele>257.655</ele>
        <time>2019-09-23T10:54:45.000Z</time>
      </trkpt>
      <trkpt lat="48.54558" lon="5.69464">
        <ele>257.103</ele>
        <time>2019-09-23T10:54:48.000Z</time>
      </trkpt>
      <trkpt lat="48.54542" lon="5.69478">
        <ele>256.922</ele>
        <time>2019-09-23T10:54:51.000Z</time>
      </trkpt>
      <trkpt lat="48.54526" lon="5.69493">
        <ele>257.146</ele>
        <time>2019-09-23T10:54:54.000Z</time>
      </trkpt>
      <trkpt lat="48.54509" lon="5.6951">
        <ele>257.014</ele>
        <time>2019-09-23T10:54:57.000Z</time>
      </trkpt>
      <trkpt lat="48.54492" lon="5.69527">
        <ele>256.963</ele>
        <time>2019-09-23T10:55:00.000Z</time>
      </trkpt>
      <trkpt lat="48.54474" lon="5.69541">
        <ele>256.538</ele>
        <time>2019-09-23T10:55:03.000Z</time>
      </trkpt>
      <trkpt lat="48.54457" lon="5.69553">
        <ele>256.764</ele>
        <time>2019-09-23T10:55:06.000Z</time>
      </trkpt>
      <trkpt lat="48.54437" lon="5.6956">
        <ele>256.853</ele>
        <time>2019-09-23T10:55:09.000Z</time>
      </trkpt>
      <trkpt lat="48.54421" lon="5.69565">
        <ele>257.101</ele>
        <time>2019-09-23T10:55:12.000Z</time>
      </trkpt>
      <trkpt lat="48.54405" lon="5.69551">
        <ele>258.017</ele>
        <time>2019-09-23T10:55:15.000Z</time>
      </trkpt>
      <trkpt lat="48.54394" lon="5.69528">
        <ele>259.487</ele>
        <time>2019-09-23T10:55:18.000Z</time>
      </trkpt>
      <trkpt lat="48.54379" lon="5.69527">
        <ele>259.27</ele>
        <time>2019-09-23T10:55:21.000Z</time>
      </trkpt>
      <trkpt lat="48.5436" lon="5.69535">
        <ele>259.617</ele>
        <time>2019-09-23T10:55:24.000Z</time>
      </trkpt>
      <trkpt lat="48.54343" lon="5.69541">
        <ele>260.184</ele>
        <time>2019-09-23T10:55:27.000Z</time>
      </trkpt>
      <trkpt lat="48.5433" lon="5.69555">
        <ele>260.5</ele>
        <time>2019-09-23T10:55:30.000Z</time>
      </trkpt>
      <trkpt lat="48.54325" lon="5.69577">
        <ele>260.591</ele>
        <time>2019-09-23T10:55:33.000Z</time>
      </trkpt>
      <trkpt lat="48.54322" lon="5.69601">
        <ele>259.543</ele>
        <time>2019-09-23T10:55:36.000Z</time>
      </trkpt>
      <trkpt lat="48.5432" lon="5.69624">
        <ele>258.755</ele>
        <time>2019-09-23T10:55:39.000Z</time>
      </trkpt>
      <trkpt lat="48.54315" lon="5.69646">
        <ele>258.14</ele>
        <time>2019-09-23T10:55:42.000Z</time>
      </trkpt>
      <trkpt lat="48.54309" lon="5.69666">
        <ele>257.237</ele>
        <time>2019-09-23T10:55:45.000Z</time>
      </trkpt>
      <trkpt lat="48.54302" lon="5.69685">
        <ele>257.008</ele>
        <time>2019-09-23T10:55:48.000Z</time>
      </trkpt>
      <trkpt lat="48.54296" lon="5.69704">
        <ele>256.74</ele>
        <time>2019-09-23T10:55:51.000Z</time>
      </trkpt>
      <trkpt lat="48.54289" lon="5.69721">
        <ele>256.795</ele>
        <time>2019-09-23T10:55:54.000Z</time>
      </trkpt>
      <trkpt lat="48.54282" lon="5.69741">
        <ele>256.039</ele>
        <time>2019-09-23T10:55:57.000Z</time>
      </trkpt>
      <trkpt lat="48.54276" lon="5.69761">
        <ele>256.023</ele>
        <time>2019-09-23T10:56:00.000Z</time>
      </trkpt>
      <trkpt lat="48.5427" lon="5.6978">
        <ele>256.627</ele>
        <time>2019-09-23T10:56:03.000Z</time>
      </trkpt>
      <trkpt lat="48.54265" lon="5.69801">
        <ele>256.748</ele>
        <time>2019-09-23T10:56:06.000Z</time>
      </trkpt>
      <trkpt lat="48.54261" lon="5.69821">
        <ele>256.877</ele>
        <time>2019-09-23T10:56:09.000Z</time>
      </trkpt>
      <trkpt lat="48.54257" lon="5.69842">
        <ele>256.432</ele>
        <time>2019-09-23T10:56:12.000Z</time>
      </trkpt>
      <trkpt lat="48.54254" lon="5.69863">
        <ele>255.862</ele>
        <time>2019-09-23T10:56:15.000Z</time>
      </trkpt>
      <trkpt lat="48.54249" lon="5.69884">
        <ele>255.406</ele>
        <time>2019-09-23T10:56:18.000Z</time>
      </trkpt>
      <trkpt lat="48.54245" lon="5.69906">
        <ele>255.212</ele>
        <time>2019-09-23T10:56:21.000Z</time>
      </trkpt>
      <trkpt lat="48.54242" lon="5.69927">
        <ele>254.992</ele>
        <time>2019-09-23T10:56:24.000Z</time>
      </trkpt>
      <trkpt lat="48.54239" lon="5.69949">
        <ele>254.74</ele>
        <time>2019-09-23T10:56:27.000Z</time>
      </trkpt>
      <trkpt lat="48.54237" lon="5.6997">
        <ele>254.479</ele>
        <time>2019-09-23T10:56:30.000Z</time>
      </trkpt>
      <trkpt lat="48.54238" lon="5.69991">
        <ele>254.509</ele>
        <time>2019-09-23T10:56:33.000Z</time>
      </trkpt>
      <trkpt lat="48.5424" lon="5.7001">
        <ele>254.918</ele>
        <time>2019-09-23T10:56:36.000Z</time>
      </trkpt>
      <trkpt lat="48.54242" lon="5.70028">
        <ele>254.836</ele>
        <time>2019-09-23T10:56:39.000Z</time>
      </trkpt>
      <trkpt lat="48.54243" lon="5.70045">
        <ele>254.877</ele>
        <time>2019-09-23T10:56:42.000Z</time>
      </trkpt>
      <trkpt lat="48.54243" lon="5.70061">
        <ele>255.391</ele>
        <time>2019-09-23T10:56:45.000Z</time>
      </trkpt>
      <trkpt lat="48.54241" lon="5.70077">
        <ele>255.929</ele>
        <time>2019-09-23T10:56:48.000Z</time>
      </trkpt>
      <trkpt lat="48.54239" lon="5.70092">
        <ele>256.459</ele>
        <time>2019-09-23T10:56:51.000Z</time>
      </trkpt>
      <trkpt lat="48.54236" lon="5.70104">
        <ele>257.363</ele>
        <time>2019-09-23T10:56:54.000Z</time>
      </trkpt>
      <trkpt lat="48.54234" lon="5.70114">
        <ele>257.724</ele>
        <time>2019-09-23T10:56:57.000Z</time>
      </trkpt>
      <trkpt lat="48.5423" lon="5.70122">
        <ele>258.027</ele>
        <time>2019-09-23T10:57:00.000Z</time>
      </trkpt>
      <trkpt lat="48.54226" lon="5.70129">
        <ele>258.282</ele>
        <time>2019-09-23T10:57:03.000Z</time>
      </trkpt>
      <trkpt lat="48.54221" lon="5.70137">
        <ele>258.537</ele>
        <time>2019-09-23T10:57:06.000Z</time>
      </trkpt>
      <trkpt lat="48.54216" lon="5.70142">
        <ele>258.817</ele>
        <time>2019-09-23T10:57:09.000Z</time>
      </trkpt>
      <trkpt lat="48.5421" lon="5.70148">
        <ele>259.366</ele>
        <time>2019-09-23T10:57:12.000Z</time>
      </trkpt>
      <trkpt lat="48.54205" lon="5.70153">
        <ele>260.224</ele>
        <time>2019-09-23T10:57:15.000Z</time>
      </trkpt>
      <trkpt lat="48.542" lon="5.7016">
        <ele>261.032</ele>
        <time>2019-09-23T10:57:18.000Z</time>
      </trkpt>
      <trkpt lat="48.54195" lon="5.70166">
        <ele>261.623</ele>
        <time>2019-09-23T10:57:21.000Z</time>
      </trkpt>
      <trkpt lat="48.54189" lon="5.70172">
        <ele>262.28</ele>
        <time>2019-09-23T10:57:24.000Z</time>
      </trkpt>
      <trkpt lat="48.54183" lon="5.70176">
        <ele>262.785</ele>
        <time>2019-09-23T10:57:27.000Z</time>
      </trkpt>
      <trkpt lat="48.54177" lon="5.70181">
        <ele>262.981</ele>
        <time>2019-09-23T10:57:30.000Z</time>
      </trkpt>
      <trkpt lat="48.54172" lon="5.70185">
        <ele>263.029</ele>
        <time>2019-09-23T10:57:33.000Z</time>
      </trkpt>
      <trkpt lat="48.54166" lon="5.70191">
        <ele>262.773</ele>
        <time>2019-09-23T10:57:36.000Z</time>
      </trkpt>
      <trkpt lat="48.54161" lon="5.70195">
        <ele>262.816</ele>
        <time>2019-09-23T10:57:39.000Z</time>
      </trkpt>
      <trkpt lat="48.54156" lon="5.702">
        <ele>263.518</ele>
        <time>2019-09-23T10:57:42.000Z</time>
      </trkpt>
      <trkpt lat="48.54151" lon="5.70205">
        <ele>264.488</ele>
        <time>2019-09-23T10:57:45.000Z</time>
      </trkpt>
      <trkpt lat="48.54145" lon="5.70209">
        <ele>265.142</ele>
        <time>2019-09-23T10:57:48.000Z</time>
      </trkpt>
      <trkpt lat="48.54139" lon="5.70212">
        <ele>265.765</ele>
        <time>2019-09-23T10:57:51.000Z</time>
      </trkpt>
      <trkpt lat="48.54133" lon="5.70215">
        <ele>266.748</ele>
        <time>2019-09-23T10:57:54.000Z</time>
      </trkpt>
      <trkpt lat="48.54127" lon="5.70218">
        <ele>267.418</ele>
        <time>2019-09-23T10:57:57.000Z</time>
      </trkpt>
      <trkpt lat="48.54121" lon="5.70221">
        <ele>268.651</ele>
        <time>2019-09-23T10:58:00.000Z</time>
      </trkpt>
      <trkpt lat="48.54116" lon="5.70225">
        <ele>270.52</ele>
        <time>2019-09-23T10:58:03.000Z</time>
      </trkpt>
      <trkpt lat="48.54111" lon="5.70227">
        <ele>271.957</ele>
        <time>2019-09-23T10:58:06.000Z</time>
      </trkpt>
      <trkpt lat="48.54105" lon="5.70228">
        <ele>273.37</ele>
        <time>2019-09-23T10:58:09.000Z</time>
      </trkpt>
      <trkpt lat="48.541" lon="5.70229">
        <ele>274.065</ele>
        <time>2019-09-23T10:58:12.000Z</time>
      </trkpt>
      <trkpt lat="48.54095" lon="5.70231">
        <ele>275.315</ele>
        <time>2019-09-23T10:58:15.000Z</time>
      </trkpt>
      <trkpt lat="48.5409" lon="5.70232">
        <ele>276.316</ele>
        <time>2019-09-23T10:58:18.000Z</time>
      </trkpt>
      <trkpt lat="48.54084" lon="5.70233">
        <ele>277.192</ele>
        <time>2019-09-23T10:58:21.000Z</time>
      </trkpt>
      <trkpt lat="48.54078" lon="5.70233">
        <ele>278.903</ele>
        <time>2019-09-23T10:58:24.000Z</time>
      </trkpt>
      <trkpt lat="48.54071" lon="5.70234">
        <ele>280.508</ele>
        <time>2019-09-23T10:58:27.000Z</time>
      </trkpt>
      <trkpt lat="48.54065" lon="5.70235">
        <ele>281.347</ele>
        <time>2019-09-23T10:58:30.000Z</time>
      </trkpt>
      <trkpt lat="48.54058" lon="5.70237">
        <ele>281.919</ele>
        <time>2019-09-23T10:58:33.000Z</time>
      </trkpt>
      <trkpt lat="48.54052" lon="5.70239">
        <ele>282.356</ele>
        <time>2019-09-23T10:58:36.000Z</time>
      </trkpt>
      <trkpt lat="48.54047" lon="5.7024">
        <ele>282.527</ele>
        <time>2019-09-23T10:58:39.000Z</time>
      </trkpt>
      <trkpt lat="48.5404" lon="5.7024">
        <ele>282.804</ele>
        <time>2019-09-23T10:58:42.000Z</time>
      </trkpt>
      <trkpt lat="48.54034" lon="5.70241">
        <ele>282.946</ele>
        <time>2019-09-23T10:58:45.000Z</time>
      </trkpt>
      <trkpt lat="48.54028" lon="5.70242">
        <ele>283.693</ele>
        <time>2019-09-23T10:58:48.000Z</time>
      </trkpt>
      <trkpt lat="48.54021" lon="5.70243">
        <ele>284.584</ele>
        <time>2019-09-23T10:58:51.000Z</time>
      </trkpt>
      <trkpt lat="48.54016" lon="5.70244">
        <ele>284.998</ele>
        <time>2019-09-23T10:58:54.000Z</time>
      </trkpt>
      <trkpt lat="48.54009" lon="5.70246">
        <ele>285.385</ele>
        <time>2019-09-23T10:58:57.000Z</time>
      </trkpt>
      <trkpt lat="48.54002" lon="5.70246">
        <ele>285.866</ele>
        <time>2019-09-23T10:59:00.000Z</time>
      </trkpt>
      <trkpt lat="48.53996" lon="5.70247">
        <ele>286.106</ele>
        <time>2019-09-23T10:59:03.000Z</time>
      </trkpt>
      <trkpt lat="48.53991" lon="5.70247">
        <ele>286.301</ele>
        <time>2019-09-23T10:59:06.000Z</time>
      </trkpt>
      <trkpt lat="48.53985" lon="5.70248">
        <ele>287.121</ele>
        <time>2019-09-23T10:59:09.000Z</time>
      </trkpt>
      <trkpt lat="48.53979" lon="5.70249">
        <ele>287.489</ele>
        <time>2019-09-23T10:59:12.000Z</time>
      </trkpt>
      <trkpt lat="48.53973" lon="5.7025">
        <ele>288.16</ele>
        <time>2019-09-23T10:59:15.000Z</time>
      </trkpt>
      <trkpt lat="48.53967" lon="5.70251">
        <ele>288.869</ele>
        <time>2019-09-23T10:59:18.000Z</time>
      </trkpt>
      <trkpt lat="48.5396" lon="5.70252">
        <ele>289.512</ele>
        <time>2019-09-23T10:59:21.000Z</time>
      </trkpt>
      <trkpt lat="48.53955" lon="5.70252">
        <ele>290.519</ele>
        <time>2019-09-23T10:59:24.000Z</time>
      </trkpt>
      <trkpt lat="48.53949" lon="5.70254">
        <ele>290.574</ele>
        <time>2019-09-23T10:59:27.000Z</time>
      </trkpt>
      <trkpt lat="48.53944" lon="5.70256">
        <ele>290.586</ele>
        <time>2019-09-23T10:59:30.000Z</time>
      </trkpt>
      <trkpt lat="48.53938" lon="5.70257">
        <ele>290.733</ele>
        <time>2019-09-23T10:59:33.000Z</time>
      </trkpt>
      <trkpt lat="48.5393" lon="5.70259">
        <ele>290.071</ele>
        <time>2019-09-23T10:59:36.000Z</time>
      </trkpt>
      <trkpt lat="48.53922" lon="5.70261">
        <ele>289.475</ele>
        <time>2019-09-23T10:59:39.000Z</time>
      </trkpt>
      <trkpt lat="48.53915" lon="5.70263">
        <ele>288.811</ele>
        <time>2019-09-23T10:59:42.000Z</time>
      </trkpt>
      <trkpt lat="48.53908" lon="5.70266">
        <ele>287.583</ele>
        <time>2019-09-23T10:59:45.000Z</time>
      </trkpt>
      <trkpt lat="48.53902" lon="5.70267">
        <ele>287.341</ele>
        <time>2019-09-23T10:59:48.000Z</time>
      </trkpt>
      <trkpt lat="48.53896" lon="5.7027">
        <ele>287.309</ele>
        <time>2019-09-23T10:59:51.000Z</time>
      </trkpt>
      <trkpt lat="48.53888" lon="5.70275">
        <ele>287.035</ele>
        <time>2019-09-23T10:59:54.000Z</time>
      </trkpt>
      <trkpt lat="48.53882" lon="5.70281">
        <ele>287.231</ele>
        <time>2019-09-23T10:59:57.000Z</time>
      </trkpt>
      <trkpt lat="48.53878" lon="5.70289">
        <ele>287.198</ele>
        <time>2019-09-23T11:00:00.000Z</time>
      </trkpt>
      <trkpt lat="48.53875" lon="5.70299">
        <ele>286.581</ele>
        <time>2019-09-23T11:00:03.000Z</time>
      </trkpt>
      <trkpt lat="48.53874" lon="5.70311">
        <ele>285.986</ele>
        <time>2019-09-23T11:00:06.000Z</time>
      </trkpt>
      <trkpt lat="48.53875" lon="5.70323">
        <ele>285.639</ele>
        <time>2019-09-23T11:00:09.000Z</time>
      </trkpt>
      <trkpt lat="48.53877" lon="5.70332">
        <ele>285.604</ele>
        <time>2019-09-23T11:00:12.000Z</time>
      </trkpt>
      <trkpt lat="48.5388" lon="5.7034">
        <ele>285.692</ele>
        <time>2019-09-23T11:00:15.000Z</time>
      </trkpt>
      <trkpt lat="48.53885" lon="5.70347">
        <ele>285.227</ele>
        <time>2019-09-23T11:00:18.000Z</time>
      </trkpt>
      <trkpt lat="48.53891" lon="5.70351">
        <ele>285.567</ele>
        <time>2019-09-23T11:00:21.000Z</time>
      </trkpt>
      <trkpt lat="48.53897" lon="5.70356">
        <ele>285.753</ele>
        <time>2019-09-23T11:00:24.000Z</time>
      </trkpt>
      <trkpt lat="48.53903" lon="5.70358">
        <ele>286.734</ele>
        <time>2019-09-23T11:00:27.000Z</time>
      </trkpt>
      <trkpt lat="48.5391" lon="5.70359">
        <ele>287.456</ele>
        <time>2019-09-23T11:00:30.000Z</time>
      </trkpt>
      <trkpt lat="48.53918" lon="5.70361">
        <ele>287.997</ele>
        <time>2019-09-23T11:00:33.000Z</time>
      </trkpt>
      <trkpt lat="48.53925" lon="5.70363">
        <ele>288.178</ele>
        <time>2019-09-23T11:00:36.000Z</time>
      </trkpt>
      <trkpt lat="48.53931" lon="5.70365">
        <ele>288.638</ele>
        <time>2019-09-23T11:00:39.000Z</time>
      </trkpt>
      <trkpt lat="48.53937" lon="5.7037">
        <ele>289.508</ele>
        <time>2019-09-23T11:00:42.000Z</time>
      </trkpt>
      <trkpt lat="48.53944" lon="5.70374">
        <ele>289.66</ele>
        <time>2019-09-23T11:00:45.000Z</time>
      </trkpt>
      <trkpt lat="48.53951" lon="5.70379">
        <ele>288.991</ele>
        <time>2019-09-23T11:00:48.000Z</time>
      </trkpt>
      <trkpt lat="48.53958" lon="5.70383">
        <ele>288.785</ele>
        <time>2019-09-23T11:00:51.000Z</time>
      </trkpt>
      <trkpt lat="48.53965" lon="5.7039">
        <ele>289.483</ele>
        <time>2019-09-23T11:00:54.000Z</time>
      </trkpt>
      <trkpt lat="48.53974" lon="5.70396">
        <ele>289.221</ele>
        <time>2019-09-23T11:00:57.000Z</time>
      </trkpt>
      <trkpt lat="48.53983" lon="5.70403">
        <ele>289.296</ele>
        <time>2019-09-23T11:01:00.000Z</time>
      </trkpt>
      <trkpt lat="48.53991" lon="5.7041">
        <ele>289.879</ele>
        <time>2019-09-23T11:01:03.000Z</time>
      </trkpt>
      <trkpt lat="48.54001" lon="5.70418">
        <ele>289.899</ele>
        <time>2019-09-23T11:01:06.000Z</time>
      </trkpt>
      <trkpt lat="48.54009" lon="5.70427">
        <ele>289.677</ele>
        <time>2019-09-23T11:01:09.000Z</time>
      </trkpt>
      <trkpt lat="48.54019" lon="5.70435">
        <ele>289.83</ele>
        <time>2019-09-23T11:01:12.000Z</time>
      </trkpt>
      <trkpt lat="48.54029" lon="5.70445">
        <ele>289.846</ele>
        <time>2019-09-23T11:01:15.000Z</time>
      </trkpt>
      <trkpt lat="48.54041" lon="5.70458">
        <ele>289.798</ele>
        <time>2019-09-23T11:01:18.000Z</time>
      </trkpt>
      <trkpt lat="48.54054" lon="5.70473">
        <ele>289.943</ele>
        <time>2019-09-23T11:01:21.000Z</time>
      </trkpt>
      <trkpt lat="48.54069" lon="5.70489">
        <ele>289.934</ele>
        <time>2019-09-23T11:01:24.000Z</time>
      </trkpt>
      <trkpt lat="48.54083" lon="5.70508">
        <ele>289.667</ele>
        <time>2019-09-23T11:01:27.000Z</time>
      </trkpt>
      <trkpt lat="48.54099" lon="5.7053">
        <ele>289.027</ele>
        <time>2019-09-23T11:01:30.000Z</time>
      </trkpt>
      <trkpt lat="48.54115" lon="5.70558">
        <ele>287.601</ele>
        <time>2019-09-23T11:01:33.000Z</time>
      </trkpt>
      <trkpt lat="48.54132" lon="5.70588">
        <ele>285.734</ele>
        <time>2019-09-23T11:01:36.000Z</time>
      </trkpt>
      <trkpt lat="48.5415" lon="5.70619">
        <ele>284.524</ele>
        <time>2019-09-23T11:01:39.000Z</time>
      </trkpt>
      <trkpt lat="48.54167" lon="5.70655">
        <ele>282.479</ele>
        <time>2019-09-23T11:01:42.000Z</time>
      </trkpt>
      <trkpt lat="48.54184" lon="5.70692">
        <ele>280.565</ele>
        <time>2019-09-23T11:01:45.000Z</time>
      </trkpt>
      <trkpt lat="48.542" lon="5.70733">
        <ele>278.948</ele>
        <time>2019-09-23T11:01:48.000Z</time>
      </trkpt>
      <trkpt lat="48.54216" lon="5.70775">
        <ele>277.873</ele>
        <time>2019-09-23T11:01:51.000Z</time>
      </trkpt>
      <trkpt lat="48.54231" lon="5.70819">
        <ele>276.359</ele>
        <time>2019-09-23T11:01:54.000Z</time>
      </trkpt>
      <trkpt lat="48.54245" lon="5.70862">
        <ele>275.397</ele>
        <time>2019-09-23T11:01:57.000Z</time>
      </trkpt>
      <trkpt lat="48.54256" lon="5.70904">
        <ele>275.009</ele>
        <time>2019-09-23T11:02:00.000Z</time>
      </trkpt>
      <trkpt lat="48.54267" lon="5.70944">
        <ele>274.521</ele>
        <time>2019-09-23T11:02:03.000Z</time>
      </trkpt>
      <trkpt lat="48.54274" lon="5.70984">
        <ele>274.045</ele>
        <time>2019-09-23T11:02:06.000Z</time>
      </trkpt>
      <trkpt lat="48.5428" lon="5.71023">
        <ele>273.54</ele>
        <time>2019-09-23T11:02:09.000Z</time>
      </trkpt>
      <trkpt lat="48.54286" lon="5.71061">
        <ele>272.721</ele>
        <time>2019-09-23T11:02:12.000Z</time>
      </trkpt>
      <trkpt lat="48.54291" lon="5.71097">
        <ele>271.29</ele>
        <time>2019-09-23T11:02:15.000Z</time>
      </trkpt>
      <trkpt lat="48.54294" lon="5.71131">
        <ele>270.047</ele>
        <time>2019-09-23T11:02:18.000Z</time>
      </trkpt>
      <trkpt lat="48.54296" lon="5.71164">
        <ele>268.951</ele>
        <time>2019-09-23T11:02:21.000Z</time>
      </trkpt>
      <trkpt lat="48.54299" lon="5.71195">
        <ele>268.978</ele>
        <time>2019-09-23T11:02:24.000Z</time>
      </trkpt>
      <trkpt lat="48.54301" lon="5.71225">
        <ele>268.396</ele>
        <time>2019-09-23T11:02:27.000Z</time>
      </trkpt>
      <trkpt lat="48.54301" lon="5.71253">
        <ele>267.776</ele>
        <time>2019-09-23T11:02:30.000Z</time>
      </trkpt>
      <trkpt lat="48.54302" lon="5.71279">
        <ele>267.179</ele>
        <time>2019-09-23T11:02:33.000Z</time>
      </trkpt>
      <trkpt lat="48.54303" lon="5.71304">
        <ele>266.826</ele>
        <time>2019-09-23T11:02:36.000Z</time>
      </trkpt>
      <trkpt lat="48.54302" lon="5.71328">
        <ele>266.925</ele>
        <time>2019-09-23T11:02:39.000Z</time>
      </trkpt>
      <trkpt lat="48.54302" lon="5.7135">
        <ele>266.882</ele>
        <time>2019-09-23T11:02:42.000Z</time>
      </trkpt>
      <trkpt lat="48.543" lon="5.71372">
        <ele>267.237</ele>
        <time>2019-09-23T11:02:45.000Z</time>
      </trkpt>
      <trkpt lat="48.54299" lon="5.71394">
        <ele>267.561</ele>
        <time>2019-09-23T11:02:48.000Z</time>
      </trkpt>
      <trkpt lat="48.54298" lon="5.71415">
        <ele>267.465</ele>
        <time>2019-09-23T11:02:51.000Z</time>
      </trkpt>
      <trkpt lat="48.54296" lon="5.71436">
        <ele>266.594</ele>
        <time>2019-09-23T11:02:54.000Z</time>
      </trkpt>
      <trkpt lat="48.54294" lon="5.71456">
        <ele>266.499</ele>
        <time>2019-09-23T11:02:57.000Z</time>
      </trkpt>
      <trkpt lat="48.54292" lon="5.71475">
        <ele>267.161</ele>
        <time>2019-09-23T11:03:00.000Z</time>
      </trkpt>
      <trkpt lat="48.54289" lon="5.71494">
        <ele>267.331</ele>
        <time>2019-09-23T11:03:03.000Z</time>
      </trkpt>
      <trkpt lat="48.54286" lon="5.71511">
        <ele>267.705</ele>
        <time>2019-09-23T11:03:06.000Z</time>
      </trkpt>
      <trkpt lat="48.54284" lon="5.71529">
        <ele>267.757</ele>
        <time>2019-09-23T11:03:09.000Z</time>
      </trkpt>
      <trkpt lat="48.54281" lon="5.71547">
        <ele>267.809</ele>
        <time>2019-09-23T11:03:12.000Z</time>
      </trkpt>
      <trkpt lat="48.54279" lon="5.71564">
        <ele>267.96</ele>
        <time>2019-09-23T11:03:15.000Z</time>
      </trkpt>
      <trkpt lat="48.54276" lon="5.71582">
        <ele>268.726</ele>
        <time>2019-09-23T11:03:18.000Z</time>
      </trkpt>
      <trkpt lat="48.54274" lon="5.71602">
        <ele>269.6</ele>
        <time>2019-09-23T11:03:21.000Z</time>
      </trkpt>
      <trkpt lat="48.5427" lon="5.7162">
        <ele>270.262</ele>
        <time>2019-09-23T11:03:24.000Z</time>
      </trkpt>
      <trkpt lat="48.54267" lon="5.7164">
        <ele>270.588</ele>
        <time>2019-09-23T11:03:27.000Z</time>
      </trkpt>
      <trkpt lat="48.54262" lon="5.71662">
        <ele>271.013</ele>
        <time>2019-09-23T11:03:30.000Z</time>
      </trkpt>
      <trkpt lat="48.54255" lon="5.71685">
        <ele>270.509</ele>
        <time>2019-09-23T11:03:33.000Z</time>
      </trkpt>
      <trkpt lat="48.54245" lon="5.71712">
        <ele>268.852</ele>
        <time>2019-09-23T11:03:36.000Z</time>
      </trkpt>
      <trkpt lat="48.54229" lon="5.7174">
        <ele>267.542</ele>
        <time>2019-09-23T11:03:39.000Z</time>
      </trkpt>
      <trkpt lat="48.54212" lon="5.71767">
        <ele>266.19</ele>
        <time>2019-09-23T11:03:42.000Z</time>
      </trkpt>
      <trkpt lat="48.54194" lon="5.71797">
        <ele>265.424</ele>
        <time>2019-09-23T11:03:45.000Z</time>
      </trkpt>
      <trkpt lat="48.54178" lon="5.71826">
        <ele>265.262</ele>
        <time>2019-09-23T11:03:48.000Z</time>
      </trkpt>
      <trkpt lat="48.54163" lon="5.71851">
        <ele>264.812</ele>
        <time>2019-09-23T11:03:51.000Z</time>
      </trkpt>
      <trkpt lat="48.54147" lon="5.7187">
        <ele>265.167</ele>
        <time>2019-09-23T11:03:54.000Z</time>
      </trkpt>
      <trkpt lat="48.54132" lon="5.71888">
        <ele>265.447</ele>
        <time>2019-09-23T11:03:57.000Z</time>
      </trkpt>
      <trkpt lat="48.54118" lon="5.71903">
        <ele>265.326</ele>
        <time>2019-09-23T11:04:00.000Z</time>
      </trkpt>
      <trkpt lat="48.54105" lon="5.7192">
        <ele>265.298</ele>
        <time>2019-09-23T11:04:03.000Z</time>
      </trkpt>
      <trkpt lat="48.54093" lon="5.71938">
        <ele>264.426</ele>
        <time>2019-09-23T11:04:06.000Z</time>
      </trkpt>
      <trkpt lat="48.54082" lon="5.71953">
        <ele>264.602</ele>
        <time>2019-09-23T11:04:09.000Z</time>
      </trkpt>
      <trkpt lat="48.5407" lon="5.71966">
        <ele>264.726</ele>
        <time>2019-09-23T11:04:12.000Z</time>
      </trkpt>
      <trkpt lat="48.54059" lon="5.71976">
        <ele>263.61</ele>
        <time>2019-09-23T11:04:15.000Z</time>
      </trkpt>
      <trkpt lat="48.54049" lon="5.71975">
        <ele>262.075</ele>
        <time>2019-09-23T11:04:18.000Z</time>
      </trkpt>
      <trkpt lat="48.54036" lon="5.71982">
        <ele>262.082</ele>
        <time>2019-09-23T11:04:21.000Z</time>
      </trkpt>
      <trkpt lat="48.54026" lon="5.71994">
        <ele>262.331</ele>
        <time>2019-09-23T11:04:24.000Z</time>
      </trkpt>
      <trkpt lat="48.54014" lon="5.72006">
        <ele>262.635</ele>
        <time>2019-09-23T11:04:27.000Z</time>
      </trkpt>
      <trkpt lat="48.54003" lon="5.72016">
        <ele>262.247</ele>
        <time>2019-09-23T11:04:30.000Z</time>
      </trkpt>
      <trkpt lat="48.53993" lon="5.72027">
        <ele>262.386</ele>
        <time>2019-09-23T11:04:33.000Z</time>
      </trkpt>
      <trkpt lat="48.53981" lon="5.7204">
        <ele>262.528</ele>
        <time>2019-09-23T11:04:36.000Z</time>
      </trkpt>
      <trkpt lat="48.53971" lon="5.72052">
        <ele>262.504</ele>
        <time>2019-09-23T11:04:39.000Z</time>
      </trkpt>
      <trkpt lat="48.5396" lon="5.72064">
        <ele>262.204</ele>
        <time>2019-09-23T11:04:42.000Z</time>
      </trkpt>
      <trkpt lat="48.5395" lon="5.72076">
        <ele>262.551</ele>
        <time>2019-09-23T11:04:45.000Z</time>
      </trkpt>
      <trkpt lat="48.53939" lon="5.72089">
        <ele>262.797</ele>
        <time>2019-09-23T11:04:48.000Z</time>
      </trkpt>
      <trkpt lat="48.53926" lon="5.72103">
        <ele>261.839</ele>
        <time>2019-09-23T11:04:51.000Z</time>
      </trkpt>
      <trkpt lat="48.53913" lon="5.72115">
        <ele>260.973</ele>
        <time>2019-09-23T11:04:54.000Z</time>
      </trkpt>
      <trkpt lat="48.539" lon="5.7213">
        <ele>260.115</ele>
        <time>2019-09-23T11:04:57.000Z</time>
      </trkpt>
      <trkpt lat="48.53888" lon="5.72143">
        <ele>259.539</ele>
        <time>2019-09-23T11:05:00.000Z</time>
      </trkpt>
      <trkpt lat="48.53876" lon="5.72155">
        <ele>259.11</ele>
        <time>2019-09-23T11:05:03.000Z</time>
      </trkpt>
      <trkpt lat="48.53865" lon="5.72167">
        <ele>258.719</ele>
        <time>2019-09-23T11:05:06.000Z</time>
      </trkpt>
      <trkpt lat="48.53854" lon="5.72179">
        <ele>258.391</ele>
        <time>2019-09-23T11:05:09.000Z</time>
      </trkpt>
      <trkpt lat="48.53843" lon="5.72191">
        <ele>257.839</ele>
        <time>2019-09-23T11:05:12.000Z</time>
      </trkpt>
      <trkpt lat="48.53831" lon="5.72204">
        <ele>257.732</ele>
        <time>2019-09-23T11:05:15.000Z</time>
      </trkpt>
      <trkpt lat="48.5382" lon="5.72216">
        <ele>257.993</ele>
        <time>2019-09-23T11:05:18.000Z</time>
      </trkpt>
      <trkpt lat="48.53808" lon="5.72228">
        <ele>258.258</ele>
        <time>2019-09-23T11:05:21.000Z</time>
      </trkpt>
      <trkpt lat="48.53797" lon="5.7224">
        <ele>258.414</ele>
        <time>2019-09-23T11:05:24.000Z</time>
      </trkpt>
      <trkpt lat="48.53785" lon="5.72252">
        <ele>258.356</ele>
        <time>2019-09-23T11:05:27.000Z</time>
      </trkpt>
      <trkpt lat="48.53774" lon="5.72264">
        <ele>258.195</ele>
        <time>2019-09-23T11:05:30.000Z</time>
      </trkpt>
      <trkpt lat="48.53763" lon="5.72275">
        <ele>258.385</ele>
        <time>2019-09-23T11:05:33.000Z</time>
      </trkpt>
      <trkpt lat="48.53752" lon="5.72287">
        <ele>258.084</ele>
        <time>2019-09-23T11:05:36.000Z</time>
      </trkpt>
      <trkpt lat="48.5374" lon="5.72299">
        <ele>257.875</ele>
        <time>2019-09-23T11:05:39.000Z</time>
      </trkpt>
      <trkpt lat="48.53729" lon="5.72312">
        <ele>257.673</ele>
        <time>2019-09-23T11:05:42.000Z</time>
      </trkpt>
      <trkpt lat="48.53718" lon="5.72324">
        <ele>257.386</ele>
        <time>2019-09-23T11:05:45.000Z</time>
      </trkpt>
      <trkpt lat="48.53707" lon="5.72335">
        <ele>257.223</ele>
        <time>2019-09-23T11:05:48.000Z</time>
      </trkpt>
      <trkpt lat="48.53697" lon="5.72347">
        <ele>257.141</ele>
        <time>2019-09-23T11:05:51.000Z</time>
      </trkpt>
      <trkpt lat="48.53686" lon="5.72359">
        <ele>257.205</ele>
        <time>2019-09-23T11:05:54.000Z</time>
      </trkpt>
      <trkpt lat="48.53675" lon="5.7237">
        <ele>257.63</ele>
        <time>2019-09-23T11:05:57.000Z</time>
      </trkpt>
      <trkpt lat="48.53665" lon="5.72382">
        <ele>257.961</ele>
        <time>2019-09-23T11:06:00.000Z</time>
      </trkpt>
      <trkpt lat="48.53654" lon="5.72392">
        <ele>258.415</ele>
        <time>2019-09-23T11:06:03.000Z</time>
      </trkpt>
      <trkpt lat="48.53643" lon="5.72403">
        <ele>258.592</ele>
        <time>2019-09-23T11:06:06.000Z</time>
      </trkpt>
      <trkpt lat="48.53632" lon="5.72415">
        <ele>258.953</ele>
        <time>2019-09-23T11:06:09.000Z</time>
      </trkpt>
      <trkpt lat="48.53621" lon="5.72428">
        <ele>258.921</ele>
        <time>2019-09-23T11:06:12.000Z</time>
      </trkpt>
      <trkpt lat="48.53611" lon="5.72439">
        <ele>258.888</ele>
        <time>2019-09-23T11:06:15.000Z</time>
      </trkpt>
      <trkpt lat="48.536" lon="5.72451">
        <ele>258.745</ele>
        <time>2019-09-23T11:06:18.000Z</time>
      </trkpt>
      <trkpt lat="48.5359" lon="5.72461">
        <ele>258.66</ele>
        <time>2019-09-23T11:06:21.000Z</time>
      </trkpt>
      <trkpt lat="48.53579" lon="5.72471">
        <ele>258.747</ele>
        <time>2019-09-23T11:06:24.000Z</time>
      </trkpt>
      <trkpt lat="48.53569" lon="5.72482">
        <ele>259.289</ele>
        <time>2019-09-23T11:06:27.000Z</time>
      </trkpt>
      <trkpt lat="48.53558" lon="5.72492">
        <ele>259.147</ele>
        <time>2019-09-23T11:06:30.000Z</time>
      </trkpt>
      <trkpt lat="48.53548" lon="5.72503">
        <ele>259.309</ele>
        <time>2019-09-23T11:06:33.000Z</time>
      </trkpt>
      <trkpt lat="48.53537" lon="5.72514">
        <ele>259.201</ele>
        <time>2019-09-23T11:06:36.000Z</time>
      </trkpt>
      <trkpt lat="48.53526" lon="5.72525">
        <ele>259.05</ele>
        <time>2019-09-23T11:06:39.000Z</time>
      </trkpt>
      <trkpt lat="48.53515" lon="5.72537">
        <ele>258.828</ele>
        <time>2019-09-23T11:06:42.000Z</time>
      </trkpt>
      <trkpt lat="48.53503" lon="5.72549">
        <ele>258.792</ele>
        <time>2019-09-23T11:06:45.000Z</time>
      </trkpt>
      <trkpt lat="48.53492" lon="5.72561">
        <ele>258.809</ele>
        <time>2019-09-23T11:06:48.000Z</time>
      </trkpt>
      <trkpt lat="48.53481" lon="5.72572">
        <ele>258.951</ele>
        <time>2019-09-23T11:06:51.000Z</time>
      </trkpt>
      <trkpt lat="48.53472" lon="5.72583">
        <ele>259.382</ele>
        <time>2019-09-23T11:06:54.000Z</time>
      </trkpt>
      <trkpt lat="48.53461" lon="5.72594">
        <ele>258.981</ele>
        <time>2019-09-23T11:06:57.000Z</time>
      </trkpt>
      <trkpt lat="48.5345" lon="5.72605">
        <ele>258.734</ele>
        <time>2019-09-23T11:07:00.000Z</time>
      </trkpt>
      <trkpt lat="48.53439" lon="5.72618">
        <ele>258.873</ele>
        <time>2019-09-23T11:07:03.000Z</time>
      </trkpt>
      <trkpt lat="48.53428" lon="5.72632">
        <ele>258.578</ele>
        <time>2019-09-23T11:07:06.000Z</time>
      </trkpt>
      <trkpt lat="48.5342" lon="5.72647">
        <ele>258.719</ele>
        <time>2019-09-23T11:07:09.000Z</time>
      </trkpt>
      <trkpt lat="48.53412" lon="5.72664">
        <ele>258.478</ele>
        <time>2019-09-23T11:07:12.000Z</time>
      </trkpt>
      <trkpt lat="48.53404" lon="5.72682">
        <ele>258.601</ele>
        <time>2019-09-23T11:07:15.000Z</time>
      </trkpt>
      <trkpt lat="48.53397" lon="5.727">
        <ele>258.547</ele>
        <time>2019-09-23T11:07:18.000Z</time>
      </trkpt>
      <trkpt lat="48.53388" lon="5.72718">
        <ele>258.549</ele>
        <time>2019-09-23T11:07:21.000Z</time>
      </trkpt>
      <trkpt lat="48.5338" lon="5.72737">
        <ele>257.978</ele>
        <time>2019-09-23T11:07:24.000Z</time>
      </trkpt>
      <trkpt lat="48.53373" lon="5.72756">
        <ele>257.34</ele>
        <time>2019-09-23T11:07:27.000Z</time>
      </trkpt>
      <trkpt lat="48.53366" lon="5.72774">
        <ele>257.363</ele>
        <time>2019-09-23T11:07:30.000Z</time>
      </trkpt>
      <trkpt lat="48.53359" lon="5.72794">
        <ele>256.908</ele>
        <time>2019-09-23T11:07:33.000Z</time>
      </trkpt>
      <trkpt lat="48.53352" lon="5.72814">
        <ele>257.028</ele>
        <time>2019-09-23T11:07:36.000Z</time>
      </trkpt>
      <trkpt lat="48.53345" lon="5.72833">
        <ele>257.314</ele>
        <time>2019-09-23T11:07:39.000Z</time>
      </trkpt>
      <trkpt lat="48.53337" lon="5.72851">
        <ele>257.596</ele>
        <time>2019-09-23T11:07:42.000Z</time>
      </trkpt>
      <trkpt lat="48.53329" lon="5.72868">
        <ele>258.383</ele>
        <time>2019-09-23T11:07:45.000Z</time>
      </trkpt>
      <trkpt lat="48.53322" lon="5.72884">
        <ele>259.106</ele>
        <time>2019-09-23T11:07:48.000Z</time>
      </trkpt>
      <trkpt lat="48.53316" lon="5.72902">
        <ele>259.543</ele>
        <time>2019-09-23T11:07:51.000Z</time>
      </trkpt>
      <trkpt lat="48.53311" lon="5.72921">
        <ele>259.778</ele>
        <time>2019-09-23T11:07:54.000Z</time>
      </trkpt>
      <trkpt lat="48.53305" lon="5.7294">
        <ele>260.134</ele>
        <time>2019-09-23T11:07:57.000Z</time>
      </trkpt>
      <trkpt lat="48.53299" lon="5.72958">
        <ele>260.537</ele>
        <time>2019-09-23T11:08:00.000Z</time>
      </trkpt>
      <trkpt lat="48.53294" lon="5.72978">
        <ele>260.65</ele>
        <time>2019-09-23T11:08:03.000Z</time>
      </trkpt>
      <trkpt lat="48.53289" lon="5.72997">
        <ele>260.897</ele>
        <time>2019-09-23T11:08:06.000Z</time>
      </trkpt>
      <trkpt lat="48.53286" lon="5.73015">
        <ele>260.522</ele>
        <time>2019-09-23T11:08:09.000Z</time>
      </trkpt>
      <trkpt lat="48.53283" lon="5.73031">
        <ele>260.646</ele>
        <time>2019-09-23T11:08:12.000Z</time>
      </trkpt>
      <trkpt lat="48.53281" lon="5.73046">
        <ele>261.048</ele>
        <time>2019-09-23T11:08:15.000Z</time>
      </trkpt>
      <trkpt lat="48.53279" lon="5.73062">
        <ele>261.546</ele>
        <time>2019-09-23T11:08:18.000Z</time>
      </trkpt>
      <trkpt lat="48.53277" lon="5.73079">
        <ele>262.015</ele>
        <time>2019-09-23T11:08:21.000Z</time>
      </trkpt>
      <trkpt lat="48.53275" lon="5.73097">
        <ele>262.95</ele>
        <time>2019-09-23T11:08:24.000Z</time>
      </trkpt>
      <trkpt lat="48.53274" lon="5.73118">
        <ele>263.635</ele>
        <time>2019-09-23T11:08:27.000Z</time>
      </trkpt>
      <trkpt lat="48.53274" lon="5.73138">
        <ele>263.927</ele>
        <time>2019-09-23T11:08:30.000Z</time>
      </trkpt>
      <trkpt lat="48.53275" lon="5.73159">
        <ele>264.13</ele>
        <time>2019-09-23T11:08:33.000Z</time>
      </trkpt>
      <trkpt lat="48.53276" lon="5.7318">
        <ele>264.225</ele>
        <time>2019-09-23T11:08:36.000Z</time>
      </trkpt>
      <trkpt lat="48.53277" lon="5.73201">
        <ele>264.511</ele>
        <time>2019-09-23T11:08:39.000Z</time>
      </trkpt>
      <trkpt lat="48.53278" lon="5.7322">
        <ele>264.842</ele>
        <time>2019-09-23T11:08:42.000Z</time>
      </trkpt>
      <trkpt lat="48.53279" lon="5.73239">
        <ele>265.59</ele>
        <time>2019-09-23T11:08:45.000Z</time>
      </trkpt>
      <trkpt lat="48.53281" lon="5.73259">
        <ele>266.809</ele>
        <time>2019-09-23T11:08:48.000Z</time>
      </trkpt>
      <trkpt lat="48.53282" lon="5.73279">
        <ele>266.98</ele>
        <time>2019-09-23T11:08:51.000Z</time>
      </trkpt>
      <trkpt lat="48.53283" lon="5.73303">
        <ele>266.812</ele>
        <time>2019-09-23T11:08:54.000Z</time>
      </trkpt>
      <trkpt lat="48.53284" lon="5.73328">
        <ele>267.184</ele>
        <time>2019-09-23T11:08:57.000Z</time>
      </trkpt>
      <trkpt lat="48.53286" lon="5.73357">
        <ele>267.105</ele>
        <time>2019-09-23T11:09:00.000Z</time>
      </trkpt>
      <trkpt lat="48.53287" lon="5.73383">
        <ele>265.827</ele>
        <time>2019-09-23T11:09:03.000Z</time>
      </trkpt>
      <trkpt lat="48.53286" lon="5.73408">
        <ele>264.725</ele>
        <time>2019-09-23T11:09:06.000Z</time>
      </trkpt>
      <trkpt lat="48.53284" lon="5.73435">
        <ele>263.958</ele>
        <time>2019-09-23T11:09:09.000Z</time>
      </trkpt>
      <trkpt lat="48.53282" lon="5.73462">
        <ele>263.578</ele>
        <time>2019-09-23T11:09:12.000Z</time>
      </trkpt>
      <trkpt lat="48.53281" lon="5.73489">
        <ele>262.983</ele>
        <time>2019-09-23T11:09:15.000Z</time>
      </trkpt>
      <trkpt lat="48.53279" lon="5.73516">
        <ele>262.619</ele>
        <time>2019-09-23T11:09:18.000Z</time>
      </trkpt>
      <trkpt lat="48.53276" lon="5.73542">
        <ele>262.563</ele>
        <time>2019-09-23T11:09:21.000Z</time>
      </trkpt>
      <trkpt lat="48.53274" lon="5.73566">
        <ele>262.56</ele>
        <time>2019-09-23T11:09:24.000Z</time>
      </trkpt>
      <trkpt lat="48.53271" lon="5.73588">
        <ele>262.924</ele>
        <time>2019-09-23T11:09:27.000Z</time>
      </trkpt>
      <trkpt lat="48.53268" lon="5.73608">
        <ele>262.843</ele>
        <time>2019-09-23T11:09:30.000Z</time>
      </trkpt>
      <trkpt lat="48.53264" lon="5.73627">
        <ele>262.761</ele>
        <time>2019-09-23T11:09:33.000Z</time>
      </trkpt>
      <trkpt lat="48.53261" lon="5.73648">
        <ele>262.669</ele>
        <time>2019-09-23T11:09:36.000Z</time>
      </trkpt>
      <trkpt lat="48.53259" lon="5.73671">
        <ele>262.258</ele>
        <time>2019-09-23T11:09:39.000Z</time>
      </trkpt>
      <trkpt lat="48.53256" lon="5.73694">
        <ele>262.111</ele>
        <time>2019-09-23T11:09:42.000Z</time>
      </trkpt>
      <trkpt lat="48.53253" lon="5.73718">
        <ele>261.703</ele>
        <time>2019-09-23T11:09:45.000Z</time>
      </trkpt>
      <trkpt lat="48.5325" lon="5.73742">
        <ele>261.041</ele>
        <time>2019-09-23T11:09:48.000Z</time>
      </trkpt>
      <trkpt lat="48.53246" lon="5.73765">
        <ele>260.271</ele>
        <time>2019-09-23T11:09:51.000Z</time>
      </trkpt>
      <trkpt lat="48.53242" lon="5.73788">
        <ele>259.712</ele>
        <time>2019-09-23T11:09:54.000Z</time>
      </trkpt>
      <trkpt lat="48.53237" lon="5.73811">
        <ele>258.967</ele>
        <time>2019-09-23T11:09:57.000Z</time>
      </trkpt>
      <trkpt lat="48.53232" lon="5.73831">
        <ele>258.223</ele>
        <time>2019-09-23T11:10:00.000Z</time>
      </trkpt>
      <trkpt lat="48.53227" lon="5.73851">
        <ele>257.562</ele>
        <time>2019-09-23T11:10:03.000Z</time>
      </trkpt>
      <trkpt lat="48.53224" lon="5.73874">
        <ele>257.115</ele>
        <time>2019-09-23T11:10:06.000Z</time>
      </trkpt>
      <trkpt lat="48.53219" lon="5.73897">
        <ele>256.776</ele>
        <time>2019-09-23T11:10:09.000Z</time>
      </trkpt>
      <trkpt lat="48.53215" lon="5.73921">
        <ele>256.613</ele>
        <time>2019-09-23T11:10:12.000Z</time>
      </trkpt>
      <trkpt lat="48.5321" lon="5.73945">
        <ele>256.322</ele>
        <time>2019-09-23T11:10:15.000Z</time>
      </trkpt>
      <trkpt lat="48.53202" lon="5.73969">
        <ele>256.397</ele>
        <time>2019-09-23T11:10:18.000Z</time>
      </trkpt>
      <trkpt lat="48.53194" lon="5.73992">
        <ele>256.396</ele>
        <time>2019-09-23T11:10:21.000Z</time>
      </trkpt>
      <trkpt lat="48.53184" lon="5.74015">
        <ele>256.591</ele>
        <time>2019-09-23T11:10:24.000Z</time>
      </trkpt>
      <trkpt lat="48.53173" lon="5.74035">
        <ele>257.178</ele>
        <time>2019-09-23T11:10:27.000Z</time>
      </trkpt>
      <trkpt lat="48.53163" lon="5.74052">
        <ele>257.562</ele>
        <time>2019-09-23T11:10:30.000Z</time>
      </trkpt>
      <trkpt lat="48.53153" lon="5.74066">
        <ele>258.03</ele>
        <time>2019-09-23T11:10:33.000Z</time>
      </trkpt>
      <trkpt lat="48.53141" lon="5.74081">
        <ele>258.476</ele>
        <time>2019-09-23T11:10:36.000Z</time>
      </trkpt>
      <trkpt lat="48.5313" lon="5.74096">
        <ele>258.369</ele>
        <time>2019-09-23T11:10:39.000Z</time>
      </trkpt>
      <trkpt lat="48.53119" lon="5.74111">
        <ele>258.596</ele>
        <time>2019-09-23T11:10:42.000Z</time>
      </trkpt>
      <trkpt lat="48.53107" lon="5.74127">
        <ele>258.611</ele>
        <time>2019-09-23T11:10:45.000Z</time>
      </trkpt>
      <trkpt lat="48.53094" lon="5.74142">
        <ele>258.486</ele>
        <time>2019-09-23T11:10:48.000Z</time>
      </trkpt>
      <trkpt lat="48.53081" lon="5.74154">
        <ele>259.275</ele>
        <time>2019-09-23T11:10:51.000Z</time>
      </trkpt>
      <trkpt lat="48.5307" lon="5.74166">
        <ele>260.146</ele>
        <time>2019-09-23T11:10:54.000Z</time>
      </trkpt>
      <trkpt lat="48.53058" lon="5.74177">
        <ele>260.857</ele>
        <time>2019-09-23T11:10:57.000Z</time>
      </trkpt>
      <trkpt lat="48.53046" lon="5.74188">
        <ele>261.643</ele>
        <time>2019-09-23T11:11:00.000Z</time>
      </trkpt>
      <trkpt lat="48.53035" lon="5.74198">
        <ele>262.319</ele>
        <time>2019-09-23T11:11:03.000Z</time>
      </trkpt>
      <trkpt lat="48.53024" lon="5.74208">
        <ele>263.194</ele>
        <time>2019-09-23T11:11:06.000Z</time>
      </trkpt>
      <trkpt lat="48.53015" lon="5.74216">
        <ele>263.793</ele>
        <time>2019-09-23T11:11:09.000Z</time>
      </trkpt>
      <trkpt lat="48.53007" lon="5.74223">
        <ele>264.157</ele>
        <time>2019-09-23T11:11:12.000Z</time>
      </trkpt>
      <trkpt lat="48.53001" lon="5.7423">
        <ele>264.208</ele>
        <time>2019-09-23T11:11:15.000Z</time>
      </trkpt>
      <trkpt lat="48.52994" lon="5.74237">
        <ele>264.726</ele>
        <time>2019-09-23T11:11:18.000Z</time>
      </trkpt>
      <trkpt lat="48.52986" lon="5.74245">
        <ele>265.494</ele>
        <time>2019-09-23T11:11:21.000Z</time>
      </trkpt>
      <trkpt lat="48.52978" lon="5.74253">
        <ele>266.346</ele>
        <time>2019-09-23T11:11:24.000Z</time>
      </trkpt>
      <trkpt lat="48.52971" lon="5.7426">
        <ele>266.697</ele>
        <time>2019-09-23T11:11:27.000Z</time>
      </trkpt>
      <trkpt lat="48.52964" lon="5.74265">
        <ele>267.407</ele>
        <time>2019-09-23T11:11:30.000Z</time>
      </trkpt>
      <trkpt lat="48.52958" lon="5.74271">
        <ele>268.132</ele>
        <time>2019-09-23T11:11:33.000Z</time>
      </trkpt>
      <trkpt lat="48.52952" lon="5.74277">
        <ele>268.91</ele>
        <time>2019-09-23T11:11:36.000Z</time>
      </trkpt>
      <trkpt lat="48.52945" lon="5.74282">
        <ele>269.696</ele>
        <time>2019-09-23T11:11:39.000Z</time>
      </trkpt>
      <trkpt lat="48.52939" lon="5.74288">
        <ele>270.046</ele>
        <time>2019-09-23T11:11:42.000Z</time>
      </trkpt>
      <trkpt lat="48.52933" lon="5.74295">
        <ele>270.269</ele>
        <time>2019-09-23T11:11:45.000Z</time>
      </trkpt>
      <trkpt lat="48.52927" lon="5.743">
        <ele>270.341</ele>
        <time>2019-09-23T11:11:48.000Z</time>
      </trkpt>
      <trkpt lat="48.5292" lon="5.74306">
        <ele>270.65</ele>
        <time>2019-09-23T11:11:51.000Z</time>
      </trkpt>
      <trkpt lat="48.52914" lon="5.74312">
        <ele>271.332</ele>
        <time>2019-09-23T11:11:54.000Z</time>
      </trkpt>
      <trkpt lat="48.52907" lon="5.74319">
        <ele>271.685</ele>
        <time>2019-09-23T11:11:57.000Z</time>
      </trkpt>
      <trkpt lat="48.52902" lon="5.74326">
        <ele>271.804</ele>
        <time>2019-09-23T11:12:00.000Z</time>
      </trkpt>
      <trkpt lat="48.52896" lon="5.74333">
        <ele>271.515</ele>
        <time>2019-09-23T11:12:03.000Z</time>
      </trkpt>
      <trkpt lat="48.52891" lon="5.74339">
        <ele>271.746</ele>
        <time>2019-09-23T11:12:06.000Z</time>
      </trkpt>
      <trkpt lat="48.52885" lon="5.74346">
        <ele>271.745</ele>
        <time>2019-09-23T11:12:09.000Z</time>
      </trkpt>
      <trkpt lat="48.52879" lon="5.74353">
        <ele>271.779</ele>
        <time>2019-09-23T11:12:12.000Z</time>
      </trkpt>
      <trkpt lat="48.52873" lon="5.74359">
        <ele>272.175</ele>
        <time>2019-09-23T11:12:15.000Z</time>
      </trkpt>
      <trkpt lat="48.52866" lon="5.74365">
        <ele>272.84</ele>
        <time>2019-09-23T11:12:18.000Z</time>
      </trkpt>
      <trkpt lat="48.52859" lon="5.7437">
        <ele>273.587</ele>
        <time>2019-09-23T11:12:21.000Z</time>
      </trkpt>
      <trkpt lat="48.52853" lon="5.74373">
        <ele>273.648</ele>
        <time>2019-09-23T11:12:24.000Z</time>
      </trkpt>
      <trkpt lat="48.52845" lon="5.74377">
        <ele>273.655</ele>
        <time>2019-09-23T11:12:27.000Z</time>
      </trkpt>
      <trkpt lat="48.52837" lon="5.7438">
        <ele>273.446</ele>
        <time>2019-09-23T11:12:30.000Z</time>
      </trkpt>
      <trkpt lat="48.52828" lon="5.74379">
        <ele>273.101</ele>
        <time>2019-09-23T11:12:33.000Z</time>
      </trkpt>
      <trkpt lat="48.52819" lon="5.74376">
        <ele>272.619</ele>
        <time>2019-09-23T11:12:36.000Z</time>
      </trkpt>
      <trkpt lat="48.5281" lon="5.7437">
        <ele>272.12</ele>
        <time>2019-09-23T11:12:39.000Z</time>
      </trkpt>
      <trkpt lat="48.52799" lon="5.74363">
        <ele>271.27</ele>
        <time>2019-09-23T11:12:42.000Z</time>
      </trkpt>
      <trkpt lat="48.52788" lon="5.74357">
        <ele>270.909</ele>
        <time>2019-09-23T11:12:45.000Z</time>
      </trkpt>
      <trkpt lat="48.52774" lon="5.74349">
        <ele>270.762</ele>
        <time>2019-09-23T11:12:48.000Z</time>
      </trkpt>
      <trkpt lat="48.52761" lon="5.74342">
        <ele>270.474</ele>
        <time>2019-09-23T11:12:51.000Z</time>
      </trkpt>
      <trkpt lat="48.52745" lon="5.74333">
        <ele>269.832</ele>
        <time>2019-09-23T11:12:54.000Z</time>
      </trkpt>
      <trkpt lat="48.52729" lon="5.74324">
        <ele>269.286</ele>
        <time>2019-09-23T11:12:57.000Z</time>
      </trkpt>
      <trkpt lat="48.52712" lon="5.74315">
        <ele>268.804</ele>
        <time>2019-09-23T11:13:00.000Z</time>
      </trkpt>
      <trkpt lat="48.52695" lon="5.74307">
        <ele>268.347</ele>
        <time>2019-09-23T11:13:03.000Z</time>
      </trkpt>
      <trkpt lat="48.52678" lon="5.74303">
        <ele>267.591</ele>
        <time>2019-09-23T11:13:06.000Z</time>
      </trkpt>
      <trkpt lat="48.52661" lon="5.74299">
        <ele>267.063</ele>
        <time>2019-09-23T11:13:09.000Z</time>
      </trkpt>
      <trkpt lat="48.52645" lon="5.74295">
        <ele>266.496</ele>
        <time>2019-09-23T11:13:12.000Z</time>
      </trkpt>
      <trkpt lat="48.52629" lon="5.74292">
        <ele>266.321</ele>
        <time>2019-09-23T11:13:15.000Z</time>
      </trkpt>
      <trkpt lat="48.52614" lon="5.74288">
        <ele>266.325</ele>
        <time>2019-09-23T11:13:18.000Z</time>
      </trkpt>
      <trkpt lat="48.52601" lon="5.74284">
        <ele>266.46</ele>
        <time>2019-09-23T11:13:21.000Z</time>
      </trkpt>
      <trkpt lat="48.52587" lon="5.74278">
        <ele>266.267</ele>
        <time>2019-09-23T11:13:24.000Z</time>
      </trkpt>
      <trkpt lat="48.52575" lon="5.74272">
        <ele>266.224</ele>
        <time>2019-09-23T11:13:27.000Z</time>
      </trkpt>
      <trkpt lat="48.52563" lon="5.74265">
        <ele>265.963</ele>
        <time>2019-09-23T11:13:30.000Z</time>
      </trkpt>
      <trkpt lat="48.52551" lon="5.74258">
        <ele>265.557</ele>
        <time>2019-09-23T11:13:33.000Z</time>
      </trkpt>
      <trkpt lat="48.52538" lon="5.74249">
        <ele>265.491</ele>
        <time>2019-09-23T11:13:36.000Z</time>
      </trkpt>
      <trkpt lat="48.52526" lon="5.74242">
        <ele>265.235</ele>
        <time>2019-09-23T11:13:39.000Z</time>
      </trkpt>
      <trkpt lat="48.52515" lon="5.74233">
        <ele>264.699</ele>
        <time>2019-09-23T11:13:42.000Z</time>
      </trkpt>
      <trkpt lat="48.52503" lon="5.74224">
        <ele>264.364</ele>
        <time>2019-09-23T11:13:45.000Z</time>
      </trkpt>
      <trkpt lat="48.52491" lon="5.74215">
        <ele>264.173</ele>
        <time>2019-09-23T11:13:48.000Z</time>
      </trkpt>
      <trkpt lat="48.5248" lon="5.74205">
        <ele>264.202</ele>
        <time>2019-09-23T11:13:51.000Z</time>
      </trkpt>
      <trkpt lat="48.52469" lon="5.74196">
        <ele>264.408</ele>
        <time>2019-09-23T11:13:54.000Z</time>
      </trkpt>
      <trkpt lat="48.52459" lon="5.74187">
        <ele>264.764</ele>
        <time>2019-09-23T11:13:57.000Z</time>
      </trkpt>
      <trkpt lat="48.52448" lon="5.74179">
        <ele>265.028</ele>
        <time>2019-09-23T11:14:00.000Z</time>
      </trkpt>
      <trkpt lat="48.52439" lon="5.74171">
        <ele>265.262</ele>
        <time>2019-09-23T11:14:03.000Z</time>
      </trkpt>
      <trkpt lat="48.5243" lon="5.74163">
        <ele>265.651</ele>
        <time>2019-09-23T11:14:06.000Z</time>
      </trkpt>
      <trkpt lat="48.52421" lon="5.74156">
        <ele>265.89</ele>
        <time>2019-09-23T11:14:09.000Z</time>
      </trkpt>
      <trkpt lat="48.52412" lon="5.74149">
        <ele>265.964</ele>
        <time>2019-09-23T11:14:12.000Z</time>
      </trkpt>
      <trkpt lat="48.52402" lon="5.74141">
        <ele>266.088</ele>
        <time>2019-09-23T11:14:15.000Z</time>
      </trkpt>
      <trkpt lat="48.52393" lon="5.74132">
        <ele>266.41</ele>
        <time>2019-09-23T11:14:18.000Z</time>
      </trkpt>
      <trkpt lat="48.52383" lon="5.74123">
        <ele>266.946</ele>
        <time>2019-09-23T11:14:21.000Z</time>
      </trkpt>
      <trkpt lat="48.52373" lon="5.74112">
        <ele>267.496</ele>
        <time>2019-09-23T11:14:24.000Z</time>
      </trkpt>
      <trkpt lat="48.52363" lon="5.741">
        <ele>267.878</ele>
        <time>2019-09-23T11:14:27.000Z</time>
      </trkpt>
      <trkpt lat="48.52353" lon="5.74087">
        <ele>267.99</ele>
        <time>2019-09-23T11:14:30.000Z</time>
      </trkpt>
      <trkpt lat="48.52343" lon="5.74073">
        <ele>268.093</ele>
        <time>2019-09-23T11:14:33.000Z</time>
      </trkpt>
      <trkpt lat="48.52333" lon="5.74058">
        <ele>268.058</ele>
        <time>2019-09-23T11:14:36.000Z</time>
      </trkpt>
      <trkpt lat="48.52324" lon="5.74043">
        <ele>267.944</ele>
        <time>2019-09-23T11:14:39.000Z</time>
      </trkpt>
      <trkpt lat="48.52313" lon="5.74026">
        <ele>267.955</ele>
        <time>2019-09-23T11:14:42.000Z</time>
      </trkpt>
      <trkpt lat="48.52304" lon="5.74007">
        <ele>267.647</ele>
        <time>2019-09-23T11:14:45.000Z</time>
      </trkpt>
      <trkpt lat="48.52294" lon="5.73987">
        <ele>267.708</ele>
        <time>2019-09-23T11:14:48.000Z</time>
      </trkpt>
      <trkpt lat="48.52285" lon="5.73966">
        <ele>268.27</ele>
        <time>2019-09-23T11:14:51.000Z</time>
      </trkpt>
      <trkpt lat="48.52277" lon="5.73944">
        <ele>268.433</ele>
        <time>2019-09-23T11:14:54.000Z</time>
      </trkpt>
      <trkpt lat="48.52269" lon="5.73923">
        <ele>267.826</ele>
        <time>2019-09-23T11:14:57.000Z</time>
      </trkpt>
      <trkpt lat="48.52262" lon="5.739">
        <ele>267.218</ele>
        <time>2019-09-23T11:15:00.000Z</time>
      </trkpt>
      <trkpt lat="48.52255" lon="5.73876">
        <ele>266.437</ele>
        <time>2019-09-23T11:15:03.000Z</time>
      </trkpt>
      <trkpt lat="48.52248" lon="5.73853">
        <ele>265.511</ele>
        <time>2019-09-23T11:15:06.000Z</time>
      </trkpt>
      <trkpt lat="48.52243" lon="5.73831">
        <ele>264.913</ele>
        <time>2019-09-23T11:15:09.000Z</time>
      </trkpt>
      <trkpt lat="48.52239" lon="5.7381">
        <ele>264.248</ele>
        <time>2019-09-23T11:15:12.000Z</time>
      </trkpt>
      <trkpt lat="48.52234" lon="5.73788">
        <ele>263.872</ele>
        <time>2019-09-23T11:15:15.000Z</time>
      </trkpt>
      <trkpt lat="48.52229" lon="5.73765">
        <ele>263.66</ele>
        <time>2019-09-23T11:15:18.000Z</time>
      </trkpt>
      <trkpt lat="48.52225" lon="5.73744">
        <ele>263.588</ele>
        <time>2019-09-23T11:15:21.000Z</time>
      </trkpt>
      <trkpt lat="48.5222" lon="5.73723">
        <ele>263.247</ele>
        <time>2019-09-23T11:15:24.000Z</time>
      </trkpt>
      <trkpt lat="48.52216" lon="5.73702">
        <ele>262.656</ele>
        <time>2019-09-23T11:15:27.000Z</time>
      </trkpt>
      <trkpt lat="48.52212" lon="5.73682">
        <ele>262.441</ele>
        <time>2019-09-23T11:15:30.000Z</time>
      </trkpt>
      <trkpt lat="48.52208" lon="5.73661">
        <ele>261.982</ele>
        <time>2019-09-23T11:15:33.000Z</time>
      </trkpt>
      <trkpt lat="48.52203" lon="5.73639">
        <ele>262.084</ele>
        <time>2019-09-23T11:15:36.000Z</time>
      </trkpt>
      <trkpt lat="48.52199" lon="5.73617">
        <ele>262.623</ele>
        <time>2019-09-23T11:15:39.000Z</time>
      </trkpt>
      <trkpt lat="48.52193" lon="5.73597">
        <ele>262.597</ele>
        <time>2019-09-23T11:15:42.000Z</time>
      </trkpt>
      <trkpt lat="48.52187" lon="5.73576">
        <ele>262.154</ele>
        <time>2019-09-23T11:15:45.000Z</time>
      </trkpt>
      <trkpt lat="48.52182" lon="5.73556">
        <ele>261.681</ele>
        <time>2019-09-23T11:15:48.000Z</time>
      </trkpt>
      <trkpt lat="48.52178" lon="5.73535">
        <ele>261.53</ele>
        <time>2019-09-23T11:15:51.000Z</time>
      </trkpt>
      <trkpt lat="48.52173" lon="5.73514">
        <ele>261.354</ele>
        <time>2019-09-23T11:15:54.000Z</time>
      </trkpt>
      <trkpt lat="48.52167" lon="5.73496">
        <ele>260.945</ele>
        <time>2019-09-23T11:15:57.000Z</time>
      </trkpt>
      <trkpt lat="48.52161" lon="5.73476">
        <ele>260.663</ele>
        <time>2019-09-23T11:16:00.000Z</time>
      </trkpt>
      <trkpt lat="48.52156" lon="5.73456">
        <ele>261.008</ele>
        <time>2019-09-23T11:16:03.000Z</time>
      </trkpt>
      <trkpt lat="48.52151" lon="5.73437">
        <ele>261.478</ele>
        <time>2019-09-23T11:16:06.000Z</time>
      </trkpt>
      <trkpt lat="48.52146" lon="5.73417">
        <ele>261.706</ele>
        <time>2019-09-23T11:16:09.000Z</time>
      </trkpt>
      <trkpt lat="48.52141" lon="5.73398">
        <ele>262.176</ele>
        <time>2019-09-23T11:16:12.000Z</time>
      </trkpt>
      <trkpt lat="48.52136" lon="5.73379">
        <ele>262.37</ele>
        <time>2019-09-23T11:16:15.000Z</time>
      </trkpt>
      <trkpt lat="48.52131" lon="5.73361">
        <ele>262.22</ele>
        <time>2019-09-23T11:16:18.000Z</time>
      </trkpt>
      <trkpt lat="48.52126" lon="5.73342">
        <ele>262.242</ele>
        <time>2019-09-23T11:16:21.000Z</time>
      </trkpt>
      <trkpt lat="48.5212" lon="5.73324">
        <ele>262.519</ele>
        <time>2019-09-23T11:16:24.000Z</time>
      </trkpt>
      <trkpt lat="48.52114" lon="5.73306">
        <ele>262.99</ele>
        <time>2019-09-23T11:16:27.000Z</time>
      </trkpt>
      <trkpt lat="48.52109" lon="5.73288">
        <ele>263.801</ele>
        <time>2019-09-23T11:16:30.000Z</time>
      </trkpt>
      <trkpt lat="48.52104" lon="5.73271">
        <ele>264.428</ele>
        <time>2019-09-23T11:16:33.000Z</time>
      </trkpt>
      <trkpt lat="48.52099" lon="5.73254">
        <ele>265.346</ele>
        <time>2019-09-23T11:16:36.000Z</time>
      </trkpt>
      <trkpt lat="48.52094" lon="5.73236">
        <ele>266.233</ele>
        <time>2019-09-23T11:16:39.000Z</time>
      </trkpt>
      <trkpt lat="48.52089" lon="5.7322">
        <ele>266.766</ele>
        <time>2019-09-23T11:16:42.000Z</time>
      </trkpt>
      <trkpt lat="48.52083" lon="5.73204">
        <ele>266.864</ele>
        <time>2019-09-23T11:16:45.000Z</time>
      </trkpt>
      <trkpt lat="48.52078" lon="5.73188">
        <ele>265.918</ele>
        <time>2019-09-23T11:16:48.000Z</time>
      </trkpt>
      <trkpt lat="48.52072" lon="5.7317">
        <ele>265.758</ele>
        <time>2019-09-23T11:16:51.000Z</time>
      </trkpt>
      <trkpt lat="48.52067" lon="5.73153">
        <ele>265.417</ele>
        <time>2019-09-23T11:16:54.000Z</time>
      </trkpt>
      <trkpt lat="48.52061" lon="5.73136">
        <ele>265.523</ele>
        <time>2019-09-23T11:16:57.000Z</time>
      </trkpt>
      <trkpt lat="48.52057" lon="5.73119">
        <ele>265.93</ele>
        <time>2019-09-23T11:17:00.000Z</time>
      </trkpt>
      <trkpt lat="48.52052" lon="5.73103">
        <ele>266.081</ele>
        <time>2019-09-23T11:17:03.000Z</time>
      </trkpt>
      <trkpt lat="48.52046" lon="5.73085">
        <ele>266.104</ele>
        <time>2019-09-23T11:17:06.000Z</time>
      </trkpt>
      <trkpt lat="48.5204" lon="5.73066">
        <ele>266.545</ele>
        <time>2019-09-23T11:17:09.000Z</time>
      </trkpt>
      <trkpt lat="48.52035" lon="5.73049">
        <ele>267.208</ele>
        <time>2019-09-23T11:17:12.000Z</time>
      </trkpt>
      <trkpt lat="48.5203" lon="5.73032">
        <ele>267.312</ele>
        <time>2019-09-23T11:17:15.000Z</time>
      </trkpt>
      <trkpt lat="48.52026" lon="5.73015">
        <ele>267.275</ele>
        <time>2019-09-23T11:17:18.000Z</time>
      </trkpt>
      <trkpt lat="48.5202" lon="5.72997">
        <ele>267.351</ele>
        <time>2019-09-23T11:17:21.000Z</time>
      </trkpt>
      <trkpt lat="48.52016" lon="5.72979">
        <ele>267.561</ele>
        <time>2019-09-23T11:17:24.000Z</time>
      </trkpt>
      <trkpt lat="48.52013" lon="5.72961">
        <ele>267.708</ele>
        <time>2019-09-23T11:17:27.000Z</time>
      </trkpt>
      <trkpt lat="48.52009" lon="5.72941">
        <ele>267.838</ele>
        <time>2019-09-23T11:17:30.000Z</time>
      </trkpt>
      <trkpt lat="48.52006" lon="5.72923">
        <ele>267.736</ele>
        <time>2019-09-23T11:17:33.000Z</time>
      </trkpt>
      <trkpt lat="48.52002" lon="5.72905">
        <ele>268.005</ele>
        <time>2019-09-23T11:17:36.000Z</time>
      </trkpt>
      <trkpt lat="48.51999" lon="5.72887">
        <ele>268.144</ele>
        <time>2019-09-23T11:17:39.000Z</time>
      </trkpt>
      <trkpt lat="48.51996" lon="5.72868">
        <ele>268.449</ele>
        <time>2019-09-23T11:17:42.000Z</time>
      </trkpt>
      <trkpt lat="48.51993" lon="5.72847">
        <ele>269.051</ele>
        <time>2019-09-23T11:17:45.000Z</time>
      </trkpt>
      <trkpt lat="48.5199" lon="5.72826">
        <ele>269.476</ele>
        <time>2019-09-23T11:17:48.000Z</time>
      </trkpt>
      <trkpt lat="48.51987" lon="5.72807">
        <ele>270.217</ele>
        <time>2019-09-23T11:17:51.000Z</time>
      </trkpt>
      <trkpt lat="48.51984" lon="5.72788">
        <ele>271.414</ele>
        <time>2019-09-23T11:17:54.000Z</time>
      </trkpt>
      <trkpt lat="48.51981" lon="5.7277">
        <ele>272.368</ele>
        <time>2019-09-23T11:17:57.000Z</time>
      </trkpt>
      <trkpt lat="48.51976" lon="5.72751">
        <ele>273.907</ele>
        <time>2019-09-23T11:18:00.000Z</time>
      </trkpt>
      <trkpt lat="48.51972" lon="5.72732">
        <ele>275.2</ele>
        <time>2019-09-23T11:18:03.000Z</time>
      </trkpt>
      <trkpt lat="48.51966" lon="5.72716">
        <ele>275.849</ele>
        <time>2019-09-23T11:18:06.000Z</time>
      </trkpt>
      <trkpt lat="48.51961" lon="5.72701">
        <ele>276.992</ele>
        <time>2019-09-23T11:18:09.000Z</time>
      </trkpt>
      <trkpt lat="48.51955" lon="5.72686">
        <ele>278.85</ele>
        <time>2019-09-23T11:18:12.000Z</time>
      </trkpt>
      <trkpt lat="48.51949" lon="5.72674">
        <ele>280.514</ele>
        <time>2019-09-23T11:18:15.000Z</time>
      </trkpt>
      <trkpt lat="48.51941" lon="5.72663">
        <ele>281.783</ele>
        <time>2019-09-23T11:18:18.000Z</time>
      </trkpt>
      <trkpt lat="48.51935" lon="5.72652">
        <ele>281.386</ele>
        <time>2019-09-23T11:18:21.000Z</time>
      </trkpt>
      <trkpt lat="48.51929" lon="5.7264">
        <ele>281.135</ele>
        <time>2019-09-23T11:18:24.000Z</time>
      </trkpt>
      <trkpt lat="48.51923" lon="5.72626">
        <ele>280.388</ele>
        <time>2019-09-23T11:18:27.000Z</time>
      </trkpt>
      <trkpt lat="48.51917" lon="5.72613">
        <ele>279.65</ele>
        <time>2019-09-23T11:18:30.000Z</time>
      </trkpt>
      <trkpt lat="48.51911" lon="5.72601">
        <ele>278.917</ele>
        <time>2019-09-23T11:18:33.000Z</time>
      </trkpt>
      <trkpt lat="48.51906" lon="5.72589">
        <ele>278.083</ele>
        <time>2019-09-23T11:18:36.000Z</time>
      </trkpt>
      <trkpt lat="48.51901" lon="5.72575">
        <ele>279.281</ele>
        <time>2019-09-23T11:18:39.000Z</time>
      </trkpt>
      <trkpt lat="48.51894" lon="5.72563">
        <ele>279.258</ele>
        <time>2019-09-23T11:18:42.000Z</time>
      </trkpt>
      <trkpt lat="48.51887" lon="5.72552">
        <ele>278.799</ele>
        <time>2019-09-23T11:18:45.000Z</time>
      </trkpt>
      <trkpt lat="48.51882" lon="5.72541">
        <ele>278.734</ele>
        <time>2019-09-23T11:18:48.000Z</time>
      </trkpt>
      <trkpt lat="48.51876" lon="5.72529">
        <ele>278.567</ele>
        <time>2019-09-23T11:18:51.000Z</time>
      </trkpt>
      <trkpt lat="48.5187" lon="5.72518">
        <ele>278.085</ele>
        <time>2019-09-23T11:18:54.000Z</time>
      </trkpt>
      <trkpt lat="48.51864" lon="5.72507">
        <ele>277.829</ele>
        <time>2019-09-23T11:18:57.000Z</time>
      </trkpt>
      <trkpt lat="48.51859" lon="5.72494">
        <ele>277.099</ele>
        <time>2019-09-23T11:19:00.000Z</time>
      </trkpt>
      <trkpt lat="48.51853" lon="5.72482">
        <ele>276.528</ele>
        <time>2019-09-23T11:19:03.000Z</time>
      </trkpt>
      <trkpt lat="48.51847" lon="5.7247">
        <ele>276.131</ele>
        <time>2019-09-23T11:19:06.000Z</time>
      </trkpt>
      <trkpt lat="48.51841" lon="5.72457">
        <ele>275.904</ele>
        <time>2019-09-23T11:19:09.000Z</time>
      </trkpt>
      <trkpt lat="48.51834" lon="5.72446">
        <ele>274.996</ele>
        <time>2019-09-23T11:19:12.000Z</time>
      </trkpt>
      <trkpt lat="48.51828" lon="5.72434">
        <ele>274.729</ele>
        <time>2019-09-23T11:19:15.000Z</time>
      </trkpt>
      <trkpt lat="48.5182" lon="5.72423">
        <ele>274.116</ele>
        <time>2019-09-23T11:19:18.000Z</time>
      </trkpt>
      <trkpt lat="48.51813" lon="5.72413">
        <ele>273.131</ele>
        <time>2019-09-23T11:19:21.000Z</time>
      </trkpt>
      <trkpt lat="48.51806" lon="5.72403">
        <ele>271.813</ele>
        <time>2019-09-23T11:19:24.000Z</time>
      </trkpt>
      <trkpt lat="48.518" lon="5.7239">
        <ele>271.277</ele>
        <time>2019-09-23T11:19:27.000Z</time>
      </trkpt>
      <trkpt lat="48.51794" lon="5.72376">
        <ele>271.251</ele>
        <time>2019-09-23T11:19:30.000Z</time>
      </trkpt>
      <trkpt lat="48.51786" lon="5.7236">
        <ele>271.047</ele>
        <time>2019-09-23T11:19:33.000Z</time>
      </trkpt>
      <trkpt lat="48.51777" lon="5.72342">
        <ele>271.075</ele>
        <time>2019-09-23T11:19:36.000Z</time>
      </trkpt>
      <trkpt lat="48.51767" lon="5.72324">
        <ele>270.431</ele>
        <time>2019-09-23T11:19:39.000Z</time>
      </trkpt>
      <trkpt lat="48.51755" lon="5.72307">
        <ele>270.181</ele>
        <time>2019-09-23T11:19:42.000Z</time>
      </trkpt>
      <trkpt lat="48.51743" lon="5.72291">
        <ele>270.277</ele>
        <time>2019-09-23T11:19:45.000Z</time>
      </trkpt>
      <trkpt lat="48.51733" lon="5.72276">
        <ele>270.709</ele>
        <time>2019-09-23T11:19:48.000Z</time>
      </trkpt>
      <trkpt lat="48.51721" lon="5.72261">
        <ele>270.925</ele>
        <time>2019-09-23T11:19:51.000Z</time>
      </trkpt>
      <trkpt lat="48.5171" lon="5.72248">
        <ele>271.007</ele>
        <time>2019-09-23T11:19:54.000Z</time>
      </trkpt>
      <trkpt lat="48.51697" lon="5.72238">
        <ele>271.891</ele>
        <time>2019-09-23T11:19:57.000Z</time>
      </trkpt>
      <trkpt lat="48.51685" lon="5.72231">
        <ele>272.144</ele>
        <time>2019-09-23T11:20:00.000Z</time>
      </trkpt>
      <trkpt lat="48.51673" lon="5.72225">
        <ele>272.258</ele>
        <time>2019-09-23T11:20:03.000Z</time>
      </trkpt>
      <trkpt lat="48.51662" lon="5.72219">
        <ele>272.293</ele>
        <time>2019-09-23T11:20:06.000Z</time>
      </trkpt>
      <trkpt lat="48.51651" lon="5.72214">
        <ele>272.35</ele>
        <time>2019-09-23T11:20:09.000Z</time>
      </trkpt>
      <trkpt lat="48.51642" lon="5.7221">
        <ele>272.676</ele>
        <time>2019-09-23T11:20:12.000Z</time>
      </trkpt>
      <trkpt lat="48.51632" lon="5.72206">
        <ele>273.054</ele>
        <time>2019-09-23T11:20:15.000Z</time>
      </trkpt>
      <trkpt lat="48.51622" lon="5.72202">
        <ele>273.279</ele>
        <time>2019-09-23T11:20:18.000Z</time>
      </trkpt>
      <trkpt lat="48.51612" lon="5.72198">
        <ele>273.208</ele>
        <time>2019-09-23T11:20:21.000Z</time>
      </trkpt>
      <trkpt lat="48.51603" lon="5.72194">
        <ele>273.416</ele>
        <time>2019-09-23T11:20:24.000Z</time>
      </trkpt>
      <trkpt lat="48.51593" lon="5.72189">
        <ele>273.669</ele>
        <time>2019-09-23T11:20:27.000Z</time>
      </trkpt>
      <trkpt lat="48.51584" lon="5.72185">
        <ele>274.267</ele>
        <time>2019-09-23T11:20:30.000Z</time>
      </trkpt>
      <trkpt lat="48.51575" lon="5.7218">
        <ele>275.045</ele>
        <time>2019-09-23T11:20:33.000Z</time>
      </trkpt>
      <trkpt lat="48.51566" lon="5.72174">
        <ele>275.723</ele>
        <time>2019-09-23T11:20:36.000Z</time>
      </trkpt>
      <trkpt lat="48.51557" lon="5.72171">
        <ele>276.408</ele>
        <time>2019-09-23T11:20:39.000Z</time>
      </trkpt>
      <trkpt lat="48.51549" lon="5.72166">
        <ele>276.972</ele>
        <time>2019-09-23T11:20:42.000Z</time>
      </trkpt>
      <trkpt lat="48.51541" lon="5.72163">
        <ele>277.363</ele>
        <time>2019-09-23T11:20:45.000Z</time>
      </trkpt>
      <trkpt lat="48.51532" lon="5.72158">
        <ele>277.229</ele>
        <time>2019-09-23T11:20:48.000Z</time>
      </trkpt>
      <trkpt lat="48.51523" lon="5.72155">
        <ele>277.604</ele>
        <time>2019-09-23T11:20:51.000Z</time>
      </trkpt>
      <trkpt lat="48.51515" lon="5.72151">
        <ele>277.678</ele>
        <time>2019-09-23T11:20:54.000Z</time>
      </trkpt>
      <trkpt lat="48.51506" lon="5.72146">
        <ele>277.632</ele>
        <time>2019-09-23T11:20:57.000Z</time>
      </trkpt>
      <trkpt lat="48.51498" lon="5.72141">
        <ele>277.717</ele>
        <time>2019-09-23T11:21:00.000Z</time>
      </trkpt>
      <trkpt lat="48.51488" lon="5.72136">
        <ele>277.899</ele>
        <time>2019-09-23T11:21:03.000Z</time>
      </trkpt>
      <trkpt lat="48.5148" lon="5.72131">
        <ele>278.457</ele>
        <time>2019-09-23T11:21:06.000Z</time>
      </trkpt>
      <trkpt lat="48.51469" lon="5.72126">
        <ele>278.564</ele>
        <time>2019-09-23T11:21:09.000Z</time>
      </trkpt>
      <trkpt lat="48.51458" lon="5.7212">
        <ele>278.138</ele>
        <time>2019-09-23T11:21:12.000Z</time>
      </trkpt>
      <trkpt lat="48.51446" lon="5.72113">
        <ele>278.312</ele>
        <time>2019-09-23T11:21:15.000Z</time>
      </trkpt>
      <trkpt lat="48.51432" lon="5.72106">
        <ele>278.069</ele>
        <time>2019-09-23T11:21:18.000Z</time>
      </trkpt>
      <trkpt lat="48.51418" lon="5.72097">
        <ele>277.504</ele>
        <time>2019-09-23T11:21:21.000Z</time>
      </trkpt>
      <trkpt lat="48.51402" lon="5.72088">
        <ele>276.745</ele>
        <time>2019-09-23T11:21:24.000Z</time>
      </trkpt>
      <trkpt lat="48.51386" lon="5.72079">
        <ele>276.307</ele>
        <time>2019-09-23T11:21:27.000Z</time>
      </trkpt>
      <trkpt lat="48.51368" lon="5.72067">
        <ele>276.476</ele>
        <time>2019-09-23T11:21:30.000Z</time>
      </trkpt>
      <trkpt lat="48.51351" lon="5.72057">
        <ele>276.749</ele>
        <time>2019-09-23T11:21:33.000Z</time>
      </trkpt>
      <trkpt lat="48.51335" lon="5.72047">
        <ele>277.051</ele>
        <time>2019-09-23T11:21:36.000Z</time>
      </trkpt>
      <trkpt lat="48.51316" lon="5.72036">
        <ele>277.327</ele>
        <time>2019-09-23T11:21:39.000Z</time>
      </trkpt>
      <trkpt lat="48.51298" lon="5.72027">
        <ele>276.965</ele>
        <time>2019-09-23T11:21:42.000Z</time>
      </trkpt>
      <trkpt lat="48.51279" lon="5.7202">
        <ele>277.63</ele>
        <time>2019-09-23T11:21:45.000Z</time>
      </trkpt>
      <trkpt lat="48.5126" lon="5.72013">
        <ele>277.713</ele>
        <time>2019-09-23T11:21:48.000Z</time>
      </trkpt>
      <trkpt lat="48.51241" lon="5.72008">
        <ele>277.529</ele>
        <time>2019-09-23T11:21:51.000Z</time>
      </trkpt>
      <trkpt lat="48.51223" lon="5.72005">
        <ele>277.478</ele>
        <time>2019-09-23T11:21:54.000Z</time>
      </trkpt>
      <trkpt lat="48.51205" lon="5.72002">
        <ele>276.907</ele>
        <time>2019-09-23T11:21:57.000Z</time>
      </trkpt>
      <trkpt lat="48.51188" lon="5.71999">
        <ele>275.589</ele>
        <time>2019-09-23T11:22:00.000Z</time>
      </trkpt>
      <trkpt lat="48.51176" lon="5.71996">
        <ele>275.162</ele>
        <time>2019-09-23T11:22:03.000Z</time>
      </trkpt>
      <trkpt lat="48.51162" lon="5.71995">
        <ele>274.595</ele>
        <time>2019-09-23T11:22:06.000Z</time>
      </trkpt>
      <trkpt lat="48.51145" lon="5.71993">
        <ele>273.71</ele>
        <time>2019-09-23T11:22:09.000Z</time>
      </trkpt>
      <trkpt lat="48.51129" lon="5.71991">
        <ele>272.552</ele>
        <time>2019-09-23T11:22:12.000Z</time>
      </trkpt>
      <trkpt lat="48.51114" lon="5.71989">
        <ele>271.311</ele>
        <time>2019-09-23T11:22:15.000Z</time>
      </trkpt>
      <trkpt lat="48.51099" lon="5.71986">
        <ele>270.489</ele>
        <time>2019-09-23T11:22:18.000Z</time>
      </trkpt>
      <trkpt lat="48.51084" lon="5.71984">
        <ele>270.055</ele>
        <time>2019-09-23T11:22:21.000Z</time>
      </trkpt>
      <trkpt lat="48.5107" lon="5.71981">
        <ele>270.044</ele>
        <time>2019-09-23T11:22:24.000Z</time>
      </trkpt>
      <trkpt lat="48.51056" lon="5.71981">
        <ele>269.254</ele>
        <time>2019-09-23T11:22:27.000Z</time>
      </trkpt>
      <trkpt lat="48.51041" lon="5.71979">
        <ele>268.877</ele>
        <time>2019-09-23T11:22:30.000Z</time>
      </trkpt>
      <trkpt lat="48.51027" lon="5.71977">
        <ele>268.547</ele>
        <time>2019-09-23T11:22:33.000Z</time>
      </trkpt>
      <trkpt lat="48.51013" lon="5.71974">
        <ele>268.252</ele>
        <time>2019-09-23T11:22:36.000Z</time>
      </trkpt>
      <trkpt lat="48.50999" lon="5.71973">
        <ele>267.551</ele>
        <time>2019-09-23T11:22:39.000Z</time>
      </trkpt>
      <trkpt lat="48.50985" lon="5.71971">
        <ele>267.837</ele>
        <time>2019-09-23T11:22:42.000Z</time>
      </trkpt>
      <trkpt lat="48.50971" lon="5.71969">
        <ele>267.917</ele>
        <time>2019-09-23T11:22:45.000Z</time>
      </trkpt>
      <trkpt lat="48.50957" lon="5.71966">
        <ele>268.008</ele>
        <time>2019-09-23T11:22:48.000Z</time>
      </trkpt>
      <trkpt lat="48.50944" lon="5.71963">
        <ele>268.147</ele>
        <time>2019-09-23T11:22:51.000Z</time>
      </trkpt>
      <trkpt lat="48.50931" lon="5.71961">
        <ele>268.385</ele>
        <time>2019-09-23T11:22:54.000Z</time>
      </trkpt>
      <trkpt lat="48.50918" lon="5.7196">
        <ele>268.392</ele>
        <time>2019-09-23T11:22:57.000Z</time>
      </trkpt>
      <trkpt lat="48.50904" lon="5.71958">
        <ele>268.11</ele>
        <time>2019-09-23T11:23:00.000Z</time>
      </trkpt>
      <trkpt lat="48.50891" lon="5.71956">
        <ele>268.689</ele>
        <time>2019-09-23T11:23:03.000Z</time>
      </trkpt>
      <trkpt lat="48.50877" lon="5.71954">
        <ele>269.471</ele>
        <time>2019-09-23T11:23:06.000Z</time>
      </trkpt>
      <trkpt lat="48.50864" lon="5.71952">
        <ele>269.991</ele>
        <time>2019-09-23T11:23:09.000Z</time>
      </trkpt>
      <trkpt lat="48.50851" lon="5.7195">
        <ele>270.013</ele>
        <time>2019-09-23T11:23:12.000Z</time>
      </trkpt>
      <trkpt lat="48.50836" lon="5.71949">
        <ele>270.268</ele>
        <time>2019-09-23T11:23:15.000Z</time>
      </trkpt>
      <trkpt lat="48.50821" lon="5.71947">
        <ele>270.397</ele>
        <time>2019-09-23T11:23:18.000Z</time>
      </trkpt>
      <trkpt lat="48.50805" lon="5.71945">
        <ele>270.185</ele>
        <time>2019-09-23T11:23:21.000Z</time>
      </trkpt>
      <trkpt lat="48.50789" lon="5.71942">
        <ele>270.281</ele>
        <time>2019-09-23T11:23:24.000Z</time>
      </trkpt>
      <trkpt lat="48.50773" lon="5.7194">
        <ele>270.659</ele>
        <time>2019-09-23T11:23:27.000Z</time>
      </trkpt>
      <trkpt lat="48.50757" lon="5.71938">
        <ele>271.087</ele>
        <time>2019-09-23T11:23:30.000Z</time>
      </trkpt>
      <trkpt lat="48.50743" lon="5.71936">
        <ele>271.671</ele>
        <time>2019-09-23T11:23:33.000Z</time>
      </trkpt>
      <trkpt lat="48.5073" lon="5.71934">
        <ele>272.053</ele>
        <time>2019-09-23T11:23:36.000Z</time>
      </trkpt>
      <trkpt lat="48.50718" lon="5.71933">
        <ele>271.972</ele>
        <time>2019-09-23T11:23:39.000Z</time>
      </trkpt>
      <trkpt lat="48.50706" lon="5.71932">
        <ele>272.291</ele>
        <time>2019-09-23T11:23:42.000Z</time>
      </trkpt>
      <trkpt lat="48.50692" lon="5.71931">
        <ele>272.87</ele>
        <time>2019-09-23T11:23:45.000Z</time>
      </trkpt>
      <trkpt lat="48.50677" lon="5.7193">
        <ele>272.589</ele>
        <time>2019-09-23T11:23:48.000Z</time>
      </trkpt>
      <trkpt lat="48.50662" lon="5.71929">
        <ele>272.633</ele>
        <time>2019-09-23T11:23:51.000Z</time>
      </trkpt>
      <trkpt lat="48.50648" lon="5.71928">
        <ele>272.737</ele>
        <time>2019-09-23T11:23:54.000Z</time>
      </trkpt>
      <trkpt lat="48.50634" lon="5.71928">
        <ele>272.625</ele>
        <time>2019-09-23T11:23:57.000Z</time>
      </trkpt>
      <trkpt lat="48.50621" lon="5.71926">
        <ele>272.343</ele>
        <time>2019-09-23T11:24:00.000Z</time>
      </trkpt>
      <trkpt lat="48.50606" lon="5.71924">
        <ele>272.356</ele>
        <time>2019-09-23T11:24:03.000Z</time>
      </trkpt>
      <trkpt lat="48.50592" lon="5.71921">
        <ele>272.33</ele>
        <time>2019-09-23T11:24:06.000Z</time>
      </trkpt>
      <trkpt lat="48.50578" lon="5.71916">
        <ele>272.293</ele>
        <time>2019-09-23T11:24:09.000Z</time>
      </trkpt>
      <trkpt lat="48.50563" lon="5.71911">
        <ele>271.945</ele>
        <time>2019-09-23T11:24:12.000Z</time>
      </trkpt>
      <trkpt lat="48.50548" lon="5.71907">
        <ele>271.092</ele>
        <time>2019-09-23T11:24:15.000Z</time>
      </trkpt>
      <trkpt lat="48.50533" lon="5.71904">
        <ele>270.201</ele>
        <time>2019-09-23T11:24:18.000Z</time>
      </trkpt>
      <trkpt lat="48.50517" lon="5.719">
        <ele>269.688</ele>
        <time>2019-09-23T11:24:21.000Z</time>
      </trkpt>
      <trkpt lat="48.50501" lon="5.71897">
        <ele>269.404</ele>
        <time>2019-09-23T11:24:24.000Z</time>
      </trkpt>
      <trkpt lat="48.50486" lon="5.71894">
        <ele>269.326</ele>
        <time>2019-09-23T11:24:27.000Z</time>
      </trkpt>
      <trkpt lat="48.5047" lon="5.71892">
        <ele>269.516</ele>
        <time>2019-09-23T11:24:30.000Z</time>
      </trkpt>
      <trkpt lat="48.50455" lon="5.71891">
        <ele>269.734</ele>
        <time>2019-09-23T11:24:33.000Z</time>
      </trkpt>
      <trkpt lat="48.5044" lon="5.71889">
        <ele>269.619</ele>
        <time>2019-09-23T11:24:36.000Z</time>
      </trkpt>
      <trkpt lat="48.50423" lon="5.71887">
        <ele>268.893</ele>
        <time>2019-09-23T11:24:39.000Z</time>
      </trkpt>
      <trkpt lat="48.50405" lon="5.71883">
        <ele>268.146</ele>
        <time>2019-09-23T11:24:42.000Z</time>
      </trkpt>
      <trkpt lat="48.50387" lon="5.7188">
        <ele>268.563</ele>
        <time>2019-09-23T11:24:45.000Z</time>
      </trkpt>
      <trkpt lat="48.5037" lon="5.71878">
        <ele>268.639</ele>
        <time>2019-09-23T11:24:48.000Z</time>
      </trkpt>
      <trkpt lat="48.50355" lon="5.71877">
        <ele>268.648</ele>
        <time>2019-09-23T11:24:51.000Z</time>
      </trkpt>
      <trkpt lat="48.50341" lon="5.71876">
        <ele>268.18</ele>
        <time>2019-09-23T11:24:54.000Z</time>
      </trkpt>
      <trkpt lat="48.50326" lon="5.71876">
        <ele>268.259</ele>
        <time>2019-09-23T11:24:57.001Z</time>
      </trkpt>
      <trkpt lat="48.50313" lon="5.71876">
        <ele>268.422</ele>
        <time>2019-09-23T11:25:00.000Z</time>
      </trkpt>
      <trkpt lat="48.503" lon="5.71874">
        <ele>269.541</ele>
        <time>2019-09-23T11:25:03.000Z</time>
      </trkpt>
      <trkpt lat="48.50286" lon="5.71873">
        <ele>269.953</ele>
        <time>2019-09-23T11:25:06.000Z</time>
      </trkpt>
      <trkpt lat="48.50273" lon="5.71868">
        <ele>270.192</ele>
        <time>2019-09-23T11:25:09.000Z</time>
      </trkpt>
      <trkpt lat="48.50258" lon="5.71864">
        <ele>270.324</ele>
        <time>2019-09-23T11:25:12.000Z</time>
      </trkpt>
      <trkpt lat="48.50245" lon="5.71857">
        <ele>270.423</ele>
        <time>2019-09-23T11:25:15.000Z</time>
      </trkpt>
      <trkpt lat="48.50231" lon="5.71851">
        <ele>270.912</ele>
        <time>2019-09-23T11:25:18.000Z</time>
      </trkpt>
      <trkpt lat="48.50216" lon="5.71844">
        <ele>271.187</ele>
        <time>2019-09-23T11:25:21.000Z</time>
      </trkpt>
      <trkpt lat="48.50202" lon="5.71838">
        <ele>271.791</ele>
        <time>2019-09-23T11:25:24.000Z</time>
      </trkpt>
      <trkpt lat="48.50188" lon="5.71831">
        <ele>271.594</ele>
        <time>2019-09-23T11:25:27.000Z</time>
      </trkpt>
      <trkpt lat="48.50172" lon="5.71824">
        <ele>271.639</ele>
        <time>2019-09-23T11:25:30.000Z</time>
      </trkpt>
      <trkpt lat="48.50157" lon="5.71813">
        <ele>271.452</ele>
        <time>2019-09-23T11:25:33.000Z</time>
      </trkpt>
      <trkpt lat="48.50143" lon="5.71799">
        <ele>271.168</ele>
        <time>2019-09-23T11:25:36.000Z</time>
      </trkpt>
      <trkpt lat="48.50128" lon="5.71781">
        <ele>271.12</ele>
        <time>2019-09-23T11:25:39.000Z</time>
      </trkpt>
      <trkpt lat="48.50113" lon="5.71761">
        <ele>270.927</ele>
        <time>2019-09-23T11:25:42.000Z</time>
      </trkpt>
      <trkpt lat="48.50097" lon="5.7174">
        <ele>271.656</ele>
        <time>2019-09-23T11:25:45.000Z</time>
      </trkpt>
      <trkpt lat="48.50078" lon="5.71723">
        <ele>273.247</ele>
        <time>2019-09-23T11:25:48.000Z</time>
      </trkpt>
      <trkpt lat="48.5006" lon="5.71708">
        <ele>273.979</ele>
        <time>2019-09-23T11:25:51.000Z</time>
      </trkpt>
      <trkpt lat="48.50041" lon="5.71694">
        <ele>274.721</ele>
        <time>2019-09-23T11:25:54.000Z</time>
      </trkpt>
      <trkpt lat="48.50024" lon="5.71679">
        <ele>275.978</ele>
        <time>2019-09-23T11:25:57.000Z</time>
      </trkpt>
      <trkpt lat="48.50006" lon="5.71664">
        <ele>276.87</ele>
        <time>2019-09-23T11:26:00.000Z</time>
      </trkpt>
      <trkpt lat="48.49989" lon="5.71648">
        <ele>277.567</ele>
        <time>2019-09-23T11:26:03.000Z</time>
      </trkpt>
      <trkpt lat="48.49975" lon="5.71632">
        <ele>276.704</ele>
        <time>2019-09-23T11:26:06.000Z</time>
      </trkpt>
      <trkpt lat="48.49962" lon="5.71619">
        <ele>276.164</ele>
        <time>2019-09-23T11:26:09.000Z</time>
      </trkpt>
      <trkpt lat="48.4995" lon="5.71608">
        <ele>275.952</ele>
        <time>2019-09-23T11:26:12.000Z</time>
      </trkpt>
      <trkpt lat="48.49936" lon="5.71601">
        <ele>276.291</ele>
        <time>2019-09-23T11:26:15.000Z</time>
      </trkpt>
      <trkpt lat="48.49923" lon="5.71597">
        <ele>275.863</ele>
        <time>2019-09-23T11:26:18.000Z</time>
      </trkpt>
      <trkpt lat="48.49911" lon="5.71596">
        <ele>274.367</ele>
        <time>2019-09-23T11:26:21.000Z</time>
      </trkpt>
      <trkpt lat="48.49898" lon="5.71596">
        <ele>273.484</ele>
        <time>2019-09-23T11:26:24.000Z</time>
      </trkpt>
      <trkpt lat="48.49886" lon="5.71596">
        <ele>273.205</ele>
        <time>2019-09-23T11:26:27.000Z</time>
      </trkpt>
      <trkpt lat="48.49876" lon="5.71592">
        <ele>272.714</ele>
        <time>2019-09-23T11:26:30.000Z</time>
      </trkpt>
      <trkpt lat="48.49866" lon="5.71586">
        <ele>273.043</ele>
        <time>2019-09-23T11:26:33.000Z</time>
      </trkpt>
      <trkpt lat="48.49853" lon="5.71578">
        <ele>274.044</ele>
        <time>2019-09-23T11:26:36.000Z</time>
      </trkpt>
      <trkpt lat="48.4984" lon="5.71567">
        <ele>275.044</ele>
        <time>2019-09-23T11:26:39.000Z</time>
      </trkpt>
      <trkpt lat="48.49827" lon="5.71555">
        <ele>276.108</ele>
        <time>2019-09-23T11:26:42.000Z</time>
      </trkpt>
      <trkpt lat="48.49812" lon="5.71546">
        <ele>276.313</ele>
        <time>2019-09-23T11:26:45.000Z</time>
      </trkpt>
      <trkpt lat="48.49797" lon="5.7154">
        <ele>275.754</ele>
        <time>2019-09-23T11:26:48.000Z</time>
      </trkpt>
      <trkpt lat="48.49783" lon="5.71539">
        <ele>274.597</ele>
        <time>2019-09-23T11:26:51.000Z</time>
      </trkpt>
      <trkpt lat="48.49769" lon="5.71539">
        <ele>274.041</ele>
        <time>2019-09-23T11:26:54.000Z</time>
      </trkpt>
      <trkpt lat="48.49757" lon="5.7154">
        <ele>273.451</ele>
        <time>2019-09-23T11:26:57.000Z</time>
      </trkpt>
      <trkpt lat="48.49744" lon="5.71541">
        <ele>273.005</ele>
        <time>2019-09-23T11:27:00.000Z</time>
      </trkpt>
      <trkpt lat="48.4973" lon="5.71544">
        <ele>272.488</ele>
        <time>2019-09-23T11:27:03.000Z</time>
      </trkpt>
      <trkpt lat="48.49715" lon="5.7155">
        <ele>271.829</ele>
        <time>2019-09-23T11:27:06.000Z</time>
      </trkpt>
      <trkpt lat="48.49699" lon="5.71557">
        <ele>270.876</ele>
        <time>2019-09-23T11:27:09.000Z</time>
      </trkpt>
      <trkpt lat="48.49683" lon="5.71563">
        <ele>269.103</ele>
        <time>2019-09-23T11:27:12.000Z</time>
      </trkpt>
      <trkpt lat="48.49669" lon="5.71574">
        <ele>268.343</ele>
        <time>2019-09-23T11:27:15.000Z</time>
      </trkpt>
      <trkpt lat="48.49656" lon="5.71585">
        <ele>267.76</ele>
        <time>2019-09-23T11:27:18.000Z</time>
      </trkpt>
      <trkpt lat="48.49643" lon="5.71595">
        <ele>267.997</ele>
        <time>2019-09-23T11:27:21.000Z</time>
      </trkpt>
      <trkpt lat="48.49629" lon="5.71602">
        <ele>268.479</ele>
        <time>2019-09-23T11:27:24.000Z</time>
      </trkpt>
      <trkpt lat="48.49614" lon="5.71606">
        <ele>269.064</ele>
        <time>2019-09-23T11:27:27.000Z</time>
      </trkpt>
      <trkpt lat="48.49598" lon="5.71608">
        <ele>269.28</ele>
        <time>2019-09-23T11:27:30.000Z</time>
      </trkpt>
      <trkpt lat="48.49582" lon="5.71608">
        <ele>269.46</ele>
        <time>2019-09-23T11:27:33.000Z</time>
      </trkpt>
      <trkpt lat="48.49568" lon="5.7161">
        <ele>269.924</ele>
        <time>2019-09-23T11:27:36.000Z</time>
      </trkpt>
      <trkpt lat="48.49553" lon="5.71617">
        <ele>269.686</ele>
        <time>2019-09-23T11:27:39.000Z</time>
      </trkpt>
      <trkpt lat="48.49542" lon="5.71634">
        <ele>268.62</ele>
        <time>2019-09-23T11:27:42.000Z</time>
      </trkpt>
      <trkpt lat="48.49536" lon="5.71655">
        <ele>267.76</ele>
        <time>2019-09-23T11:27:45.000Z</time>
      </trkpt>
      <trkpt lat="48.4953" lon="5.71675">
        <ele>267.068</ele>
        <time>2019-09-23T11:27:48.000Z</time>
      </trkpt>
      <trkpt lat="48.49524" lon="5.71694">
        <ele>266.038</ele>
        <time>2019-09-23T11:27:51.000Z</time>
      </trkpt>
      <trkpt lat="48.49516" lon="5.71711">
        <ele>265.444</ele>
        <time>2019-09-23T11:27:54.000Z</time>
      </trkpt>
      <trkpt lat="48.49506" lon="5.71725">
        <ele>265.099</ele>
        <time>2019-09-23T11:27:57.000Z</time>
      </trkpt>
      <trkpt lat="48.49492" lon="5.71736">
        <ele>264.775</ele>
        <time>2019-09-23T11:28:00.000Z</time>
      </trkpt>
      <trkpt lat="48.49478" lon="5.71742">
        <ele>263.454</ele>
        <time>2019-09-23T11:28:03.000Z</time>
      </trkpt>
      <trkpt lat="48.49465" lon="5.71743">
        <ele>262.659</ele>
        <time>2019-09-23T11:28:06.000Z</time>
      </trkpt>
      <trkpt lat="48.49453" lon="5.71744">
        <ele>261.814</ele>
        <time>2019-09-23T11:28:09.000Z</time>
      </trkpt>
      <trkpt lat="48.4944" lon="5.71745">
        <ele>261.253</ele>
        <time>2019-09-23T11:28:12.000Z</time>
      </trkpt>
      <trkpt lat="48.49426" lon="5.71746">
        <ele>260.632</ele>
        <time>2019-09-23T11:28:15.000Z</time>
      </trkpt>
      <trkpt lat="48.49414" lon="5.71747">
        <ele>260.592</ele>
        <time>2019-09-23T11:28:18.000Z</time>
      </trkpt>
      <trkpt lat="48.49401" lon="5.71746">
        <ele>260.93</ele>
        <time>2019-09-23T11:28:21.000Z</time>
      </trkpt>
      <trkpt lat="48.49388" lon="5.71746">
        <ele>261.356</ele>
        <time>2019-09-23T11:28:24.000Z</time>
      </trkpt>
      <trkpt lat="48.49375" lon="5.71747">
        <ele>261.116</ele>
        <time>2019-09-23T11:28:27.000Z</time>
      </trkpt>
      <trkpt lat="48.49362" lon="5.71748">
        <ele>261.29</ele>
        <time>2019-09-23T11:28:30.000Z</time>
      </trkpt>
      <trkpt lat="48.4935" lon="5.71748">
        <ele>261.348</ele>
        <time>2019-09-23T11:28:33.000Z</time>
      </trkpt>
      <trkpt lat="48.49337" lon="5.71747">
        <ele>261.111</ele>
        <time>2019-09-23T11:28:36.000Z</time>
      </trkpt>
      <trkpt lat="48.49321" lon="5.71745">
        <ele>261.379</ele>
        <time>2019-09-23T11:28:39.000Z</time>
      </trkpt>
      <trkpt lat="48.49305" lon="5.71744">
        <ele>261.729</ele>
        <time>2019-09-23T11:28:42.000Z</time>
      </trkpt>
      <trkpt lat="48.4929" lon="5.71743">
        <ele>262.011</ele>
        <time>2019-09-23T11:28:45.000Z</time>
      </trkpt>
      <trkpt lat="48.49275" lon="5.71743">
        <ele>262.044</ele>
        <time>2019-09-23T11:28:48.000Z</time>
      </trkpt>
      <trkpt lat="48.49261" lon="5.71742">
        <ele>261.686</ele>
        <time>2019-09-23T11:28:51.000Z</time>
      </trkpt>
      <trkpt lat="48.49248" lon="5.71741">
        <ele>261.996</ele>
        <time>2019-09-23T11:28:54.000Z</time>
      </trkpt>
      <trkpt lat="48.49236" lon="5.7174">
        <ele>261.903</ele>
        <time>2019-09-23T11:28:57.000Z</time>
      </trkpt>
      <trkpt lat="48.49224" lon="5.71738">
        <ele>262.052</ele>
        <time>2019-09-23T11:29:00.000Z</time>
      </trkpt>
      <trkpt lat="48.4921" lon="5.71736">
        <ele>261.881</ele>
        <time>2019-09-23T11:29:03.000Z</time>
      </trkpt>
      <trkpt lat="48.49195" lon="5.71732">
        <ele>261.864</ele>
        <time>2019-09-23T11:29:06.000Z</time>
      </trkpt>
      <trkpt lat="48.49182" lon="5.71728">
        <ele>261.975</ele>
        <time>2019-09-23T11:29:09.000Z</time>
      </trkpt>
      <trkpt lat="48.49168" lon="5.71724">
        <ele>262.121</ele>
        <time>2019-09-23T11:29:12.000Z</time>
      </trkpt>
      <trkpt lat="48.49154" lon="5.71718">
        <ele>261.975</ele>
        <time>2019-09-23T11:29:15.000Z</time>
      </trkpt>
      <trkpt lat="48.4914" lon="5.71712">
        <ele>261.775</ele>
        <time>2019-09-23T11:29:18.000Z</time>
      </trkpt>
      <trkpt lat="48.49127" lon="5.71706">
        <ele>261.563</ele>
        <time>2019-09-23T11:29:21.000Z</time>
      </trkpt>
      <trkpt lat="48.49114" lon="5.71699">
        <ele>261.362</ele>
        <time>2019-09-23T11:29:24.000Z</time>
      </trkpt>
      <trkpt lat="48.49102" lon="5.71692">
        <ele>261.844</ele>
        <time>2019-09-23T11:29:27.000Z</time>
      </trkpt>
      <trkpt lat="48.49089" lon="5.71685">
        <ele>262.273</ele>
        <time>2019-09-23T11:29:30.000Z</time>
      </trkpt>
      <trkpt lat="48.49078" lon="5.71678">
        <ele>262.469</ele>
        <time>2019-09-23T11:29:33.000Z</time>
      </trkpt>
      <trkpt lat="48.49066" lon="5.7167">
        <ele>262.686</ele>
        <time>2019-09-23T11:29:36.000Z</time>
      </trkpt>
      <trkpt lat="48.49054" lon="5.71662">
        <ele>262.342</ele>
        <time>2019-09-23T11:29:39.000Z</time>
      </trkpt>
      <trkpt lat="48.49043" lon="5.71656">
        <ele>261.976</ele>
        <time>2019-09-23T11:29:42.000Z</time>
      </trkpt>
      <trkpt lat="48.49031" lon="5.7165">
        <ele>262.126</ele>
        <time>2019-09-23T11:29:45.000Z</time>
      </trkpt>
      <trkpt lat="48.4902" lon="5.71643">
        <ele>262.165</ele>
        <time>2019-09-23T11:29:48.000Z</time>
      </trkpt>
      <trkpt lat="48.49008" lon="5.71637">
        <ele>262.363</ele>
        <time>2019-09-23T11:29:51.000Z</time>
      </trkpt>
      <trkpt lat="48.48996" lon="5.7163">
        <ele>262.736</ele>
        <time>2019-09-23T11:29:54.000Z</time>
      </trkpt>
      <trkpt lat="48.48984" lon="5.71624">
        <ele>263.523</ele>
        <time>2019-09-23T11:29:57.000Z</time>
      </trkpt>
      <trkpt lat="48.48971" lon="5.71618">
        <ele>263.998</ele>
        <time>2019-09-23T11:30:00.000Z</time>
      </trkpt>
      <trkpt lat="48.48959" lon="5.71612">
        <ele>264.767</ele>
        <time>2019-09-23T11:30:03.000Z</time>
      </trkpt>
      <trkpt lat="48.48948" lon="5.71606">
        <ele>265.128</ele>
        <time>2019-09-23T11:30:06.000Z</time>
      </trkpt>
      <trkpt lat="48.48937" lon="5.71599">
        <ele>265.212</ele>
        <time>2019-09-23T11:30:09.000Z</time>
      </trkpt>
      <trkpt lat="48.48925" lon="5.71592">
        <ele>264.893</ele>
        <time>2019-09-23T11:30:12.000Z</time>
      </trkpt>
      <trkpt lat="48.48913" lon="5.71585">
        <ele>264.575</ele>
        <time>2019-09-23T11:30:15.000Z</time>
      </trkpt>
      <trkpt lat="48.48901" lon="5.7158">
        <ele>264.085</ele>
        <time>2019-09-23T11:30:18.000Z</time>
      </trkpt>
      <trkpt lat="48.48889" lon="5.71574">
        <ele>263.997</ele>
        <time>2019-09-23T11:30:21.000Z</time>
      </trkpt>
      <trkpt lat="48.48875" lon="5.71569">
        <ele>263.64</ele>
        <time>2019-09-23T11:30:24.000Z</time>
      </trkpt>
      <trkpt lat="48.48862" lon="5.71563">
        <ele>263.242</ele>
        <time>2019-09-23T11:30:27.000Z</time>
      </trkpt>
      <trkpt lat="48.48849" lon="5.71557">
        <ele>262.555</ele>
        <time>2019-09-23T11:30:30.000Z</time>
      </trkpt>
      <trkpt lat="48.48835" lon="5.71551">
        <ele>262.148</ele>
        <time>2019-09-23T11:30:33.000Z</time>
      </trkpt>
      <trkpt lat="48.48821" lon="5.71545">
        <ele>262.279</ele>
        <time>2019-09-23T11:30:36.000Z</time>
      </trkpt>
      <trkpt lat="48.48808" lon="5.71539">
        <ele>262.307</ele>
        <time>2019-09-23T11:30:39.000Z</time>
      </trkpt>
      <trkpt lat="48.48796" lon="5.71534">
        <ele>262.638</ele>
        <time>2019-09-23T11:30:42.000Z</time>
      </trkpt>
      <trkpt lat="48.48782" lon="5.7153">
        <ele>262.651</ele>
        <time>2019-09-23T11:30:45.000Z</time>
      </trkpt>
      <trkpt lat="48.48769" lon="5.71526">
        <ele>262.427</ele>
        <time>2019-09-23T11:30:48.000Z</time>
      </trkpt>
      <trkpt lat="48.48755" lon="5.71523">
        <ele>262.475</ele>
        <time>2019-09-23T11:30:51.000Z</time>
      </trkpt>
      <trkpt lat="48.48742" lon="5.71521">
        <ele>262.383</ele>
        <time>2019-09-23T11:30:54.000Z</time>
      </trkpt>
      <trkpt lat="48.48728" lon="5.71519">
        <ele>262.495</ele>
        <time>2019-09-23T11:30:57.000Z</time>
      </trkpt>
      <trkpt lat="48.48715" lon="5.71517">
        <ele>262.287</ele>
        <time>2019-09-23T11:31:00.000Z</time>
      </trkpt>
      <trkpt lat="48.48701" lon="5.71516">
        <ele>261.77</ele>
        <time>2019-09-23T11:31:03.000Z</time>
      </trkpt>
      <trkpt lat="48.48688" lon="5.71515">
        <ele>261.192</ele>
        <time>2019-09-23T11:31:06.000Z</time>
      </trkpt>
      <trkpt lat="48.48674" lon="5.71512">
        <ele>260.735</ele>
        <time>2019-09-23T11:31:09.000Z</time>
      </trkpt>
      <trkpt lat="48.4866" lon="5.7151">
        <ele>260.579</ele>
        <time>2019-09-23T11:31:12.000Z</time>
      </trkpt>
      <trkpt lat="48.48647" lon="5.71508">
        <ele>260.704</ele>
        <time>2019-09-23T11:31:15.000Z</time>
      </trkpt>
      <trkpt lat="48.48635" lon="5.71506">
        <ele>260.508</ele>
        <time>2019-09-23T11:31:18.000Z</time>
      </trkpt>
      <trkpt lat="48.48622" lon="5.71505">
        <ele>260.54</ele>
        <time>2019-09-23T11:31:21.000Z</time>
      </trkpt>
      <trkpt lat="48.4861" lon="5.71503">
        <ele>260.719</ele>
        <time>2019-09-23T11:31:24.000Z</time>
      </trkpt>
      <trkpt lat="48.48599" lon="5.71502">
        <ele>260.768</ele>
        <time>2019-09-23T11:31:27.000Z</time>
      </trkpt>
      <trkpt lat="48.48588" lon="5.71502">
        <ele>260.85</ele>
        <time>2019-09-23T11:31:30.000Z</time>
      </trkpt>
      <trkpt lat="48.48576" lon="5.71499">
        <ele>260.825</ele>
        <time>2019-09-23T11:31:33.000Z</time>
      </trkpt>
      <trkpt lat="48.48565" lon="5.71495">
        <ele>260.879</ele>
        <time>2019-09-23T11:31:36.000Z</time>
      </trkpt>
      <trkpt lat="48.48554" lon="5.71489">
        <ele>261.441</ele>
        <time>2019-09-23T11:31:39.000Z</time>
      </trkpt>
      <trkpt lat="48.48544" lon="5.71482">
        <ele>261.867</ele>
        <time>2019-09-23T11:31:42.000Z</time>
      </trkpt>
      <trkpt lat="48.48534" lon="5.71473">
        <ele>262.226</ele>
        <time>2019-09-23T11:31:45.000Z</time>
      </trkpt>
      <trkpt lat="48.48525" lon="5.71465">
        <ele>262.394</ele>
        <time>2019-09-23T11:31:48.000Z</time>
      </trkpt>
      <trkpt lat="48.48516" lon="5.71457">
        <ele>262.532</ele>
        <time>2019-09-23T11:31:51.000Z</time>
      </trkpt>
      <trkpt lat="48.48507" lon="5.71446">
        <ele>263.232</ele>
        <time>2019-09-23T11:31:54.000Z</time>
      </trkpt>
      <trkpt lat="48.48497" lon="5.71436">
        <ele>263.47</ele>
        <time>2019-09-23T11:31:57.000Z</time>
      </trkpt>
      <trkpt lat="48.48488" lon="5.71426">
        <ele>263.53</ele>
        <time>2019-09-23T11:32:00.000Z</time>
      </trkpt>
      <trkpt lat="48.48479" lon="5.71416">
        <ele>263.75</ele>
        <time>2019-09-23T11:32:03.000Z</time>
      </trkpt>
      <trkpt lat="48.48471" lon="5.71406">
        <ele>263.681</ele>
        <time>2019-09-23T11:32:06.000Z</time>
      </trkpt>
      <trkpt lat="48.48462" lon="5.71395">
        <ele>263.926</ele>
        <time>2019-09-23T11:32:09.000Z</time>
      </trkpt>
      <trkpt lat="48.48453" lon="5.71385">
        <ele>264.327</ele>
        <time>2019-09-23T11:32:12.000Z</time>
      </trkpt>
      <trkpt lat="48.48444" lon="5.71377">
        <ele>264.431</ele>
        <time>2019-09-23T11:32:15.000Z</time>
      </trkpt>
      <trkpt lat="48.48434" lon="5.71368">
        <ele>265.224</ele>
        <time>2019-09-23T11:32:18.000Z</time>
      </trkpt>
      <trkpt lat="48.48424" lon="5.7136">
        <ele>265.705</ele>
        <time>2019-09-23T11:32:21.000Z</time>
      </trkpt>
      <trkpt lat="48.48414" lon="5.71351">
        <ele>265.791</ele>
        <time>2019-09-23T11:32:24.000Z</time>
      </trkpt>
      <trkpt lat="48.48404" lon="5.71343">
        <ele>265.666</ele>
        <time>2019-09-23T11:32:27.000Z</time>
      </trkpt>
      <trkpt lat="48.48395" lon="5.71336">
        <ele>265.169</ele>
        <time>2019-09-23T11:32:30.000Z</time>
      </trkpt>
      <trkpt lat="48.48386" lon="5.71329">
        <ele>265.378</ele>
        <time>2019-09-23T11:32:33.000Z</time>
      </trkpt>
      <trkpt lat="48.48378" lon="5.71322">
        <ele>265.869</ele>
        <time>2019-09-23T11:32:36.000Z</time>
      </trkpt>
      <trkpt lat="48.4837" lon="5.71315">
        <ele>266.408</ele>
        <time>2019-09-23T11:32:39.000Z</time>
      </trkpt>
      <trkpt lat="48.48363" lon="5.71309">
        <ele>266.795</ele>
        <time>2019-09-23T11:32:42.000Z</time>
      </trkpt>
      <trkpt lat="48.48355" lon="5.71302">
        <ele>267.313</ele>
        <time>2019-09-23T11:32:45.000Z</time>
      </trkpt>
      <trkpt lat="48.48346" lon="5.71295">
        <ele>267.855</ele>
        <time>2019-09-23T11:32:48.000Z</time>
      </trkpt>
      <trkpt lat="48.48338" lon="5.71289">
        <ele>268.597</ele>
        <time>2019-09-23T11:32:51.000Z</time>
      </trkpt>
      <trkpt lat="48.48329" lon="5.71283">
        <ele>268.387</ele>
        <time>2019-09-23T11:32:54.000Z</time>
      </trkpt>
      <trkpt lat="48.4832" lon="5.71276">
        <ele>268.768</ele>
        <time>2019-09-23T11:32:57.000Z</time>
      </trkpt>
      <trkpt lat="48.48311" lon="5.71269">
        <ele>269.414</ele>
        <time>2019-09-23T11:33:00.000Z</time>
      </trkpt>
      <trkpt lat="48.48303" lon="5.71264">
        <ele>269.877</ele>
        <time>2019-09-23T11:33:03.000Z</time>
      </trkpt>
      <trkpt lat="48.48295" lon="5.71257">
        <ele>270.433</ele>
        <time>2019-09-23T11:33:06.000Z</time>
      </trkpt>
      <trkpt lat="48.48288" lon="5.7125">
        <ele>270.871</ele>
        <time>2019-09-23T11:33:09.000Z</time>
      </trkpt>
      <trkpt lat="48.48281" lon="5.71245">
        <ele>270.66</ele>
        <time>2019-09-23T11:33:12.000Z</time>
      </trkpt>
      <trkpt lat="48.48273" lon="5.71239">
        <ele>270.569</ele>
        <time>2019-09-23T11:33:15.000Z</time>
      </trkpt>
      <trkpt lat="48.48265" lon="5.71233">
        <ele>270.684</ele>
        <time>2019-09-23T11:33:18.000Z</time>
      </trkpt>
      <trkpt lat="48.48258" lon="5.71226">
        <ele>270.917</ele>
        <time>2019-09-23T11:33:21.000Z</time>
      </trkpt>
      <trkpt lat="48.4825" lon="5.71221">
        <ele>271.284</ele>
        <time>2019-09-23T11:33:24.000Z</time>
      </trkpt>
      <trkpt lat="48.48242" lon="5.71216">
        <ele>271.05</ele>
        <time>2019-09-23T11:33:27.000Z</time>
      </trkpt>
      <trkpt lat="48.48234" lon="5.71211">
        <ele>271.136</ele>
        <time>2019-09-23T11:33:30.000Z</time>
      </trkpt>
      <trkpt lat="48.48226" lon="5.71206">
        <ele>271.528</ele>
        <time>2019-09-23T11:33:33.000Z</time>
      </trkpt>
      <trkpt lat="48.48217" lon="5.712">
        <ele>271.708</ele>
        <time>2019-09-23T11:33:36.000Z</time>
      </trkpt>
      <trkpt lat="48.48208" lon="5.71196">
        <ele>271.607</ele>
        <time>2019-09-23T11:33:39.000Z</time>
      </trkpt>
      <trkpt lat="48.482" lon="5.71191">
        <ele>271.58</ele>
        <time>2019-09-23T11:33:42.000Z</time>
      </trkpt>
      <trkpt lat="48.4819" lon="5.71185">
        <ele>271.295</ele>
        <time>2019-09-23T11:33:45.000Z</time>
      </trkpt>
      <trkpt lat="48.4818" lon="5.7118">
        <ele>271.144</ele>
        <time>2019-09-23T11:33:48.000Z</time>
      </trkpt>
      <trkpt lat="48.4817" lon="5.71175">
        <ele>270.61</ele>
        <time>2019-09-23T11:33:51.000Z</time>
      </trkpt>
      <trkpt lat="48.4816" lon="5.71172">
        <ele>270.551</ele>
        <time>2019-09-23T11:33:54.000Z</time>
      </trkpt>
      <trkpt lat="48.48149" lon="5.71168">
        <ele>270.664</ele>
        <time>2019-09-23T11:33:57.000Z</time>
      </trkpt>
      <trkpt lat="48.48139" lon="5.71165">
        <ele>270.757</ele>
        <time>2019-09-23T11:34:00.000Z</time>
      </trkpt>
      <trkpt lat="48.48128" lon="5.71163">
        <ele>271.373</ele>
        <time>2019-09-23T11:34:03.000Z</time>
      </trkpt>
      <trkpt lat="48.48118" lon="5.71162">
        <ele>271.36</ele>
        <time>2019-09-23T11:34:06.000Z</time>
      </trkpt>
      <trkpt lat="48.48106" lon="5.71162">
        <ele>271.491</ele>
        <time>2019-09-23T11:34:09.000Z</time>
      </trkpt>
      <trkpt lat="48.48096" lon="5.71165">
        <ele>271.395</ele>
        <time>2019-09-23T11:34:12.000Z</time>
      </trkpt>
      <trkpt lat="48.48087" lon="5.7117">
        <ele>271.936</ele>
        <time>2019-09-23T11:34:15.000Z</time>
      </trkpt>
      <trkpt lat="48.48078" lon="5.71178">
        <ele>272.404</ele>
        <time>2019-09-23T11:34:18.000Z</time>
      </trkpt>
      <trkpt lat="48.48072" lon="5.71188">
        <ele>272.643</ele>
        <time>2019-09-23T11:34:21.000Z</time>
      </trkpt>
      <trkpt lat="48.48066" lon="5.712">
        <ele>273.275</ele>
        <time>2019-09-23T11:34:24.000Z</time>
      </trkpt>
      <trkpt lat="48.48061" lon="5.71211">
        <ele>273.919</ele>
        <time>2019-09-23T11:34:27.000Z</time>
      </trkpt>
      <trkpt lat="48.48056" lon="5.71223">
        <ele>274.104</ele>
        <time>2019-09-23T11:34:30.000Z</time>
      </trkpt>
      <trkpt lat="48.48051" lon="5.71236">
        <ele>274.582</ele>
        <time>2019-09-23T11:34:33.000Z</time>
      </trkpt>
      <trkpt lat="48.48046" lon="5.7125">
        <ele>274.907</ele>
        <time>2019-09-23T11:34:36.000Z</time>
      </trkpt>
      <trkpt lat="48.48042" lon="5.71264">
        <ele>274.763</ele>
        <time>2019-09-23T11:34:39.000Z</time>
      </trkpt>
      <trkpt lat="48.48039" lon="5.71278">
        <ele>274.635</ele>
        <time>2019-09-23T11:34:42.000Z</time>
      </trkpt>
      <trkpt lat="48.48036" lon="5.7129">
        <ele>274.344</ele>
        <time>2019-09-23T11:34:45.000Z</time>
      </trkpt>
      <trkpt lat="48.48032" lon="5.71304">
        <ele>274.16</ele>
        <time>2019-09-23T11:34:48.000Z</time>
      </trkpt>
      <trkpt lat="48.48028" lon="5.71315">
        <ele>273.647</ele>
        <time>2019-09-23T11:34:51.000Z</time>
      </trkpt>
      <trkpt lat="48.48023" lon="5.71326">
        <ele>273.875</ele>
        <time>2019-09-23T11:34:54.000Z</time>
      </trkpt>
      <trkpt lat="48.48019" lon="5.71338">
        <ele>273.81</ele>
        <time>2019-09-23T11:34:57.000Z</time>
      </trkpt>
      <trkpt lat="48.48014" lon="5.71348">
        <ele>274.007</ele>
        <time>2019-09-23T11:35:00.000Z</time>
      </trkpt>
      <trkpt lat="48.4801" lon="5.71359">
        <ele>274.858</ele>
        <time>2019-09-23T11:35:03.000Z</time>
      </trkpt>
      <trkpt lat="48.48005" lon="5.71369">
        <ele>275.484</ele>
        <time>2019-09-23T11:35:06.000Z</time>
      </trkpt>
      <trkpt lat="48.48" lon="5.71381">
        <ele>276.1</ele>
        <time>2019-09-23T11:35:09.000Z</time>
      </trkpt>
      <trkpt lat="48.47996" lon="5.71392">
        <ele>276.084</ele>
        <time>2019-09-23T11:35:12.000Z</time>
      </trkpt>
      <trkpt lat="48.47992" lon="5.71404">
        <ele>276.313</ele>
        <time>2019-09-23T11:35:15.000Z</time>
      </trkpt>
      <trkpt lat="48.47988" lon="5.71416">
        <ele>276.172</ele>
        <time>2019-09-23T11:35:18.000Z</time>
      </trkpt>
      <trkpt lat="48.47984" lon="5.71428">
        <ele>276.09</ele>
        <time>2019-09-23T11:35:21.000Z</time>
      </trkpt>
      <trkpt lat="48.4798" lon="5.71441">
        <ele>276.119</ele>
        <time>2019-09-23T11:35:24.000Z</time>
      </trkpt>
      <trkpt lat="48.47976" lon="5.71452">
        <ele>275.714</ele>
        <time>2019-09-23T11:35:27.000Z</time>
      </trkpt>
      <trkpt lat="48.47972" lon="5.71463">
        <ele>276.196</ele>
        <time>2019-09-23T11:35:30.000Z</time>
      </trkpt>
      <trkpt lat="48.47968" lon="5.71474">
        <ele>276.97</ele>
        <time>2019-09-23T11:35:33.000Z</time>
      </trkpt>
      <trkpt lat="48.47965" lon="5.71486">
        <ele>277.553</ele>
        <time>2019-09-23T11:35:36.000Z</time>
      </trkpt>
      <trkpt lat="48.47961" lon="5.71497">
        <ele>278.088</ele>
        <time>2019-09-23T11:35:39.000Z</time>
      </trkpt>
      <trkpt lat="48.47958" lon="5.71508">
        <ele>278.471</ele>
        <time>2019-09-23T11:35:42.000Z</time>
      </trkpt>
      <trkpt lat="48.47954" lon="5.71519">
        <ele>278.94</ele>
        <time>2019-09-23T11:35:45.000Z</time>
      </trkpt>
      <trkpt lat="48.4795" lon="5.7153">
        <ele>279.264</ele>
        <time>2019-09-23T11:35:48.000Z</time>
      </trkpt>
      <trkpt lat="48.47947" lon="5.71541">
        <ele>279.079</ele>
        <time>2019-09-23T11:35:51.000Z</time>
      </trkpt>
      <trkpt lat="48.47944" lon="5.71551">
        <ele>279.23</ele>
        <time>2019-09-23T11:35:54.000Z</time>
      </trkpt>
      <trkpt lat="48.47939" lon="5.71562">
        <ele>279.449</ele>
        <time>2019-09-23T11:35:57.000Z</time>
      </trkpt>
      <trkpt lat="48.47935" lon="5.71572">
        <ele>279.706</ele>
        <time>2019-09-23T11:36:00.000Z</time>
      </trkpt>
      <trkpt lat="48.47931" lon="5.71583">
        <ele>280.349</ele>
        <time>2019-09-23T11:36:03.000Z</time>
      </trkpt>
      <trkpt lat="48.47926" lon="5.71592">
        <ele>281.141</ele>
        <time>2019-09-23T11:36:06.000Z</time>
      </trkpt>
      <trkpt lat="48.47921" lon="5.71599">
        <ele>281.521</ele>
        <time>2019-09-23T11:36:09.000Z</time>
      </trkpt>
      <trkpt lat="48.47915" lon="5.71608">
        <ele>281.851</ele>
        <time>2019-09-23T11:36:12.000Z</time>
      </trkpt>
      <trkpt lat="48.4791" lon="5.71617">
        <ele>282.428</ele>
        <time>2019-09-23T11:36:15.000Z</time>
      </trkpt>
      <trkpt lat="48.47904" lon="5.71624">
        <ele>283.159</ele>
        <time>2019-09-23T11:36:18.000Z</time>
      </trkpt>
      <trkpt lat="48.47897" lon="5.71631">
        <ele>283.953</ele>
        <time>2019-09-23T11:36:21.000Z</time>
      </trkpt>
      <trkpt lat="48.4789" lon="5.71636">
        <ele>284.981</ele>
        <time>2019-09-23T11:36:24.000Z</time>
      </trkpt>
      <trkpt lat="48.47884" lon="5.71641">
        <ele>285.603</ele>
        <time>2019-09-23T11:36:27.000Z</time>
      </trkpt>
      <trkpt lat="48.47876" lon="5.71646">
        <ele>286.336</ele>
        <time>2019-09-23T11:36:30.000Z</time>
      </trkpt>
      <trkpt lat="48.4787" lon="5.7165">
        <ele>286.531</ele>
        <time>2019-09-23T11:36:33.000Z</time>
      </trkpt>
      <trkpt lat="48.47862" lon="5.71653">
        <ele>286.034</ele>
        <time>2019-09-23T11:36:36.000Z</time>
      </trkpt>
      <trkpt lat="48.47856" lon="5.71656">
        <ele>285.998</ele>
        <time>2019-09-23T11:36:39.000Z</time>
      </trkpt>
      <trkpt lat="48.47849" lon="5.71659">
        <ele>285.832</ele>
        <time>2019-09-23T11:36:42.000Z</time>
      </trkpt>
      <trkpt lat="48.47842" lon="5.71661">
        <ele>285.457</ele>
        <time>2019-09-23T11:36:45.000Z</time>
      </trkpt>
      <trkpt lat="48.47836" lon="5.71661">
        <ele>285.875</ele>
        <time>2019-09-23T11:36:48.000Z</time>
      </trkpt>
      <trkpt lat="48.4783" lon="5.71661">
        <ele>286.287</ele>
        <time>2019-09-23T11:36:51.000Z</time>
      </trkpt>
      <trkpt lat="48.47823" lon="5.71662">
        <ele>286.687</ele>
        <time>2019-09-23T11:36:54.000Z</time>
      </trkpt>
      <trkpt lat="48.47816" lon="5.71662">
        <ele>287.217</ele>
        <time>2019-09-23T11:36:57.000Z</time>
      </trkpt>
      <trkpt lat="48.4781" lon="5.71661">
        <ele>287.364</ele>
        <time>2019-09-23T11:37:00.000Z</time>
      </trkpt>
      <trkpt lat="48.47804" lon="5.7166">
        <ele>287.142</ele>
        <time>2019-09-23T11:37:03.000Z</time>
      </trkpt>
      <trkpt lat="48.47797" lon="5.71658">
        <ele>287.734</ele>
        <time>2019-09-23T11:37:06.000Z</time>
      </trkpt>
      <trkpt lat="48.47791" lon="5.71655">
        <ele>288.36</ele>
        <time>2019-09-23T11:37:09.000Z</time>
      </trkpt>
      <trkpt lat="48.47784" lon="5.71653">
        <ele>288.682</ele>
        <time>2019-09-23T11:37:12.000Z</time>
      </trkpt>
      <trkpt lat="48.47778" lon="5.7165">
        <ele>289.058</ele>
        <time>2019-09-23T11:37:15.000Z</time>
      </trkpt>
      <trkpt lat="48.47772" lon="5.71647">
        <ele>289.41</ele>
        <time>2019-09-23T11:37:18.000Z</time>
      </trkpt>
      <trkpt lat="48.47766" lon="5.71642">
        <ele>289.423</ele>
        <time>2019-09-23T11:37:21.000Z</time>
      </trkpt>
      <trkpt lat="48.4776" lon="5.71638">
        <ele>289.873</ele>
        <time>2019-09-23T11:37:24.000Z</time>
      </trkpt>
      <trkpt lat="48.47755" lon="5.71634">
        <ele>289.908</ele>
        <time>2019-09-23T11:37:27.000Z</time>
      </trkpt>
      <trkpt lat="48.47749" lon="5.71629">
        <ele>290.13</ele>
        <time>2019-09-23T11:37:30.000Z</time>
      </trkpt>
      <trkpt lat="48.47744" lon="5.71623">
        <ele>290.413</ele>
        <time>2019-09-23T11:37:33.000Z</time>
      </trkpt>
      <trkpt lat="48.47739" lon="5.71618">
        <ele>291.253</ele>
        <time>2019-09-23T11:37:36.000Z</time>
      </trkpt>
      <trkpt lat="48.47733" lon="5.71612">
        <ele>291.899</ele>
        <time>2019-09-23T11:37:39.000Z</time>
      </trkpt>
      <trkpt lat="48.47727" lon="5.71606">
        <ele>292.065</ele>
        <time>2019-09-23T11:37:42.000Z</time>
      </trkpt>
      <trkpt lat="48.47722" lon="5.71599">
        <ele>292.44</ele>
        <time>2019-09-23T11:37:45.000Z</time>
      </trkpt>
      <trkpt lat="48.47717" lon="5.71591">
        <ele>292.62</ele>
        <time>2019-09-23T11:37:48.000Z</time>
      </trkpt>
      <trkpt lat="48.47712" lon="5.71583">
        <ele>292.668</ele>
        <time>2019-09-23T11:37:51.000Z</time>
      </trkpt>
      <trkpt lat="48.47708" lon="5.71576">
        <ele>292.783</ele>
        <time>2019-09-23T11:37:54.000Z</time>
      </trkpt>
      <trkpt lat="48.47705" lon="5.71569">
        <ele>292.905</ele>
        <time>2019-09-23T11:37:57.000Z</time>
      </trkpt>
      <trkpt lat="48.47701" lon="5.7156">
        <ele>293.127</ele>
        <time>2019-09-23T11:38:00.000Z</time>
      </trkpt>
      <trkpt lat="48.47698" lon="5.71552">
        <ele>293.602</ele>
        <time>2019-09-23T11:38:03.000Z</time>
      </trkpt>
      <trkpt lat="48.47695" lon="5.71544">
        <ele>293.662</ele>
        <time>2019-09-23T11:38:06.000Z</time>
      </trkpt>
      <trkpt lat="48.47692" lon="5.71537">
        <ele>294.01</ele>
        <time>2019-09-23T11:38:09.000Z</time>
      </trkpt>
      <trkpt lat="48.47689" lon="5.71529">
        <ele>294.519</ele>
        <time>2019-09-23T11:38:12.000Z</time>
      </trkpt>
      <trkpt lat="48.47687" lon="5.71521">
        <ele>295.736</ele>
        <time>2019-09-23T11:38:15.000Z</time>
      </trkpt>
      <trkpt lat="48.47685" lon="5.71513">
        <ele>296.614</ele>
        <time>2019-09-23T11:38:18.000Z</time>
      </trkpt>
      <trkpt lat="48.47682" lon="5.71506">
        <ele>297.275</ele>
        <time>2019-09-23T11:38:21.000Z</time>
      </trkpt>
      <trkpt lat="48.47679" lon="5.71498">
        <ele>297.662</ele>
        <time>2019-09-23T11:38:24.000Z</time>
      </trkpt>
      <trkpt lat="48.47675" lon="5.71489">
        <ele>297.455</ele>
        <time>2019-09-23T11:38:27.000Z</time>
      </trkpt>
      <trkpt lat="48.47673" lon="5.71479">
        <ele>298.434</ele>
        <time>2019-09-23T11:38:30.000Z</time>
      </trkpt>
      <trkpt lat="48.47669" lon="5.7147">
        <ele>298.338</ele>
        <time>2019-09-23T11:38:33.000Z</time>
      </trkpt>
      <trkpt lat="48.47665" lon="5.71461">
        <ele>298.925</ele>
        <time>2019-09-23T11:38:36.000Z</time>
      </trkpt>
      <trkpt lat="48.47661" lon="5.71454">
        <ele>299.161</ele>
        <time>2019-09-23T11:38:39.000Z</time>
      </trkpt>
      <trkpt lat="48.47658" lon="5.71446">
        <ele>299.87</ele>
        <time>2019-09-23T11:38:42.000Z</time>
      </trkpt>
      <trkpt lat="48.47655" lon="5.71439">
        <ele>300.926</ele>
        <time>2019-09-23T11:38:45.000Z</time>
      </trkpt>
      <trkpt lat="48.47652" lon="5.71432">
        <ele>302.128</ele>
        <time>2019-09-23T11:38:48.000Z</time>
      </trkpt>
      <trkpt lat="48.47648" lon="5.71426">
        <ele>303.353</ele>
        <time>2019-09-23T11:38:51.000Z</time>
      </trkpt>
      <trkpt lat="48.47644" lon="5.7142">
        <ele>304.874</ele>
        <time>2019-09-23T11:38:54.000Z</time>
      </trkpt>
      <trkpt lat="48.47639" lon="5.71414">
        <ele>306.077</ele>
        <time>2019-09-23T11:38:57.000Z</time>
      </trkpt>
      <trkpt lat="48.47633" lon="5.71408">
        <ele>305.911</ele>
        <time>2019-09-23T11:39:00.000Z</time>
      </trkpt>
      <trkpt lat="48.47626" lon="5.71401">
        <ele>305.38</ele>
        <time>2019-09-23T11:39:03.000Z</time>
      </trkpt>
      <trkpt lat="48.47619" lon="5.71397">
        <ele>305.036</ele>
        <time>2019-09-23T11:39:06.000Z</time>
      </trkpt>
      <trkpt lat="48.47613" lon="5.71393">
        <ele>304.689</ele>
        <time>2019-09-23T11:39:09.000Z</time>
      </trkpt>
      <trkpt lat="48.47606" lon="5.7139">
        <ele>304.374</ele>
        <time>2019-09-23T11:39:12.000Z</time>
      </trkpt>
      <trkpt lat="48.476" lon="5.71388">
        <ele>304.529</ele>
        <time>2019-09-23T11:39:15.000Z</time>
      </trkpt>
      <trkpt lat="48.47593" lon="5.71387">
        <ele>304.662</ele>
        <time>2019-09-23T11:39:18.000Z</time>
      </trkpt>
      <trkpt lat="48.47587" lon="5.71386">
        <ele>304.281</ele>
        <time>2019-09-23T11:39:21.000Z</time>
      </trkpt>
      <trkpt lat="48.47581" lon="5.71385">
        <ele>304.822</ele>
        <time>2019-09-23T11:39:24.000Z</time>
      </trkpt>
      <trkpt lat="48.47574" lon="5.71385">
        <ele>305.785</ele>
        <time>2019-09-23T11:39:27.000Z</time>
      </trkpt>
      <trkpt lat="48.47569" lon="5.71385">
        <ele>306.405</ele>
        <time>2019-09-23T11:39:30.000Z</time>
      </trkpt>
      <trkpt lat="48.47563" lon="5.71384">
        <ele>306.963</ele>
        <time>2019-09-23T11:39:33.000Z</time>
      </trkpt>
      <trkpt lat="48.47557" lon="5.71383">
        <ele>307.117</ele>
        <time>2019-09-23T11:39:36.000Z</time>
      </trkpt>
      <trkpt lat="48.47551" lon="5.71382">
        <ele>307.166</ele>
        <time>2019-09-23T11:39:39.000Z</time>
      </trkpt>
      <trkpt lat="48.47545" lon="5.71383">
        <ele>307.226</ele>
        <time>2019-09-23T11:39:42.000Z</time>
      </trkpt>
      <trkpt lat="48.47539" lon="5.71382">
        <ele>307.613</ele>
        <time>2019-09-23T11:39:45.000Z</time>
      </trkpt>
      <trkpt lat="48.47532" lon="5.71382">
        <ele>308.084</ele>
        <time>2019-09-23T11:39:48.000Z</time>
      </trkpt>
      <trkpt lat="48.47526" lon="5.71382">
        <ele>308.174</ele>
        <time>2019-09-23T11:39:51.000Z</time>
      </trkpt>
      <trkpt lat="48.4752" lon="5.71382">
        <ele>308.427</ele>
        <time>2019-09-23T11:39:54.000Z</time>
      </trkpt>
      <trkpt lat="48.47514" lon="5.71383">
        <ele>309.102</ele>
        <time>2019-09-23T11:39:57.000Z</time>
      </trkpt>
      <trkpt lat="48.47508" lon="5.71384">
        <ele>309.582</ele>
        <time>2019-09-23T11:40:00.000Z</time>
      </trkpt>
      <trkpt lat="48.47502" lon="5.71384">
        <ele>309.813</ele>
        <time>2019-09-23T11:40:03.000Z</time>
      </trkpt>
      <trkpt lat="48.47496" lon="5.71384">
        <ele>310.185</ele>
        <time>2019-09-23T11:40:06.000Z</time>
      </trkpt>
      <trkpt lat="48.4749" lon="5.71384">
        <ele>310.597</ele>
        <time>2019-09-23T11:40:09.000Z</time>
      </trkpt>
      <trkpt lat="48.47484" lon="5.71385">
        <ele>311.168</ele>
        <time>2019-09-23T11:40:12.000Z</time>
      </trkpt>
      <trkpt lat="48.47479" lon="5.71386">
        <ele>311.952</ele>
        <time>2019-09-23T11:40:15.000Z</time>
      </trkpt>
      <trkpt lat="48.47473" lon="5.71386">
        <ele>312.286</ele>
        <time>2019-09-23T11:40:18.000Z</time>
      </trkpt>
      <trkpt lat="48.47468" lon="5.71387">
        <ele>312.662</ele>
        <time>2019-09-23T11:40:21.000Z</time>
      </trkpt>
      <trkpt lat="48.47461" lon="5.71389">
        <ele>313.883</ele>
        <time>2019-09-23T11:40:24.000Z</time>
      </trkpt>
      <trkpt lat="48.47454" lon="5.71392">
        <ele>314.968</ele>
        <time>2019-09-23T11:40:27.000Z</time>
      </trkpt>
      <trkpt lat="48.47448" lon="5.71395">
        <ele>315.191</ele>
        <time>2019-09-23T11:40:30.000Z</time>
      </trkpt>
      <trkpt lat="48.4744" lon="5.71398">
        <ele>314.625</ele>
        <time>2019-09-23T11:40:33.000Z</time>
      </trkpt>
      <trkpt lat="48.47433" lon="5.714">
        <ele>314.627</ele>
        <time>2019-09-23T11:40:36.000Z</time>
      </trkpt>
      <trkpt lat="48.47428" lon="5.71402">
        <ele>315.45</ele>
        <time>2019-09-23T11:40:39.000Z</time>
      </trkpt>
      <trkpt lat="48.47423" lon="5.71407">
        <ele>316.643</ele>
        <time>2019-09-23T11:40:42.000Z</time>
      </trkpt>
      <trkpt lat="48.47418" lon="5.71412">
        <ele>317.495</ele>
        <time>2019-09-23T11:40:45.000Z</time>
      </trkpt>
      <trkpt lat="48.47412" lon="5.71415">
        <ele>318.259</ele>
        <time>2019-09-23T11:40:48.000Z</time>
      </trkpt>
      <trkpt lat="48.47406" lon="5.71418">
        <ele>318.738</ele>
        <time>2019-09-23T11:40:51.000Z</time>
      </trkpt>
      <trkpt lat="48.474" lon="5.71422">
        <ele>318.676</ele>
        <time>2019-09-23T11:40:54.000Z</time>
      </trkpt>
      <trkpt lat="48.47394" lon="5.71424">
        <ele>320.783</ele>
        <time>2019-09-23T11:40:57.000Z</time>
      </trkpt>
      <trkpt lat="48.47389" lon="5.71425">
        <ele>321.209</ele>
        <time>2019-09-23T11:41:00.000Z</time>
      </trkpt>
      <trkpt lat="48.47382" lon="5.71425">
        <ele>321.12</ele>
        <time>2019-09-23T11:41:03.000Z</time>
      </trkpt>
      <trkpt lat="48.47373" lon="5.71423">
        <ele>321.069</ele>
        <time>2019-09-23T11:41:06.000Z</time>
      </trkpt>
      <trkpt lat="48.4736" lon="5.71419">
        <ele>320.774</ele>
        <time>2019-09-23T11:41:09.000Z</time>
      </trkpt>
      <trkpt lat="48.47349" lon="5.71415">
        <ele>320.355</ele>
        <time>2019-09-23T11:41:12.000Z</time>
      </trkpt>
      <trkpt lat="48.47338" lon="5.71411">
        <ele>320.414</ele>
        <time>2019-09-23T11:41:15.000Z</time>
      </trkpt>
      <trkpt lat="48.47329" lon="5.71407">
        <ele>320.382</ele>
        <time>2019-09-23T11:41:18.000Z</time>
      </trkpt>
      <trkpt lat="48.4732" lon="5.714">
        <ele>320.115</ele>
        <time>2019-09-23T11:41:21.000Z</time>
      </trkpt>
      <trkpt lat="48.47311" lon="5.71395">
        <ele>319.381</ele>
        <time>2019-09-23T11:41:24.000Z</time>
      </trkpt>
      <trkpt lat="48.47302" lon="5.71391">
        <ele>318.737</ele>
        <time>2019-09-23T11:41:27.000Z</time>
      </trkpt>
      <trkpt lat="48.47293" lon="5.71388">
        <ele>318.027</ele>
        <time>2019-09-23T11:41:30.000Z</time>
      </trkpt>
      <trkpt lat="48.47284" lon="5.71386">
        <ele>318.082</ele>
        <time>2019-09-23T11:41:33.000Z</time>
      </trkpt>
      <trkpt lat="48.47276" lon="5.71383">
        <ele>318.343</ele>
        <time>2019-09-23T11:41:36.000Z</time>
      </trkpt>
      <trkpt lat="48.47267" lon="5.71382">
        <ele>318.224</ele>
        <time>2019-09-23T11:41:39.000Z</time>
      </trkpt>
      <trkpt lat="48.47258" lon="5.71382">
        <ele>317.774</ele>
        <time>2019-09-23T11:41:42.000Z</time>
      </trkpt>
      <trkpt lat="48.47248" lon="5.71378">
        <ele>317.565</ele>
        <time>2019-09-23T11:41:45.000Z</time>
      </trkpt>
      <trkpt lat="48.47237" lon="5.71374">
        <ele>317.674</ele>
        <time>2019-09-23T11:41:48.000Z</time>
      </trkpt>
      <trkpt lat="48.47225" lon="5.71371">
        <ele>318.13</ele>
        <time>2019-09-23T11:41:51.000Z</time>
      </trkpt>
      <trkpt lat="48.47214" lon="5.71366">
        <ele>318.607</ele>
        <time>2019-09-23T11:41:54.000Z</time>
      </trkpt>
      <trkpt lat="48.47204" lon="5.71364">
        <ele>319.216</ele>
        <time>2019-09-23T11:41:57.000Z</time>
      </trkpt>
      <trkpt lat="48.47195" lon="5.71361">
        <ele>319.647</ele>
        <time>2019-09-23T11:42:00.000Z</time>
      </trkpt>
      <trkpt lat="48.47186" lon="5.71356">
        <ele>319.003</ele>
        <time>2019-09-23T11:42:03.000Z</time>
      </trkpt>
      <trkpt lat="48.47178" lon="5.71353">
        <ele>318.644</ele>
        <time>2019-09-23T11:42:06.000Z</time>
      </trkpt>
      <trkpt lat="48.47169" lon="5.71349">
        <ele>318.264</ele>
        <time>2019-09-23T11:42:09.000Z</time>
      </trkpt>
      <trkpt lat="48.47161" lon="5.71343">
        <ele>318.016</ele>
        <time>2019-09-23T11:42:12.000Z</time>
      </trkpt>
      <trkpt lat="48.47152" lon="5.71338">
        <ele>318.29</ele>
        <time>2019-09-23T11:42:15.000Z</time>
      </trkpt>
      <trkpt lat="48.47144" lon="5.71335">
        <ele>318.053</ele>
        <time>2019-09-23T11:42:18.000Z</time>
      </trkpt>
      <trkpt lat="48.47134" lon="5.71332">
        <ele>318.766</ele>
        <time>2019-09-23T11:42:21.000Z</time>
      </trkpt>
      <trkpt lat="48.47125" lon="5.71329">
        <ele>319.44</ele>
        <time>2019-09-23T11:42:24.000Z</time>
      </trkpt>
      <trkpt lat="48.47116" lon="5.71326">
        <ele>320.459</ele>
        <time>2019-09-23T11:42:27.000Z</time>
      </trkpt>
      <trkpt lat="48.47106" lon="5.71321">
        <ele>320.753</ele>
        <time>2019-09-23T11:42:30.000Z</time>
      </trkpt>
      <trkpt lat="48.47095" lon="5.71316">
        <ele>320.243</ele>
        <time>2019-09-23T11:42:33.000Z</time>
      </trkpt>
      <trkpt lat="48.47086" lon="5.71311">
        <ele>320.162</ele>
        <time>2019-09-23T11:42:36.000Z</time>
      </trkpt>
      <trkpt lat="48.47076" lon="5.71303">
        <ele>320.412</ele>
        <time>2019-09-23T11:42:39.000Z</time>
      </trkpt>
      <trkpt lat="48.47066" lon="5.71296">
        <ele>320.315</ele>
        <time>2019-09-23T11:42:42.000Z</time>
      </trkpt>
      <trkpt lat="48.47055" lon="5.7129">
        <ele>320.134</ele>
        <time>2019-09-23T11:42:45.000Z</time>
      </trkpt>
      <trkpt lat="48.47044" lon="5.71283">
        <ele>319.708</ele>
        <time>2019-09-23T11:42:48.000Z</time>
      </trkpt>
      <trkpt lat="48.47033" lon="5.71277">
        <ele>319.026</ele>
        <time>2019-09-23T11:42:51.000Z</time>
      </trkpt>
      <trkpt lat="48.47022" lon="5.7127">
        <ele>318.288</ele>
        <time>2019-09-23T11:42:54.000Z</time>
      </trkpt>
      <trkpt lat="48.47011" lon="5.71263">
        <ele>317.793</ele>
        <time>2019-09-23T11:42:57.000Z</time>
      </trkpt>
      <trkpt lat="48.47" lon="5.71256">
        <ele>317.434</ele>
        <time>2019-09-23T11:43:00.000Z</time>
      </trkpt>
      <trkpt lat="48.4699" lon="5.7125">
        <ele>317.404</ele>
        <time>2019-09-23T11:43:03.000Z</time>
      </trkpt>
      <trkpt lat="48.4698" lon="5.71244">
        <ele>317.542</ele>
        <time>2019-09-23T11:43:06.000Z</time>
      </trkpt>
      <trkpt lat="48.46971" lon="5.71237">
        <ele>318.303</ele>
        <time>2019-09-23T11:43:09.000Z</time>
      </trkpt>
      <trkpt lat="48.46961" lon="5.7123">
        <ele>318.445</ele>
        <time>2019-09-23T11:43:12.000Z</time>
      </trkpt>
      <trkpt lat="48.46952" lon="5.71224">
        <ele>318.303</ele>
        <time>2019-09-23T11:43:15.000Z</time>
      </trkpt>
      <trkpt lat="48.46942" lon="5.71218">
        <ele>317.918</ele>
        <time>2019-09-23T11:43:18.000Z</time>
      </trkpt>
      <trkpt lat="48.46931" lon="5.71212">
        <ele>317.634</ele>
        <time>2019-09-23T11:43:21.000Z</time>
      </trkpt>
      <trkpt lat="48.46921" lon="5.71207">
        <ele>317.069</ele>
        <time>2019-09-23T11:43:24.000Z</time>
      </trkpt>
      <trkpt lat="48.46911" lon="5.712">
        <ele>317.033</ele>
        <time>2019-09-23T11:43:27.000Z</time>
      </trkpt>
      <trkpt lat="48.46901" lon="5.71195">
        <ele>317.058</ele>
        <time>2019-09-23T11:43:30.000Z</time>
      </trkpt>
      <trkpt lat="48.46892" lon="5.71188">
        <ele>316.944</ele>
        <time>2019-09-23T11:43:33.000Z</time>
      </trkpt>
      <trkpt lat="48.46883" lon="5.71183">
        <ele>317.47</ele>
        <time>2019-09-23T11:43:36.000Z</time>
      </trkpt>
      <trkpt lat="48.46875" lon="5.71179">
        <ele>318.516</ele>
        <time>2019-09-23T11:43:39.000Z</time>
      </trkpt>
      <trkpt lat="48.46866" lon="5.71173">
        <ele>318.876</ele>
        <time>2019-09-23T11:43:42.000Z</time>
      </trkpt>
      <trkpt lat="48.46856" lon="5.71167">
        <ele>319.272</ele>
        <time>2019-09-23T11:43:45.000Z</time>
      </trkpt>
      <trkpt lat="48.46846" lon="5.71161">
        <ele>319.146</ele>
        <time>2019-09-23T11:43:48.000Z</time>
      </trkpt>
      <trkpt lat="48.46836" lon="5.71156">
        <ele>319.348</ele>
        <time>2019-09-23T11:43:51.000Z</time>
      </trkpt>
      <trkpt lat="48.46827" lon="5.71151">
        <ele>319.206</ele>
        <time>2019-09-23T11:43:54.000Z</time>
      </trkpt>
      <trkpt lat="48.46818" lon="5.71146">
        <ele>319.495</ele>
        <time>2019-09-23T11:43:57.000Z</time>
      </trkpt>
      <trkpt lat="48.46811" lon="5.7114">
        <ele>321.212</ele>
        <time>2019-09-23T11:44:00.000Z</time>
      </trkpt>
      <trkpt lat="48.46802" lon="5.71134">
        <ele>321.841</ele>
        <time>2019-09-23T11:44:03.000Z</time>
      </trkpt>
      <trkpt lat="48.46793" lon="5.71129">
        <ele>321.932</ele>
        <time>2019-09-23T11:44:06.000Z</time>
      </trkpt>
      <trkpt lat="48.46784" lon="5.71124">
        <ele>322.421</ele>
        <time>2019-09-23T11:44:09.000Z</time>
      </trkpt>
      <trkpt lat="48.46774" lon="5.71118">
        <ele>323.014</ele>
        <time>2019-09-23T11:44:12.000Z</time>
      </trkpt>
      <trkpt lat="48.46764" lon="5.71113">
        <ele>322.616</ele>
        <time>2019-09-23T11:44:15.000Z</time>
      </trkpt>
      <trkpt lat="48.46755" lon="5.71108">
        <ele>321.321</ele>
        <time>2019-09-23T11:44:18.000Z</time>
      </trkpt>
      <trkpt lat="48.46748" lon="5.71102">
        <ele>320.672</ele>
        <time>2019-09-23T11:44:21.000Z</time>
      </trkpt>
      <trkpt lat="48.46748" lon="5.71101">
        <ele>320.164</ele>
        <time>2019-09-23T11:44:24.000Z</time>
      </trkpt>
      <trkpt lat="48.46748" lon="5.71101">
        <ele>320.164</ele>
        <time>2019-09-23T11:46:15.000Z</time>
      </trkpt>
      <trkpt lat="48.46746" lon="5.711">
        <ele>320.497</ele>
        <time>2019-09-23T11:46:18.000Z</time>
      </trkpt>
      <trkpt lat="48.46737" lon="5.71095">
        <ele>320.185</ele>
        <time>2019-09-23T11:46:24.000Z</time>
      </trkpt>
      <trkpt lat="48.46728" lon="5.71091">
        <ele>319.806</ele>
        <time>2019-09-23T11:46:27.000Z</time>
      </trkpt>
      <trkpt lat="48.46717" lon="5.71084">
        <ele>319.617</ele>
        <time>2019-09-23T11:46:30.000Z</time>
      </trkpt>
      <trkpt lat="48.46705" lon="5.71077">
        <ele>319.34</ele>
        <time>2019-09-23T11:46:33.000Z</time>
      </trkpt>
      <trkpt lat="48.46693" lon="5.71069">
        <ele>318.956</ele>
        <time>2019-09-23T11:46:36.000Z</time>
      </trkpt>
      <trkpt lat="48.4668" lon="5.71063">
        <ele>318.695</ele>
        <time>2019-09-23T11:46:39.000Z</time>
      </trkpt>
      <trkpt lat="48.46667" lon="5.71056">
        <ele>318.068</ele>
        <time>2019-09-23T11:46:42.000Z</time>
      </trkpt>
      <trkpt lat="48.46654" lon="5.71049">
        <ele>317.713</ele>
        <time>2019-09-23T11:46:45.000Z</time>
      </trkpt>
      <trkpt lat="48.46641" lon="5.71044">
        <ele>317.853</ele>
        <time>2019-09-23T11:46:48.000Z</time>
      </trkpt>
      <trkpt lat="48.46628" lon="5.71038">
        <ele>317.333</ele>
        <time>2019-09-23T11:46:51.000Z</time>
      </trkpt>
      <trkpt lat="48.46615" lon="5.71032">
        <ele>316.621</ele>
        <time>2019-09-23T11:46:54.000Z</time>
      </trkpt>
      <trkpt lat="48.46601" lon="5.71025">
        <ele>316.099</ele>
        <time>2019-09-23T11:46:57.000Z</time>
      </trkpt>
      <trkpt lat="48.46585" lon="5.71019">
        <ele>315.73</ele>
        <time>2019-09-23T11:47:00.000Z</time>
      </trkpt>
      <trkpt lat="48.46569" lon="5.71013">
        <ele>315.273</ele>
        <time>2019-09-23T11:47:03.000Z</time>
      </trkpt>
      <trkpt lat="48.46553" lon="5.71004">
        <ele>314.899</ele>
        <time>2019-09-23T11:47:06.000Z</time>
      </trkpt>
      <trkpt lat="48.46535" lon="5.70995">
        <ele>314.417</ele>
        <time>2019-09-23T11:47:09.000Z</time>
      </trkpt>
      <trkpt lat="48.46517" lon="5.70987">
        <ele>313.613</ele>
        <time>2019-09-23T11:47:12.000Z</time>
      </trkpt>
      <trkpt lat="48.46499" lon="5.70979">
        <ele>312.737</ele>
        <time>2019-09-23T11:47:15.000Z</time>
      </trkpt>
      <trkpt lat="48.4648" lon="5.70971">
        <ele>311.621</ele>
        <time>2019-09-23T11:47:18.000Z</time>
      </trkpt>
      <trkpt lat="48.46461" lon="5.70963">
        <ele>310.306</ele>
        <time>2019-09-23T11:47:21.000Z</time>
      </trkpt>
      <trkpt lat="48.46441" lon="5.70954">
        <ele>308.592</ele>
        <time>2019-09-23T11:47:24.000Z</time>
      </trkpt>
      <trkpt lat="48.46421" lon="5.70947">
        <ele>307.571</ele>
        <time>2019-09-23T11:47:27.000Z</time>
      </trkpt>
      <trkpt lat="48.46401" lon="5.70944">
        <ele>307.04</ele>
        <time>2019-09-23T11:47:30.000Z</time>
      </trkpt>
      <trkpt lat="48.46382" lon="5.70944">
        <ele>306.64</ele>
        <time>2019-09-23T11:47:33.000Z</time>
      </trkpt>
      <trkpt lat="48.46365" lon="5.70944">
        <ele>306.182</ele>
        <time>2019-09-23T11:47:36.000Z</time>
      </trkpt>
      <trkpt lat="48.46349" lon="5.70944">
        <ele>305.474</ele>
        <time>2019-09-23T11:47:39.000Z</time>
      </trkpt>
      <trkpt lat="48.46335" lon="5.70942">
        <ele>305.14</ele>
        <time>2019-09-23T11:47:42.000Z</time>
      </trkpt>
      <trkpt lat="48.46319" lon="5.70941">
        <ele>304.729</ele>
        <time>2019-09-23T11:47:45.000Z</time>
      </trkpt>
      <trkpt lat="48.46304" lon="5.70941">
        <ele>304.424</ele>
        <time>2019-09-23T11:47:48.000Z</time>
      </trkpt>
      <trkpt lat="48.46289" lon="5.70942">
        <ele>303.859</ele>
        <time>2019-09-23T11:47:51.000Z</time>
      </trkpt>
      <trkpt lat="48.46274" lon="5.70942">
        <ele>303.82</ele>
        <time>2019-09-23T11:47:54.000Z</time>
      </trkpt>
      <trkpt lat="48.46258" lon="5.70942">
        <ele>303.6</ele>
        <time>2019-09-23T11:47:57.000Z</time>
      </trkpt>
      <trkpt lat="48.46244" lon="5.70944">
        <ele>303.131</ele>
        <time>2019-09-23T11:48:00.000Z</time>
      </trkpt>
      <trkpt lat="48.4623" lon="5.70945">
        <ele>302.804</ele>
        <time>2019-09-23T11:48:03.000Z</time>
      </trkpt>
      <trkpt lat="48.46216" lon="5.70944">
        <ele>302.475</ele>
        <time>2019-09-23T11:48:06.000Z</time>
      </trkpt>
      <trkpt lat="48.46202" lon="5.70945">
        <ele>302.767</ele>
        <time>2019-09-23T11:48:09.000Z</time>
      </trkpt>
      <trkpt lat="48.46188" lon="5.70944">
        <ele>302.855</ele>
        <time>2019-09-23T11:48:12.000Z</time>
      </trkpt>
      <trkpt lat="48.46174" lon="5.70942">
        <ele>302.83</ele>
        <time>2019-09-23T11:48:15.000Z</time>
      </trkpt>
      <trkpt lat="48.4616" lon="5.7094">
        <ele>302.377</ele>
        <time>2019-09-23T11:48:18.000Z</time>
      </trkpt>
      <trkpt lat="48.46146" lon="5.70938">
        <ele>302.118</ele>
        <time>2019-09-23T11:48:21.000Z</time>
      </trkpt>
      <trkpt lat="48.46132" lon="5.70936">
        <ele>301.906</ele>
        <time>2019-09-23T11:48:24.000Z</time>
      </trkpt>
      <trkpt lat="48.46118" lon="5.70932">
        <ele>301.73</ele>
        <time>2019-09-23T11:48:27.000Z</time>
      </trkpt>
      <trkpt lat="48.46105" lon="5.70926">
        <ele>301.645</ele>
        <time>2019-09-23T11:48:30.000Z</time>
      </trkpt>
      <trkpt lat="48.46092" lon="5.70917">
        <ele>301.882</ele>
        <time>2019-09-23T11:48:33.000Z</time>
      </trkpt>
      <trkpt lat="48.46079" lon="5.70905">
        <ele>301.652</ele>
        <time>2019-09-23T11:48:36.000Z</time>
      </trkpt>
      <trkpt lat="48.46065" lon="5.7089">
        <ele>300.943</ele>
        <time>2019-09-23T11:48:39.000Z</time>
      </trkpt>
      <trkpt lat="48.4605" lon="5.70874">
        <ele>299.931</ele>
        <time>2019-09-23T11:48:42.000Z</time>
      </trkpt>
      <trkpt lat="48.46035" lon="5.70858">
        <ele>298.81</ele>
        <time>2019-09-23T11:48:45.000Z</time>
      </trkpt>
      <trkpt lat="48.4602" lon="5.70841">
        <ele>298.103</ele>
        <time>2019-09-23T11:48:48.000Z</time>
      </trkpt>
      <trkpt lat="48.46005" lon="5.70825">
        <ele>297.561</ele>
        <time>2019-09-23T11:48:51.000Z</time>
      </trkpt>
      <trkpt lat="48.4599" lon="5.70809">
        <ele>297.112</ele>
        <time>2019-09-23T11:48:54.000Z</time>
      </trkpt>
      <trkpt lat="48.45976" lon="5.70794">
        <ele>296.896</ele>
        <time>2019-09-23T11:48:57.000Z</time>
      </trkpt>
      <trkpt lat="48.45961" lon="5.70779">
        <ele>296.869</ele>
        <time>2019-09-23T11:49:00.000Z</time>
      </trkpt>
      <trkpt lat="48.45948" lon="5.70765">
        <ele>296.775</ele>
        <time>2019-09-23T11:49:03.000Z</time>
      </trkpt>
      <trkpt lat="48.45936" lon="5.70751">
        <ele>296.721</ele>
        <time>2019-09-23T11:49:06.000Z</time>
      </trkpt>
      <trkpt lat="48.45923" lon="5.70738">
        <ele>296.436</ele>
        <time>2019-09-23T11:49:09.000Z</time>
      </trkpt>
      <trkpt lat="48.45911" lon="5.70725">
        <ele>296.259</ele>
        <time>2019-09-23T11:49:12.000Z</time>
      </trkpt>
      <trkpt lat="48.45898" lon="5.70711">
        <ele>295.74</ele>
        <time>2019-09-23T11:49:15.000Z</time>
      </trkpt>
      <trkpt lat="48.45884" lon="5.70697">
        <ele>295.228</ele>
        <time>2019-09-23T11:49:18.000Z</time>
      </trkpt>
      <trkpt lat="48.45871" lon="5.70683">
        <ele>294.999</ele>
        <time>2019-09-23T11:49:21.000Z</time>
      </trkpt>
      <trkpt lat="48.45857" lon="5.70669">
        <ele>295.092</ele>
        <time>2019-09-23T11:49:24.000Z</time>
      </trkpt>
      <trkpt lat="48.45845" lon="5.70657">
        <ele>295.035</ele>
        <time>2019-09-23T11:49:27.000Z</time>
      </trkpt>
      <trkpt lat="48.45833" lon="5.70644">
        <ele>295.595</ele>
        <time>2019-09-23T11:49:30.000Z</time>
      </trkpt>
      <trkpt lat="48.45822" lon="5.70632">
        <ele>295.732</ele>
        <time>2019-09-23T11:49:33.000Z</time>
      </trkpt>
      <trkpt lat="48.45812" lon="5.70621">
        <ele>295.944</ele>
        <time>2019-09-23T11:49:36.000Z</time>
      </trkpt>
      <trkpt lat="48.45803" lon="5.70612">
        <ele>295.854</ele>
        <time>2019-09-23T11:49:39.000Z</time>
      </trkpt>
      <trkpt lat="48.45795" lon="5.70603">
        <ele>296.007</ele>
        <time>2019-09-23T11:49:42.000Z</time>
      </trkpt>
      <trkpt lat="48.45787" lon="5.70595">
        <ele>295.959</ele>
        <time>2019-09-23T11:49:45.000Z</time>
      </trkpt>
      <trkpt lat="48.45779" lon="5.70588">
        <ele>295.759</ele>
        <time>2019-09-23T11:49:48.000Z</time>
      </trkpt>
      <trkpt lat="48.45772" lon="5.70582">
        <ele>295.386</ele>
        <time>2019-09-23T11:49:51.000Z</time>
      </trkpt>
      <trkpt lat="48.45765" lon="5.70576">
        <ele>295.373</ele>
        <time>2019-09-23T11:49:54.000Z</time>
      </trkpt>
      <trkpt lat="48.45759" lon="5.70569">
        <ele>295.592</ele>
        <time>2019-09-23T11:49:57.000Z</time>
      </trkpt>
      <trkpt lat="48.45751" lon="5.70563">
        <ele>295.919</ele>
        <time>2019-09-23T11:50:00.000Z</time>
      </trkpt>
      <trkpt lat="48.45745" lon="5.70557">
        <ele>296.198</ele>
        <time>2019-09-23T11:50:03.000Z</time>
      </trkpt>
      <trkpt lat="48.45739" lon="5.70551">
        <ele>296.503</ele>
        <time>2019-09-23T11:50:06.000Z</time>
      </trkpt>
      <trkpt lat="48.45733" lon="5.70545">
        <ele>296.767</ele>
        <time>2019-09-23T11:50:09.000Z</time>
      </trkpt>
      <trkpt lat="48.45727" lon="5.70539">
        <ele>297.258</ele>
        <time>2019-09-23T11:50:12.000Z</time>
      </trkpt>
      <trkpt lat="48.4572" lon="5.70533">
        <ele>297.83</ele>
        <time>2019-09-23T11:50:15.000Z</time>
      </trkpt>
      <trkpt lat="48.45714" lon="5.70526">
        <ele>298.119</ele>
        <time>2019-09-23T11:50:18.000Z</time>
      </trkpt>
      <trkpt lat="48.45708" lon="5.7052">
        <ele>298.324</ele>
        <time>2019-09-23T11:50:21.000Z</time>
      </trkpt>
      <trkpt lat="48.45702" lon="5.70514">
        <ele>298.963</ele>
        <time>2019-09-23T11:50:24.000Z</time>
      </trkpt>
      <trkpt lat="48.45696" lon="5.7051">
        <ele>299.647</ele>
        <time>2019-09-23T11:50:27.000Z</time>
      </trkpt>
      <trkpt lat="48.45691" lon="5.70504">
        <ele>300.156</ele>
        <time>2019-09-23T11:50:30.000Z</time>
      </trkpt>
      <trkpt lat="48.45685" lon="5.70497">
        <ele>300.46</ele>
        <time>2019-09-23T11:50:33.000Z</time>
      </trkpt>
      <trkpt lat="48.45679" lon="5.70489">
        <ele>301.088</ele>
        <time>2019-09-23T11:50:36.000Z</time>
      </trkpt>
      <trkpt lat="48.45673" lon="5.70483">
        <ele>301.551</ele>
        <time>2019-09-23T11:50:39.000Z</time>
      </trkpt>
      <trkpt lat="48.45668" lon="5.70476">
        <ele>302.068</ele>
        <time>2019-09-23T11:50:42.000Z</time>
      </trkpt>
      <trkpt lat="48.45662" lon="5.7047">
        <ele>302.581</ele>
        <time>2019-09-23T11:50:45.000Z</time>
      </trkpt>
      <trkpt lat="48.45656" lon="5.70464">
        <ele>303.071</ele>
        <time>2019-09-23T11:50:48.000Z</time>
      </trkpt>
      <trkpt lat="48.4565" lon="5.70458">
        <ele>303.554</ele>
        <time>2019-09-23T11:50:51.000Z</time>
      </trkpt>
      <trkpt lat="48.45644" lon="5.70452">
        <ele>303.775</ele>
        <time>2019-09-23T11:50:54.000Z</time>
      </trkpt>
      <trkpt lat="48.45638" lon="5.70446">
        <ele>304.23</ele>
        <time>2019-09-23T11:50:57.000Z</time>
      </trkpt>
      <trkpt lat="48.45632" lon="5.7044">
        <ele>304.964</ele>
        <time>2019-09-23T11:51:00.000Z</time>
      </trkpt>
      <trkpt lat="48.45625" lon="5.70433">
        <ele>305.469</ele>
        <time>2019-09-23T11:51:03.000Z</time>
      </trkpt>
      <trkpt lat="48.45617" lon="5.70426">
        <ele>305.473</ele>
        <time>2019-09-23T11:51:06.000Z</time>
      </trkpt>
      <trkpt lat="48.45611" lon="5.7042">
        <ele>305.811</ele>
        <time>2019-09-23T11:51:09.000Z</time>
      </trkpt>
      <trkpt lat="48.45604" lon="5.70413">
        <ele>305.984</ele>
        <time>2019-09-23T11:51:12.000Z</time>
      </trkpt>
      <trkpt lat="48.45598" lon="5.70406">
        <ele>306.224</ele>
        <time>2019-09-23T11:51:15.000Z</time>
      </trkpt>
      <trkpt lat="48.45591" lon="5.704">
        <ele>306.014</ele>
        <time>2019-09-23T11:51:18.000Z</time>
      </trkpt>
      <trkpt lat="48.45585" lon="5.70392">
        <ele>305.778</ele>
        <time>2019-09-23T11:51:21.000Z</time>
      </trkpt>
      <trkpt lat="48.45579" lon="5.70386">
        <ele>305.61</ele>
        <time>2019-09-23T11:51:24.000Z</time>
      </trkpt>
      <trkpt lat="48.45573" lon="5.70379">
        <ele>305.347</ele>
        <time>2019-09-23T11:51:27.000Z</time>
      </trkpt>
      <trkpt lat="48.45567" lon="5.70373">
        <ele>305.049</ele>
        <time>2019-09-23T11:51:30.000Z</time>
      </trkpt>
      <trkpt lat="48.4556" lon="5.70368">
        <ele>304.746</ele>
        <time>2019-09-23T11:51:33.000Z</time>
      </trkpt>
      <trkpt lat="48.45553" lon="5.70362">
        <ele>304.651</ele>
        <time>2019-09-23T11:51:36.000Z</time>
      </trkpt>
      <trkpt lat="48.45546" lon="5.70356">
        <ele>304.36</ele>
        <time>2019-09-23T11:51:39.000Z</time>
      </trkpt>
      <trkpt lat="48.45539" lon="5.70348">
        <ele>304.466</ele>
        <time>2019-09-23T11:51:42.000Z</time>
      </trkpt>
      <trkpt lat="48.45533" lon="5.70342">
        <ele>304.475</ele>
        <time>2019-09-23T11:51:45.000Z</time>
      </trkpt>
      <trkpt lat="48.45525" lon="5.70336">
        <ele>304.678</ele>
        <time>2019-09-23T11:51:48.000Z</time>
      </trkpt>
      <trkpt lat="48.45518" lon="5.70328">
        <ele>304.793</ele>
        <time>2019-09-23T11:51:51.000Z</time>
      </trkpt>
      <trkpt lat="48.4551" lon="5.7032">
        <ele>304.652</ele>
        <time>2019-09-23T11:51:54.000Z</time>
      </trkpt>
      <trkpt lat="48.45501" lon="5.70312">
        <ele>304.549</ele>
        <time>2019-09-23T11:51:57.000Z</time>
      </trkpt>
      <trkpt lat="48.45492" lon="5.70302">
        <ele>304.41</ele>
        <time>2019-09-23T11:52:00.000Z</time>
      </trkpt>
      <trkpt lat="48.45482" lon="5.70294">
        <ele>304.118</ele>
        <time>2019-09-23T11:52:03.000Z</time>
      </trkpt>
      <trkpt lat="48.45473" lon="5.70285">
        <ele>304.185</ele>
        <time>2019-09-23T11:52:06.000Z</time>
      </trkpt>
      <trkpt lat="48.45464" lon="5.70276">
        <ele>304.257</ele>
        <time>2019-09-23T11:52:09.000Z</time>
      </trkpt>
      <trkpt lat="48.45454" lon="5.70269">
        <ele>304.039</ele>
        <time>2019-09-23T11:52:12.000Z</time>
      </trkpt>
      <trkpt lat="48.45443" lon="5.70262">
        <ele>303.823</ele>
        <time>2019-09-23T11:52:15.000Z</time>
      </trkpt>
      <trkpt lat="48.45432" lon="5.70255">
        <ele>303.559</ele>
        <time>2019-09-23T11:52:18.000Z</time>
      </trkpt>
      <trkpt lat="48.45422" lon="5.70248">
        <ele>303.484</ele>
        <time>2019-09-23T11:52:21.000Z</time>
      </trkpt>
      <trkpt lat="48.45411" lon="5.70239">
        <ele>303.087</ele>
        <time>2019-09-23T11:52:24.000Z</time>
      </trkpt>
      <trkpt lat="48.45402" lon="5.70223">
        <ele>303.055</ele>
        <time>2019-09-23T11:52:27.000Z</time>
      </trkpt>
      <trkpt lat="48.454" lon="5.70194">
        <ele>302.451</ele>
        <time>2019-09-23T11:52:30.000Z</time>
      </trkpt>
      <trkpt lat="48.45405" lon="5.7016">
        <ele>301.129</ele>
        <time>2019-09-23T11:52:33.000Z</time>
      </trkpt>
      <trkpt lat="48.45409" lon="5.70128">
        <ele>299.279</ele>
        <time>2019-09-23T11:52:36.000Z</time>
      </trkpt>
      <trkpt lat="48.45412" lon="5.70099">
        <ele>297.321</ele>
        <time>2019-09-23T11:52:39.000Z</time>
      </trkpt>
      <trkpt lat="48.45415" lon="5.70065">
        <ele>296.122</ele>
        <time>2019-09-23T11:52:42.000Z</time>
      </trkpt>
      <trkpt lat="48.45414" lon="5.7003">
        <ele>293.814</ele>
        <time>2019-09-23T11:52:45.000Z</time>
      </trkpt>
      <trkpt lat="48.45408" lon="5.69995">
        <ele>291.373</ele>
        <time>2019-09-23T11:52:48.000Z</time>
      </trkpt>
      <trkpt lat="48.45393" lon="5.69966">
        <ele>289.121</ele>
        <time>2019-09-23T11:52:51.000Z</time>
      </trkpt>
      <trkpt lat="48.45373" lon="5.69944">
        <ele>286.887</ele>
        <time>2019-09-23T11:52:54.000Z</time>
      </trkpt>
      <trkpt lat="48.45349" lon="5.69927">
        <ele>284.895</ele>
        <time>2019-09-23T11:52:57.000Z</time>
      </trkpt>
      <trkpt lat="48.45325" lon="5.69918">
        <ele>282.549</ele>
        <time>2019-09-23T11:53:00.000Z</time>
      </trkpt>
      <trkpt lat="48.45302" lon="5.69911">
        <ele>280.507</ele>
        <time>2019-09-23T11:53:03.000Z</time>
      </trkpt>
      <trkpt lat="48.45281" lon="5.69903">
        <ele>278.949</ele>
        <time>2019-09-23T11:53:06.000Z</time>
      </trkpt>
      <trkpt lat="48.45266" lon="5.69891">
        <ele>277.047</ele>
        <time>2019-09-23T11:53:09.000Z</time>
      </trkpt>
      <trkpt lat="48.4525" lon="5.69877">
        <ele>275.601</ele>
        <time>2019-09-23T11:53:12.000Z</time>
      </trkpt>
      <trkpt lat="48.4523" lon="5.69858">
        <ele>274.623</ele>
        <time>2019-09-23T11:53:15.000Z</time>
      </trkpt>
      <trkpt lat="48.45208" lon="5.69839">
        <ele>273.245</ele>
        <time>2019-09-23T11:53:18.000Z</time>
      </trkpt>
      <trkpt lat="48.45188" lon="5.6982">
        <ele>272.389</ele>
        <time>2019-09-23T11:53:21.000Z</time>
      </trkpt>
      <trkpt lat="48.45167" lon="5.698">
        <ele>272.163</ele>
        <time>2019-09-23T11:53:24.000Z</time>
      </trkpt>
      <trkpt lat="48.45147" lon="5.6978">
        <ele>271.661</ele>
        <time>2019-09-23T11:53:27.000Z</time>
      </trkpt>
      <trkpt lat="48.45128" lon="5.69763">
        <ele>271.136</ele>
        <time>2019-09-23T11:53:30.000Z</time>
      </trkpt>
      <trkpt lat="48.45111" lon="5.69749">
        <ele>271.612</ele>
        <time>2019-09-23T11:53:33.000Z</time>
      </trkpt>
      <trkpt lat="48.45101" lon="5.69743">
        <ele>271.48</ele>
        <time>2019-09-23T11:53:36.000Z</time>
      </trkpt>
      <trkpt lat="48.45096" lon="5.69732">
        <ele>271.506</ele>
        <time>2019-09-23T11:53:39.000Z</time>
      </trkpt>
      <trkpt lat="48.45101" lon="5.69714">
        <ele>270.95</ele>
        <time>2019-09-23T11:53:42.000Z</time>
      </trkpt>
      <trkpt lat="48.45106" lon="5.69692">
        <ele>270.158</ele>
        <time>2019-09-23T11:53:45.000Z</time>
      </trkpt>
      <trkpt lat="48.45113" lon="5.6967">
        <ele>269.753</ele>
        <time>2019-09-23T11:53:48.000Z</time>
      </trkpt>
      <trkpt lat="48.4512" lon="5.69647">
        <ele>269.719</ele>
        <time>2019-09-23T11:53:51.000Z</time>
      </trkpt>
      <trkpt lat="48.45127" lon="5.69622">
        <ele>269.436</ele>
        <time>2019-09-23T11:53:54.000Z</time>
      </trkpt>
      <trkpt lat="48.45132" lon="5.69598">
        <ele>270.882</ele>
        <time>2019-09-23T11:53:57.000Z</time>
      </trkpt>
      <trkpt lat="48.45143" lon="5.69583">
        <ele>272.319</ele>
        <time>2019-09-23T11:54:00.000Z</time>
      </trkpt>
      <trkpt lat="48.45158" lon="5.69569">
        <ele>271.452</ele>
        <time>2019-09-23T11:54:03.000Z</time>
      </trkpt>
      <trkpt lat="48.45178" lon="5.6956">
        <ele>269.962</ele>
        <time>2019-09-23T11:54:06.000Z</time>
      </trkpt>
      <trkpt lat="48.45194" lon="5.69554">
        <ele>269.483</ele>
        <time>2019-09-23T11:54:09.000Z</time>
      </trkpt>
      <trkpt lat="48.45205" lon="5.69547">
        <ele>269.567</ele>
        <time>2019-09-23T11:54:12.000Z</time>
      </trkpt>
      <trkpt lat="48.45211" lon="5.69532">
        <ele>270.151</ele>
        <time>2019-09-23T11:54:15.000Z</time>
      </trkpt>
      <trkpt lat="48.45214" lon="5.69512">
        <ele>270.7</ele>
        <time>2019-09-23T11:54:18.000Z</time>
      </trkpt>
      <trkpt lat="48.4522" lon="5.69494">
        <ele>269.917</ele>
        <time>2019-09-23T11:54:21.000Z</time>
      </trkpt>
      <trkpt lat="48.45225" lon="5.69477">
        <ele>269.227</ele>
        <time>2019-09-23T11:54:24.000Z</time>
      </trkpt>
      <trkpt lat="48.4523" lon="5.6946">
        <ele>268.476</ele>
        <time>2019-09-23T11:54:27.000Z</time>
      </trkpt>
      <trkpt lat="48.45234" lon="5.69443">
        <ele>267.513</ele>
        <time>2019-09-23T11:54:30.000Z</time>
      </trkpt>
      <trkpt lat="48.45237" lon="5.69425">
        <ele>267.471</ele>
        <time>2019-09-23T11:54:33.000Z</time>
      </trkpt>
      <trkpt lat="48.4524" lon="5.69407">
        <ele>267.426</ele>
        <time>2019-09-23T11:54:36.000Z</time>
      </trkpt>
      <trkpt lat="48.45242" lon="5.69387">
        <ele>266.996</ele>
        <time>2019-09-23T11:54:39.000Z</time>
      </trkpt>
      <trkpt lat="48.45244" lon="5.69366">
        <ele>266.475</ele>
        <time>2019-09-23T11:54:42.000Z</time>
      </trkpt>
      <trkpt lat="48.45247" lon="5.69346">
        <ele>266.743</ele>
        <time>2019-09-23T11:54:45.000Z</time>
      </trkpt>
      <trkpt lat="48.45251" lon="5.69324">
        <ele>266.861</ele>
        <time>2019-09-23T11:54:48.000Z</time>
      </trkpt>
      <trkpt lat="48.45254" lon="5.69301">
        <ele>266.462</ele>
        <time>2019-09-23T11:54:51.000Z</time>
      </trkpt>
      <trkpt lat="48.45257" lon="5.69277">
        <ele>265.489</ele>
        <time>2019-09-23T11:54:54.000Z</time>
      </trkpt>
      <trkpt lat="48.4526" lon="5.69252">
        <ele>265.25</ele>
        <time>2019-09-23T11:54:57.000Z</time>
      </trkpt>
      <trkpt lat="48.45262" lon="5.69226">
        <ele>265.285</ele>
        <time>2019-09-23T11:55:00.000Z</time>
      </trkpt>
      <trkpt lat="48.45264" lon="5.69202">
        <ele>266.004</ele>
        <time>2019-09-23T11:55:03.000Z</time>
      </trkpt>
      <trkpt lat="48.45266" lon="5.6918">
        <ele>266.449</ele>
        <time>2019-09-23T11:55:06.000Z</time>
      </trkpt>
      <trkpt lat="48.45266" lon="5.69158">
        <ele>267.162</ele>
        <time>2019-09-23T11:55:09.000Z</time>
      </trkpt>
      <trkpt lat="48.45264" lon="5.69138">
        <ele>267.89</ele>
        <time>2019-09-23T11:55:12.000Z</time>
      </trkpt>
      <trkpt lat="48.45261" lon="5.69119">
        <ele>268.516</ele>
        <time>2019-09-23T11:55:15.000Z</time>
      </trkpt>
      <trkpt lat="48.45258" lon="5.691">
        <ele>269.617</ele>
        <time>2019-09-23T11:55:18.000Z</time>
      </trkpt>
      <trkpt lat="48.45254" lon="5.6908">
        <ele>269.524</ele>
        <time>2019-09-23T11:55:21.000Z</time>
      </trkpt>
      <trkpt lat="48.45249" lon="5.69057">
        <ele>268.227</ele>
        <time>2019-09-23T11:55:24.000Z</time>
      </trkpt>
      <trkpt lat="48.45243" lon="5.69036">
        <ele>267.495</ele>
        <time>2019-09-23T11:55:27.000Z</time>
      </trkpt>
      <trkpt lat="48.45238" lon="5.69015">
        <ele>267.17</ele>
        <time>2019-09-23T11:55:30.000Z</time>
      </trkpt>
      <trkpt lat="48.45233" lon="5.68994">
        <ele>266.604</ele>
        <time>2019-09-23T11:55:33.000Z</time>
      </trkpt>
      <trkpt lat="48.45229" lon="5.68974">
        <ele>266.691</ele>
        <time>2019-09-23T11:55:36.000Z</time>
      </trkpt>
      <trkpt lat="48.45224" lon="5.68956">
        <ele>266.678</ele>
        <time>2019-09-23T11:55:39.000Z</time>
      </trkpt>
      <trkpt lat="48.45219" lon="5.68938">
        <ele>266.662</ele>
        <time>2019-09-23T11:55:42.000Z</time>
      </trkpt>
      <trkpt lat="48.45215" lon="5.6892">
        <ele>267.643</ele>
        <time>2019-09-23T11:55:45.000Z</time>
      </trkpt>
      <trkpt lat="48.4521" lon="5.68904">
        <ele>267.931</ele>
        <time>2019-09-23T11:55:48.000Z</time>
      </trkpt>
      <trkpt lat="48.45206" lon="5.68887">
        <ele>267.559</ele>
        <time>2019-09-23T11:55:51.000Z</time>
      </trkpt>
      <trkpt lat="48.45202" lon="5.68871">
        <ele>267.655</ele>
        <time>2019-09-23T11:55:54.000Z</time>
      </trkpt>
      <trkpt lat="48.45197" lon="5.68855">
        <ele>267.903</ele>
        <time>2019-09-23T11:55:57.000Z</time>
      </trkpt>
      <trkpt lat="48.45192" lon="5.68839">
        <ele>267.944</ele>
        <time>2019-09-23T11:56:00.000Z</time>
      </trkpt>
      <trkpt lat="48.45188" lon="5.68822">
        <ele>268.429</ele>
        <time>2019-09-23T11:56:03.000Z</time>
      </trkpt>
      <trkpt lat="48.45183" lon="5.68805">
        <ele>268.403</ele>
        <time>2019-09-23T11:56:06.000Z</time>
      </trkpt>
      <trkpt lat="48.45177" lon="5.68789">
        <ele>267.506</ele>
        <time>2019-09-23T11:56:09.000Z</time>
      </trkpt>
      <trkpt lat="48.45172" lon="5.68771">
        <ele>266.689</ele>
        <time>2019-09-23T11:56:12.000Z</time>
      </trkpt>
      <trkpt lat="48.45167" lon="5.68754">
        <ele>266.271</ele>
        <time>2019-09-23T11:56:15.000Z</time>
      </trkpt>
      <trkpt lat="48.45163" lon="5.68736">
        <ele>265.959</ele>
        <time>2019-09-23T11:56:18.000Z</time>
      </trkpt>
      <trkpt lat="48.45159" lon="5.6872">
        <ele>265.763</ele>
        <time>2019-09-23T11:56:21.000Z</time>
      </trkpt>
      <trkpt lat="48.45155" lon="5.68704">
        <ele>265.834</ele>
        <time>2019-09-23T11:56:24.000Z</time>
      </trkpt>
      <trkpt lat="48.45152" lon="5.68686">
        <ele>266.504</ele>
        <time>2019-09-23T11:56:27.000Z</time>
      </trkpt>
      <trkpt lat="48.4515" lon="5.6867">
        <ele>266.576</ele>
        <time>2019-09-23T11:56:30.000Z</time>
      </trkpt>
      <trkpt lat="48.45149" lon="5.68654">
        <ele>267.149</ele>
        <time>2019-09-23T11:56:33.000Z</time>
      </trkpt>
      <trkpt lat="48.45148" lon="5.68636">
        <ele>267.646</ele>
        <time>2019-09-23T11:56:36.000Z</time>
      </trkpt>
      <trkpt lat="48.45147" lon="5.6862">
        <ele>267.707</ele>
        <time>2019-09-23T11:56:39.000Z</time>
      </trkpt>
      <trkpt lat="48.45144" lon="5.68603">
        <ele>267.656</ele>
        <time>2019-09-23T11:56:42.000Z</time>
      </trkpt>
      <trkpt lat="48.45143" lon="5.68587">
        <ele>267.833</ele>
        <time>2019-09-23T11:56:45.000Z</time>
      </trkpt>
      <trkpt lat="48.45141" lon="5.68571">
        <ele>268.091</ele>
        <time>2019-09-23T11:56:48.000Z</time>
      </trkpt>
      <trkpt lat="48.45138" lon="5.68554">
        <ele>268.075</ele>
        <time>2019-09-23T11:56:51.000Z</time>
      </trkpt>
      <trkpt lat="48.45134" lon="5.68539">
        <ele>268.455</ele>
        <time>2019-09-23T11:56:54.000Z</time>
      </trkpt>
      <trkpt lat="48.45128" lon="5.68525">
        <ele>268.476</ele>
        <time>2019-09-23T11:56:57.000Z</time>
      </trkpt>
      <trkpt lat="48.45122" lon="5.68514">
        <ele>268.321</ele>
        <time>2019-09-23T11:57:00.000Z</time>
      </trkpt>
      <trkpt lat="48.45116" lon="5.68503">
        <ele>268.876</ele>
        <time>2019-09-23T11:57:03.000Z</time>
      </trkpt>
      <trkpt lat="48.45111" lon="5.6849">
        <ele>269.676</ele>
        <time>2019-09-23T11:57:06.000Z</time>
      </trkpt>
      <trkpt lat="48.45103" lon="5.68478">
        <ele>270.142</ele>
        <time>2019-09-23T11:57:09.000Z</time>
      </trkpt>
      <trkpt lat="48.45095" lon="5.68464">
        <ele>270.8</ele>
        <time>2019-09-23T11:57:12.000Z</time>
      </trkpt>
      <trkpt lat="48.45086" lon="5.68451">
        <ele>270.935</ele>
        <time>2019-09-23T11:57:15.000Z</time>
      </trkpt>
      <trkpt lat="48.45079" lon="5.68438">
        <ele>271.348</ele>
        <time>2019-09-23T11:57:18.000Z</time>
      </trkpt>
      <trkpt lat="48.45072" lon="5.68425">
        <ele>271.461</ele>
        <time>2019-09-23T11:57:21.000Z</time>
      </trkpt>
      <trkpt lat="48.45064" lon="5.68412">
        <ele>271.818</ele>
        <time>2019-09-23T11:57:24.000Z</time>
      </trkpt>
      <trkpt lat="48.45056" lon="5.68398">
        <ele>272.171</ele>
        <time>2019-09-23T11:57:27.000Z</time>
      </trkpt>
      <trkpt lat="48.45049" lon="5.68385">
        <ele>272.548</ele>
        <time>2019-09-23T11:57:30.000Z</time>
      </trkpt>
      <trkpt lat="48.45042" lon="5.68373">
        <ele>273.044</ele>
        <time>2019-09-23T11:57:33.000Z</time>
      </trkpt>
      <trkpt lat="48.45036" lon="5.6836">
        <ele>273.438</ele>
        <time>2019-09-23T11:57:36.000Z</time>
      </trkpt>
      <trkpt lat="48.4503" lon="5.68345">
        <ele>273.84</ele>
        <time>2019-09-23T11:57:39.000Z</time>
      </trkpt>
      <trkpt lat="48.45025" lon="5.68329">
        <ele>274.712</ele>
        <time>2019-09-23T11:57:42.000Z</time>
      </trkpt>
      <trkpt lat="48.45019" lon="5.6831">
        <ele>274.902</ele>
        <time>2019-09-23T11:57:45.000Z</time>
      </trkpt>
      <trkpt lat="48.45015" lon="5.68291">
        <ele>274.087</ele>
        <time>2019-09-23T11:57:48.000Z</time>
      </trkpt>
      <trkpt lat="48.4501" lon="5.68272">
        <ele>273.332</ele>
        <time>2019-09-23T11:57:51.000Z</time>
      </trkpt>
      <trkpt lat="48.45007" lon="5.68254">
        <ele>272.398</ele>
        <time>2019-09-23T11:57:54.000Z</time>
      </trkpt>
      <trkpt lat="48.45004" lon="5.68235">
        <ele>272.043</ele>
        <time>2019-09-23T11:57:57.000Z</time>
      </trkpt>
      <trkpt lat="48.45003" lon="5.68217">
        <ele>271.21</ele>
        <time>2019-09-23T11:58:00.001Z</time>
      </trkpt>
      <trkpt lat="48.45002" lon="5.68198">
        <ele>270.703</ele>
        <time>2019-09-23T11:58:03.000Z</time>
      </trkpt>
      <trkpt lat="48.45002" lon="5.6818">
        <ele>270.343</ele>
        <time>2019-09-23T11:58:06.000Z</time>
      </trkpt>
      <trkpt lat="48.45002" lon="5.68163">
        <ele>269.852</ele>
        <time>2019-09-23T11:58:09.000Z</time>
      </trkpt>
      <trkpt lat="48.45002" lon="5.68146">
        <ele>269.353</ele>
        <time>2019-09-23T11:58:12.000Z</time>
      </trkpt>
      <trkpt lat="48.45003" lon="5.68129">
        <ele>269.059</ele>
        <time>2019-09-23T11:58:15.000Z</time>
      </trkpt>
      <trkpt lat="48.45004" lon="5.68111">
        <ele>269.066</ele>
        <time>2019-09-23T11:58:18.000Z</time>
      </trkpt>
      <trkpt lat="48.45004" lon="5.68094">
        <ele>268.793</ele>
        <time>2019-09-23T11:58:21.000Z</time>
      </trkpt>
      <trkpt lat="48.45004" lon="5.68077">
        <ele>268</ele>
        <time>2019-09-23T11:58:24.000Z</time>
      </trkpt>
      <trkpt lat="48.45005" lon="5.68059">
        <ele>267.576</ele>
        <time>2019-09-23T11:58:27.000Z</time>
      </trkpt>
      <trkpt lat="48.45006" lon="5.68042">
        <ele>267.744</ele>
        <time>2019-09-23T11:58:30.000Z</time>
      </trkpt>
      <trkpt lat="48.45006" lon="5.68024">
        <ele>267.656</ele>
        <time>2019-09-23T11:58:33.000Z</time>
      </trkpt>
      <trkpt lat="48.45007" lon="5.68006">
        <ele>267.943</ele>
        <time>2019-09-23T11:58:36.000Z</time>
      </trkpt>
      <trkpt lat="48.45007" lon="5.67988">
        <ele>268.298</ele>
        <time>2019-09-23T11:58:39.000Z</time>
      </trkpt>
      <trkpt lat="48.45007" lon="5.67972">
        <ele>268.336</ele>
        <time>2019-09-23T11:58:42.000Z</time>
      </trkpt>
      <trkpt lat="48.45007" lon="5.67954">
        <ele>268.417</ele>
        <time>2019-09-23T11:58:45.000Z</time>
      </trkpt>
      <trkpt lat="48.45006" lon="5.67938">
        <ele>268.596</ele>
        <time>2019-09-23T11:58:48.000Z</time>
      </trkpt>
      <trkpt lat="48.45005" lon="5.67924">
        <ele>268.801</ele>
        <time>2019-09-23T11:58:51.000Z</time>
      </trkpt>
      <trkpt lat="48.44999" lon="5.67915">
        <ele>268.984</ele>
        <time>2019-09-23T11:58:54.000Z</time>
      </trkpt>
      <trkpt lat="48.44986" lon="5.67914">
        <ele>269.27</ele>
        <time>2019-09-23T11:58:57.000Z</time>
      </trkpt>
      <trkpt lat="48.44972" lon="5.67911">
        <ele>269.259</ele>
        <time>2019-09-23T11:59:00.000Z</time>
      </trkpt>
      <trkpt lat="48.4496" lon="5.67907">
        <ele>269.305</ele>
        <time>2019-09-23T11:59:03.000Z</time>
      </trkpt>
      <trkpt lat="48.44948" lon="5.67903">
        <ele>269.789</ele>
        <time>2019-09-23T11:59:06.000Z</time>
      </trkpt>
      <trkpt lat="48.44936" lon="5.67898">
        <ele>269.547</ele>
        <time>2019-09-23T11:59:09.000Z</time>
      </trkpt>
      <trkpt lat="48.44924" lon="5.67892">
        <ele>269.479</ele>
        <time>2019-09-23T11:59:12.000Z</time>
      </trkpt>
      <trkpt lat="48.44912" lon="5.67887">
        <ele>269.417</ele>
        <time>2019-09-23T11:59:15.000Z</time>
      </trkpt>
      <trkpt lat="48.449" lon="5.67879">
        <ele>269.002</ele>
        <time>2019-09-23T11:59:18.000Z</time>
      </trkpt>
      <trkpt lat="48.44889" lon="5.6787">
        <ele>268.544</ele>
        <time>2019-09-23T11:59:21.000Z</time>
      </trkpt>
      <trkpt lat="48.44879" lon="5.67862">
        <ele>268.48</ele>
        <time>2019-09-23T11:59:24.000Z</time>
      </trkpt>
      <trkpt lat="48.44869" lon="5.67853">
        <ele>268.658</ele>
        <time>2019-09-23T11:59:27.000Z</time>
      </trkpt>
      <trkpt lat="48.44859" lon="5.67844">
        <ele>268.268</ele>
        <time>2019-09-23T11:59:30.000Z</time>
      </trkpt>
      <trkpt lat="48.44848" lon="5.67834">
        <ele>267.812</ele>
        <time>2019-09-23T11:59:33.000Z</time>
      </trkpt>
      <trkpt lat="48.44837" lon="5.67824">
        <ele>267.051</ele>
        <time>2019-09-23T11:59:36.000Z</time>
      </trkpt>
      <trkpt lat="48.44827" lon="5.67815">
        <ele>266.799</ele>
        <time>2019-09-23T11:59:39.000Z</time>
      </trkpt>
      <trkpt lat="48.44817" lon="5.67807">
        <ele>267.102</ele>
        <time>2019-09-23T11:59:42.000Z</time>
      </trkpt>
      <trkpt lat="48.44806" lon="5.67799">
        <ele>267.133</ele>
        <time>2019-09-23T11:59:45.000Z</time>
      </trkpt>
      <trkpt lat="48.44796" lon="5.6779">
        <ele>267.383</ele>
        <time>2019-09-23T11:59:48.000Z</time>
      </trkpt>
      <trkpt lat="48.44787" lon="5.6778">
        <ele>267.454</ele>
        <time>2019-09-23T11:59:51.000Z</time>
      </trkpt>
      <trkpt lat="48.44777" lon="5.67772">
        <ele>267.612</ele>
        <time>2019-09-23T11:59:54.000Z</time>
      </trkpt>
      <trkpt lat="48.44768" lon="5.67762">
        <ele>268.264</ele>
        <time>2019-09-23T11:59:57.000Z</time>
      </trkpt>
      <trkpt lat="48.44768" lon="5.67745">
        <ele>268.366</ele>
        <time>2019-09-23T12:00:00.000Z</time>
      </trkpt>
      <trkpt lat="48.44772" lon="5.67728">
        <ele>269.032</ele>
        <time>2019-09-23T12:00:03.000Z</time>
      </trkpt>
      <trkpt lat="48.44774" lon="5.67712">
        <ele>268.922</ele>
        <time>2019-09-23T12:00:06.000Z</time>
      </trkpt>
      <trkpt lat="48.44777" lon="5.67698">
        <ele>269.837</ele>
        <time>2019-09-23T12:00:09.000Z</time>
      </trkpt>
      <trkpt lat="48.4478" lon="5.67685">
        <ele>271.011</ele>
        <time>2019-09-23T12:00:12.000Z</time>
      </trkpt>
      <trkpt lat="48.44783" lon="5.6767">
        <ele>271.447</ele>
        <time>2019-09-23T12:00:15.000Z</time>
      </trkpt>
      <trkpt lat="48.44785" lon="5.67658">
        <ele>272.17</ele>
        <time>2019-09-23T12:00:18.000Z</time>
      </trkpt>
      <trkpt lat="48.44786" lon="5.67649">
        <ele>273.017</ele>
        <time>2019-09-23T12:00:21.000Z</time>
      </trkpt>
      <trkpt lat="48.44782" lon="5.6764">
        <ele>274.804</ele>
        <time>2019-09-23T12:00:24.000Z</time>
      </trkpt>
      <trkpt lat="48.44778" lon="5.67631">
        <ele>275.809</ele>
        <time>2019-09-23T12:00:27.000Z</time>
      </trkpt>
      <trkpt lat="48.44773" lon="5.67629">
        <ele>276.208</ele>
        <time>2019-09-23T12:00:30.000Z</time>
      </trkpt>
      <trkpt lat="48.44768" lon="5.67622">
        <ele>275.342</ele>
        <time>2019-09-23T12:00:36.000Z</time>
      </trkpt>
      <trkpt lat="48.44768" lon="5.67622">
        <ele>275.209</ele>
        <time>2019-09-23T12:00:39.000Z</time>
      </trkpt>
      <trkpt lat="48.44768" lon="5.67622">
        <ele>275.209</ele>
        <time>2019-09-23T12:00:51.000Z</time>
      </trkpt>
      <trkpt lat="48.44767" lon="5.67621">
        <ele>274.753</ele>
        <time>2019-09-23T12:00:54.000Z</time>
      </trkpt>
      <trkpt lat="48.44767" lon="5.67622">
        <ele>274.636</ele>
        <time>2019-09-23T12:00:57.000Z</time>
      </trkpt>
      <trkpt lat="48.44768" lon="5.6762">
        <ele>275.06</ele>
        <time>2019-09-23T12:06:12.000Z</time>
      </trkpt>
      <trkpt lat="48.44768" lon="5.6762">
        <ele>274.969</ele>
        <time>2019-09-23T12:06:15.000Z</time>
      </trkpt>
      <trkpt lat="48.4477" lon="5.6762">
        <ele>274.765</ele>
        <time>2019-09-23T12:06:18.000Z</time>
      </trkpt>
      <trkpt lat="48.44771" lon="5.6762">
        <ele>275.039</ele>
        <time>2019-09-23T12:06:21.000Z</time>
      </trkpt>
      <trkpt lat="48.44771" lon="5.6762">
        <ele>274.773</ele>
        <time>2019-09-23T12:12:27.000Z</time>
      </trkpt>
      <trkpt lat="48.44772" lon="5.67618">
        <ele>274.773</ele>
        <time>2019-09-23T12:12:30.000Z</time>
      </trkpt>
      <trkpt lat="48.44772" lon="5.67617">
        <ele>274.236</ele>
        <time>2019-09-23T12:12:51.000Z</time>
      </trkpt>
      <trkpt lat="48.44772" lon="5.67617">
        <ele>274.236</ele>
        <time>2019-09-23T12:12:54.000Z</time>
      </trkpt>
      <trkpt lat="48.44772" lon="5.67617">
        <ele>274.236</ele>
        <time>2019-09-23T12:14:21.000Z</time>
      </trkpt>
      <trkpt lat="48.44772" lon="5.67617">
        <ele>274.236</ele>
        <time>2019-09-23T12:14:24.000Z</time>
      </trkpt>
      <trkpt lat="48.44772" lon="5.67617">
        <ele>274.236</ele>
        <time>2019-09-23T12:14:48.000Z</time>
      </trkpt>
      <trkpt lat="48.44772" lon="5.67617">
        <ele>274.236</ele>
        <time>2019-09-23T12:14:51.000Z</time>
      </trkpt>
      <trkpt lat="48.44772" lon="5.67617">
        <ele>274.236</ele>
        <time>2019-09-23T12:18:18.000Z</time>
      </trkpt>
      <trkpt lat="48.44772" lon="5.67617">
        <ele>274.236</ele>
        <time>2019-09-23T12:18:21.000Z</time>
      </trkpt>
      <trkpt lat="48.44772" lon="5.67617">
        <ele>274.236</ele>
        <time>2019-09-23T12:18:24.000Z</time>
      </trkpt>
      <trkpt lat="48.44772" lon="5.67617">
        <ele>274.236</ele>
        <time>2019-09-23T12:18:33.000Z</time>
      </trkpt>
      <trkpt lat="48.44772" lon="5.67617">
        <ele>274.236</ele>
        <time>2019-09-23T12:18:36.000Z</time>
      </trkpt>
      <trkpt lat="48.44772" lon="5.67617">
        <ele>274.471</ele>
        <time>2019-09-23T12:19:00.000Z</time>
      </trkpt>
      <trkpt lat="48.44772" lon="5.67617">
        <ele>274.471</ele>
        <time>2019-09-23T12:19:03.000Z</time>
      </trkpt>
      <trkpt lat="48.44772" lon="5.67617">
        <ele>274.471</ele>
        <time>2019-09-23T12:21:18.000Z</time>
      </trkpt>
      <trkpt lat="48.44771" lon="5.67618">
        <ele>274.374</ele>
        <time>2019-09-23T12:21:21.000Z</time>
      </trkpt>
      <trkpt lat="48.44771" lon="5.67618">
        <ele>274.438</ele>
        <time>2019-09-23T12:21:24.000Z</time>
      </trkpt>
      <trkpt lat="48.44771" lon="5.67618">
        <ele>272.951</ele>
        <time>2019-09-23T12:22:12.000Z</time>
      </trkpt>
      <trkpt lat="48.44773" lon="5.67621">
        <ele>272.951</ele>
        <time>2019-09-23T12:22:15.000Z</time>
      </trkpt>
      <trkpt lat="48.44772" lon="5.67621">
        <ele>272.381</ele>
        <time>2019-09-23T12:22:24.000Z</time>
      </trkpt>
      <trkpt lat="48.44772" lon="5.67621">
        <ele>272.381</ele>
        <time>2019-09-23T12:22:27.000Z</time>
      </trkpt>
      <trkpt lat="48.44772" lon="5.67621">
        <ele>272.381</ele>
        <time>2019-09-23T12:22:57.000Z</time>
      </trkpt>
      <trkpt lat="48.44771" lon="5.6762">
        <ele>272.381</ele>
        <time>2019-09-23T12:23:00.000Z</time>
      </trkpt>
      <trkpt lat="48.44771" lon="5.6762">
        <ele>272.381</ele>
        <time>2019-09-23T12:23:06.000Z</time>
      </trkpt>
      <trkpt lat="48.44771" lon="5.6762">
        <ele>272.381</ele>
        <time>2019-09-23T12:23:09.000Z</time>
      </trkpt>
      <trkpt lat="48.44771" lon="5.6762">
        <ele>272.381</ele>
        <time>2019-09-23T12:24:06.000Z</time>
      </trkpt>
      <trkpt lat="48.4477" lon="5.6762">
        <ele>272.136</ele>
        <time>2019-09-23T12:24:09.000Z</time>
      </trkpt>
      <trkpt lat="48.44768" lon="5.67618">
        <ele>271.899</ele>
        <time>2019-09-23T12:24:18.000Z</time>
      </trkpt>
      <trkpt lat="48.44767" lon="5.67618">
        <ele>271.825</ele>
        <time>2019-09-23T12:24:21.000Z</time>
      </trkpt>
      <trkpt lat="48.44767" lon="5.67618">
        <ele>269.155</ele>
        <time>2019-09-23T12:25:21.000Z</time>
      </trkpt>
      <trkpt lat="48.44768" lon="5.67617">
        <ele>268.631</ele>
        <time>2019-09-23T12:25:24.000Z</time>
      </trkpt>
      <trkpt lat="48.44769" lon="5.67617">
        <ele>268.599</ele>
        <time>2019-09-23T12:25:27.000Z</time>
      </trkpt>
      <trkpt lat="48.44769" lon="5.67617">
        <ele>268.599</ele>
        <time>2019-09-23T12:25:30.000Z</time>
      </trkpt>
      <trkpt lat="48.44769" lon="5.67617">
        <ele>268.199</ele>
        <time>2019-09-23T12:25:33.000Z</time>
      </trkpt>
      <trkpt lat="48.4477" lon="5.67616">
        <ele>268.133</ele>
        <time>2019-09-23T12:25:36.000Z</time>
      </trkpt>
      <trkpt lat="48.44771" lon="5.67613">
        <ele>267.707</ele>
        <time>2019-09-23T12:25:51.000Z</time>
      </trkpt>
      <trkpt lat="48.44771" lon="5.67613">
        <ele>267.707</ele>
        <time>2019-09-23T12:25:54.000Z</time>
      </trkpt>
      <trkpt lat="48.44771" lon="5.67613">
        <ele>267.673</ele>
        <time>2019-09-23T12:26:45.000Z</time>
      </trkpt>
      <trkpt lat="48.4477" lon="5.67612">
        <ele>267.805</ele>
        <time>2019-09-23T12:26:48.000Z</time>
      </trkpt>
      <trkpt lat="48.44773" lon="5.67616">
        <ele>267.708</ele>
        <time>2019-09-23T12:27:00.000Z</time>
      </trkpt>
      <trkpt lat="48.44771" lon="5.67616">
        <ele>270.1</ele>
        <time>2019-09-23T12:27:42.001Z</time>
      </trkpt>
      <trkpt lat="48.44771" lon="5.67616">
        <ele>270.1</ele>
        <time>2019-09-23T12:27:45.001Z</time>
      </trkpt>
      <trkpt lat="48.44771" lon="5.67616">
        <ele>269.919</ele>
        <time>2019-09-23T12:29:14.000Z</time>
      </trkpt>
      <trkpt lat="48.44767" lon="5.67617">
        <ele>277.516</ele>
        <time>2019-09-23T12:29:17.001Z</time>
      </trkpt>
      <trkpt lat="48.44766" lon="5.67618">
        <ele>276.369</ele>
        <time>2019-09-23T12:29:23.001Z</time>
      </trkpt>
      <trkpt lat="48.44767" lon="5.67618">
        <ele>275.558</ele>
        <time>2019-09-23T12:29:26.001Z</time>
      </trkpt>
      <trkpt lat="48.44767" lon="5.67618">
        <ele>273.925</ele>
        <time>2019-09-23T12:30:11.001Z</time>
      </trkpt>
      <trkpt lat="48.44773" lon="5.67614">
        <ele>273.925</ele>
        <time>2019-09-23T12:30:14.001Z</time>
      </trkpt>
      <trkpt lat="48.44773" lon="5.67614">
        <ele>273.925</ele>
        <time>2019-09-23T12:30:17.001Z</time>
      </trkpt>
      <trkpt lat="48.44773" lon="5.67614">
        <ele>273.925</ele>
        <time>2019-09-23T12:30:20.001Z</time>
      </trkpt>
      <trkpt lat="48.44772" lon="5.67615">
        <ele>270.548</ele>
        <time>2019-09-23T12:30:35.001Z</time>
      </trkpt>
      <trkpt lat="48.44772" lon="5.67615">
        <ele>270.548</ele>
        <time>2019-09-23T12:30:38.001Z</time>
      </trkpt>
      <trkpt lat="48.44772" lon="5.67615">
        <ele>270.548</ele>
        <time>2019-09-23T12:31:38.001Z</time>
      </trkpt>
      <trkpt lat="48.4477" lon="5.67615">
        <ele>270.548</ele>
        <time>2019-09-23T12:31:41.001Z</time>
      </trkpt>
      <trkpt lat="48.44771" lon="5.67615">
        <ele>270.548</ele>
        <time>2019-09-23T12:31:47.001Z</time>
      </trkpt>
      <trkpt lat="48.44771" lon="5.67615">
        <ele>270.548</ele>
        <time>2019-09-23T12:31:50.001Z</time>
      </trkpt>
      <trkpt lat="48.44771" lon="5.67614">
        <ele>270.548</ele>
        <time>2019-09-23T12:32:35.001Z</time>
      </trkpt>
      <trkpt lat="48.4477" lon="5.67614">
        <ele>270.211</ele>
        <time>2019-09-23T12:32:38.001Z</time>
      </trkpt>
      <trkpt lat="48.44763" lon="5.67614">
        <ele>269.419</ele>
        <time>2019-09-23T12:32:44.001Z</time>
      </trkpt>
      <trkpt lat="48.44757" lon="5.67619">
        <ele>268.632</ele>
        <time>2019-09-23T12:32:47.001Z</time>
      </trkpt>
      <trkpt lat="48.44747" lon="5.67625">
        <ele>267.423</ele>
        <time>2019-09-23T12:32:50.001Z</time>
      </trkpt>
      <trkpt lat="48.44735" lon="5.67627">
        <ele>266.628</ele>
        <time>2019-09-23T12:32:53.001Z</time>
      </trkpt>
      <trkpt lat="48.44723" lon="5.67625">
        <ele>265.999</ele>
        <time>2019-09-23T12:32:56.001Z</time>
      </trkpt>
      <trkpt lat="48.44711" lon="5.67623">
        <ele>265.352</ele>
        <time>2019-09-23T12:32:59.001Z</time>
      </trkpt>
      <trkpt lat="48.447" lon="5.6762">
        <ele>264.996</ele>
        <time>2019-09-23T12:33:02.000Z</time>
      </trkpt>
      <trkpt lat="48.44691" lon="5.67614">
        <ele>265.109</ele>
        <time>2019-09-23T12:33:05.001Z</time>
      </trkpt>
      <trkpt lat="48.44684" lon="5.67613">
        <ele>265.368</ele>
        <time>2019-09-23T12:33:08.001Z</time>
      </trkpt>
      <trkpt lat="48.44671" lon="5.67609">
        <ele>265.2</ele>
        <time>2019-09-23T12:33:11.001Z</time>
      </trkpt>
      <trkpt lat="48.44658" lon="5.67605">
        <ele>265.272</ele>
        <time>2019-09-23T12:33:14.001Z</time>
      </trkpt>
      <trkpt lat="48.44646" lon="5.67602">
        <ele>265.487</ele>
        <time>2019-09-23T12:33:17.001Z</time>
      </trkpt>
      <trkpt lat="48.44632" lon="5.67602">
        <ele>265.878</ele>
        <time>2019-09-23T12:33:20.001Z</time>
      </trkpt>
      <trkpt lat="48.44618" lon="5.67602">
        <ele>266.613</ele>
        <time>2019-09-23T12:33:23.001Z</time>
      </trkpt>
      <trkpt lat="48.44606" lon="5.67601">
        <ele>267.555</ele>
        <time>2019-09-23T12:33:26.001Z</time>
      </trkpt>
      <trkpt lat="48.44596" lon="5.67599">
        <ele>267.573</ele>
        <time>2019-09-23T12:33:29.001Z</time>
      </trkpt>
      <trkpt lat="48.44585" lon="5.67597">
        <ele>267.636</ele>
        <time>2019-09-23T12:33:32.001Z</time>
      </trkpt>
      <trkpt lat="48.44576" lon="5.67597">
        <ele>267.827</ele>
        <time>2019-09-23T12:33:35.001Z</time>
      </trkpt>
      <trkpt lat="48.44566" lon="5.67594">
        <ele>268.108</ele>
        <time>2019-09-23T12:33:38.001Z</time>
      </trkpt>
      <trkpt lat="48.44555" lon="5.6759">
        <ele>267.946</ele>
        <time>2019-09-23T12:33:41.001Z</time>
      </trkpt>
      <trkpt lat="48.44544" lon="5.67587">
        <ele>267.493</ele>
        <time>2019-09-23T12:33:44.001Z</time>
      </trkpt>
      <trkpt lat="48.44533" lon="5.67585">
        <ele>267.122</ele>
        <time>2019-09-23T12:33:47.001Z</time>
      </trkpt>
      <trkpt lat="48.44521" lon="5.67584">
        <ele>266.992</ele>
        <time>2019-09-23T12:33:50.001Z</time>
      </trkpt>
      <trkpt lat="48.44509" lon="5.67582">
        <ele>266.707</ele>
        <time>2019-09-23T12:33:53.001Z</time>
      </trkpt>
      <trkpt lat="48.44498" lon="5.67577">
        <ele>266.464</ele>
        <time>2019-09-23T12:33:56.001Z</time>
      </trkpt>
      <trkpt lat="48.44487" lon="5.67575">
        <ele>266.691</ele>
        <time>2019-09-23T12:33:59.001Z</time>
      </trkpt>
      <trkpt lat="48.44476" lon="5.67573">
        <ele>267.323</ele>
        <time>2019-09-23T12:34:02.000Z</time>
      </trkpt>
      <trkpt lat="48.44466" lon="5.67569">
        <ele>267.768</ele>
        <time>2019-09-23T12:34:05.001Z</time>
      </trkpt>
      <trkpt lat="48.44454" lon="5.67566">
        <ele>268.233</ele>
        <time>2019-09-23T12:34:08.001Z</time>
      </trkpt>
      <trkpt lat="48.44442" lon="5.67563">
        <ele>268.757</ele>
        <time>2019-09-23T12:34:11.001Z</time>
      </trkpt>
      <trkpt lat="48.44432" lon="5.67559">
        <ele>269.625</ele>
        <time>2019-09-23T12:34:14.001Z</time>
      </trkpt>
      <trkpt lat="48.4442" lon="5.67557">
        <ele>270.565</ele>
        <time>2019-09-23T12:34:17.001Z</time>
      </trkpt>
      <trkpt lat="48.44406" lon="5.67554">
        <ele>270.791</ele>
        <time>2019-09-23T12:34:20.001Z</time>
      </trkpt>
      <trkpt lat="48.44392" lon="5.67551">
        <ele>270.897</ele>
        <time>2019-09-23T12:34:23.001Z</time>
      </trkpt>
      <trkpt lat="48.44377" lon="5.6755">
        <ele>271.227</ele>
        <time>2019-09-23T12:34:26.001Z</time>
      </trkpt>
      <trkpt lat="48.44363" lon="5.67548">
        <ele>271.076</ele>
        <time>2019-09-23T12:34:29.001Z</time>
      </trkpt>
      <trkpt lat="48.44349" lon="5.67546">
        <ele>271.001</ele>
        <time>2019-09-23T12:34:32.001Z</time>
      </trkpt>
      <trkpt lat="48.44337" lon="5.67546">
        <ele>271.394</ele>
        <time>2019-09-23T12:34:35.001Z</time>
      </trkpt>
      <trkpt lat="48.44325" lon="5.67544">
        <ele>271.839</ele>
        <time>2019-09-23T12:34:38.001Z</time>
      </trkpt>
      <trkpt lat="48.44314" lon="5.67541">
        <ele>272.326</ele>
        <time>2019-09-23T12:34:41.001Z</time>
      </trkpt>
      <trkpt lat="48.44302" lon="5.67539">
        <ele>273.104</ele>
        <time>2019-09-23T12:34:44.001Z</time>
      </trkpt>
      <trkpt lat="48.44291" lon="5.67537">
        <ele>273.923</ele>
        <time>2019-09-23T12:34:47.001Z</time>
      </trkpt>
      <trkpt lat="48.44291" lon="5.67521">
        <ele>273.821</ele>
        <time>2019-09-23T12:34:50.001Z</time>
      </trkpt>
      <trkpt lat="48.44298" lon="5.67502">
        <ele>273.235</ele>
        <time>2019-09-23T12:34:53.001Z</time>
      </trkpt>
      <trkpt lat="48.44305" lon="5.67489">
        <ele>272.681</ele>
        <time>2019-09-23T12:34:56.001Z</time>
      </trkpt>
      <trkpt lat="48.4431" lon="5.67475">
        <ele>272.111</ele>
        <time>2019-09-23T12:34:59.001Z</time>
      </trkpt>
      <trkpt lat="48.44312" lon="5.6746">
        <ele>271.705</ele>
        <time>2019-09-23T12:35:02.000Z</time>
      </trkpt>
      <trkpt lat="48.44312" lon="5.67444">
        <ele>271.662</ele>
        <time>2019-09-23T12:35:05.001Z</time>
      </trkpt>
      <trkpt lat="48.44304" lon="5.67427">
        <ele>273.126</ele>
        <time>2019-09-23T12:35:08.001Z</time>
      </trkpt>
      <trkpt lat="48.44292" lon="5.67421">
        <ele>273.788</ele>
        <time>2019-09-23T12:35:11.001Z</time>
      </trkpt>
      <trkpt lat="48.4428" lon="5.67414">
        <ele>273.903</ele>
        <time>2019-09-23T12:35:14.001Z</time>
      </trkpt>
      <trkpt lat="48.44271" lon="5.67408">
        <ele>273.419</ele>
        <time>2019-09-23T12:35:17.001Z</time>
      </trkpt>
      <trkpt lat="48.44261" lon="5.67402">
        <ele>273.345</ele>
        <time>2019-09-23T12:35:20.001Z</time>
      </trkpt>
      <trkpt lat="48.4425" lon="5.67396">
        <ele>273.154</ele>
        <time>2019-09-23T12:35:23.001Z</time>
      </trkpt>
      <trkpt lat="48.44238" lon="5.67391">
        <ele>273.124</ele>
        <time>2019-09-23T12:35:26.001Z</time>
      </trkpt>
      <trkpt lat="48.44228" lon="5.67386">
        <ele>273.09</ele>
        <time>2019-09-23T12:35:29.001Z</time>
      </trkpt>
      <trkpt lat="48.44217" lon="5.67378">
        <ele>273.461</ele>
        <time>2019-09-23T12:35:32.001Z</time>
      </trkpt>
      <trkpt lat="48.44206" lon="5.67372">
        <ele>272.375</ele>
        <time>2019-09-23T12:35:35.001Z</time>
      </trkpt>
      <trkpt lat="48.44194" lon="5.67364">
        <ele>271.569</ele>
        <time>2019-09-23T12:35:38.001Z</time>
      </trkpt>
      <trkpt lat="48.44183" lon="5.67358">
        <ele>270.083</ele>
        <time>2019-09-23T12:35:41.001Z</time>
      </trkpt>
      <trkpt lat="48.44174" lon="5.67351">
        <ele>268.252</ele>
        <time>2019-09-23T12:35:44.001Z</time>
      </trkpt>
      <trkpt lat="48.44165" lon="5.67343">
        <ele>268.045</ele>
        <time>2019-09-23T12:35:47.001Z</time>
      </trkpt>
      <trkpt lat="48.44155" lon="5.67338">
        <ele>268.821</ele>
        <time>2019-09-23T12:35:50.001Z</time>
      </trkpt>
      <trkpt lat="48.44146" lon="5.67333">
        <ele>269.015</ele>
        <time>2019-09-23T12:35:53.001Z</time>
      </trkpt>
      <trkpt lat="48.44138" lon="5.67331">
        <ele>268.379</ele>
        <time>2019-09-23T12:35:56.001Z</time>
      </trkpt>
      <trkpt lat="48.44129" lon="5.67326">
        <ele>268.563</ele>
        <time>2019-09-23T12:35:59.001Z</time>
      </trkpt>
      <trkpt lat="48.4412" lon="5.67318">
        <ele>267.773</ele>
        <time>2019-09-23T12:36:02.000Z</time>
      </trkpt>
      <trkpt lat="48.44116" lon="5.67306">
        <ele>267.502</ele>
        <time>2019-09-23T12:36:05.001Z</time>
      </trkpt>
      <trkpt lat="48.44118" lon="5.67296">
        <ele>267.359</ele>
        <time>2019-09-23T12:36:08.001Z</time>
      </trkpt>
      <trkpt lat="48.44123" lon="5.6729">
        <ele>268.214</ele>
        <time>2019-09-23T12:36:11.001Z</time>
      </trkpt>
      <trkpt lat="48.44124" lon="5.67287">
        <ele>268.801</ele>
        <time>2019-09-23T12:36:14.001Z</time>
      </trkpt>
      <trkpt lat="48.44124" lon="5.67287">
        <ele>268.935</ele>
        <time>2019-09-23T12:37:02.000Z</time>
      </trkpt>
      <trkpt lat="48.44123" lon="5.67288">
        <ele>269.053</ele>
        <time>2019-09-23T12:37:05.001Z</time>
      </trkpt>
      <trkpt lat="48.44124" lon="5.67288">
        <ele>269.06</ele>
        <time>2019-09-23T12:37:08.001Z</time>
      </trkpt>
      <trkpt lat="48.44124" lon="5.67287">
        <ele>269.043</ele>
        <time>2019-09-23T12:37:17.001Z</time>
      </trkpt>
      <trkpt lat="48.44123" lon="5.67284">
        <ele>269.091</ele>
        <time>2019-09-23T12:37:20.001Z</time>
      </trkpt>
      <trkpt lat="48.44117" lon="5.67285">
        <ele>269.8</ele>
        <time>2019-09-23T12:37:26.001Z</time>
      </trkpt>
      <trkpt lat="48.44116" lon="5.67287">
        <ele>270.184</ele>
        <time>2019-09-23T12:37:29.001Z</time>
      </trkpt>
      <trkpt lat="48.44115" lon="5.67286">
        <ele>270.237</ele>
        <time>2019-09-23T12:37:32.001Z</time>
      </trkpt>
      <trkpt lat="48.44115" lon="5.67286">
        <ele>270.237</ele>
        <time>2019-09-23T12:37:38.001Z</time>
      </trkpt>
      <trkpt lat="48.44114" lon="5.67292">
        <ele>270.108</ele>
        <time>2019-09-23T12:37:41.001Z</time>
      </trkpt>
      <trkpt lat="48.44111" lon="5.67305">
        <ele>269.973</ele>
        <time>2019-09-23T12:37:44.001Z</time>
      </trkpt>
      <trkpt lat="48.44108" lon="5.67324">
        <ele>269.718</ele>
        <time>2019-09-23T12:37:47.001Z</time>
      </trkpt>
      <trkpt lat="48.44105" lon="5.67344">
        <ele>269.655</ele>
        <time>2019-09-23T12:37:50.001Z</time>
      </trkpt>
      <trkpt lat="48.44099" lon="5.67359">
        <ele>269.822</ele>
        <time>2019-09-23T12:37:53.001Z</time>
      </trkpt>
      <trkpt lat="48.44087" lon="5.67354">
        <ele>269.74</ele>
        <time>2019-09-23T12:37:56.001Z</time>
      </trkpt>
      <trkpt lat="48.44076" lon="5.67346">
        <ele>269.82</ele>
        <time>2019-09-23T12:37:59.001Z</time>
      </trkpt>
      <trkpt lat="48.44064" lon="5.67342">
        <ele>269.775</ele>
        <time>2019-09-23T12:38:02.000Z</time>
      </trkpt>
      <trkpt lat="48.44054" lon="5.67336">
        <ele>269.44</ele>
        <time>2019-09-23T12:38:05.001Z</time>
      </trkpt>
      <trkpt lat="48.44047" lon="5.67331">
        <ele>268.811</ele>
        <time>2019-09-23T12:38:08.001Z</time>
      </trkpt>
      <trkpt lat="48.44037" lon="5.67328">
        <ele>268.315</ele>
        <time>2019-09-23T12:38:11.001Z</time>
      </trkpt>
      <trkpt lat="48.44028" lon="5.67323">
        <ele>267.629</ele>
        <time>2019-09-23T12:38:14.001Z</time>
      </trkpt>
      <trkpt lat="48.44018" lon="5.67322">
        <ele>268.199</ele>
        <time>2019-09-23T12:38:17.001Z</time>
      </trkpt>
      <trkpt lat="48.44007" lon="5.67321">
        <ele>268.809</ele>
        <time>2019-09-23T12:38:20.001Z</time>
      </trkpt>
      <trkpt lat="48.43995" lon="5.6732">
        <ele>269.849</ele>
        <time>2019-09-23T12:38:23.001Z</time>
      </trkpt>
      <trkpt lat="48.43985" lon="5.6732">
        <ele>270.377</ele>
        <time>2019-09-23T12:38:26.001Z</time>
      </trkpt>
      <trkpt lat="48.43979" lon="5.6732">
        <ele>270.666</ele>
        <time>2019-09-23T12:38:29.001Z</time>
      </trkpt>
      <trkpt lat="48.43979" lon="5.6732">
        <ele>271.037</ele>
        <time>2019-09-23T12:38:32.001Z</time>
      </trkpt>
      <trkpt lat="48.43964" lon="5.6732">
        <ele>271.518</ele>
        <time>2019-09-23T12:38:35.001Z</time>
      </trkpt>
      <trkpt lat="48.43955" lon="5.67322">
        <ele>271.861</ele>
        <time>2019-09-23T12:38:38.001Z</time>
      </trkpt>
      <trkpt lat="48.43947" lon="5.67323">
        <ele>271.121</ele>
        <time>2019-09-23T12:38:41.001Z</time>
      </trkpt>
      <trkpt lat="48.43939" lon="5.67323">
        <ele>270.597</ele>
        <time>2019-09-23T12:38:44.001Z</time>
      </trkpt>
      <trkpt lat="48.4393" lon="5.67321">
        <ele>270.033</ele>
        <time>2019-09-23T12:38:47.001Z</time>
      </trkpt>
      <trkpt lat="48.43922" lon="5.6732">
        <ele>269.266</ele>
        <time>2019-09-23T12:38:50.001Z</time>
      </trkpt>
      <trkpt lat="48.43911" lon="5.67319">
        <ele>268.395</ele>
        <time>2019-09-23T12:38:53.001Z</time>
      </trkpt>
      <trkpt lat="48.43898" lon="5.67319">
        <ele>267.524</ele>
        <time>2019-09-23T12:38:56.001Z</time>
      </trkpt>
      <trkpt lat="48.43887" lon="5.67318">
        <ele>266.664</ele>
        <time>2019-09-23T12:38:59.001Z</time>
      </trkpt>
      <trkpt lat="48.43865" lon="5.6732">
        <ele>266.552</ele>
        <time>2019-09-23T12:39:02.000Z</time>
      </trkpt>
      <trkpt lat="48.43854" lon="5.67321">
        <ele>267.266</ele>
        <time>2019-09-23T12:39:05.001Z</time>
      </trkpt>
      <trkpt lat="48.43843" lon="5.67322">
        <ele>268.129</ele>
        <time>2019-09-23T12:39:08.001Z</time>
      </trkpt>
      <trkpt lat="48.43835" lon="5.67321">
        <ele>268.812</ele>
        <time>2019-09-23T12:39:11.001Z</time>
      </trkpt>
      <trkpt lat="48.43826" lon="5.67318">
        <ele>269.605</ele>
        <time>2019-09-23T12:39:14.001Z</time>
      </trkpt>
      <trkpt lat="48.43816" lon="5.67316">
        <ele>270.58</ele>
        <time>2019-09-23T12:39:17.001Z</time>
      </trkpt>
      <trkpt lat="48.43807" lon="5.67315">
        <ele>271.712</ele>
        <time>2019-09-23T12:39:20.001Z</time>
      </trkpt>
      <trkpt lat="48.43797" lon="5.67313">
        <ele>272.164</ele>
        <time>2019-09-23T12:39:23.001Z</time>
      </trkpt>
      <trkpt lat="48.4379" lon="5.67309">
        <ele>272.245</ele>
        <time>2019-09-23T12:39:26.001Z</time>
      </trkpt>
      <trkpt lat="48.43784" lon="5.67301">
        <ele>272.643</ele>
        <time>2019-09-23T12:39:29.001Z</time>
      </trkpt>
      <trkpt lat="48.43777" lon="5.67294">
        <ele>273.446</ele>
        <time>2019-09-23T12:39:32.001Z</time>
      </trkpt>
      <trkpt lat="48.43771" lon="5.67289">
        <ele>274.276</ele>
        <time>2019-09-23T12:39:35.001Z</time>
      </trkpt>
      <trkpt lat="48.43766" lon="5.67284">
        <ele>275.059</ele>
        <time>2019-09-23T12:39:38.001Z</time>
      </trkpt>
      <trkpt lat="48.43764" lon="5.67282">
        <ele>276.149</ele>
        <time>2019-09-23T12:39:41.001Z</time>
      </trkpt>
      <trkpt lat="48.43764" lon="5.67282">
        <ele>276.606</ele>
        <time>2019-09-23T12:39:44.001Z</time>
      </trkpt>
      <trkpt lat="48.43756" lon="5.6727">
        <ele>276.984</ele>
        <time>2019-09-23T12:39:47.001Z</time>
      </trkpt>
      <trkpt lat="48.43752" lon="5.67265">
        <ele>277.301</ele>
        <time>2019-09-23T12:39:50.001Z</time>
      </trkpt>
      <trkpt lat="48.43748" lon="5.6726">
        <ele>277.859</ele>
        <time>2019-09-23T12:39:53.001Z</time>
      </trkpt>
      <trkpt lat="48.43744" lon="5.67256">
        <ele>278.276</ele>
        <time>2019-09-23T12:39:56.001Z</time>
      </trkpt>
      <trkpt lat="48.43737" lon="5.67248">
        <ele>280.28</ele>
        <time>2019-09-23T12:40:02.000Z</time>
      </trkpt>
      <trkpt lat="48.43733" lon="5.67243">
        <ele>281.864</ele>
        <time>2019-09-23T12:40:05.001Z</time>
      </trkpt>
      <trkpt lat="48.43724" lon="5.6723">
        <ele>283.531</ele>
        <time>2019-09-23T12:40:08.001Z</time>
      </trkpt>
      <trkpt lat="48.43719" lon="5.67226">
        <ele>284.326</ele>
        <time>2019-09-23T12:40:11.001Z</time>
      </trkpt>
      <trkpt lat="48.43714" lon="5.67222">
        <ele>285.042</ele>
        <time>2019-09-23T12:40:14.001Z</time>
      </trkpt>
      <trkpt lat="48.4371" lon="5.67217">
        <ele>286.158</ele>
        <time>2019-09-23T12:40:17.001Z</time>
      </trkpt>
      <trkpt lat="48.43706" lon="5.67213">
        <ele>287.432</ele>
        <time>2019-09-23T12:40:20.001Z</time>
      </trkpt>
      <trkpt lat="48.43703" lon="5.67207">
        <ele>287.237</ele>
        <time>2019-09-23T12:40:23.001Z</time>
      </trkpt>
      <trkpt lat="48.43695" lon="5.67198">
        <ele>287.599</ele>
        <time>2019-09-23T12:40:29.001Z</time>
      </trkpt>
      <trkpt lat="48.43691" lon="5.67192">
        <ele>288.087</ele>
        <time>2019-09-23T12:40:32.001Z</time>
      </trkpt>
      <trkpt lat="48.43687" lon="5.67187">
        <ele>289.127</ele>
        <time>2019-09-23T12:40:35.001Z</time>
      </trkpt>
      <trkpt lat="48.43682" lon="5.67183">
        <ele>289.95</ele>
        <time>2019-09-23T12:40:38.001Z</time>
      </trkpt>
      <trkpt lat="48.43675" lon="5.67175">
        <ele>290.201</ele>
        <time>2019-09-23T12:40:44.001Z</time>
      </trkpt>
      <trkpt lat="48.4367" lon="5.67174">
        <ele>290.353</ele>
        <time>2019-09-23T12:40:47.001Z</time>
      </trkpt>
      <trkpt lat="48.43666" lon="5.67171">
        <ele>290.751</ele>
        <time>2019-09-23T12:40:50.001Z</time>
      </trkpt>
      <trkpt lat="48.43655" lon="5.6717">
        <ele>292.097</ele>
        <time>2019-09-23T12:40:56.001Z</time>
      </trkpt>
      <trkpt lat="48.43649" lon="5.67168">
        <ele>292.523</ele>
        <time>2019-09-23T12:40:59.001Z</time>
      </trkpt>
      <trkpt lat="48.43643" lon="5.67167">
        <ele>293.413</ele>
        <time>2019-09-23T12:41:02.000Z</time>
      </trkpt>
      <trkpt lat="48.43636" lon="5.67167">
        <ele>294.405</ele>
        <time>2019-09-23T12:41:05.001Z</time>
      </trkpt>
      <trkpt lat="48.43628" lon="5.67169">
        <ele>295.036</ele>
        <time>2019-09-23T12:41:08.001Z</time>
      </trkpt>
      <trkpt lat="48.4362" lon="5.67169">
        <ele>295.722</ele>
        <time>2019-09-23T12:41:11.001Z</time>
      </trkpt>
      <trkpt lat="48.43614" lon="5.67167">
        <ele>295.918</ele>
        <time>2019-09-23T12:41:14.001Z</time>
      </trkpt>
      <trkpt lat="48.43609" lon="5.67164">
        <ele>296.56</ele>
        <time>2019-09-23T12:41:17.001Z</time>
      </trkpt>
      <trkpt lat="48.43604" lon="5.67162">
        <ele>296.692</ele>
        <time>2019-09-23T12:41:20.001Z</time>
      </trkpt>
      <trkpt lat="48.43599" lon="5.67159">
        <ele>297.811</ele>
        <time>2019-09-23T12:41:23.001Z</time>
      </trkpt>
      <trkpt lat="48.43594" lon="5.67155">
        <ele>297.542</ele>
        <time>2019-09-23T12:41:26.001Z</time>
      </trkpt>
      <trkpt lat="48.43589" lon="5.6715">
        <ele>296.986</ele>
        <time>2019-09-23T12:41:29.001Z</time>
      </trkpt>
      <trkpt lat="48.43584" lon="5.67145">
        <ele>296.447</ele>
        <time>2019-09-23T12:41:32.001Z</time>
      </trkpt>
      <trkpt lat="48.43579" lon="5.67144">
        <ele>296.297</ele>
        <time>2019-09-23T12:41:35.001Z</time>
      </trkpt>
      <trkpt lat="48.43573" lon="5.67142">
        <ele>295.901</ele>
        <time>2019-09-23T12:41:38.001Z</time>
      </trkpt>
      <trkpt lat="48.43568" lon="5.67142">
        <ele>295.974</ele>
        <time>2019-09-23T12:41:41.001Z</time>
      </trkpt>
      <trkpt lat="48.43561" lon="5.67139">
        <ele>296.391</ele>
        <time>2019-09-23T12:41:44.001Z</time>
      </trkpt>
      <trkpt lat="48.43556" lon="5.67139">
        <ele>296.65</ele>
        <time>2019-09-23T12:41:47.001Z</time>
      </trkpt>
      <trkpt lat="48.4355" lon="5.67139">
        <ele>296.813</ele>
        <time>2019-09-23T12:41:50.001Z</time>
      </trkpt>
      <trkpt lat="48.43543" lon="5.67139">
        <ele>296.896</ele>
        <time>2019-09-23T12:41:53.001Z</time>
      </trkpt>
      <trkpt lat="48.43537" lon="5.67136">
        <ele>296.233</ele>
        <time>2019-09-23T12:41:56.001Z</time>
      </trkpt>
      <trkpt lat="48.4353" lon="5.67136">
        <ele>295.438</ele>
        <time>2019-09-23T12:41:59.001Z</time>
      </trkpt>
      <trkpt lat="48.43523" lon="5.67137">
        <ele>295.085</ele>
        <time>2019-09-23T12:42:02.000Z</time>
      </trkpt>
      <trkpt lat="48.43517" lon="5.67135">
        <ele>295.379</ele>
        <time>2019-09-23T12:42:05.001Z</time>
      </trkpt>
      <trkpt lat="48.43508" lon="5.67134">
        <ele>296.46</ele>
        <time>2019-09-23T12:42:11.001Z</time>
      </trkpt>
      <trkpt lat="48.43502" lon="5.67132">
        <ele>296.321</ele>
        <time>2019-09-23T12:42:14.001Z</time>
      </trkpt>
      <trkpt lat="48.43494" lon="5.67129">
        <ele>295.588</ele>
        <time>2019-09-23T12:42:17.001Z</time>
      </trkpt>
      <trkpt lat="48.43486" lon="5.67127">
        <ele>295.164</ele>
        <time>2019-09-23T12:42:20.001Z</time>
      </trkpt>
      <trkpt lat="48.43479" lon="5.67124">
        <ele>296.31</ele>
        <time>2019-09-23T12:42:23.001Z</time>
      </trkpt>
      <trkpt lat="48.43473" lon="5.67124">
        <ele>297.055</ele>
        <time>2019-09-23T12:42:26.001Z</time>
      </trkpt>
      <trkpt lat="48.43467" lon="5.6712">
        <ele>297.067</ele>
        <time>2019-09-23T12:42:29.001Z</time>
      </trkpt>
      <trkpt lat="48.43462" lon="5.67118">
        <ele>296.514</ele>
        <time>2019-09-23T12:42:32.001Z</time>
      </trkpt>
      <trkpt lat="48.43458" lon="5.67117">
        <ele>296.22</ele>
        <time>2019-09-23T12:42:35.001Z</time>
      </trkpt>
      <trkpt lat="48.43458" lon="5.67117">
        <ele>296.024</ele>
        <time>2019-09-23T12:42:38.001Z</time>
      </trkpt>
      <trkpt lat="48.43451" lon="5.67117">
        <ele>295.577</ele>
        <time>2019-09-23T12:42:41.001Z</time>
      </trkpt>
      <trkpt lat="48.43446" lon="5.67116">
        <ele>295.52</ele>
        <time>2019-09-23T12:42:44.001Z</time>
      </trkpt>
      <trkpt lat="48.43439" lon="5.67115">
        <ele>296.436</ele>
        <time>2019-09-23T12:42:47.001Z</time>
      </trkpt>
      <trkpt lat="48.43432" lon="5.67114">
        <ele>296.938</ele>
        <time>2019-09-23T12:42:50.001Z</time>
      </trkpt>
      <trkpt lat="48.43415" lon="5.67111">
        <ele>297.594</ele>
        <time>2019-09-23T12:42:53.001Z</time>
      </trkpt>
      <trkpt lat="48.43407" lon="5.67113">
        <ele>297.398</ele>
        <time>2019-09-23T12:42:56.001Z</time>
      </trkpt>
      <trkpt lat="48.434" lon="5.67116">
        <ele>297.104</ele>
        <time>2019-09-23T12:42:59.001Z</time>
      </trkpt>
      <trkpt lat="48.43393" lon="5.67115">
        <ele>296.993</ele>
        <time>2019-09-23T12:43:02.000Z</time>
      </trkpt>
      <trkpt lat="48.43385" lon="5.67115">
        <ele>296.683</ele>
        <time>2019-09-23T12:43:05.001Z</time>
      </trkpt>
      <trkpt lat="48.43377" lon="5.67114">
        <ele>297.255</ele>
        <time>2019-09-23T12:43:08.001Z</time>
      </trkpt>
      <trkpt lat="48.43369" lon="5.67116">
        <ele>296.829</ele>
        <time>2019-09-23T12:43:11.001Z</time>
      </trkpt>
      <trkpt lat="48.4336" lon="5.67116">
        <ele>295.873</ele>
        <time>2019-09-23T12:43:14.001Z</time>
      </trkpt>
      <trkpt lat="48.43353" lon="5.67114">
        <ele>296.058</ele>
        <time>2019-09-23T12:43:17.001Z</time>
      </trkpt>
      <trkpt lat="48.43347" lon="5.6711">
        <ele>296.18</ele>
        <time>2019-09-23T12:43:20.001Z</time>
      </trkpt>
      <trkpt lat="48.4334" lon="5.67113">
        <ele>296.289</ele>
        <time>2019-09-23T12:43:23.001Z</time>
      </trkpt>
      <trkpt lat="48.43332" lon="5.67117">
        <ele>296.644</ele>
        <time>2019-09-23T12:43:26.001Z</time>
      </trkpt>
      <trkpt lat="48.43325" lon="5.67115">
        <ele>297.312</ele>
        <time>2019-09-23T12:43:29.001Z</time>
      </trkpt>
      <trkpt lat="48.43316" lon="5.67116">
        <ele>297.845</ele>
        <time>2019-09-23T12:43:32.001Z</time>
      </trkpt>
      <trkpt lat="48.43306" lon="5.6712">
        <ele>299.259</ele>
        <time>2019-09-23T12:43:35.001Z</time>
      </trkpt>
      <trkpt lat="48.43298" lon="5.6712">
        <ele>300.009</ele>
        <time>2019-09-23T12:43:38.001Z</time>
      </trkpt>
      <trkpt lat="48.4329" lon="5.67122">
        <ele>300.736</ele>
        <time>2019-09-23T12:43:41.001Z</time>
      </trkpt>
      <trkpt lat="48.43283" lon="5.67122">
        <ele>301.378</ele>
        <time>2019-09-23T12:43:44.001Z</time>
      </trkpt>
      <trkpt lat="48.43276" lon="5.67121">
        <ele>302.224</ele>
        <time>2019-09-23T12:43:47.001Z</time>
      </trkpt>
      <trkpt lat="48.43268" lon="5.6712">
        <ele>303.998</ele>
        <time>2019-09-23T12:43:50.001Z</time>
      </trkpt>
      <trkpt lat="48.4326" lon="5.67119">
        <ele>305.493</ele>
        <time>2019-09-23T12:43:53.001Z</time>
      </trkpt>
      <trkpt lat="48.43252" lon="5.67116">
        <ele>305.669</ele>
        <time>2019-09-23T12:43:56.001Z</time>
      </trkpt>
      <trkpt lat="48.43244" lon="5.67114">
        <ele>304.982</ele>
        <time>2019-09-23T12:43:59.001Z</time>
      </trkpt>
      <trkpt lat="48.43235" lon="5.67114">
        <ele>304.912</ele>
        <time>2019-09-23T12:44:02.000Z</time>
      </trkpt>
      <trkpt lat="48.43227" lon="5.67116">
        <ele>305.237</ele>
        <time>2019-09-23T12:44:05.001Z</time>
      </trkpt>
      <trkpt lat="48.43221" lon="5.67113">
        <ele>305.723</ele>
        <time>2019-09-23T12:44:08.001Z</time>
      </trkpt>
      <trkpt lat="48.43213" lon="5.67112">
        <ele>305.638</ele>
        <time>2019-09-23T12:44:11.001Z</time>
      </trkpt>
      <trkpt lat="48.43205" lon="5.6711">
        <ele>305.604</ele>
        <time>2019-09-23T12:44:14.001Z</time>
      </trkpt>
      <trkpt lat="48.43195" lon="5.67109">
        <ele>305.676</ele>
        <time>2019-09-23T12:44:17.001Z</time>
      </trkpt>
      <trkpt lat="48.43185" lon="5.67108">
        <ele>306.503</ele>
        <time>2019-09-23T12:44:20.001Z</time>
      </trkpt>
      <trkpt lat="48.43176" lon="5.67108">
        <ele>306.689</ele>
        <time>2019-09-23T12:44:23.001Z</time>
      </trkpt>
      <trkpt lat="48.43169" lon="5.67107">
        <ele>307.111</ele>
        <time>2019-09-23T12:44:26.001Z</time>
      </trkpt>
      <trkpt lat="48.43161" lon="5.67106">
        <ele>307.026</ele>
        <time>2019-09-23T12:44:29.001Z</time>
      </trkpt>
      <trkpt lat="48.43152" lon="5.67105">
        <ele>306.533</ele>
        <time>2019-09-23T12:44:32.001Z</time>
      </trkpt>
      <trkpt lat="48.43144" lon="5.67103">
        <ele>306.363</ele>
        <time>2019-09-23T12:44:35.001Z</time>
      </trkpt>
      <trkpt lat="48.43138" lon="5.67104">
        <ele>306.688</ele>
        <time>2019-09-23T12:44:38.001Z</time>
      </trkpt>
      <trkpt lat="48.43131" lon="5.67103">
        <ele>307.762</ele>
        <time>2019-09-23T12:44:41.001Z</time>
      </trkpt>
      <trkpt lat="48.43122" lon="5.67102">
        <ele>309.422</ele>
        <time>2019-09-23T12:44:44.001Z</time>
      </trkpt>
      <trkpt lat="48.43113" lon="5.67099">
        <ele>310.274</ele>
        <time>2019-09-23T12:44:47.001Z</time>
      </trkpt>
      <trkpt lat="48.43105" lon="5.67099">
        <ele>310.141</ele>
        <time>2019-09-23T12:44:50.001Z</time>
      </trkpt>
      <trkpt lat="48.43096" lon="5.671">
        <ele>310.011</ele>
        <time>2019-09-23T12:44:53.001Z</time>
      </trkpt>
      <trkpt lat="48.43086" lon="5.671">
        <ele>309.892</ele>
        <time>2019-09-23T12:44:56.001Z</time>
      </trkpt>
      <trkpt lat="48.43078" lon="5.67098">
        <ele>309.406</ele>
        <time>2019-09-23T12:44:59.001Z</time>
      </trkpt>
      <trkpt lat="48.43069" lon="5.67095">
        <ele>308.618</ele>
        <time>2019-09-23T12:45:02.000Z</time>
      </trkpt>
      <trkpt lat="48.4306" lon="5.67093">
        <ele>308.668</ele>
        <time>2019-09-23T12:45:05.001Z</time>
      </trkpt>
      <trkpt lat="48.43053" lon="5.67088">
        <ele>308.464</ele>
        <time>2019-09-23T12:45:08.001Z</time>
      </trkpt>
      <trkpt lat="48.43045" lon="5.67086">
        <ele>308.976</ele>
        <time>2019-09-23T12:45:11.001Z</time>
      </trkpt>
      <trkpt lat="48.43036" lon="5.67084">
        <ele>308.972</ele>
        <time>2019-09-23T12:45:14.001Z</time>
      </trkpt>
      <trkpt lat="48.43026" lon="5.67083">
        <ele>309.518</ele>
        <time>2019-09-23T12:45:17.001Z</time>
      </trkpt>
      <trkpt lat="48.43017" lon="5.67081">
        <ele>310.167</ele>
        <time>2019-09-23T12:45:20.001Z</time>
      </trkpt>
      <trkpt lat="48.43007" lon="5.67076">
        <ele>310.373</ele>
        <time>2019-09-23T12:45:23.001Z</time>
      </trkpt>
      <trkpt lat="48.42998" lon="5.67071">
        <ele>310.622</ele>
        <time>2019-09-23T12:45:26.001Z</time>
      </trkpt>
      <trkpt lat="48.42989" lon="5.6707">
        <ele>310.727</ele>
        <time>2019-09-23T12:45:29.001Z</time>
      </trkpt>
      <trkpt lat="48.42982" lon="5.67067">
        <ele>310.548</ele>
        <time>2019-09-23T12:45:32.001Z</time>
      </trkpt>
      <trkpt lat="48.42974" lon="5.67065">
        <ele>310.406</ele>
        <time>2019-09-23T12:45:35.001Z</time>
      </trkpt>
      <trkpt lat="48.42968" lon="5.67062">
        <ele>310.306</ele>
        <time>2019-09-23T12:45:38.001Z</time>
      </trkpt>
      <trkpt lat="48.42961" lon="5.67058">
        <ele>310.607</ele>
        <time>2019-09-23T12:45:41.001Z</time>
      </trkpt>
      <trkpt lat="48.42955" lon="5.67051">
        <ele>310.434</ele>
        <time>2019-09-23T12:45:44.001Z</time>
      </trkpt>
      <trkpt lat="48.42947" lon="5.67048">
        <ele>310.576</ele>
        <time>2019-09-23T12:45:47.001Z</time>
      </trkpt>
      <trkpt lat="48.42938" lon="5.67049">
        <ele>311.554</ele>
        <time>2019-09-23T12:45:50.001Z</time>
      </trkpt>
      <trkpt lat="48.42929" lon="5.67047">
        <ele>313.756</ele>
        <time>2019-09-23T12:45:53.001Z</time>
      </trkpt>
      <trkpt lat="48.42922" lon="5.67045">
        <ele>314.804</ele>
        <time>2019-09-23T12:45:56.001Z</time>
      </trkpt>
      <trkpt lat="48.42916" lon="5.67042">
        <ele>315.326</ele>
        <time>2019-09-23T12:45:59.001Z</time>
      </trkpt>
      <trkpt lat="48.42909" lon="5.67041">
        <ele>317.087</ele>
        <time>2019-09-23T12:46:02.000Z</time>
      </trkpt>
      <trkpt lat="48.42902" lon="5.67037">
        <ele>316.659</ele>
        <time>2019-09-23T12:46:05.001Z</time>
      </trkpt>
      <trkpt lat="48.42895" lon="5.67036">
        <ele>316.281</ele>
        <time>2019-09-23T12:46:08.001Z</time>
      </trkpt>
      <trkpt lat="48.42889" lon="5.67035">
        <ele>315.444</ele>
        <time>2019-09-23T12:46:11.001Z</time>
      </trkpt>
      <trkpt lat="48.42881" lon="5.67035">
        <ele>314.498</ele>
        <time>2019-09-23T12:46:14.001Z</time>
      </trkpt>
      <trkpt lat="48.42871" lon="5.6704">
        <ele>314.006</ele>
        <time>2019-09-23T12:46:17.001Z</time>
      </trkpt>
      <trkpt lat="48.42863" lon="5.67044">
        <ele>313.824</ele>
        <time>2019-09-23T12:46:20.001Z</time>
      </trkpt>
      <trkpt lat="48.42855" lon="5.67047">
        <ele>313.806</ele>
        <time>2019-09-23T12:46:23.001Z</time>
      </trkpt>
      <trkpt lat="48.42848" lon="5.67053">
        <ele>313.195</ele>
        <time>2019-09-23T12:46:26.001Z</time>
      </trkpt>
      <trkpt lat="48.42842" lon="5.67059">
        <ele>313.598</ele>
        <time>2019-09-23T12:46:29.001Z</time>
      </trkpt>
      <trkpt lat="48.42836" lon="5.67064">
        <ele>314.791</ele>
        <time>2019-09-23T12:46:32.001Z</time>
      </trkpt>
      <trkpt lat="48.42831" lon="5.67067">
        <ele>315.955</ele>
        <time>2019-09-23T12:46:35.001Z</time>
      </trkpt>
      <trkpt lat="48.42825" lon="5.67069">
        <ele>316.52</ele>
        <time>2019-09-23T12:46:38.001Z</time>
      </trkpt>
      <trkpt lat="48.42817" lon="5.67071">
        <ele>318.166</ele>
        <time>2019-09-23T12:46:41.001Z</time>
      </trkpt>
      <trkpt lat="48.42815" lon="5.67072">
        <ele>318.959</ele>
        <time>2019-09-23T12:46:44.001Z</time>
      </trkpt>
      <trkpt lat="48.42815" lon="5.67072">
        <ele>318.959</ele>
        <time>2019-09-23T12:47:32.001Z</time>
      </trkpt>
      <trkpt lat="48.42813" lon="5.67072">
        <ele>319.148</ele>
        <time>2019-09-23T12:47:35.001Z</time>
      </trkpt>
      <trkpt lat="48.42808" lon="5.6707">
        <ele>319.611</ele>
        <time>2019-09-23T12:47:38.001Z</time>
      </trkpt>
      <trkpt lat="48.428" lon="5.6707">
        <ele>319.976</ele>
        <time>2019-09-23T12:47:44.001Z</time>
      </trkpt>
      <trkpt lat="48.42792" lon="5.67067">
        <ele>319.767</ele>
        <time>2019-09-23T12:47:50.001Z</time>
      </trkpt>
      <trkpt lat="48.42783" lon="5.67065">
        <ele>319.629</ele>
        <time>2019-09-23T12:47:56.001Z</time>
      </trkpt>
      <trkpt lat="48.42776" lon="5.67062">
        <ele>319.837</ele>
        <time>2019-09-23T12:47:59.001Z</time>
      </trkpt>
      <trkpt lat="48.42774" lon="5.67062">
        <ele>320.217</ele>
        <time>2019-09-23T12:48:02.000Z</time>
      </trkpt>
      <trkpt lat="48.42758" lon="5.6705">
        <ele>320.874</ele>
        <time>2019-09-23T12:48:38.001Z</time>
      </trkpt>
      <trkpt lat="48.42758" lon="5.6705">
        <ele>321.869</ele>
        <time>2019-09-23T12:50:11.001Z</time>
      </trkpt>
      <trkpt lat="48.42746" lon="5.67042">
        <ele>322.501</ele>
        <time>2019-09-23T12:50:14.001Z</time>
      </trkpt>
      <trkpt lat="48.42739" lon="5.67032">
        <ele>322.53</ele>
        <time>2019-09-23T12:50:17.001Z</time>
      </trkpt>
      <trkpt lat="48.42732" lon="5.67024">
        <ele>322.538</ele>
        <time>2019-09-23T12:50:20.001Z</time>
      </trkpt>
      <trkpt lat="48.42723" lon="5.67018">
        <ele>322.651</ele>
        <time>2019-09-23T12:50:23.001Z</time>
      </trkpt>
      <trkpt lat="48.42715" lon="5.67009">
        <ele>323.074</ele>
        <time>2019-09-23T12:50:26.001Z</time>
      </trkpt>
      <trkpt lat="48.42705" lon="5.67005">
        <ele>322.976</ele>
        <time>2019-09-23T12:50:29.001Z</time>
      </trkpt>
      <trkpt lat="48.42697" lon="5.67002">
        <ele>323.136</ele>
        <time>2019-09-23T12:50:32.001Z</time>
      </trkpt>
      <trkpt lat="48.42682" lon="5.66997">
        <ele>323.16</ele>
        <time>2019-09-23T12:50:35.001Z</time>
      </trkpt>
      <trkpt lat="48.42671" lon="5.66994">
        <ele>323.4</ele>
        <time>2019-09-23T12:50:38.001Z</time>
      </trkpt>
      <trkpt lat="48.42661" lon="5.66989">
        <ele>323.865</ele>
        <time>2019-09-23T12:50:41.001Z</time>
      </trkpt>
      <trkpt lat="48.4265" lon="5.66985">
        <ele>323.797</ele>
        <time>2019-09-23T12:50:44.001Z</time>
      </trkpt>
      <trkpt lat="48.42638" lon="5.66982">
        <ele>323.464</ele>
        <time>2019-09-23T12:50:47.001Z</time>
      </trkpt>
      <trkpt lat="48.42625" lon="5.66977">
        <ele>323.019</ele>
        <time>2019-09-23T12:50:50.001Z</time>
      </trkpt>
      <trkpt lat="48.42611" lon="5.66973">
        <ele>322.614</ele>
        <time>2019-09-23T12:50:53.001Z</time>
      </trkpt>
      <trkpt lat="48.42595" lon="5.66971">
        <ele>322.348</ele>
        <time>2019-09-23T12:50:56.001Z</time>
      </trkpt>
      <trkpt lat="48.4258" lon="5.66967">
        <ele>321.958</ele>
        <time>2019-09-23T12:50:59.001Z</time>
      </trkpt>
      <trkpt lat="48.42565" lon="5.66963">
        <ele>321.387</ele>
        <time>2019-09-23T12:51:02.000Z</time>
      </trkpt>
      <trkpt lat="48.42547" lon="5.6696">
        <ele>320.689</ele>
        <time>2019-09-23T12:51:05.001Z</time>
      </trkpt>
      <trkpt lat="48.42528" lon="5.66954">
        <ele>320.43</ele>
        <time>2019-09-23T12:51:08.001Z</time>
      </trkpt>
      <trkpt lat="48.42509" lon="5.66949">
        <ele>319.925</ele>
        <time>2019-09-23T12:51:11.001Z</time>
      </trkpt>
      <trkpt lat="48.42489" lon="5.66944">
        <ele>319.193</ele>
        <time>2019-09-23T12:51:14.001Z</time>
      </trkpt>
      <trkpt lat="48.42468" lon="5.66938">
        <ele>318.66</ele>
        <time>2019-09-23T12:51:17.001Z</time>
      </trkpt>
      <trkpt lat="48.42448" lon="5.66933">
        <ele>318.147</ele>
        <time>2019-09-23T12:51:20.001Z</time>
      </trkpt>
      <trkpt lat="48.42426" lon="5.66926">
        <ele>317.633</ele>
        <time>2019-09-23T12:51:23.001Z</time>
      </trkpt>
      <trkpt lat="48.42405" lon="5.6692">
        <ele>316.951</ele>
        <time>2019-09-23T12:51:26.001Z</time>
      </trkpt>
      <trkpt lat="48.42384" lon="5.66916">
        <ele>316.307</ele>
        <time>2019-09-23T12:51:29.001Z</time>
      </trkpt>
      <trkpt lat="48.42365" lon="5.66913">
        <ele>315.286</ele>
        <time>2019-09-23T12:51:32.001Z</time>
      </trkpt>
      <trkpt lat="48.42344" lon="5.66909">
        <ele>314.415</ele>
        <time>2019-09-23T12:51:35.001Z</time>
      </trkpt>
      <trkpt lat="48.42323" lon="5.66906">
        <ele>313.512</ele>
        <time>2019-09-23T12:51:38.001Z</time>
      </trkpt>
      <trkpt lat="48.423" lon="5.669">
        <ele>312.804</ele>
        <time>2019-09-23T12:51:41.001Z</time>
      </trkpt>
      <trkpt lat="48.42276" lon="5.66894">
        <ele>311.981</ele>
        <time>2019-09-23T12:51:44.001Z</time>
      </trkpt>
      <trkpt lat="48.4225" lon="5.6689">
        <ele>312.136</ele>
        <time>2019-09-23T12:51:47.001Z</time>
      </trkpt>
      <trkpt lat="48.42222" lon="5.66886">
        <ele>312.111</ele>
        <time>2019-09-23T12:51:50.001Z</time>
      </trkpt>
      <trkpt lat="48.42194" lon="5.66882">
        <ele>311.816</ele>
        <time>2019-09-23T12:51:53.001Z</time>
      </trkpt>
      <trkpt lat="48.42168" lon="5.66877">
        <ele>311.599</ele>
        <time>2019-09-23T12:51:56.001Z</time>
      </trkpt>
      <trkpt lat="48.42139" lon="5.6687">
        <ele>310.482</ele>
        <time>2019-09-23T12:51:59.001Z</time>
      </trkpt>
      <trkpt lat="48.42107" lon="5.66865">
        <ele>310.4</ele>
        <time>2019-09-23T12:52:02.000Z</time>
      </trkpt>
      <trkpt lat="48.42076" lon="5.66859">
        <ele>309.76</ele>
        <time>2019-09-23T12:52:05.001Z</time>
      </trkpt>
      <trkpt lat="48.42043" lon="5.66852">
        <ele>308.707</ele>
        <time>2019-09-23T12:52:08.001Z</time>
      </trkpt>
      <trkpt lat="48.42008" lon="5.66849">
        <ele>307.445</ele>
        <time>2019-09-23T12:52:11.001Z</time>
      </trkpt>
      <trkpt lat="48.41974" lon="5.66842">
        <ele>304.856</ele>
        <time>2019-09-23T12:52:14.001Z</time>
      </trkpt>
      <trkpt lat="48.41939" lon="5.66834">
        <ele>300.626</ele>
        <time>2019-09-23T12:52:17.001Z</time>
      </trkpt>
      <trkpt lat="48.41903" lon="5.66825">
        <ele>296.652</ele>
        <time>2019-09-23T12:52:20.001Z</time>
      </trkpt>
      <trkpt lat="48.41864" lon="5.66819">
        <ele>292.973</ele>
        <time>2019-09-23T12:52:23.001Z</time>
      </trkpt>
      <trkpt lat="48.41825" lon="5.66812">
        <ele>289.851</ele>
        <time>2019-09-23T12:52:26.001Z</time>
      </trkpt>
      <trkpt lat="48.41787" lon="5.66804">
        <ele>286.888</ele>
        <time>2019-09-23T12:52:29.001Z</time>
      </trkpt>
      <trkpt lat="48.41751" lon="5.66797">
        <ele>284.414</ele>
        <time>2019-09-23T12:52:32.001Z</time>
      </trkpt>
      <trkpt lat="48.41718" lon="5.6679">
        <ele>282.051</ele>
        <time>2019-09-23T12:52:35.001Z</time>
      </trkpt>
      <trkpt lat="48.41687" lon="5.66785">
        <ele>280.207</ele>
        <time>2019-09-23T12:52:38.001Z</time>
      </trkpt>
      <trkpt lat="48.41659" lon="5.66782">
        <ele>278.637</ele>
        <time>2019-09-23T12:52:41.001Z</time>
      </trkpt>
      <trkpt lat="48.41634" lon="5.66781">
        <ele>277.149</ele>
        <time>2019-09-23T12:52:44.001Z</time>
      </trkpt>
      <trkpt lat="48.41612" lon="5.6678">
        <ele>276.081</ele>
        <time>2019-09-23T12:52:47.001Z</time>
      </trkpt>
      <trkpt lat="48.4159" lon="5.66781">
        <ele>275.437</ele>
        <time>2019-09-23T12:52:50.001Z</time>
      </trkpt>
      <trkpt lat="48.41569" lon="5.66782">
        <ele>274.789</ele>
        <time>2019-09-23T12:52:53.001Z</time>
      </trkpt>
      <trkpt lat="48.41551" lon="5.66784">
        <ele>274.142</ele>
        <time>2019-09-23T12:52:56.001Z</time>
      </trkpt>
      <trkpt lat="48.41533" lon="5.66787">
        <ele>273.302</ele>
        <time>2019-09-23T12:52:59.001Z</time>
      </trkpt>
      <trkpt lat="48.41516" lon="5.66791">
        <ele>272.284</ele>
        <time>2019-09-23T12:53:02.000Z</time>
      </trkpt>
      <trkpt lat="48.41501" lon="5.66796">
        <ele>271.624</ele>
        <time>2019-09-23T12:53:05.001Z</time>
      </trkpt>
      <trkpt lat="48.41486" lon="5.66799">
        <ele>271.558</ele>
        <time>2019-09-23T12:53:08.001Z</time>
      </trkpt>
      <trkpt lat="48.41472" lon="5.66802">
        <ele>271.384</ele>
        <time>2019-09-23T12:53:11.001Z</time>
      </trkpt>
      <trkpt lat="48.41458" lon="5.66807">
        <ele>271.071</ele>
        <time>2019-09-23T12:53:14.001Z</time>
      </trkpt>
      <trkpt lat="48.41445" lon="5.6681">
        <ele>270.78</ele>
        <time>2019-09-23T12:53:17.001Z</time>
      </trkpt>
      <trkpt lat="48.41433" lon="5.66811">
        <ele>271.086</ele>
        <time>2019-09-23T12:53:20.001Z</time>
      </trkpt>
      <trkpt lat="48.4142" lon="5.66815">
        <ele>270.75</ele>
        <time>2019-09-23T12:53:23.001Z</time>
      </trkpt>
      <trkpt lat="48.41408" lon="5.6682">
        <ele>271.185</ele>
        <time>2019-09-23T12:53:26.001Z</time>
      </trkpt>
      <trkpt lat="48.41395" lon="5.66823">
        <ele>270.829</ele>
        <time>2019-09-23T12:53:29.001Z</time>
      </trkpt>
      <trkpt lat="48.41382" lon="5.66826">
        <ele>270.996</ele>
        <time>2019-09-23T12:53:32.001Z</time>
      </trkpt>
      <trkpt lat="48.41367" lon="5.66831">
        <ele>271.859</ele>
        <time>2019-09-23T12:53:35.001Z</time>
      </trkpt>
      <trkpt lat="48.41353" lon="5.66837">
        <ele>271.757</ele>
        <time>2019-09-23T12:53:38.001Z</time>
      </trkpt>
      <trkpt lat="48.41338" lon="5.66846">
        <ele>271.804</ele>
        <time>2019-09-23T12:53:41.001Z</time>
      </trkpt>
      <trkpt lat="48.41322" lon="5.66856">
        <ele>270.693</ele>
        <time>2019-09-23T12:53:44.001Z</time>
      </trkpt>
      <trkpt lat="48.41306" lon="5.66865">
        <ele>269.93</ele>
        <time>2019-09-23T12:53:47.001Z</time>
      </trkpt>
      <trkpt lat="48.41291" lon="5.66872">
        <ele>269.531</ele>
        <time>2019-09-23T12:53:50.001Z</time>
      </trkpt>
      <trkpt lat="48.41276" lon="5.66879">
        <ele>269.712</ele>
        <time>2019-09-23T12:53:53.001Z</time>
      </trkpt>
      <trkpt lat="48.41261" lon="5.66885">
        <ele>269.839</ele>
        <time>2019-09-23T12:53:56.001Z</time>
      </trkpt>
      <trkpt lat="48.41246" lon="5.66894">
        <ele>269.986</ele>
        <time>2019-09-23T12:53:59.001Z</time>
      </trkpt>
      <trkpt lat="48.4123" lon="5.66902">
        <ele>269.504</ele>
        <time>2019-09-23T12:54:02.000Z</time>
      </trkpt>
      <trkpt lat="48.41214" lon="5.6691">
        <ele>269.39</ele>
        <time>2019-09-23T12:54:05.001Z</time>
      </trkpt>
      <trkpt lat="48.41199" lon="5.66918">
        <ele>269.874</ele>
        <time>2019-09-23T12:54:08.001Z</time>
      </trkpt>
      <trkpt lat="48.41182" lon="5.66925">
        <ele>270.352</ele>
        <time>2019-09-23T12:54:11.001Z</time>
      </trkpt>
      <trkpt lat="48.41166" lon="5.66934">
        <ele>270.81</ele>
        <time>2019-09-23T12:54:14.001Z</time>
      </trkpt>
      <trkpt lat="48.4115" lon="5.66941">
        <ele>271.187</ele>
        <time>2019-09-23T12:54:17.001Z</time>
      </trkpt>
      <trkpt lat="48.41133" lon="5.6695">
        <ele>271.526</ele>
        <time>2019-09-23T12:54:20.001Z</time>
      </trkpt>
      <trkpt lat="48.41117" lon="5.66958">
        <ele>272.035</ele>
        <time>2019-09-23T12:54:23.001Z</time>
      </trkpt>
      <trkpt lat="48.41101" lon="5.66966">
        <ele>272.49</ele>
        <time>2019-09-23T12:54:26.001Z</time>
      </trkpt>
      <trkpt lat="48.41087" lon="5.66973">
        <ele>272.935</ele>
        <time>2019-09-23T12:54:29.001Z</time>
      </trkpt>
      <trkpt lat="48.41072" lon="5.66979">
        <ele>273.217</ele>
        <time>2019-09-23T12:54:32.001Z</time>
      </trkpt>
      <trkpt lat="48.41058" lon="5.66988">
        <ele>272.858</ele>
        <time>2019-09-23T12:54:35.001Z</time>
      </trkpt>
      <trkpt lat="48.41042" lon="5.66996">
        <ele>272.415</ele>
        <time>2019-09-23T12:54:38.001Z</time>
      </trkpt>
      <trkpt lat="48.41027" lon="5.67005">
        <ele>272.454</ele>
        <time>2019-09-23T12:54:41.001Z</time>
      </trkpt>
      <trkpt lat="48.41013" lon="5.67015">
        <ele>272.663</ele>
        <time>2019-09-23T12:54:44.001Z</time>
      </trkpt>
      <trkpt lat="48.40999" lon="5.67024">
        <ele>272.925</ele>
        <time>2019-09-23T12:54:47.001Z</time>
      </trkpt>
      <trkpt lat="48.40985" lon="5.67034">
        <ele>273.548</ele>
        <time>2019-09-23T12:54:50.001Z</time>
      </trkpt>
      <trkpt lat="48.40972" lon="5.67045">
        <ele>274.112</ele>
        <time>2019-09-23T12:54:53.001Z</time>
      </trkpt>
      <trkpt lat="48.40957" lon="5.67057">
        <ele>274.558</ele>
        <time>2019-09-23T12:54:56.001Z</time>
      </trkpt>
      <trkpt lat="48.40943" lon="5.6707">
        <ele>275.136</ele>
        <time>2019-09-23T12:54:59.001Z</time>
      </trkpt>
      <trkpt lat="48.4093" lon="5.67082">
        <ele>275.897</ele>
        <time>2019-09-23T12:55:02.000Z</time>
      </trkpt>
      <trkpt lat="48.40916" lon="5.67093">
        <ele>276.139</ele>
        <time>2019-09-23T12:55:05.001Z</time>
      </trkpt>
      <trkpt lat="48.40903" lon="5.67107">
        <ele>275.985</ele>
        <time>2019-09-23T12:55:08.001Z</time>
      </trkpt>
      <trkpt lat="48.4089" lon="5.67118">
        <ele>276.071</ele>
        <time>2019-09-23T12:55:11.001Z</time>
      </trkpt>
      <trkpt lat="48.40878" lon="5.6713">
        <ele>276.696</ele>
        <time>2019-09-23T12:55:14.001Z</time>
      </trkpt>
      <trkpt lat="48.40864" lon="5.67143">
        <ele>277.44</ele>
        <time>2019-09-23T12:55:17.001Z</time>
      </trkpt>
      <trkpt lat="48.40851" lon="5.67155">
        <ele>278.346</ele>
        <time>2019-09-23T12:55:20.001Z</time>
      </trkpt>
      <trkpt lat="48.40837" lon="5.67168">
        <ele>278.828</ele>
        <time>2019-09-23T12:55:23.001Z</time>
      </trkpt>
      <trkpt lat="48.40824" lon="5.67182">
        <ele>278.534</ele>
        <time>2019-09-23T12:55:26.001Z</time>
      </trkpt>
      <trkpt lat="48.40811" lon="5.67195">
        <ele>278.502</ele>
        <time>2019-09-23T12:55:29.001Z</time>
      </trkpt>
      <trkpt lat="48.40799" lon="5.67207">
        <ele>278.147</ele>
        <time>2019-09-23T12:55:32.001Z</time>
      </trkpt>
      <trkpt lat="48.40785" lon="5.6722">
        <ele>277.508</ele>
        <time>2019-09-23T12:55:35.001Z</time>
      </trkpt>
      <trkpt lat="48.40771" lon="5.67235">
        <ele>277.277</ele>
        <time>2019-09-23T12:55:38.001Z</time>
      </trkpt>
      <trkpt lat="48.40758" lon="5.67252">
        <ele>277.124</ele>
        <time>2019-09-23T12:55:41.001Z</time>
      </trkpt>
      <trkpt lat="48.40745" lon="5.67265">
        <ele>276.881</ele>
        <time>2019-09-23T12:55:44.001Z</time>
      </trkpt>
      <trkpt lat="48.40731" lon="5.67279">
        <ele>275.801</ele>
        <time>2019-09-23T12:55:47.001Z</time>
      </trkpt>
      <trkpt lat="48.40716" lon="5.67292">
        <ele>274.138</ele>
        <time>2019-09-23T12:55:50.001Z</time>
      </trkpt>
      <trkpt lat="48.40704" lon="5.67301">
        <ele>273.466</ele>
        <time>2019-09-23T12:55:53.001Z</time>
      </trkpt>
      <trkpt lat="48.40696" lon="5.6731">
        <ele>273.693</ele>
        <time>2019-09-23T12:55:56.001Z</time>
      </trkpt>
      <trkpt lat="48.40693" lon="5.67333">
        <ele>273.344</ele>
        <time>2019-09-23T12:55:59.001Z</time>
      </trkpt>
      <trkpt lat="48.40697" lon="5.67356">
        <ele>272.268</ele>
        <time>2019-09-23T12:56:02.000Z</time>
      </trkpt>
      <trkpt lat="48.40699" lon="5.67382">
        <ele>271.631</ele>
        <time>2019-09-23T12:56:05.001Z</time>
      </trkpt>
      <trkpt lat="48.40697" lon="5.67408">
        <ele>271.361</ele>
        <time>2019-09-23T12:56:08.001Z</time>
      </trkpt>
      <trkpt lat="48.40697" lon="5.67433">
        <ele>271.068</ele>
        <time>2019-09-23T12:56:11.001Z</time>
      </trkpt>
      <trkpt lat="48.40698" lon="5.67458">
        <ele>270.778</ele>
        <time>2019-09-23T12:56:14.001Z</time>
      </trkpt>
      <trkpt lat="48.40702" lon="5.67479">
        <ele>270.58</ele>
        <time>2019-09-23T12:56:17.001Z</time>
      </trkpt>
      <trkpt lat="48.40701" lon="5.67504">
        <ele>270.458</ele>
        <time>2019-09-23T12:56:20.001Z</time>
      </trkpt>
      <trkpt lat="48.40702" lon="5.67529">
        <ele>270.375</ele>
        <time>2019-09-23T12:56:23.001Z</time>
      </trkpt>
      <trkpt lat="48.40702" lon="5.67552">
        <ele>269.578</ele>
        <time>2019-09-23T12:56:26.001Z</time>
      </trkpt>
      <trkpt lat="48.407" lon="5.67575">
        <ele>268.427</ele>
        <time>2019-09-23T12:56:29.001Z</time>
      </trkpt>
      <trkpt lat="48.40696" lon="5.676">
        <ele>267.427</ele>
        <time>2019-09-23T12:56:32.001Z</time>
      </trkpt>
      <trkpt lat="48.4069" lon="5.67623">
        <ele>265.996</ele>
        <time>2019-09-23T12:56:35.001Z</time>
      </trkpt>
      <trkpt lat="48.40684" lon="5.67645">
        <ele>264.362</ele>
        <time>2019-09-23T12:56:38.001Z</time>
      </trkpt>
      <trkpt lat="48.4068" lon="5.67667">
        <ele>263.935</ele>
        <time>2019-09-23T12:56:41.001Z</time>
      </trkpt>
      <trkpt lat="48.40678" lon="5.67689">
        <ele>263.891</ele>
        <time>2019-09-23T12:56:44.002Z</time>
      </trkpt>
      <trkpt lat="48.40676" lon="5.67709">
        <ele>265.075</ele>
        <time>2019-09-23T12:56:47.001Z</time>
      </trkpt>
      <trkpt lat="48.40676" lon="5.67729">
        <ele>265.913</ele>
        <time>2019-09-23T12:56:50.001Z</time>
      </trkpt>
      <trkpt lat="48.40674" lon="5.67749">
        <ele>266.168</ele>
        <time>2019-09-23T12:56:53.001Z</time>
      </trkpt>
      <trkpt lat="48.40672" lon="5.67769">
        <ele>266.124</ele>
        <time>2019-09-23T12:56:56.001Z</time>
      </trkpt>
      <trkpt lat="48.40673" lon="5.67792">
        <ele>266.476</ele>
        <time>2019-09-23T12:56:59.001Z</time>
      </trkpt>
      <trkpt lat="48.40675" lon="5.67816">
        <ele>265.569</ele>
        <time>2019-09-23T12:57:02.000Z</time>
      </trkpt>
      <trkpt lat="48.40678" lon="5.67841">
        <ele>264.016</ele>
        <time>2019-09-23T12:57:05.001Z</time>
      </trkpt>
      <trkpt lat="48.4068" lon="5.67866">
        <ele>263.135</ele>
        <time>2019-09-23T12:57:08.001Z</time>
      </trkpt>
      <trkpt lat="48.40683" lon="5.67889">
        <ele>262.232</ele>
        <time>2019-09-23T12:57:11.001Z</time>
      </trkpt>
      <trkpt lat="48.40685" lon="5.67913">
        <ele>261.755</ele>
        <time>2019-09-23T12:57:14.001Z</time>
      </trkpt>
      <trkpt lat="48.40686" lon="5.67937">
        <ele>261.387</ele>
        <time>2019-09-23T12:57:17.001Z</time>
      </trkpt>
      <trkpt lat="48.40688" lon="5.67961">
        <ele>262.056</ele>
        <time>2019-09-23T12:57:20.001Z</time>
      </trkpt>
      <trkpt lat="48.40691" lon="5.67983">
        <ele>263.166</ele>
        <time>2019-09-23T12:57:23.001Z</time>
      </trkpt>
      <trkpt lat="48.40695" lon="5.68005">
        <ele>264.186</ele>
        <time>2019-09-23T12:57:26.001Z</time>
      </trkpt>
      <trkpt lat="48.40699" lon="5.68025">
        <ele>264.378</ele>
        <time>2019-09-23T12:57:29.001Z</time>
      </trkpt>
      <trkpt lat="48.40706" lon="5.68043">
        <ele>264.586</ele>
        <time>2019-09-23T12:57:32.001Z</time>
      </trkpt>
      <trkpt lat="48.40713" lon="5.68063">
        <ele>264.449</ele>
        <time>2019-09-23T12:57:35.001Z</time>
      </trkpt>
      <trkpt lat="48.4072" lon="5.68081">
        <ele>264.611</ele>
        <time>2019-09-23T12:57:38.001Z</time>
      </trkpt>
      <trkpt lat="48.40723" lon="5.68102">
        <ele>264.381</ele>
        <time>2019-09-23T12:57:41.001Z</time>
      </trkpt>
      <trkpt lat="48.40727" lon="5.68123">
        <ele>264.214</ele>
        <time>2019-09-23T12:57:44.001Z</time>
      </trkpt>
      <trkpt lat="48.4073" lon="5.68142">
        <ele>264.549</ele>
        <time>2019-09-23T12:57:47.001Z</time>
      </trkpt>
      <trkpt lat="48.40737" lon="5.68161">
        <ele>265.162</ele>
        <time>2019-09-23T12:57:50.001Z</time>
      </trkpt>
      <trkpt lat="48.40743" lon="5.68182">
        <ele>266.12</ele>
        <time>2019-09-23T12:57:53.001Z</time>
      </trkpt>
      <trkpt lat="48.40747" lon="5.68203">
        <ele>266.758</ele>
        <time>2019-09-23T12:57:56.001Z</time>
      </trkpt>
      <trkpt lat="48.4075" lon="5.68224">
        <ele>267.869</ele>
        <time>2019-09-23T12:57:59.001Z</time>
      </trkpt>
      <trkpt lat="48.40751" lon="5.68245">
        <ele>268.745</ele>
        <time>2019-09-23T12:58:02.000Z</time>
      </trkpt>
      <trkpt lat="48.40747" lon="5.68266">
        <ele>268.605</ele>
        <time>2019-09-23T12:58:05.001Z</time>
      </trkpt>
      <trkpt lat="48.40736" lon="5.68278">
        <ele>268.583</ele>
        <time>2019-09-23T12:58:08.001Z</time>
      </trkpt>
      <trkpt lat="48.40722" lon="5.68289">
        <ele>268.192</ele>
        <time>2019-09-23T12:58:11.001Z</time>
      </trkpt>
      <trkpt lat="48.40709" lon="5.68303">
        <ele>268.881</ele>
        <time>2019-09-23T12:58:14.001Z</time>
      </trkpt>
      <trkpt lat="48.40697" lon="5.68315">
        <ele>269.504</ele>
        <time>2019-09-23T12:58:17.001Z</time>
      </trkpt>
      <trkpt lat="48.40686" lon="5.68326">
        <ele>270.789</ele>
        <time>2019-09-23T12:58:20.001Z</time>
      </trkpt>
      <trkpt lat="48.40677" lon="5.68336">
        <ele>271.793</ele>
        <time>2019-09-23T12:58:23.001Z</time>
      </trkpt>
      <trkpt lat="48.40665" lon="5.68345">
        <ele>272.891</ele>
        <time>2019-09-23T12:58:26.001Z</time>
      </trkpt>
      <trkpt lat="48.40653" lon="5.68351">
        <ele>274.633</ele>
        <time>2019-09-23T12:58:29.001Z</time>
      </trkpt>
      <trkpt lat="48.40644" lon="5.68356">
        <ele>275.627</ele>
        <time>2019-09-23T12:58:32.001Z</time>
      </trkpt>
      <trkpt lat="48.40636" lon="5.68361">
        <ele>276.237</ele>
        <time>2019-09-23T12:58:35.001Z</time>
      </trkpt>
      <trkpt lat="48.40625" lon="5.68369">
        <ele>276.26</ele>
        <time>2019-09-23T12:58:38.001Z</time>
      </trkpt>
      <trkpt lat="48.40618" lon="5.68377">
        <ele>276.351</ele>
        <time>2019-09-23T12:58:41.001Z</time>
      </trkpt>
      <trkpt lat="48.40618" lon="5.68389">
        <ele>277.166</ele>
        <time>2019-09-23T12:58:44.001Z</time>
      </trkpt>
      <trkpt lat="48.4062" lon="5.68404">
        <ele>277.641</ele>
        <time>2019-09-23T12:58:47.001Z</time>
      </trkpt>
      <trkpt lat="48.40622" lon="5.68419">
        <ele>276.903</ele>
        <time>2019-09-23T12:58:50.001Z</time>
      </trkpt>
      <trkpt lat="48.40626" lon="5.68432">
        <ele>276.919</ele>
        <time>2019-09-23T12:58:53.001Z</time>
      </trkpt>
      <trkpt lat="48.4063" lon="5.68442">
        <ele>276.907</ele>
        <time>2019-09-23T12:58:56.001Z</time>
      </trkpt>
      <trkpt lat="48.40635" lon="5.68451">
        <ele>277.204</ele>
        <time>2019-09-23T12:58:59.001Z</time>
      </trkpt>
      <trkpt lat="48.40638" lon="5.68459">
        <ele>277.867</ele>
        <time>2019-09-23T12:59:02.000Z</time>
      </trkpt>
      <trkpt lat="48.4064" lon="5.68468">
        <ele>278.511</ele>
        <time>2019-09-23T12:59:05.001Z</time>
      </trkpt>
      <trkpt lat="48.40641" lon="5.68479">
        <ele>278.82</ele>
        <time>2019-09-23T12:59:08.001Z</time>
      </trkpt>
      <trkpt lat="48.40641" lon="5.68482">
        <ele>279.638</ele>
        <time>2019-09-23T12:59:11.001Z</time>
      </trkpt>
      <trkpt lat="48.40641" lon="5.68482">
        <ele>280.973</ele>
        <time>2019-09-23T12:59:14.001Z</time>
      </trkpt>
      <trkpt lat="48.40641" lon="5.68503">
        <ele>281.465</ele>
        <time>2019-09-23T12:59:17.001Z</time>
      </trkpt>
      <trkpt lat="48.40642" lon="5.68514">
        <ele>281.99</ele>
        <time>2019-09-23T12:59:20.001Z</time>
      </trkpt>
      <trkpt lat="48.40643" lon="5.68525">
        <ele>282.569</ele>
        <time>2019-09-23T12:59:23.001Z</time>
      </trkpt>
      <trkpt lat="48.40644" lon="5.68537">
        <ele>283.879</ele>
        <time>2019-09-23T12:59:26.001Z</time>
      </trkpt>
      <trkpt lat="48.40645" lon="5.68549">
        <ele>283.451</ele>
        <time>2019-09-23T12:59:29.001Z</time>
      </trkpt>
      <trkpt lat="48.40646" lon="5.6856">
        <ele>283.314</ele>
        <time>2019-09-23T12:59:32.001Z</time>
      </trkpt>
      <trkpt lat="48.40648" lon="5.68572">
        <ele>283.371</ele>
        <time>2019-09-23T12:59:35.001Z</time>
      </trkpt>
      <trkpt lat="48.40649" lon="5.68585">
        <ele>282.58</ele>
        <time>2019-09-23T12:59:38.001Z</time>
      </trkpt>
      <trkpt lat="48.4065" lon="5.68595">
        <ele>281.77</ele>
        <time>2019-09-23T12:59:41.001Z</time>
      </trkpt>
      <trkpt lat="48.40652" lon="5.68604">
        <ele>281.887</ele>
        <time>2019-09-23T12:59:44.001Z</time>
      </trkpt>
      <trkpt lat="48.40653" lon="5.68613">
        <ele>282.899</ele>
        <time>2019-09-23T12:59:47.001Z</time>
      </trkpt>
      <trkpt lat="48.40655" lon="5.68622">
        <ele>283.551</ele>
        <time>2019-09-23T12:59:50.001Z</time>
      </trkpt>
      <trkpt lat="48.40657" lon="5.68631">
        <ele>283.671</ele>
        <time>2019-09-23T12:59:53.001Z</time>
      </trkpt>
      <trkpt lat="48.40659" lon="5.68639">
        <ele>284.009</ele>
        <time>2019-09-23T12:59:56.001Z</time>
      </trkpt>
      <trkpt lat="48.40661" lon="5.68649">
        <ele>284.174</ele>
        <time>2019-09-23T12:59:59.001Z</time>
      </trkpt>
      <trkpt lat="48.40663" lon="5.6866">
        <ele>285.943</ele>
        <time>2019-09-23T13:00:02.000Z</time>
      </trkpt>
      <trkpt lat="48.40665" lon="5.6867">
        <ele>286.978</ele>
        <time>2019-09-23T13:00:05.001Z</time>
      </trkpt>
      <trkpt lat="48.40667" lon="5.68681">
        <ele>288.15</ele>
        <time>2019-09-23T13:00:08.001Z</time>
      </trkpt>
      <trkpt lat="48.4067" lon="5.68692">
        <ele>288.781</ele>
        <time>2019-09-23T13:00:11.001Z</time>
      </trkpt>
      <trkpt lat="48.40673" lon="5.68704">
        <ele>288.947</ele>
        <time>2019-09-23T13:00:14.001Z</time>
      </trkpt>
      <trkpt lat="48.40676" lon="5.68716">
        <ele>288.811</ele>
        <time>2019-09-23T13:00:17.001Z</time>
      </trkpt>
      <trkpt lat="48.40679" lon="5.68729">
        <ele>289.12</ele>
        <time>2019-09-23T13:00:20.001Z</time>
      </trkpt>
      <trkpt lat="48.40682" lon="5.6874">
        <ele>289.367</ele>
        <time>2019-09-23T13:00:23.001Z</time>
      </trkpt>
      <trkpt lat="48.40684" lon="5.68751">
        <ele>290.451</ele>
        <time>2019-09-23T13:00:26.001Z</time>
      </trkpt>
      <trkpt lat="48.40687" lon="5.68762">
        <ele>291.318</ele>
        <time>2019-09-23T13:00:29.001Z</time>
      </trkpt>
      <trkpt lat="48.4069" lon="5.68773">
        <ele>291.995</ele>
        <time>2019-09-23T13:00:32.001Z</time>
      </trkpt>
      <trkpt lat="48.40692" lon="5.68784">
        <ele>292.407</ele>
        <time>2019-09-23T13:00:35.001Z</time>
      </trkpt>
      <trkpt lat="48.40695" lon="5.68794">
        <ele>292.747</ele>
        <time>2019-09-23T13:00:38.001Z</time>
      </trkpt>
      <trkpt lat="48.40698" lon="5.68805">
        <ele>293.727</ele>
        <time>2019-09-23T13:00:41.001Z</time>
      </trkpt>
      <trkpt lat="48.40701" lon="5.68815">
        <ele>294.153</ele>
        <time>2019-09-23T13:00:44.001Z</time>
      </trkpt>
      <trkpt lat="48.40704" lon="5.68824">
        <ele>294.098</ele>
        <time>2019-09-23T13:00:47.001Z</time>
      </trkpt>
      <trkpt lat="48.40707" lon="5.68835">
        <ele>294.541</ele>
        <time>2019-09-23T13:00:50.001Z</time>
      </trkpt>
      <trkpt lat="48.4071" lon="5.68847">
        <ele>294.048</ele>
        <time>2019-09-23T13:00:53.001Z</time>
      </trkpt>
      <trkpt lat="48.40712" lon="5.68859">
        <ele>294.382</ele>
        <time>2019-09-23T13:00:56.001Z</time>
      </trkpt>
      <trkpt lat="48.40714" lon="5.6887">
        <ele>295.279</ele>
        <time>2019-09-23T13:00:59.001Z</time>
      </trkpt>
      <trkpt lat="48.40716" lon="5.6888">
        <ele>295.12</ele>
        <time>2019-09-23T13:01:02.000Z</time>
      </trkpt>
      <trkpt lat="48.40716" lon="5.68887">
        <ele>295.002</ele>
        <time>2019-09-23T13:01:08.001Z</time>
      </trkpt>
      <trkpt lat="48.40715" lon="5.68892">
        <ele>295.002</ele>
        <time>2019-09-23T13:01:20.001Z</time>
      </trkpt>
      <trkpt lat="48.40715" lon="5.68892">
        <ele>295.002</ele>
        <time>2019-09-23T13:01:23.001Z</time>
      </trkpt>
      <trkpt lat="48.40715" lon="5.68892">
        <ele>295.002</ele>
        <time>2019-09-23T13:02:29.001Z</time>
      </trkpt>
      <trkpt lat="48.40715" lon="5.68895">
        <ele>295.002</ele>
        <time>2019-09-23T13:02:32.001Z</time>
      </trkpt>
      <trkpt lat="48.40715" lon="5.68896">
        <ele>295.002</ele>
        <time>2019-09-23T13:02:41.001Z</time>
      </trkpt>
      <trkpt lat="48.40715" lon="5.68896">
        <ele>295.002</ele>
        <time>2019-09-23T13:02:44.001Z</time>
      </trkpt>
      <trkpt lat="48.40715" lon="5.68896">
        <ele>295.17</ele>
        <time>2019-09-23T13:03:32.001Z</time>
      </trkpt>
      <trkpt lat="48.40715" lon="5.68897">
        <ele>294.8</ele>
        <time>2019-09-23T13:03:35.001Z</time>
      </trkpt>
      <trkpt lat="48.40717" lon="5.68889">
        <ele>293.255</ele>
        <time>2019-09-23T13:03:44.001Z</time>
      </trkpt>
      <trkpt lat="48.40715" lon="5.68877">
        <ele>292.158</ele>
        <time>2019-09-23T13:03:50.001Z</time>
      </trkpt>
      <trkpt lat="48.40715" lon="5.68876">
        <ele>292.118</ele>
        <time>2019-09-23T13:03:53.001Z</time>
      </trkpt>
      <trkpt lat="48.40715" lon="5.68875">
        <ele>292.118</ele>
        <time>2019-09-23T13:03:56.001Z</time>
      </trkpt>
      <trkpt lat="48.40715" lon="5.68875">
        <ele>291.609</ele>
        <time>2019-09-23T13:07:29.001Z</time>
      </trkpt>
      <trkpt lat="48.40713" lon="5.68866">
        <ele>290.405</ele>
        <time>2019-09-23T13:07:32.001Z</time>
      </trkpt>
      <trkpt lat="48.40709" lon="5.68854">
        <ele>289.177</ele>
        <time>2019-09-23T13:07:38.001Z</time>
      </trkpt>
      <trkpt lat="48.40706" lon="5.68844">
        <ele>288.691</ele>
        <time>2019-09-23T13:07:41.001Z</time>
      </trkpt>
      <trkpt lat="48.40703" lon="5.68831">
        <ele>288.295</ele>
        <time>2019-09-23T13:07:44.001Z</time>
      </trkpt>
      <trkpt lat="48.40696" lon="5.688">
        <ele>288.047</ele>
        <time>2019-09-23T13:07:47.001Z</time>
      </trkpt>
      <trkpt lat="48.40692" lon="5.68783">
        <ele>287.659</ele>
        <time>2019-09-23T13:07:50.001Z</time>
      </trkpt>
      <trkpt lat="48.40689" lon="5.68763">
        <ele>287.097</ele>
        <time>2019-09-23T13:07:53.001Z</time>
      </trkpt>
      <trkpt lat="48.40686" lon="5.68743">
        <ele>286.484</ele>
        <time>2019-09-23T13:07:56.001Z</time>
      </trkpt>
      <trkpt lat="48.40681" lon="5.68721">
        <ele>285.743</ele>
        <time>2019-09-23T13:07:59.001Z</time>
      </trkpt>
      <trkpt lat="48.40675" lon="5.68698">
        <ele>284.853</ele>
        <time>2019-09-23T13:08:02.000Z</time>
      </trkpt>
      <trkpt lat="48.4067" lon="5.68674">
        <ele>284.086</ele>
        <time>2019-09-23T13:08:05.001Z</time>
      </trkpt>
      <trkpt lat="48.40665" lon="5.68648">
        <ele>283.398</ele>
        <time>2019-09-23T13:08:08.001Z</time>
      </trkpt>
      <trkpt lat="48.40659" lon="5.6862">
        <ele>282.762</ele>
        <time>2019-09-23T13:08:11.001Z</time>
      </trkpt>
      <trkpt lat="48.40655" lon="5.68589">
        <ele>281.435</ele>
        <time>2019-09-23T13:08:14.001Z</time>
      </trkpt>
      <trkpt lat="48.4065" lon="5.68557">
        <ele>280.555</ele>
        <time>2019-09-23T13:08:17.001Z</time>
      </trkpt>
      <trkpt lat="48.40646" lon="5.68527">
        <ele>279.463</ele>
        <time>2019-09-23T13:08:20.001Z</time>
      </trkpt>
      <trkpt lat="48.40642" lon="5.68496">
        <ele>278.443</ele>
        <time>2019-09-23T13:08:23.001Z</time>
      </trkpt>
      <trkpt lat="48.40638" lon="5.68466">
        <ele>277.887</ele>
        <time>2019-09-23T13:08:26.001Z</time>
      </trkpt>
      <trkpt lat="48.40633" lon="5.68436">
        <ele>277.176</ele>
        <time>2019-09-23T13:08:29.001Z</time>
      </trkpt>
      <trkpt lat="48.40629" lon="5.68411">
        <ele>277.031</ele>
        <time>2019-09-23T13:08:32.001Z</time>
      </trkpt>
      <trkpt lat="48.40625" lon="5.68393">
        <ele>277.036</ele>
        <time>2019-09-23T13:08:35.001Z</time>
      </trkpt>
      <trkpt lat="48.40621" lon="5.6838">
        <ele>277.841</ele>
        <time>2019-09-23T13:08:38.001Z</time>
      </trkpt>
      <trkpt lat="48.40612" lon="5.68377">
        <ele>279.197</ele>
        <time>2019-09-23T13:08:41.001Z</time>
      </trkpt>
      <trkpt lat="48.40601" lon="5.68389">
        <ele>279.385</ele>
        <time>2019-09-23T13:08:44.001Z</time>
      </trkpt>
      <trkpt lat="48.4059" lon="5.68402">
        <ele>278.653</ele>
        <time>2019-09-23T13:08:47.001Z</time>
      </trkpt>
      <trkpt lat="48.40575" lon="5.68414">
        <ele>278.896</ele>
        <time>2019-09-23T13:08:50.001Z</time>
      </trkpt>
      <trkpt lat="48.4056" lon="5.68428">
        <ele>278.329</ele>
        <time>2019-09-23T13:08:53.001Z</time>
      </trkpt>
      <trkpt lat="48.40545" lon="5.68444">
        <ele>276.357</ele>
        <time>2019-09-23T13:08:56.001Z</time>
      </trkpt>
      <trkpt lat="48.40527" lon="5.6846">
        <ele>275.746</ele>
        <time>2019-09-23T13:08:59.001Z</time>
      </trkpt>
      <trkpt lat="48.40509" lon="5.68472">
        <ele>274.963</ele>
        <time>2019-09-23T13:09:02.000Z</time>
      </trkpt>
      <trkpt lat="48.40491" lon="5.68482">
        <ele>274.023</ele>
        <time>2019-09-23T13:09:05.001Z</time>
      </trkpt>
      <trkpt lat="48.40475" lon="5.6849">
        <ele>273.534</ele>
        <time>2019-09-23T13:09:08.001Z</time>
      </trkpt>
      <trkpt lat="48.40458" lon="5.68498">
        <ele>272.906</ele>
        <time>2019-09-23T13:09:11.001Z</time>
      </trkpt>
      <trkpt lat="48.40442" lon="5.68504">
        <ele>272.491</ele>
        <time>2019-09-23T13:09:14.001Z</time>
      </trkpt>
      <trkpt lat="48.40426" lon="5.68509">
        <ele>272.888</ele>
        <time>2019-09-23T13:09:17.001Z</time>
      </trkpt>
      <trkpt lat="48.4041" lon="5.68514">
        <ele>273.503</ele>
        <time>2019-09-23T13:09:20.001Z</time>
      </trkpt>
      <trkpt lat="48.40395" lon="5.68521">
        <ele>273.489</ele>
        <time>2019-09-23T13:09:23.001Z</time>
      </trkpt>
      <trkpt lat="48.4038" lon="5.68527">
        <ele>273.154</ele>
        <time>2019-09-23T13:09:26.001Z</time>
      </trkpt>
      <trkpt lat="48.40366" lon="5.68534">
        <ele>272.668</ele>
        <time>2019-09-23T13:09:29.001Z</time>
      </trkpt>
      <trkpt lat="48.40351" lon="5.68543">
        <ele>272.418</ele>
        <time>2019-09-23T13:09:32.001Z</time>
      </trkpt>
      <trkpt lat="48.40337" lon="5.6855">
        <ele>272.107</ele>
        <time>2019-09-23T13:09:35.001Z</time>
      </trkpt>
      <trkpt lat="48.40325" lon="5.68559">
        <ele>272.075</ele>
        <time>2019-09-23T13:09:38.001Z</time>
      </trkpt>
      <trkpt lat="48.40314" lon="5.68566">
        <ele>272.318</ele>
        <time>2019-09-23T13:09:41.001Z</time>
      </trkpt>
      <trkpt lat="48.40303" lon="5.68571">
        <ele>273.051</ele>
        <time>2019-09-23T13:09:44.001Z</time>
      </trkpt>
      <trkpt lat="48.40294" lon="5.68575">
        <ele>273.4</ele>
        <time>2019-09-23T13:09:47.001Z</time>
      </trkpt>
      <trkpt lat="48.40285" lon="5.6858">
        <ele>273.647</ele>
        <time>2019-09-23T13:09:50.001Z</time>
      </trkpt>
      <trkpt lat="48.40275" lon="5.68586">
        <ele>274.004</ele>
        <time>2019-09-23T13:09:53.001Z</time>
      </trkpt>
      <trkpt lat="48.40266" lon="5.68593">
        <ele>274.429</ele>
        <time>2019-09-23T13:09:56.001Z</time>
      </trkpt>
      <trkpt lat="48.40257" lon="5.68599">
        <ele>274.771</ele>
        <time>2019-09-23T13:09:59.001Z</time>
      </trkpt>
      <trkpt lat="48.40248" lon="5.68605">
        <ele>275.019</ele>
        <time>2019-09-23T13:10:02.000Z</time>
      </trkpt>
      <trkpt lat="48.4024" lon="5.68611">
        <ele>275.35</ele>
        <time>2019-09-23T13:10:05.001Z</time>
      </trkpt>
      <trkpt lat="48.40231" lon="5.68616">
        <ele>275.868</ele>
        <time>2019-09-23T13:10:08.001Z</time>
      </trkpt>
      <trkpt lat="48.40222" lon="5.68621">
        <ele>276.447</ele>
        <time>2019-09-23T13:10:11.001Z</time>
      </trkpt>
      <trkpt lat="48.40214" lon="5.68628">
        <ele>276.744</ele>
        <time>2019-09-23T13:10:14.001Z</time>
      </trkpt>
      <trkpt lat="48.40206" lon="5.68632">
        <ele>276.775</ele>
        <time>2019-09-23T13:10:17.001Z</time>
      </trkpt>
      <trkpt lat="48.40197" lon="5.68637">
        <ele>276.63</ele>
        <time>2019-09-23T13:10:20.001Z</time>
      </trkpt>
      <trkpt lat="48.40188" lon="5.68642">
        <ele>277.112</ele>
        <time>2019-09-23T13:10:23.001Z</time>
      </trkpt>
      <trkpt lat="48.40178" lon="5.68647">
        <ele>278.099</ele>
        <time>2019-09-23T13:10:26.001Z</time>
      </trkpt>
      <trkpt lat="48.40169" lon="5.68653">
        <ele>278.826</ele>
        <time>2019-09-23T13:10:29.001Z</time>
      </trkpt>
      <trkpt lat="48.4016" lon="5.68659">
        <ele>279.399</ele>
        <time>2019-09-23T13:10:32.001Z</time>
      </trkpt>
      <trkpt lat="48.40151" lon="5.68664">
        <ele>279.952</ele>
        <time>2019-09-23T13:10:35.001Z</time>
      </trkpt>
      <trkpt lat="48.40143" lon="5.6867">
        <ele>280.242</ele>
        <time>2019-09-23T13:10:38.001Z</time>
      </trkpt>
      <trkpt lat="48.40136" lon="5.68676">
        <ele>280.111</ele>
        <time>2019-09-23T13:10:41.001Z</time>
      </trkpt>
      <trkpt lat="48.40127" lon="5.68681">
        <ele>279.906</ele>
        <time>2019-09-23T13:10:44.001Z</time>
      </trkpt>
      <trkpt lat="48.40118" lon="5.68687">
        <ele>279.922</ele>
        <time>2019-09-23T13:10:47.001Z</time>
      </trkpt>
      <trkpt lat="48.4011" lon="5.68692">
        <ele>280.344</ele>
        <time>2019-09-23T13:10:50.001Z</time>
      </trkpt>
      <trkpt lat="48.40102" lon="5.68697">
        <ele>280.511</ele>
        <time>2019-09-23T13:10:53.001Z</time>
      </trkpt>
      <trkpt lat="48.40094" lon="5.68702">
        <ele>281.009</ele>
        <time>2019-09-23T13:10:56.001Z</time>
      </trkpt>
      <trkpt lat="48.40085" lon="5.68706">
        <ele>281.266</ele>
        <time>2019-09-23T13:10:59.001Z</time>
      </trkpt>
      <trkpt lat="48.40077" lon="5.68711">
        <ele>281.484</ele>
        <time>2019-09-23T13:11:02.000Z</time>
      </trkpt>
      <trkpt lat="48.40069" lon="5.68716">
        <ele>282.387</ele>
        <time>2019-09-23T13:11:05.001Z</time>
      </trkpt>
      <trkpt lat="48.4006" lon="5.68722">
        <ele>283.824</ele>
        <time>2019-09-23T13:11:08.001Z</time>
      </trkpt>
      <trkpt lat="48.40051" lon="5.68728">
        <ele>284.843</ele>
        <time>2019-09-23T13:11:11.001Z</time>
      </trkpt>
      <trkpt lat="48.40042" lon="5.68734">
        <ele>284.819</ele>
        <time>2019-09-23T13:11:14.001Z</time>
      </trkpt>
      <trkpt lat="48.40032" lon="5.68736">
        <ele>285.115</ele>
        <time>2019-09-23T13:11:17.001Z</time>
      </trkpt>
      <trkpt lat="48.40024" lon="5.68728">
        <ele>285.74</ele>
        <time>2019-09-23T13:11:20.001Z</time>
      </trkpt>
      <trkpt lat="48.40018" lon="5.6872">
        <ele>286.01</ele>
        <time>2019-09-23T13:11:23.001Z</time>
      </trkpt>
      <trkpt lat="48.40011" lon="5.68714">
        <ele>285.853</ele>
        <time>2019-09-23T13:11:26.001Z</time>
      </trkpt>
      <trkpt lat="48.40004" lon="5.68707">
        <ele>285.76</ele>
        <time>2019-09-23T13:11:29.001Z</time>
      </trkpt>
      <trkpt lat="48.39997" lon="5.687">
        <ele>285.463</ele>
        <time>2019-09-23T13:11:32.001Z</time>
      </trkpt>
      <trkpt lat="48.39989" lon="5.68694">
        <ele>284.564</ele>
        <time>2019-09-23T13:11:35.001Z</time>
      </trkpt>
      <trkpt lat="48.39983" lon="5.68689">
        <ele>284.02</ele>
        <time>2019-09-23T13:11:38.001Z</time>
      </trkpt>
      <trkpt lat="48.39976" lon="5.68684">
        <ele>283.681</ele>
        <time>2019-09-23T13:11:41.001Z</time>
      </trkpt>
      <trkpt lat="48.39968" lon="5.68679">
        <ele>283.188</ele>
        <time>2019-09-23T13:11:44.001Z</time>
      </trkpt>
      <trkpt lat="48.39958" lon="5.68673">
        <ele>282.325</ele>
        <time>2019-09-23T13:11:47.001Z</time>
      </trkpt>
      <trkpt lat="48.39949" lon="5.68667">
        <ele>281.682</ele>
        <time>2019-09-23T13:11:50.001Z</time>
      </trkpt>
      <trkpt lat="48.39942" lon="5.68662">
        <ele>281.604</ele>
        <time>2019-09-23T13:11:53.001Z</time>
      </trkpt>
      <trkpt lat="48.39935" lon="5.68656">
        <ele>281.213</ele>
        <time>2019-09-23T13:11:56.001Z</time>
      </trkpt>
      <trkpt lat="48.39927" lon="5.6865">
        <ele>280.334</ele>
        <time>2019-09-23T13:11:59.001Z</time>
      </trkpt>
      <trkpt lat="48.39917" lon="5.68644">
        <ele>279.482</ele>
        <time>2019-09-23T13:12:02.000Z</time>
      </trkpt>
      <trkpt lat="48.39907" lon="5.68637">
        <ele>279.365</ele>
        <time>2019-09-23T13:12:05.001Z</time>
      </trkpt>
      <trkpt lat="48.39898" lon="5.68631">
        <ele>279.618</ele>
        <time>2019-09-23T13:12:08.001Z</time>
      </trkpt>
      <trkpt lat="48.39889" lon="5.68625">
        <ele>279.349</ele>
        <time>2019-09-23T13:12:11.001Z</time>
      </trkpt>
      <trkpt lat="48.3988" lon="5.68617">
        <ele>279.516</ele>
        <time>2019-09-23T13:12:14.001Z</time>
      </trkpt>
      <trkpt lat="48.39872" lon="5.68609">
        <ele>279.234</ele>
        <time>2019-09-23T13:12:17.001Z</time>
      </trkpt>
      <trkpt lat="48.39863" lon="5.68602">
        <ele>278.894</ele>
        <time>2019-09-23T13:12:20.001Z</time>
      </trkpt>
      <trkpt lat="48.39854" lon="5.68594">
        <ele>278.523</ele>
        <time>2019-09-23T13:12:23.001Z</time>
      </trkpt>
      <trkpt lat="48.39845" lon="5.68589">
        <ele>278.315</ele>
        <time>2019-09-23T13:12:26.001Z</time>
      </trkpt>
      <trkpt lat="48.39834" lon="5.68581">
        <ele>278.607</ele>
        <time>2019-09-23T13:12:29.001Z</time>
      </trkpt>
      <trkpt lat="48.39823" lon="5.68574">
        <ele>278.815</ele>
        <time>2019-09-23T13:12:32.001Z</time>
      </trkpt>
      <trkpt lat="48.39811" lon="5.68566">
        <ele>278.841</ele>
        <time>2019-09-23T13:12:35.001Z</time>
      </trkpt>
      <trkpt lat="48.39799" lon="5.68562">
        <ele>279.462</ele>
        <time>2019-09-23T13:12:38.001Z</time>
      </trkpt>
      <trkpt lat="48.39788" lon="5.68556">
        <ele>279.461</ele>
        <time>2019-09-23T13:12:41.001Z</time>
      </trkpt>
      <trkpt lat="48.39777" lon="5.68549">
        <ele>279.773</ele>
        <time>2019-09-23T13:12:44.001Z</time>
      </trkpt>
      <trkpt lat="48.39767" lon="5.68545">
        <ele>279.68</ele>
        <time>2019-09-23T13:12:47.001Z</time>
      </trkpt>
      <trkpt lat="48.39754" lon="5.68541">
        <ele>279.442</ele>
        <time>2019-09-23T13:12:50.001Z</time>
      </trkpt>
      <trkpt lat="48.39743" lon="5.68536">
        <ele>279.805</ele>
        <time>2019-09-23T13:12:53.001Z</time>
      </trkpt>
      <trkpt lat="48.39732" lon="5.68532">
        <ele>280.271</ele>
        <time>2019-09-23T13:12:56.001Z</time>
      </trkpt>
      <trkpt lat="48.39723" lon="5.6853">
        <ele>280.865</ele>
        <time>2019-09-23T13:12:59.001Z</time>
      </trkpt>
      <trkpt lat="48.39712" lon="5.68527">
        <ele>281.532</ele>
        <time>2019-09-23T13:13:02.000Z</time>
      </trkpt>
      <trkpt lat="48.39702" lon="5.68524">
        <ele>281.806</ele>
        <time>2019-09-23T13:13:05.001Z</time>
      </trkpt>
      <trkpt lat="48.39691" lon="5.68521">
        <ele>282.096</ele>
        <time>2019-09-23T13:13:08.001Z</time>
      </trkpt>
      <trkpt lat="48.3968" lon="5.68519">
        <ele>282.016</ele>
        <time>2019-09-23T13:13:11.001Z</time>
      </trkpt>
      <trkpt lat="48.39669" lon="5.68516">
        <ele>282.42</ele>
        <time>2019-09-23T13:13:14.001Z</time>
      </trkpt>
      <trkpt lat="48.39658" lon="5.68515">
        <ele>282.506</ele>
        <time>2019-09-23T13:13:17.001Z</time>
      </trkpt>
      <trkpt lat="48.39646" lon="5.68514">
        <ele>282.401</ele>
        <time>2019-09-23T13:13:20.001Z</time>
      </trkpt>
      <trkpt lat="48.39635" lon="5.68514">
        <ele>282.333</ele>
        <time>2019-09-23T13:13:23.001Z</time>
      </trkpt>
      <trkpt lat="48.39624" lon="5.68513">
        <ele>282.314</ele>
        <time>2019-09-23T13:13:26.001Z</time>
      </trkpt>
      <trkpt lat="48.39613" lon="5.68511">
        <ele>281.916</ele>
        <time>2019-09-23T13:13:29.001Z</time>
      </trkpt>
      <trkpt lat="48.39603" lon="5.6851">
        <ele>281.89</ele>
        <time>2019-09-23T13:13:32.001Z</time>
      </trkpt>
      <trkpt lat="48.39593" lon="5.68511">
        <ele>281.869</ele>
        <time>2019-09-23T13:13:35.001Z</time>
      </trkpt>
      <trkpt lat="48.39582" lon="5.68511">
        <ele>281.8</ele>
        <time>2019-09-23T13:13:38.001Z</time>
      </trkpt>
      <trkpt lat="48.39571" lon="5.68511">
        <ele>282.198</ele>
        <time>2019-09-23T13:13:41.001Z</time>
      </trkpt>
      <trkpt lat="48.3956" lon="5.68511">
        <ele>282.897</ele>
        <time>2019-09-23T13:13:44.001Z</time>
      </trkpt>
      <trkpt lat="48.39549" lon="5.68512">
        <ele>283.201</ele>
        <time>2019-09-23T13:13:47.001Z</time>
      </trkpt>
      <trkpt lat="48.39538" lon="5.68513">
        <ele>282.708</ele>
        <time>2019-09-23T13:13:50.001Z</time>
      </trkpt>
      <trkpt lat="48.39528" lon="5.68515">
        <ele>282.522</ele>
        <time>2019-09-23T13:13:53.001Z</time>
      </trkpt>
      <trkpt lat="48.39517" lon="5.68519">
        <ele>282.633</ele>
        <time>2019-09-23T13:13:56.001Z</time>
      </trkpt>
      <trkpt lat="48.39507" lon="5.68523">
        <ele>282.421</ele>
        <time>2019-09-23T13:13:59.001Z</time>
      </trkpt>
      <trkpt lat="48.39496" lon="5.68528">
        <ele>282.244</ele>
        <time>2019-09-23T13:14:02.000Z</time>
      </trkpt>
      <trkpt lat="48.39489" lon="5.68534">
        <ele>282.325</ele>
        <time>2019-09-23T13:14:05.001Z</time>
      </trkpt>
      <trkpt lat="48.39482" lon="5.68539">
        <ele>282.39</ele>
        <time>2019-09-23T13:14:08.001Z</time>
      </trkpt>
      <trkpt lat="48.39476" lon="5.68542">
        <ele>282.034</ele>
        <time>2019-09-23T13:14:11.001Z</time>
      </trkpt>
      <trkpt lat="48.3947" lon="5.68544">
        <ele>281.26</ele>
        <time>2019-09-23T13:14:14.001Z</time>
      </trkpt>
      <trkpt lat="48.39465" lon="5.68544">
        <ele>281.407</ele>
        <time>2019-09-23T13:14:17.001Z</time>
      </trkpt>
      <trkpt lat="48.39458" lon="5.68545">
        <ele>281.22</ele>
        <time>2019-09-23T13:14:20.001Z</time>
      </trkpt>
      <trkpt lat="48.3945" lon="5.68546">
        <ele>281.143</ele>
        <time>2019-09-23T13:14:23.001Z</time>
      </trkpt>
      <trkpt lat="48.39441" lon="5.68549">
        <ele>281.422</ele>
        <time>2019-09-23T13:14:26.001Z</time>
      </trkpt>
      <trkpt lat="48.39433" lon="5.68553">
        <ele>281.504</ele>
        <time>2019-09-23T13:14:29.001Z</time>
      </trkpt>
      <trkpt lat="48.39425" lon="5.68557">
        <ele>281.708</ele>
        <time>2019-09-23T13:14:32.001Z</time>
      </trkpt>
      <trkpt lat="48.39416" lon="5.68559">
        <ele>281.831</ele>
        <time>2019-09-23T13:14:35.001Z</time>
      </trkpt>
      <trkpt lat="48.39407" lon="5.68562">
        <ele>281.945</ele>
        <time>2019-09-23T13:14:38.001Z</time>
      </trkpt>
      <trkpt lat="48.39397" lon="5.68562">
        <ele>281.097</ele>
        <time>2019-09-23T13:14:41.001Z</time>
      </trkpt>
      <trkpt lat="48.39388" lon="5.68564">
        <ele>280.626</ele>
        <time>2019-09-23T13:14:44.001Z</time>
      </trkpt>
      <trkpt lat="48.3938" lon="5.68568">
        <ele>280.352</ele>
        <time>2019-09-23T13:14:47.001Z</time>
      </trkpt>
      <trkpt lat="48.3937" lon="5.68573">
        <ele>280.03</ele>
        <time>2019-09-23T13:14:50.001Z</time>
      </trkpt>
      <trkpt lat="48.39357" lon="5.6858">
        <ele>279.734</ele>
        <time>2019-09-23T13:14:53.001Z</time>
      </trkpt>
      <trkpt lat="48.39347" lon="5.68587">
        <ele>279.454</ele>
        <time>2019-09-23T13:14:56.001Z</time>
      </trkpt>
      <trkpt lat="48.39337" lon="5.68595">
        <ele>279.443</ele>
        <time>2019-09-23T13:14:59.001Z</time>
      </trkpt>
      <trkpt lat="48.39328" lon="5.68603">
        <ele>278.76</ele>
        <time>2019-09-23T13:15:02.000Z</time>
      </trkpt>
      <trkpt lat="48.39318" lon="5.68611">
        <ele>278.472</ele>
        <time>2019-09-23T13:15:05.001Z</time>
      </trkpt>
      <trkpt lat="48.39308" lon="5.68621">
        <ele>278.258</ele>
        <time>2019-09-23T13:15:08.001Z</time>
      </trkpt>
      <trkpt lat="48.39298" lon="5.68631">
        <ele>278.191</ele>
        <time>2019-09-23T13:15:11.001Z</time>
      </trkpt>
      <trkpt lat="48.39287" lon="5.68642">
        <ele>278.402</ele>
        <time>2019-09-23T13:15:14.001Z</time>
      </trkpt>
      <trkpt lat="48.39277" lon="5.68651">
        <ele>278.273</ele>
        <time>2019-09-23T13:15:17.001Z</time>
      </trkpt>
      <trkpt lat="48.39266" lon="5.68661">
        <ele>277.902</ele>
        <time>2019-09-23T13:15:20.001Z</time>
      </trkpt>
      <trkpt lat="48.39256" lon="5.68669">
        <ele>277.032</ele>
        <time>2019-09-23T13:15:23.001Z</time>
      </trkpt>
      <trkpt lat="48.39247" lon="5.68678">
        <ele>277.068</ele>
        <time>2019-09-23T13:15:26.001Z</time>
      </trkpt>
      <trkpt lat="48.39237" lon="5.68685">
        <ele>277.418</ele>
        <time>2019-09-23T13:15:29.001Z</time>
      </trkpt>
      <trkpt lat="48.39228" lon="5.68693">
        <ele>277.522</ele>
        <time>2019-09-23T13:15:32.001Z</time>
      </trkpt>
      <trkpt lat="48.39219" lon="5.68701">
        <ele>277.719</ele>
        <time>2019-09-23T13:15:35.001Z</time>
      </trkpt>
      <trkpt lat="48.3921" lon="5.68709">
        <ele>277.745</ele>
        <time>2019-09-23T13:15:38.001Z</time>
      </trkpt>
      <trkpt lat="48.39202" lon="5.68717">
        <ele>277.622</ele>
        <time>2019-09-23T13:15:41.001Z</time>
      </trkpt>
      <trkpt lat="48.39193" lon="5.68723">
        <ele>276.833</ele>
        <time>2019-09-23T13:15:44.001Z</time>
      </trkpt>
      <trkpt lat="48.39187" lon="5.6873">
        <ele>276.241</ele>
        <time>2019-09-23T13:15:47.001Z</time>
      </trkpt>
      <trkpt lat="48.3918" lon="5.68737">
        <ele>275.772</ele>
        <time>2019-09-23T13:15:50.001Z</time>
      </trkpt>
      <trkpt lat="48.39173" lon="5.68745">
        <ele>275.633</ele>
        <time>2019-09-23T13:15:53.001Z</time>
      </trkpt>
      <trkpt lat="48.39166" lon="5.68754">
        <ele>275.847</ele>
        <time>2019-09-23T13:15:56.001Z</time>
      </trkpt>
      <trkpt lat="48.39158" lon="5.68762">
        <ele>276.275</ele>
        <time>2019-09-23T13:15:59.001Z</time>
      </trkpt>
      <trkpt lat="48.39151" lon="5.68768">
        <ele>276.901</ele>
        <time>2019-09-23T13:16:02.000Z</time>
      </trkpt>
      <trkpt lat="48.39143" lon="5.68769">
        <ele>276.86</ele>
        <time>2019-09-23T13:16:05.001Z</time>
      </trkpt>
      <trkpt lat="48.39137" lon="5.68758">
        <ele>276.858</ele>
        <time>2019-09-23T13:16:08.001Z</time>
      </trkpt>
      <trkpt lat="48.39136" lon="5.6874">
        <ele>276.568</ele>
        <time>2019-09-23T13:16:11.001Z</time>
      </trkpt>
      <trkpt lat="48.39133" lon="5.68722">
        <ele>276.274</ele>
        <time>2019-09-23T13:16:14.001Z</time>
      </trkpt>
      <trkpt lat="48.39131" lon="5.68705">
        <ele>276.238</ele>
        <time>2019-09-23T13:16:17.001Z</time>
      </trkpt>
      <trkpt lat="48.39128" lon="5.68687">
        <ele>276.05</ele>
        <time>2019-09-23T13:16:20.001Z</time>
      </trkpt>
      <trkpt lat="48.39123" lon="5.68666">
        <ele>275.397</ele>
        <time>2019-09-23T13:16:23.001Z</time>
      </trkpt>
      <trkpt lat="48.39118" lon="5.68646">
        <ele>275.217</ele>
        <time>2019-09-23T13:16:26.001Z</time>
      </trkpt>
      <trkpt lat="48.39113" lon="5.68626">
        <ele>275.024</ele>
        <time>2019-09-23T13:16:29.001Z</time>
      </trkpt>
      <trkpt lat="48.39107" lon="5.68606">
        <ele>274.757</ele>
        <time>2019-09-23T13:16:32.001Z</time>
      </trkpt>
      <trkpt lat="48.39101" lon="5.68583">
        <ele>274.475</ele>
        <time>2019-09-23T13:16:35.001Z</time>
      </trkpt>
      <trkpt lat="48.39095" lon="5.68559">
        <ele>274.36</ele>
        <time>2019-09-23T13:16:38.001Z</time>
      </trkpt>
      <trkpt lat="48.3909" lon="5.68534">
        <ele>274.32</ele>
        <time>2019-09-23T13:16:41.001Z</time>
      </trkpt>
      <trkpt lat="48.39085" lon="5.68508">
        <ele>273.583</ele>
        <time>2019-09-23T13:16:44.001Z</time>
      </trkpt>
      <trkpt lat="48.39086" lon="5.68479">
        <ele>273.163</ele>
        <time>2019-09-23T13:16:47.001Z</time>
      </trkpt>
      <trkpt lat="48.39093" lon="5.68451">
        <ele>272.447</ele>
        <time>2019-09-23T13:16:50.001Z</time>
      </trkpt>
      <trkpt lat="48.39101" lon="5.68425">
        <ele>271.428</ele>
        <time>2019-09-23T13:16:53.001Z</time>
      </trkpt>
      <trkpt lat="48.39109" lon="5.68399">
        <ele>271.005</ele>
        <time>2019-09-23T13:16:56.001Z</time>
      </trkpt>
      <trkpt lat="48.39117" lon="5.68374">
        <ele>271.106</ele>
        <time>2019-09-23T13:16:59.001Z</time>
      </trkpt>
      <trkpt lat="48.39122" lon="5.68346">
        <ele>271.312</ele>
        <time>2019-09-23T13:17:02.000Z</time>
      </trkpt>
      <trkpt lat="48.39126" lon="5.68317">
        <ele>272.077</ele>
        <time>2019-09-23T13:17:05.001Z</time>
      </trkpt>
      <trkpt lat="48.3913" lon="5.68289">
        <ele>272.726</ele>
        <time>2019-09-23T13:17:08.001Z</time>
      </trkpt>
      <trkpt lat="48.39133" lon="5.68261">
        <ele>273.195</ele>
        <time>2019-09-23T13:17:11.001Z</time>
      </trkpt>
      <trkpt lat="48.39135" lon="5.68234">
        <ele>273.137</ele>
        <time>2019-09-23T13:17:14.001Z</time>
      </trkpt>
      <trkpt lat="48.39137" lon="5.68207">
        <ele>272.792</ele>
        <time>2019-09-23T13:17:17.001Z</time>
      </trkpt>
      <trkpt lat="48.39138" lon="5.68181">
        <ele>272.149</ele>
        <time>2019-09-23T13:17:20.001Z</time>
      </trkpt>
      <trkpt lat="48.39138" lon="5.68155">
        <ele>271.881</ele>
        <time>2019-09-23T13:17:23.001Z</time>
      </trkpt>
      <trkpt lat="48.39138" lon="5.68129">
        <ele>271.955</ele>
        <time>2019-09-23T13:17:26.001Z</time>
      </trkpt>
      <trkpt lat="48.39139" lon="5.68104">
        <ele>271.515</ele>
        <time>2019-09-23T13:17:29.001Z</time>
      </trkpt>
      <trkpt lat="48.39139" lon="5.68079">
        <ele>271.275</ele>
        <time>2019-09-23T13:17:32.001Z</time>
      </trkpt>
      <trkpt lat="48.39139" lon="5.68055">
        <ele>271.126</ele>
        <time>2019-09-23T13:17:35.001Z</time>
      </trkpt>
      <trkpt lat="48.39138" lon="5.68031">
        <ele>271.326</ele>
        <time>2019-09-23T13:17:38.001Z</time>
      </trkpt>
      <trkpt lat="48.39138" lon="5.68007">
        <ele>271.505</ele>
        <time>2019-09-23T13:17:41.001Z</time>
      </trkpt>
      <trkpt lat="48.39139" lon="5.67985">
        <ele>271.522</ele>
        <time>2019-09-23T13:17:44.001Z</time>
      </trkpt>
      <trkpt lat="48.39139" lon="5.67964">
        <ele>271.409</ele>
        <time>2019-09-23T13:17:47.001Z</time>
      </trkpt>
      <trkpt lat="48.39138" lon="5.67942">
        <ele>271.612</ele>
        <time>2019-09-23T13:17:50.001Z</time>
      </trkpt>
      <trkpt lat="48.39137" lon="5.67922">
        <ele>271.875</ele>
        <time>2019-09-23T13:17:53.001Z</time>
      </trkpt>
      <trkpt lat="48.39137" lon="5.679">
        <ele>271.931</ele>
        <time>2019-09-23T13:17:56.001Z</time>
      </trkpt>
      <trkpt lat="48.39138" lon="5.67879">
        <ele>271.763</ele>
        <time>2019-09-23T13:17:59.001Z</time>
      </trkpt>
      <trkpt lat="48.39138" lon="5.67857">
        <ele>271.743</ele>
        <time>2019-09-23T13:18:02.000Z</time>
      </trkpt>
      <trkpt lat="48.3914" lon="5.67834">
        <ele>271.426</ele>
        <time>2019-09-23T13:18:05.001Z</time>
      </trkpt>
      <trkpt lat="48.39142" lon="5.67811">
        <ele>271.427</ele>
        <time>2019-09-23T13:18:08.001Z</time>
      </trkpt>
      <trkpt lat="48.39144" lon="5.67788">
        <ele>271.49</ele>
        <time>2019-09-23T13:18:11.001Z</time>
      </trkpt>
      <trkpt lat="48.39146" lon="5.67767">
        <ele>271.474</ele>
        <time>2019-09-23T13:18:14.001Z</time>
      </trkpt>
      <trkpt lat="48.39147" lon="5.67745">
        <ele>271.595</ele>
        <time>2019-09-23T13:18:17.001Z</time>
      </trkpt>
      <trkpt lat="48.39148" lon="5.67724">
        <ele>271.59</ele>
        <time>2019-09-23T13:18:20.001Z</time>
      </trkpt>
      <trkpt lat="48.39145" lon="5.67704">
        <ele>271.946</ele>
        <time>2019-09-23T13:18:23.001Z</time>
      </trkpt>
      <trkpt lat="48.39139" lon="5.67691">
        <ele>272.167</ele>
        <time>2019-09-23T13:18:26.001Z</time>
      </trkpt>
      <trkpt lat="48.39132" lon="5.67684">
        <ele>272.225</ele>
        <time>2019-09-23T13:18:29.001Z</time>
      </trkpt>
      <trkpt lat="48.39126" lon="5.67676">
        <ele>273.037</ele>
        <time>2019-09-23T13:18:32.001Z</time>
      </trkpt>
      <trkpt lat="48.3912" lon="5.67668">
        <ele>273.689</ele>
        <time>2019-09-23T13:18:35.001Z</time>
      </trkpt>
      <trkpt lat="48.39112" lon="5.67659">
        <ele>274.087</ele>
        <time>2019-09-23T13:18:38.001Z</time>
      </trkpt>
      <trkpt lat="48.39106" lon="5.67653">
        <ele>273.821</ele>
        <time>2019-09-23T13:18:41.001Z</time>
      </trkpt>
      <trkpt lat="48.391" lon="5.6765">
        <ele>273.339</ele>
        <time>2019-09-23T13:18:44.001Z</time>
      </trkpt>
      <trkpt lat="48.39098" lon="5.6765">
        <ele>273.151</ele>
        <time>2019-09-23T13:18:47.001Z</time>
      </trkpt>
      <trkpt lat="48.39098" lon="5.67651">
        <ele>273.471</ele>
        <time>2019-09-23T13:21:17.001Z</time>
      </trkpt>
      <trkpt lat="48.39095" lon="5.67651">
        <ele>273.177</ele>
        <time>2019-09-23T13:21:20.001Z</time>
      </trkpt>
      <trkpt lat="48.39086" lon="5.67662">
        <ele>273.145</ele>
        <time>2019-09-23T13:21:26.001Z</time>
      </trkpt>
      <trkpt lat="48.39079" lon="5.67671">
        <ele>273.237</ele>
        <time>2019-09-23T13:21:29.001Z</time>
      </trkpt>
      <trkpt lat="48.39071" lon="5.67683">
        <ele>273.082</ele>
        <time>2019-09-23T13:21:32.001Z</time>
      </trkpt>
      <trkpt lat="48.39063" lon="5.67696">
        <ele>273.015</ele>
        <time>2019-09-23T13:21:35.001Z</time>
      </trkpt>
      <trkpt lat="48.39055" lon="5.67708">
        <ele>272.766</ele>
        <time>2019-09-23T13:21:38.001Z</time>
      </trkpt>
      <trkpt lat="48.39046" lon="5.6772">
        <ele>272.922</ele>
        <time>2019-09-23T13:21:41.001Z</time>
      </trkpt>
      <trkpt lat="48.39036" lon="5.67732">
        <ele>273.438</ele>
        <time>2019-09-23T13:21:44.001Z</time>
      </trkpt>
      <trkpt lat="48.39025" lon="5.67739">
        <ele>273.755</ele>
        <time>2019-09-23T13:21:47.001Z</time>
      </trkpt>
      <trkpt lat="48.39016" lon="5.67746">
        <ele>273.988</ele>
        <time>2019-09-23T13:21:50.001Z</time>
      </trkpt>
      <trkpt lat="48.39013" lon="5.67748">
        <ele>274.479</ele>
        <time>2019-09-23T13:21:53.001Z</time>
      </trkpt>
      <trkpt lat="48.38995" lon="5.67755">
        <ele>274.788</ele>
        <time>2019-09-23T13:21:56.001Z</time>
      </trkpt>
      <trkpt lat="48.38986" lon="5.6776">
        <ele>276.011</ele>
        <time>2019-09-23T13:21:59.001Z</time>
      </trkpt>
      <trkpt lat="48.38977" lon="5.67758">
        <ele>276.408</ele>
        <time>2019-09-23T13:22:02.000Z</time>
      </trkpt>
      <trkpt lat="48.38967" lon="5.67757">
        <ele>276.773</ele>
        <time>2019-09-23T13:22:05.001Z</time>
      </trkpt>
      <trkpt lat="48.3896" lon="5.67752">
        <ele>277.098</ele>
        <time>2019-09-23T13:22:08.001Z</time>
      </trkpt>
      <trkpt lat="48.38953" lon="5.67748">
        <ele>277.043</ele>
        <time>2019-09-23T13:22:11.001Z</time>
      </trkpt>
      <trkpt lat="48.38946" lon="5.67745">
        <ele>276.677</ele>
        <time>2019-09-23T13:22:14.001Z</time>
      </trkpt>
      <trkpt lat="48.38938" lon="5.67741">
        <ele>276.584</ele>
        <time>2019-09-23T13:22:17.001Z</time>
      </trkpt>
      <trkpt lat="48.38931" lon="5.67737">
        <ele>276.086</ele>
        <time>2019-09-23T13:22:20.001Z</time>
      </trkpt>
      <trkpt lat="48.38925" lon="5.67735">
        <ele>275.411</ele>
        <time>2019-09-23T13:22:23.001Z</time>
      </trkpt>
      <trkpt lat="48.38918" lon="5.67733">
        <ele>274.798</ele>
        <time>2019-09-23T13:22:26.001Z</time>
      </trkpt>
      <trkpt lat="48.38911" lon="5.6773">
        <ele>274.608</ele>
        <time>2019-09-23T13:22:29.001Z</time>
      </trkpt>
      <trkpt lat="48.38905" lon="5.67728">
        <ele>274.981</ele>
        <time>2019-09-23T13:22:32.001Z</time>
      </trkpt>
      <trkpt lat="48.38898" lon="5.67725">
        <ele>275.496</ele>
        <time>2019-09-23T13:22:35.001Z</time>
      </trkpt>
      <trkpt lat="48.38892" lon="5.67722">
        <ele>275.311</ele>
        <time>2019-09-23T13:22:38.001Z</time>
      </trkpt>
      <trkpt lat="48.38885" lon="5.6772">
        <ele>275.395</ele>
        <time>2019-09-23T13:22:41.001Z</time>
      </trkpt>
      <trkpt lat="48.38879" lon="5.67718">
        <ele>275.683</ele>
        <time>2019-09-23T13:22:44.001Z</time>
      </trkpt>
      <trkpt lat="48.38872" lon="5.67716">
        <ele>275.563</ele>
        <time>2019-09-23T13:22:47.001Z</time>
      </trkpt>
      <trkpt lat="48.38866" lon="5.67713">
        <ele>275.536</ele>
        <time>2019-09-23T13:22:50.001Z</time>
      </trkpt>
      <trkpt lat="48.38859" lon="5.67711">
        <ele>275.892</ele>
        <time>2019-09-23T13:22:53.001Z</time>
      </trkpt>
      <trkpt lat="48.38852" lon="5.67708">
        <ele>275.623</ele>
        <time>2019-09-23T13:22:56.001Z</time>
      </trkpt>
      <trkpt lat="48.38844" lon="5.67705">
        <ele>275.84</ele>
        <time>2019-09-23T13:22:59.001Z</time>
      </trkpt>
      <trkpt lat="48.38836" lon="5.67703">
        <ele>275.615</ele>
        <time>2019-09-23T13:23:02.000Z</time>
      </trkpt>
      <trkpt lat="48.38828" lon="5.67701">
        <ele>275.989</ele>
        <time>2019-09-23T13:23:05.001Z</time>
      </trkpt>
      <trkpt lat="48.38821" lon="5.67698">
        <ele>276.49</ele>
        <time>2019-09-23T13:23:08.001Z</time>
      </trkpt>
      <trkpt lat="48.38815" lon="5.67695">
        <ele>277.11</ele>
        <time>2019-09-23T13:23:11.001Z</time>
      </trkpt>
      <trkpt lat="48.38808" lon="5.67691">
        <ele>277.716</ele>
        <time>2019-09-23T13:23:14.001Z</time>
      </trkpt>
      <trkpt lat="48.38801" lon="5.67689">
        <ele>278.308</ele>
        <time>2019-09-23T13:23:17.001Z</time>
      </trkpt>
      <trkpt lat="48.38794" lon="5.67686">
        <ele>279.475</ele>
        <time>2019-09-23T13:23:20.001Z</time>
      </trkpt>
      <trkpt lat="48.38787" lon="5.67684">
        <ele>280.408</ele>
        <time>2019-09-23T13:23:23.001Z</time>
      </trkpt>
      <trkpt lat="48.3878" lon="5.67681">
        <ele>281.012</ele>
        <time>2019-09-23T13:23:26.001Z</time>
      </trkpt>
      <trkpt lat="48.38772" lon="5.67678">
        <ele>281.702</ele>
        <time>2019-09-23T13:23:29.001Z</time>
      </trkpt>
      <trkpt lat="48.38765" lon="5.67676">
        <ele>281.283</ele>
        <time>2019-09-23T13:23:32.001Z</time>
      </trkpt>
      <trkpt lat="48.38758" lon="5.67673">
        <ele>280.502</ele>
        <time>2019-09-23T13:23:35.001Z</time>
      </trkpt>
      <trkpt lat="48.3875" lon="5.6767">
        <ele>280.272</ele>
        <time>2019-09-23T13:23:38.001Z</time>
      </trkpt>
      <trkpt lat="48.38744" lon="5.67667">
        <ele>280.54</ele>
        <time>2019-09-23T13:23:41.001Z</time>
      </trkpt>
      <trkpt lat="48.38736" lon="5.67664">
        <ele>280.885</ele>
        <time>2019-09-23T13:23:44.001Z</time>
      </trkpt>
      <trkpt lat="48.38729" lon="5.67662">
        <ele>281.226</ele>
        <time>2019-09-23T13:23:47.001Z</time>
      </trkpt>
      <trkpt lat="48.38721" lon="5.67659">
        <ele>281.463</ele>
        <time>2019-09-23T13:23:50.001Z</time>
      </trkpt>
      <trkpt lat="48.38713" lon="5.67657">
        <ele>281.261</ele>
        <time>2019-09-23T13:23:53.001Z</time>
      </trkpt>
      <trkpt lat="48.38705" lon="5.67655">
        <ele>280.889</ele>
        <time>2019-09-23T13:23:56.001Z</time>
      </trkpt>
      <trkpt lat="48.38698" lon="5.67652">
        <ele>281.276</ele>
        <time>2019-09-23T13:23:59.001Z</time>
      </trkpt>
      <trkpt lat="48.38691" lon="5.67646">
        <ele>281.292</ele>
        <time>2019-09-23T13:24:02.000Z</time>
      </trkpt>
      <trkpt lat="48.38684" lon="5.67636">
        <ele>281.413</ele>
        <time>2019-09-23T13:24:05.001Z</time>
      </trkpt>
      <trkpt lat="48.38673" lon="5.67632">
        <ele>281.558</ele>
        <time>2019-09-23T13:24:08.001Z</time>
      </trkpt>
      <trkpt lat="48.38661" lon="5.67634">
        <ele>281.68</ele>
        <time>2019-09-23T13:24:11.001Z</time>
      </trkpt>
      <trkpt lat="48.38649" lon="5.67633">
        <ele>281.646</ele>
        <time>2019-09-23T13:24:14.001Z</time>
      </trkpt>
      <trkpt lat="48.38638" lon="5.67631">
        <ele>281.961</ele>
        <time>2019-09-23T13:24:17.001Z</time>
      </trkpt>
      <trkpt lat="48.38627" lon="5.67629">
        <ele>282.33</ele>
        <time>2019-09-23T13:24:20.001Z</time>
      </trkpt>
      <trkpt lat="48.38615" lon="5.67627">
        <ele>282.777</ele>
        <time>2019-09-23T13:24:23.001Z</time>
      </trkpt>
      <trkpt lat="48.38602" lon="5.67625">
        <ele>283.034</ele>
        <time>2019-09-23T13:24:26.001Z</time>
      </trkpt>
      <trkpt lat="48.3859" lon="5.67623">
        <ele>283.204</ele>
        <time>2019-09-23T13:24:29.001Z</time>
      </trkpt>
      <trkpt lat="48.38578" lon="5.6762">
        <ele>283.358</ele>
        <time>2019-09-23T13:24:32.001Z</time>
      </trkpt>
      <trkpt lat="48.38567" lon="5.67618">
        <ele>283.657</ele>
        <time>2019-09-23T13:24:35.001Z</time>
      </trkpt>
      <trkpt lat="48.38554" lon="5.67616">
        <ele>283.937</ele>
        <time>2019-09-23T13:24:38.001Z</time>
      </trkpt>
      <trkpt lat="48.38542" lon="5.67614">
        <ele>284.096</ele>
        <time>2019-09-23T13:24:41.001Z</time>
      </trkpt>
      <trkpt lat="48.3853" lon="5.67611">
        <ele>283.997</ele>
        <time>2019-09-23T13:24:44.001Z</time>
      </trkpt>
      <trkpt lat="48.38519" lon="5.67608">
        <ele>284.128</ele>
        <time>2019-09-23T13:24:47.001Z</time>
      </trkpt>
      <trkpt lat="48.38507" lon="5.67607">
        <ele>285.126</ele>
        <time>2019-09-23T13:24:50.001Z</time>
      </trkpt>
      <trkpt lat="48.38496" lon="5.67605">
        <ele>285.788</ele>
        <time>2019-09-23T13:24:53.001Z</time>
      </trkpt>
      <trkpt lat="48.38485" lon="5.67602">
        <ele>286.209</ele>
        <time>2019-09-23T13:24:56.001Z</time>
      </trkpt>
      <trkpt lat="48.38474" lon="5.676">
        <ele>286.614</ele>
        <time>2019-09-23T13:24:59.001Z</time>
      </trkpt>
      <trkpt lat="48.38462" lon="5.67598">
        <ele>286.652</ele>
        <time>2019-09-23T13:25:02.000Z</time>
      </trkpt>
      <trkpt lat="48.3845" lon="5.67596">
        <ele>286.282</ele>
        <time>2019-09-23T13:25:05.001Z</time>
      </trkpt>
      <trkpt lat="48.38438" lon="5.67595">
        <ele>286.069</ele>
        <time>2019-09-23T13:25:08.001Z</time>
      </trkpt>
      <trkpt lat="48.38426" lon="5.67594">
        <ele>285.936</ele>
        <time>2019-09-23T13:25:11.001Z</time>
      </trkpt>
      <trkpt lat="48.38414" lon="5.67593">
        <ele>285.39</ele>
        <time>2019-09-23T13:25:14.001Z</time>
      </trkpt>
      <trkpt lat="48.38401" lon="5.67592">
        <ele>285.253</ele>
        <time>2019-09-23T13:25:17.001Z</time>
      </trkpt>
      <trkpt lat="48.3839" lon="5.67593">
        <ele>284.425</ele>
        <time>2019-09-23T13:25:20.001Z</time>
      </trkpt>
      <trkpt lat="48.38378" lon="5.67594">
        <ele>283.79</ele>
        <time>2019-09-23T13:25:23.001Z</time>
      </trkpt>
      <trkpt lat="48.38365" lon="5.67596">
        <ele>284.007</ele>
        <time>2019-09-23T13:25:26.001Z</time>
      </trkpt>
      <trkpt lat="48.38353" lon="5.67599">
        <ele>284.133</ele>
        <time>2019-09-23T13:25:29.001Z</time>
      </trkpt>
      <trkpt lat="48.3834" lon="5.67603">
        <ele>284.751</ele>
        <time>2019-09-23T13:25:32.001Z</time>
      </trkpt>
      <trkpt lat="48.38327" lon="5.67609">
        <ele>285.675</ele>
        <time>2019-09-23T13:25:35.001Z</time>
      </trkpt>
      <trkpt lat="48.38314" lon="5.67615">
        <ele>286.558</ele>
        <time>2019-09-23T13:25:38.001Z</time>
      </trkpt>
      <trkpt lat="48.38302" lon="5.67623">
        <ele>287.035</ele>
        <time>2019-09-23T13:25:41.001Z</time>
      </trkpt>
      <trkpt lat="48.3829" lon="5.6763">
        <ele>286.872</ele>
        <time>2019-09-23T13:25:44.001Z</time>
      </trkpt>
      <trkpt lat="48.38278" lon="5.67638">
        <ele>286.572</ele>
        <time>2019-09-23T13:25:47.001Z</time>
      </trkpt>
      <trkpt lat="48.38267" lon="5.67643">
        <ele>286.263</ele>
        <time>2019-09-23T13:25:50.001Z</time>
      </trkpt>
      <trkpt lat="48.38255" lon="5.67648">
        <ele>285.769</ele>
        <time>2019-09-23T13:25:53.001Z</time>
      </trkpt>
      <trkpt lat="48.38244" lon="5.67652">
        <ele>285.496</ele>
        <time>2019-09-23T13:25:56.001Z</time>
      </trkpt>
      <trkpt lat="48.38232" lon="5.67655">
        <ele>285.948</ele>
        <time>2019-09-23T13:25:59.001Z</time>
      </trkpt>
      <trkpt lat="48.3822" lon="5.67657">
        <ele>286.546</ele>
        <time>2019-09-23T13:26:02.000Z</time>
      </trkpt>
      <trkpt lat="48.38208" lon="5.67658">
        <ele>287.052</ele>
        <time>2019-09-23T13:26:05.001Z</time>
      </trkpt>
      <trkpt lat="48.38197" lon="5.67657">
        <ele>287.654</ele>
        <time>2019-09-23T13:26:08.001Z</time>
      </trkpt>
      <trkpt lat="48.38186" lon="5.67654">
        <ele>287.553</ele>
        <time>2019-09-23T13:26:11.001Z</time>
      </trkpt>
      <trkpt lat="48.38175" lon="5.67652">
        <ele>287.41</ele>
        <time>2019-09-23T13:26:14.001Z</time>
      </trkpt>
      <trkpt lat="48.38165" lon="5.6765">
        <ele>287.606</ele>
        <time>2019-09-23T13:26:17.001Z</time>
      </trkpt>
      <trkpt lat="48.38155" lon="5.67648">
        <ele>287.769</ele>
        <time>2019-09-23T13:26:20.001Z</time>
      </trkpt>
      <trkpt lat="48.38146" lon="5.67645">
        <ele>287.822</ele>
        <time>2019-09-23T13:26:23.001Z</time>
      </trkpt>
      <trkpt lat="48.38137" lon="5.67643">
        <ele>287.816</ele>
        <time>2019-09-23T13:26:26.001Z</time>
      </trkpt>
      <trkpt lat="48.38129" lon="5.6764">
        <ele>287.821</ele>
        <time>2019-09-23T13:26:29.001Z</time>
      </trkpt>
      <trkpt lat="48.3812" lon="5.67637">
        <ele>287.813</ele>
        <time>2019-09-23T13:26:32.001Z</time>
      </trkpt>
      <trkpt lat="48.38111" lon="5.67635">
        <ele>287.486</ele>
        <time>2019-09-23T13:26:35.002Z</time>
      </trkpt>
      <trkpt lat="48.38102" lon="5.67631">
        <ele>287.077</ele>
        <time>2019-09-23T13:26:38.001Z</time>
      </trkpt>
      <trkpt lat="48.38094" lon="5.67629">
        <ele>286.925</ele>
        <time>2019-09-23T13:26:41.001Z</time>
      </trkpt>
      <trkpt lat="48.38087" lon="5.67627">
        <ele>287.297</ele>
        <time>2019-09-23T13:26:44.001Z</time>
      </trkpt>
      <trkpt lat="48.38078" lon="5.67625">
        <ele>287.368</ele>
        <time>2019-09-23T13:26:47.001Z</time>
      </trkpt>
      <trkpt lat="48.3807" lon="5.67622">
        <ele>287.921</ele>
        <time>2019-09-23T13:26:50.001Z</time>
      </trkpt>
      <trkpt lat="48.38062" lon="5.6762">
        <ele>288.519</ele>
        <time>2019-09-23T13:26:53.001Z</time>
      </trkpt>
      <trkpt lat="48.38054" lon="5.67618">
        <ele>289.375</ele>
        <time>2019-09-23T13:26:56.001Z</time>
      </trkpt>
      <trkpt lat="48.38046" lon="5.67616">
        <ele>289.677</ele>
        <time>2019-09-23T13:26:59.001Z</time>
      </trkpt>
      <trkpt lat="48.38038" lon="5.67613">
        <ele>289.771</ele>
        <time>2019-09-23T13:27:02.000Z</time>
      </trkpt>
      <trkpt lat="48.3803" lon="5.67611">
        <ele>289.822</ele>
        <time>2019-09-23T13:27:05.001Z</time>
      </trkpt>
      <trkpt lat="48.38023" lon="5.67609">
        <ele>290.113</ele>
        <time>2019-09-23T13:27:08.001Z</time>
      </trkpt>
      <trkpt lat="48.38016" lon="5.67607">
        <ele>289.98</ele>
        <time>2019-09-23T13:27:11.001Z</time>
      </trkpt>
      <trkpt lat="48.3801" lon="5.67605">
        <ele>290.089</ele>
        <time>2019-09-23T13:27:14.001Z</time>
      </trkpt>
      <trkpt lat="48.38003" lon="5.67605">
        <ele>290.501</ele>
        <time>2019-09-23T13:27:17.001Z</time>
      </trkpt>
      <trkpt lat="48.37995" lon="5.67605">
        <ele>291.069</ele>
        <time>2019-09-23T13:27:20.001Z</time>
      </trkpt>
      <trkpt lat="48.37988" lon="5.67604">
        <ele>291.532</ele>
        <time>2019-09-23T13:27:23.001Z</time>
      </trkpt>
      <trkpt lat="48.37981" lon="5.67603">
        <ele>292.112</ele>
        <time>2019-09-23T13:27:26.001Z</time>
      </trkpt>
      <trkpt lat="48.37974" lon="5.67602">
        <ele>292.004</ele>
        <time>2019-09-23T13:27:29.001Z</time>
      </trkpt>
      <trkpt lat="48.37967" lon="5.67602">
        <ele>292.02</ele>
        <time>2019-09-23T13:27:32.001Z</time>
      </trkpt>
      <trkpt lat="48.3796" lon="5.67601">
        <ele>292.106</ele>
        <time>2019-09-23T13:27:35.001Z</time>
      </trkpt>
      <trkpt lat="48.37952" lon="5.676">
        <ele>291.938</ele>
        <time>2019-09-23T13:27:38.001Z</time>
      </trkpt>
      <trkpt lat="48.37944" lon="5.676">
        <ele>292.225</ele>
        <time>2019-09-23T13:27:41.001Z</time>
      </trkpt>
      <trkpt lat="48.37937" lon="5.676">
        <ele>292.847</ele>
        <time>2019-09-23T13:27:44.001Z</time>
      </trkpt>
      <trkpt lat="48.37929" lon="5.67601">
        <ele>293.616</ele>
        <time>2019-09-23T13:27:47.001Z</time>
      </trkpt>
      <trkpt lat="48.37921" lon="5.67602">
        <ele>294.185</ele>
        <time>2019-09-23T13:27:50.001Z</time>
      </trkpt>
      <trkpt lat="48.37913" lon="5.67604">
        <ele>294.961</ele>
        <time>2019-09-23T13:27:53.001Z</time>
      </trkpt>
      <trkpt lat="48.37906" lon="5.67605">
        <ele>295.809</ele>
        <time>2019-09-23T13:27:56.001Z</time>
      </trkpt>
      <trkpt lat="48.37898" lon="5.67606">
        <ele>296.78</ele>
        <time>2019-09-23T13:27:59.001Z</time>
      </trkpt>
      <trkpt lat="48.3789" lon="5.67607">
        <ele>297.805</ele>
        <time>2019-09-23T13:28:02.000Z</time>
      </trkpt>
      <trkpt lat="48.37882" lon="5.67609">
        <ele>298.724</ele>
        <time>2019-09-23T13:28:05.001Z</time>
      </trkpt>
      <trkpt lat="48.37874" lon="5.67611">
        <ele>299.243</ele>
        <time>2019-09-23T13:28:08.001Z</time>
      </trkpt>
      <trkpt lat="48.37866" lon="5.67612">
        <ele>299.525</ele>
        <time>2019-09-23T13:28:11.001Z</time>
      </trkpt>
      <trkpt lat="48.37857" lon="5.67614">
        <ele>299.727</ele>
        <time>2019-09-23T13:28:14.001Z</time>
      </trkpt>
      <trkpt lat="48.37849" lon="5.67615">
        <ele>299.484</ele>
        <time>2019-09-23T13:28:17.001Z</time>
      </trkpt>
      <trkpt lat="48.3784" lon="5.67616">
        <ele>299.527</ele>
        <time>2019-09-23T13:28:20.001Z</time>
      </trkpt>
      <trkpt lat="48.37831" lon="5.67619">
        <ele>300.002</ele>
        <time>2019-09-23T13:28:23.001Z</time>
      </trkpt>
      <trkpt lat="48.37822" lon="5.67622">
        <ele>300.348</ele>
        <time>2019-09-23T13:28:26.001Z</time>
      </trkpt>
      <trkpt lat="48.37814" lon="5.67625">
        <ele>300.607</ele>
        <time>2019-09-23T13:28:29.001Z</time>
      </trkpt>
      <trkpt lat="48.37804" lon="5.67627">
        <ele>300.576</ele>
        <time>2019-09-23T13:28:32.001Z</time>
      </trkpt>
      <trkpt lat="48.37794" lon="5.67629">
        <ele>300.375</ele>
        <time>2019-09-23T13:28:35.001Z</time>
      </trkpt>
      <trkpt lat="48.37783" lon="5.67632">
        <ele>300.526</ele>
        <time>2019-09-23T13:28:38.001Z</time>
      </trkpt>
      <trkpt lat="48.37772" lon="5.67635">
        <ele>300.485</ele>
        <time>2019-09-23T13:28:41.001Z</time>
      </trkpt>
      <trkpt lat="48.37759" lon="5.6764">
        <ele>300.863</ele>
        <time>2019-09-23T13:28:44.001Z</time>
      </trkpt>
      <trkpt lat="48.37745" lon="5.67644">
        <ele>300.549</ele>
        <time>2019-09-23T13:28:47.001Z</time>
      </trkpt>
      <trkpt lat="48.37731" lon="5.67647">
        <ele>300.536</ele>
        <time>2019-09-23T13:28:50.001Z</time>
      </trkpt>
      <trkpt lat="48.37716" lon="5.67651">
        <ele>300.653</ele>
        <time>2019-09-23T13:28:53.001Z</time>
      </trkpt>
      <trkpt lat="48.37701" lon="5.67655">
        <ele>300.639</ele>
        <time>2019-09-23T13:28:56.001Z</time>
      </trkpt>
      <trkpt lat="48.37685" lon="5.67659">
        <ele>300.27</ele>
        <time>2019-09-23T13:28:59.001Z</time>
      </trkpt>
      <trkpt lat="48.3767" lon="5.67663">
        <ele>300.031</ele>
        <time>2019-09-23T13:29:02.000Z</time>
      </trkpt>
      <trkpt lat="48.37655" lon="5.67666">
        <ele>299.603</ele>
        <time>2019-09-23T13:29:05.001Z</time>
      </trkpt>
      <trkpt lat="48.37639" lon="5.67671">
        <ele>298.835</ele>
        <time>2019-09-23T13:29:08.001Z</time>
      </trkpt>
      <trkpt lat="48.37622" lon="5.67676">
        <ele>297.894</ele>
        <time>2019-09-23T13:29:11.001Z</time>
      </trkpt>
      <trkpt lat="48.37604" lon="5.67682">
        <ele>297.441</ele>
        <time>2019-09-23T13:29:14.001Z</time>
      </trkpt>
      <trkpt lat="48.37586" lon="5.6769">
        <ele>296.691</ele>
        <time>2019-09-23T13:29:17.001Z</time>
      </trkpt>
      <trkpt lat="48.37567" lon="5.677">
        <ele>296.153</ele>
        <time>2019-09-23T13:29:20.001Z</time>
      </trkpt>
      <trkpt lat="48.37548" lon="5.6771">
        <ele>295.277</ele>
        <time>2019-09-23T13:29:23.001Z</time>
      </trkpt>
      <trkpt lat="48.37528" lon="5.67721">
        <ele>294.39</ele>
        <time>2019-09-23T13:29:26.001Z</time>
      </trkpt>
      <trkpt lat="48.37508" lon="5.67733">
        <ele>293.313</ele>
        <time>2019-09-23T13:29:29.001Z</time>
      </trkpt>
      <trkpt lat="48.37486" lon="5.67745">
        <ele>292.72</ele>
        <time>2019-09-23T13:29:32.001Z</time>
      </trkpt>
      <trkpt lat="48.37464" lon="5.67757">
        <ele>292.142</ele>
        <time>2019-09-23T13:29:35.001Z</time>
      </trkpt>
      <trkpt lat="48.37442" lon="5.67768">
        <ele>291.303</ele>
        <time>2019-09-23T13:29:38.001Z</time>
      </trkpt>
      <trkpt lat="48.37421" lon="5.6778">
        <ele>290.345</ele>
        <time>2019-09-23T13:29:41.001Z</time>
      </trkpt>
      <trkpt lat="48.37399" lon="5.67793">
        <ele>289.449</ele>
        <time>2019-09-23T13:29:44.001Z</time>
      </trkpt>
      <trkpt lat="48.37378" lon="5.67805">
        <ele>288.249</ele>
        <time>2019-09-23T13:29:47.001Z</time>
      </trkpt>
      <trkpt lat="48.37356" lon="5.67818">
        <ele>287.084</ele>
        <time>2019-09-23T13:29:50.001Z</time>
      </trkpt>
      <trkpt lat="48.37334" lon="5.6783">
        <ele>286.212</ele>
        <time>2019-09-23T13:29:53.001Z</time>
      </trkpt>
      <trkpt lat="48.37311" lon="5.67842">
        <ele>285.437</ele>
        <time>2019-09-23T13:29:56.001Z</time>
      </trkpt>
      <trkpt lat="48.37288" lon="5.67854">
        <ele>284.538</ele>
        <time>2019-09-23T13:29:59.001Z</time>
      </trkpt>
      <trkpt lat="48.37264" lon="5.67867">
        <ele>283.891</ele>
        <time>2019-09-23T13:30:02.000Z</time>
      </trkpt>
      <trkpt lat="48.37241" lon="5.6788">
        <ele>283.246</ele>
        <time>2019-09-23T13:30:05.001Z</time>
      </trkpt>
      <trkpt lat="48.37218" lon="5.67893">
        <ele>282.745</ele>
        <time>2019-09-23T13:30:08.001Z</time>
      </trkpt>
      <trkpt lat="48.37196" lon="5.67905">
        <ele>282.076</ele>
        <time>2019-09-23T13:30:11.001Z</time>
      </trkpt>
      <trkpt lat="48.37175" lon="5.67918">
        <ele>281.332</ele>
        <time>2019-09-23T13:30:14.001Z</time>
      </trkpt>
      <trkpt lat="48.37155" lon="5.6793">
        <ele>280.672</ele>
        <time>2019-09-23T13:30:17.001Z</time>
      </trkpt>
      <trkpt lat="48.37135" lon="5.67942">
        <ele>280.332</ele>
        <time>2019-09-23T13:30:20.001Z</time>
      </trkpt>
      <trkpt lat="48.37115" lon="5.67953">
        <ele>280.216</ele>
        <time>2019-09-23T13:30:23.001Z</time>
      </trkpt>
      <trkpt lat="48.37096" lon="5.67964">
        <ele>279.54</ele>
        <time>2019-09-23T13:30:26.001Z</time>
      </trkpt>
      <trkpt lat="48.37078" lon="5.67975">
        <ele>278.682</ele>
        <time>2019-09-23T13:30:29.001Z</time>
      </trkpt>
      <trkpt lat="48.37061" lon="5.67984">
        <ele>278.423</ele>
        <time>2019-09-23T13:30:32.001Z</time>
      </trkpt>
      <trkpt lat="48.37043" lon="5.67995">
        <ele>277.566</ele>
        <time>2019-09-23T13:30:35.001Z</time>
      </trkpt>
      <trkpt lat="48.37024" lon="5.68005">
        <ele>276.725</ele>
        <time>2019-09-23T13:30:38.001Z</time>
      </trkpt>
      <trkpt lat="48.37007" lon="5.68015">
        <ele>276.404</ele>
        <time>2019-09-23T13:30:41.001Z</time>
      </trkpt>
      <trkpt lat="48.36992" lon="5.68024">
        <ele>276.73</ele>
        <time>2019-09-23T13:30:44.001Z</time>
      </trkpt>
      <trkpt lat="48.36977" lon="5.68035">
        <ele>277.133</ele>
        <time>2019-09-23T13:30:47.001Z</time>
      </trkpt>
      <trkpt lat="48.36965" lon="5.68049">
        <ele>277.752</ele>
        <time>2019-09-23T13:30:50.001Z</time>
      </trkpt>
      <trkpt lat="48.36958" lon="5.6807">
        <ele>277.845</ele>
        <time>2019-09-23T13:30:53.001Z</time>
      </trkpt>
      <trkpt lat="48.36951" lon="5.68092">
        <ele>278</ele>
        <time>2019-09-23T13:30:56.001Z</time>
      </trkpt>
      <trkpt lat="48.36945" lon="5.68116">
        <ele>277.776</ele>
        <time>2019-09-23T13:30:59.001Z</time>
      </trkpt>
      <trkpt lat="48.36938" lon="5.68137">
        <ele>277.118</ele>
        <time>2019-09-23T13:31:02.000Z</time>
      </trkpt>
      <trkpt lat="48.36931" lon="5.68158">
        <ele>276.551</ele>
        <time>2019-09-23T13:31:05.001Z</time>
      </trkpt>
      <trkpt lat="48.36925" lon="5.68177">
        <ele>275.758</ele>
        <time>2019-09-23T13:31:08.001Z</time>
      </trkpt>
      <trkpt lat="48.36919" lon="5.68197">
        <ele>275.015</ele>
        <time>2019-09-23T13:31:11.001Z</time>
      </trkpt>
      <trkpt lat="48.36912" lon="5.68219">
        <ele>274.707</ele>
        <time>2019-09-23T13:31:14.001Z</time>
      </trkpt>
      <trkpt lat="48.36906" lon="5.68239">
        <ele>274.284</ele>
        <time>2019-09-23T13:31:17.001Z</time>
      </trkpt>
      <trkpt lat="48.369" lon="5.68259">
        <ele>274.123</ele>
        <time>2019-09-23T13:31:20.001Z</time>
      </trkpt>
      <trkpt lat="48.36894" lon="5.6828">
        <ele>274.346</ele>
        <time>2019-09-23T13:31:23.001Z</time>
      </trkpt>
      <trkpt lat="48.36887" lon="5.68302">
        <ele>274.58</ele>
        <time>2019-09-23T13:31:26.001Z</time>
      </trkpt>
      <trkpt lat="48.36881" lon="5.68323">
        <ele>274.333</ele>
        <time>2019-09-23T13:31:29.001Z</time>
      </trkpt>
      <trkpt lat="48.36875" lon="5.68343">
        <ele>274.166</ele>
        <time>2019-09-23T13:31:32.001Z</time>
      </trkpt>
      <trkpt lat="48.36867" lon="5.68364">
        <ele>274.177</ele>
        <time>2019-09-23T13:31:35.001Z</time>
      </trkpt>
      <trkpt lat="48.3686" lon="5.68385">
        <ele>274.044</ele>
        <time>2019-09-23T13:31:38.001Z</time>
      </trkpt>
      <trkpt lat="48.36851" lon="5.68412">
        <ele>274.174</ele>
        <time>2019-09-23T13:31:41.001Z</time>
      </trkpt>
      <trkpt lat="48.36843" lon="5.68443">
        <ele>273.883</ele>
        <time>2019-09-23T13:31:44.001Z</time>
      </trkpt>
      <trkpt lat="48.36834" lon="5.6847">
        <ele>274.464</ele>
        <time>2019-09-23T13:31:47.001Z</time>
      </trkpt>
      <trkpt lat="48.36826" lon="5.68495">
        <ele>274.791</ele>
        <time>2019-09-23T13:31:50.001Z</time>
      </trkpt>
      <trkpt lat="48.36819" lon="5.68519">
        <ele>274.957</ele>
        <time>2019-09-23T13:31:53.001Z</time>
      </trkpt>
      <trkpt lat="48.36811" lon="5.68543">
        <ele>275.054</ele>
        <time>2019-09-23T13:31:56.001Z</time>
      </trkpt>
      <trkpt lat="48.36803" lon="5.68567">
        <ele>275.237</ele>
        <time>2019-09-23T13:31:59.001Z</time>
      </trkpt>
      <trkpt lat="48.36796" lon="5.68589">
        <ele>275.157</ele>
        <time>2019-09-23T13:32:02.000Z</time>
      </trkpt>
      <trkpt lat="48.3679" lon="5.68612">
        <ele>275.392</ele>
        <time>2019-09-23T13:32:05.001Z</time>
      </trkpt>
      <trkpt lat="48.36783" lon="5.68633">
        <ele>275.359</ele>
        <time>2019-09-23T13:32:08.001Z</time>
      </trkpt>
      <trkpt lat="48.36776" lon="5.68654">
        <ele>275.114</ele>
        <time>2019-09-23T13:32:11.001Z</time>
      </trkpt>
      <trkpt lat="48.36768" lon="5.68675">
        <ele>274.796</ele>
        <time>2019-09-23T13:32:14.001Z</time>
      </trkpt>
      <trkpt lat="48.3676" lon="5.68694">
        <ele>274.553</ele>
        <time>2019-09-23T13:32:17.001Z</time>
      </trkpt>
      <trkpt lat="48.36753" lon="5.6871">
        <ele>274.281</ele>
        <time>2019-09-23T13:32:20.001Z</time>
      </trkpt>
      <trkpt lat="48.36748" lon="5.68723">
        <ele>273.685</ele>
        <time>2019-09-23T13:32:23.001Z</time>
      </trkpt>
      <trkpt lat="48.36743" lon="5.68735">
        <ele>273.447</ele>
        <time>2019-09-23T13:32:26.001Z</time>
      </trkpt>
      <trkpt lat="48.36739" lon="5.68746">
        <ele>273.535</ele>
        <time>2019-09-23T13:32:29.001Z</time>
      </trkpt>
      <trkpt lat="48.36735" lon="5.68758">
        <ele>273.204</ele>
        <time>2019-09-23T13:32:32.001Z</time>
      </trkpt>
      <trkpt lat="48.3673" lon="5.6877">
        <ele>273.167</ele>
        <time>2019-09-23T13:32:35.001Z</time>
      </trkpt>
      <trkpt lat="48.36724" lon="5.68785">
        <ele>273.396</ele>
        <time>2019-09-23T13:32:38.001Z</time>
      </trkpt>
      <trkpt lat="48.36718" lon="5.68799">
        <ele>273.598</ele>
        <time>2019-09-23T13:32:41.001Z</time>
      </trkpt>
      <trkpt lat="48.36712" lon="5.68813">
        <ele>273.112</ele>
        <time>2019-09-23T13:32:44.001Z</time>
      </trkpt>
      <trkpt lat="48.36705" lon="5.68829">
        <ele>273.381</ele>
        <time>2019-09-23T13:32:47.001Z</time>
      </trkpt>
      <trkpt lat="48.36698" lon="5.68847">
        <ele>273.865</ele>
        <time>2019-09-23T13:32:50.001Z</time>
      </trkpt>
      <trkpt lat="48.3669" lon="5.68862">
        <ele>274.321</ele>
        <time>2019-09-23T13:32:53.001Z</time>
      </trkpt>
      <trkpt lat="48.36682" lon="5.6888">
        <ele>275.13</ele>
        <time>2019-09-23T13:32:56.001Z</time>
      </trkpt>
      <trkpt lat="48.36675" lon="5.68898">
        <ele>275.654</ele>
        <time>2019-09-23T13:32:59.001Z</time>
      </trkpt>
      <trkpt lat="48.36667" lon="5.68915">
        <ele>276.149</ele>
        <time>2019-09-23T13:33:02.000Z</time>
      </trkpt>
      <trkpt lat="48.36659" lon="5.68932">
        <ele>276.463</ele>
        <time>2019-09-23T13:33:05.001Z</time>
      </trkpt>
      <trkpt lat="48.3665" lon="5.68948">
        <ele>276.213</ele>
        <time>2019-09-23T13:33:08.001Z</time>
      </trkpt>
      <trkpt lat="48.36635" lon="5.68953">
        <ele>275.77</ele>
        <time>2019-09-23T13:33:11.001Z</time>
      </trkpt>
      <trkpt lat="48.36618" lon="5.68954">
        <ele>275.326</ele>
        <time>2019-09-23T13:33:14.001Z</time>
      </trkpt>
      <trkpt lat="48.366" lon="5.68955">
        <ele>275.051</ele>
        <time>2019-09-23T13:33:17.001Z</time>
      </trkpt>
      <trkpt lat="48.36584" lon="5.68954">
        <ele>274.861</ele>
        <time>2019-09-23T13:33:20.001Z</time>
      </trkpt>
      <trkpt lat="48.36567" lon="5.68952">
        <ele>274.377</ele>
        <time>2019-09-23T13:33:23.001Z</time>
      </trkpt>
      <trkpt lat="48.36552" lon="5.6895">
        <ele>274.552</ele>
        <time>2019-09-23T13:33:26.001Z</time>
      </trkpt>
      <trkpt lat="48.36537" lon="5.68947">
        <ele>275.049</ele>
        <time>2019-09-23T13:33:29.001Z</time>
      </trkpt>
      <trkpt lat="48.36522" lon="5.68944">
        <ele>275.107</ele>
        <time>2019-09-23T13:33:32.001Z</time>
      </trkpt>
      <trkpt lat="48.36507" lon="5.68944">
        <ele>275.397</ele>
        <time>2019-09-23T13:33:35.001Z</time>
      </trkpt>
      <trkpt lat="48.36492" lon="5.68943">
        <ele>275.851</ele>
        <time>2019-09-23T13:33:38.001Z</time>
      </trkpt>
      <trkpt lat="48.36478" lon="5.68943">
        <ele>276.738</ele>
        <time>2019-09-23T13:33:41.001Z</time>
      </trkpt>
      <trkpt lat="48.36463" lon="5.68943">
        <ele>276.988</ele>
        <time>2019-09-23T13:33:44.001Z</time>
      </trkpt>
      <trkpt lat="48.36449" lon="5.68944">
        <ele>277.112</ele>
        <time>2019-09-23T13:33:47.001Z</time>
      </trkpt>
      <trkpt lat="48.36434" lon="5.68944">
        <ele>277.687</ele>
        <time>2019-09-23T13:33:50.001Z</time>
      </trkpt>
      <trkpt lat="48.3642" lon="5.68944">
        <ele>277.97</ele>
        <time>2019-09-23T13:33:53.001Z</time>
      </trkpt>
      <trkpt lat="48.36406" lon="5.68947">
        <ele>278.616</ele>
        <time>2019-09-23T13:33:56.001Z</time>
      </trkpt>
      <trkpt lat="48.36395" lon="5.68956">
        <ele>278.958</ele>
        <time>2019-09-23T13:33:59.001Z</time>
      </trkpt>
      <trkpt lat="48.36389" lon="5.68971">
        <ele>278.963</ele>
        <time>2019-09-23T13:34:02.000Z</time>
      </trkpt>
      <trkpt lat="48.36381" lon="5.68983">
        <ele>279.185</ele>
        <time>2019-09-23T13:34:05.001Z</time>
      </trkpt>
      <trkpt lat="48.36368" lon="5.68977">
        <ele>279.497</ele>
        <time>2019-09-23T13:34:08.001Z</time>
      </trkpt>
      <trkpt lat="48.36351" lon="5.68969">
        <ele>281.747</ele>
        <time>2019-09-23T13:34:11.001Z</time>
      </trkpt>
      <trkpt lat="48.36336" lon="5.68963">
        <ele>282.449</ele>
        <time>2019-09-23T13:34:14.001Z</time>
      </trkpt>
      <trkpt lat="48.3632" lon="5.68959">
        <ele>283.191</ele>
        <time>2019-09-23T13:34:17.001Z</time>
      </trkpt>
      <trkpt lat="48.36304" lon="5.68952">
        <ele>283.709</ele>
        <time>2019-09-23T13:34:20.001Z</time>
      </trkpt>
      <trkpt lat="48.36289" lon="5.68947">
        <ele>283.726</ele>
        <time>2019-09-23T13:34:23.001Z</time>
      </trkpt>
      <trkpt lat="48.36272" lon="5.68945">
        <ele>285.365</ele>
        <time>2019-09-23T13:34:26.001Z</time>
      </trkpt>
      <trkpt lat="48.36257" lon="5.68938">
        <ele>285.559</ele>
        <time>2019-09-23T13:34:29.001Z</time>
      </trkpt>
      <trkpt lat="48.36244" lon="5.68939">
        <ele>285.533</ele>
        <time>2019-09-23T13:34:32.001Z</time>
      </trkpt>
      <trkpt lat="48.36237" lon="5.68956">
        <ele>285.835</ele>
        <time>2019-09-23T13:34:35.001Z</time>
      </trkpt>
      <trkpt lat="48.36233" lon="5.68975">
        <ele>285.709</ele>
        <time>2019-09-23T13:34:38.001Z</time>
      </trkpt>
      <trkpt lat="48.36227" lon="5.68991">
        <ele>285.077</ele>
        <time>2019-09-23T13:34:41.001Z</time>
      </trkpt>
      <trkpt lat="48.36219" lon="5.69007">
        <ele>284.297</ele>
        <time>2019-09-23T13:34:44.001Z</time>
      </trkpt>
      <trkpt lat="48.36211" lon="5.69022">
        <ele>283.288</ele>
        <time>2019-09-23T13:34:47.001Z</time>
      </trkpt>
      <trkpt lat="48.36204" lon="5.69035">
        <ele>282.707</ele>
        <time>2019-09-23T13:34:50.001Z</time>
      </trkpt>
      <trkpt lat="48.36196" lon="5.69047">
        <ele>282.298</ele>
        <time>2019-09-23T13:34:53.001Z</time>
      </trkpt>
      <trkpt lat="48.36187" lon="5.69061">
        <ele>281.911</ele>
        <time>2019-09-23T13:34:56.001Z</time>
      </trkpt>
      <trkpt lat="48.36177" lon="5.69071">
        <ele>281.048</ele>
        <time>2019-09-23T13:34:59.001Z</time>
      </trkpt>
      <trkpt lat="48.36165" lon="5.69075">
        <ele>280.649</ele>
        <time>2019-09-23T13:35:02.000Z</time>
      </trkpt>
      <trkpt lat="48.36153" lon="5.69076">
        <ele>280.26</ele>
        <time>2019-09-23T13:35:05.001Z</time>
      </trkpt>
      <trkpt lat="48.36142" lon="5.69079">
        <ele>280.316</ele>
        <time>2019-09-23T13:35:08.001Z</time>
      </trkpt>
      <trkpt lat="48.36131" lon="5.69083">
        <ele>280.188</ele>
        <time>2019-09-23T13:35:11.001Z</time>
      </trkpt>
      <trkpt lat="48.36122" lon="5.69096">
        <ele>281.066</ele>
        <time>2019-09-23T13:35:14.001Z</time>
      </trkpt>
      <trkpt lat="48.36119" lon="5.69117">
        <ele>283.061</ele>
        <time>2019-09-23T13:35:17.001Z</time>
      </trkpt>
      <trkpt lat="48.36117" lon="5.69136">
        <ele>284.286</ele>
        <time>2019-09-23T13:35:20.001Z</time>
      </trkpt>
      <trkpt lat="48.36116" lon="5.69152">
        <ele>283.459</ele>
        <time>2019-09-23T13:35:23.001Z</time>
      </trkpt>
      <trkpt lat="48.36114" lon="5.69168">
        <ele>282.209</ele>
        <time>2019-09-23T13:35:26.001Z</time>
      </trkpt>
      <trkpt lat="48.36113" lon="5.69183">
        <ele>280.502</ele>
        <time>2019-09-23T13:35:29.001Z</time>
      </trkpt>
      <trkpt lat="48.3611" lon="5.69202">
        <ele>279.978</ele>
        <time>2019-09-23T13:35:32.001Z</time>
      </trkpt>
      <trkpt lat="48.36107" lon="5.69217">
        <ele>279.294</ele>
        <time>2019-09-23T13:35:35.001Z</time>
      </trkpt>
      <trkpt lat="48.36105" lon="5.69225">
        <ele>279.162</ele>
        <time>2019-09-23T13:35:38.001Z</time>
      </trkpt>
      <trkpt lat="48.36101" lon="5.69236">
        <ele>279.079</ele>
        <time>2019-09-23T13:35:41.001Z</time>
      </trkpt>
      <trkpt lat="48.36082" lon="5.69255">
        <ele>278.938</ele>
        <time>2019-09-23T13:35:44.001Z</time>
      </trkpt>
      <trkpt lat="48.36076" lon="5.69276">
        <ele>279.044</ele>
        <time>2019-09-23T13:35:47.001Z</time>
      </trkpt>
      <trkpt lat="48.36075" lon="5.69298">
        <ele>279.982</ele>
        <time>2019-09-23T13:35:50.001Z</time>
      </trkpt>
      <trkpt lat="48.36076" lon="5.69314">
        <ele>281.59</ele>
        <time>2019-09-23T13:35:53.001Z</time>
      </trkpt>
      <trkpt lat="48.36074" lon="5.69327">
        <ele>283.491</ele>
        <time>2019-09-23T13:35:56.001Z</time>
      </trkpt>
      <trkpt lat="48.36073" lon="5.69339">
        <ele>284.2</ele>
        <time>2019-09-23T13:35:59.001Z</time>
      </trkpt>
      <trkpt lat="48.36071" lon="5.69349">
        <ele>284.151</ele>
        <time>2019-09-23T13:36:02.000Z</time>
      </trkpt>
      <trkpt lat="48.3607" lon="5.69361">
        <ele>284.815</ele>
        <time>2019-09-23T13:36:05.001Z</time>
      </trkpt>
      <trkpt lat="48.36067" lon="5.69374">
        <ele>285.14</ele>
        <time>2019-09-23T13:36:08.001Z</time>
      </trkpt>
      <trkpt lat="48.36063" lon="5.69386">
        <ele>284.63</ele>
        <time>2019-09-23T13:36:11.001Z</time>
      </trkpt>
      <trkpt lat="48.36059" lon="5.69399">
        <ele>283.097</ele>
        <time>2019-09-23T13:36:14.001Z</time>
      </trkpt>
      <trkpt lat="48.36054" lon="5.69404">
        <ele>280.782</ele>
        <time>2019-09-23T13:36:17.001Z</time>
      </trkpt>
      <trkpt lat="48.36043" lon="5.694">
        <ele>279.678</ele>
        <time>2019-09-23T13:36:23.001Z</time>
      </trkpt>
      <trkpt lat="48.36029" lon="5.6939">
        <ele>279.699</ele>
        <time>2019-09-23T13:36:26.001Z</time>
      </trkpt>
      <trkpt lat="48.36016" lon="5.69378">
        <ele>279.556</ele>
        <time>2019-09-23T13:36:29.001Z</time>
      </trkpt>
      <trkpt lat="48.36004" lon="5.6937">
        <ele>279.833</ele>
        <time>2019-09-23T13:36:32.001Z</time>
      </trkpt>
      <trkpt lat="48.35994" lon="5.69358">
        <ele>280.161</ele>
        <time>2019-09-23T13:36:35.001Z</time>
      </trkpt>
      <trkpt lat="48.35984" lon="5.69349">
        <ele>280.477</ele>
        <time>2019-09-23T13:36:38.001Z</time>
      </trkpt>
      <trkpt lat="48.35975" lon="5.6934">
        <ele>280.083</ele>
        <time>2019-09-23T13:36:41.001Z</time>
      </trkpt>
      <trkpt lat="48.35966" lon="5.6933">
        <ele>279.834</ele>
        <time>2019-09-23T13:36:44.001Z</time>
      </trkpt>
      <trkpt lat="48.35957" lon="5.69321">
        <ele>280.248</ele>
        <time>2019-09-23T13:36:47.001Z</time>
      </trkpt>
      <trkpt lat="48.3595" lon="5.69311">
        <ele>280.858</ele>
        <time>2019-09-23T13:36:50.001Z</time>
      </trkpt>
      <trkpt lat="48.35942" lon="5.69302">
        <ele>281.181</ele>
        <time>2019-09-23T13:36:53.001Z</time>
      </trkpt>
      <trkpt lat="48.35934" lon="5.69293">
        <ele>280.971</ele>
        <time>2019-09-23T13:36:56.001Z</time>
      </trkpt>
      <trkpt lat="48.35925" lon="5.69285">
        <ele>280.539</ele>
        <time>2019-09-23T13:36:59.001Z</time>
      </trkpt>
      <trkpt lat="48.35917" lon="5.69278">
        <ele>280.96</ele>
        <time>2019-09-23T13:37:02.000Z</time>
      </trkpt>
      <trkpt lat="48.35919" lon="5.69265">
        <ele>280.04</ele>
        <time>2019-09-23T13:37:05.001Z</time>
      </trkpt>
      <trkpt lat="48.35927" lon="5.69253">
        <ele>279.565</ele>
        <time>2019-09-23T13:37:08.001Z</time>
      </trkpt>
      <trkpt lat="48.35934" lon="5.69241">
        <ele>279.245</ele>
        <time>2019-09-23T13:37:11.001Z</time>
      </trkpt>
      <trkpt lat="48.35941" lon="5.69227">
        <ele>279.18</ele>
        <time>2019-09-23T13:37:14.001Z</time>
      </trkpt>
      <trkpt lat="48.35945" lon="5.69208">
        <ele>279.601</ele>
        <time>2019-09-23T13:37:17.001Z</time>
      </trkpt>
      <trkpt lat="48.3594" lon="5.69189">
        <ele>280.521</ele>
        <time>2019-09-23T13:37:20.001Z</time>
      </trkpt>
      <trkpt lat="48.35927" lon="5.69174">
        <ele>280.863</ele>
        <time>2019-09-23T13:37:23.001Z</time>
      </trkpt>
      <trkpt lat="48.35914" lon="5.69163">
        <ele>280.938</ele>
        <time>2019-09-23T13:37:26.001Z</time>
      </trkpt>
      <trkpt lat="48.359" lon="5.69155">
        <ele>281.3</ele>
        <time>2019-09-23T13:37:29.001Z</time>
      </trkpt>
      <trkpt lat="48.35887" lon="5.69148">
        <ele>282.402</ele>
        <time>2019-09-23T13:37:32.001Z</time>
      </trkpt>
      <trkpt lat="48.35873" lon="5.69142">
        <ele>282.933</ele>
        <time>2019-09-23T13:37:35.001Z</time>
      </trkpt>
      <trkpt lat="48.3586" lon="5.69136">
        <ele>282.607</ele>
        <time>2019-09-23T13:37:38.001Z</time>
      </trkpt>
      <trkpt lat="48.35848" lon="5.69126">
        <ele>282.77</ele>
        <time>2019-09-23T13:37:41.001Z</time>
      </trkpt>
      <trkpt lat="48.35837" lon="5.69117">
        <ele>282.736</ele>
        <time>2019-09-23T13:37:44.001Z</time>
      </trkpt>
      <trkpt lat="48.35826" lon="5.69109">
        <ele>282.672</ele>
        <time>2019-09-23T13:37:47.001Z</time>
      </trkpt>
      <trkpt lat="48.35814" lon="5.69101">
        <ele>282.52</ele>
        <time>2019-09-23T13:37:50.001Z</time>
      </trkpt>
      <trkpt lat="48.35802" lon="5.69096">
        <ele>282.996</ele>
        <time>2019-09-23T13:37:53.001Z</time>
      </trkpt>
      <trkpt lat="48.3579" lon="5.69105">
        <ele>282.038</ele>
        <time>2019-09-23T13:37:56.001Z</time>
      </trkpt>
      <trkpt lat="48.3578" lon="5.69121">
        <ele>281.838</ele>
        <time>2019-09-23T13:37:59.001Z</time>
      </trkpt>
      <trkpt lat="48.35768" lon="5.69136">
        <ele>281.779</ele>
        <time>2019-09-23T13:38:02.000Z</time>
      </trkpt>
      <trkpt lat="48.35756" lon="5.69153">
        <ele>281.332</ele>
        <time>2019-09-23T13:38:05.001Z</time>
      </trkpt>
      <trkpt lat="48.35746" lon="5.6917">
        <ele>281.388</ele>
        <time>2019-09-23T13:38:08.001Z</time>
      </trkpt>
      <trkpt lat="48.35739" lon="5.6918">
        <ele>281.73</ele>
        <time>2019-09-23T13:38:11.001Z</time>
      </trkpt>
      <trkpt lat="48.35734" lon="5.69188">
        <ele>283.672</ele>
        <time>2019-09-23T13:38:14.001Z</time>
      </trkpt>
      <trkpt lat="48.3573" lon="5.69195">
        <ele>283.843</ele>
        <time>2019-09-23T13:38:17.001Z</time>
      </trkpt>
      <trkpt lat="48.35728" lon="5.69199">
        <ele>284.403</ele>
        <time>2019-09-23T13:38:20.001Z</time>
      </trkpt>
      <trkpt lat="48.35728" lon="5.69199">
        <ele>284.403</ele>
        <time>2019-09-23T13:38:23.001Z</time>
      </trkpt>
      <trkpt lat="48.35728" lon="5.69199">
        <ele>284.403</ele>
        <time>2019-09-23T13:38:41.001Z</time>
      </trkpt>
      <trkpt lat="48.35726" lon="5.69204">
        <ele>283.768</ele>
        <time>2019-09-23T13:38:44.001Z</time>
      </trkpt>
      <trkpt lat="48.35721" lon="5.69213">
        <ele>283.345</ele>
        <time>2019-09-23T13:38:47.001Z</time>
      </trkpt>
      <trkpt lat="48.35712" lon="5.69222">
        <ele>283.55</ele>
        <time>2019-09-23T13:38:50.001Z</time>
      </trkpt>
      <trkpt lat="48.35702" lon="5.69218">
        <ele>284.832</ele>
        <time>2019-09-23T13:38:53.001Z</time>
      </trkpt>
      <trkpt lat="48.35689" lon="5.69217">
        <ele>284.338</ele>
        <time>2019-09-23T13:38:56.001Z</time>
      </trkpt>
      <trkpt lat="48.35681" lon="5.69228">
        <ele>284.7</ele>
        <time>2019-09-23T13:38:59.001Z</time>
      </trkpt>
      <trkpt lat="48.35684" lon="5.69249">
        <ele>284.944</ele>
        <time>2019-09-23T13:39:02.000Z</time>
      </trkpt>
      <trkpt lat="48.35689" lon="5.6927">
        <ele>285.19</ele>
        <time>2019-09-23T13:39:05.001Z</time>
      </trkpt>
      <trkpt lat="48.3569" lon="5.69288">
        <ele>285.424</ele>
        <time>2019-09-23T13:39:08.001Z</time>
      </trkpt>
      <trkpt lat="48.35692" lon="5.69305">
        <ele>286.084</ele>
        <time>2019-09-23T13:39:11.001Z</time>
      </trkpt>
      <trkpt lat="48.35689" lon="5.69318">
        <ele>287</ele>
        <time>2019-09-23T13:39:14.001Z</time>
      </trkpt>
      <trkpt lat="48.35678" lon="5.69327">
        <ele>287.171</ele>
        <time>2019-09-23T13:39:17.001Z</time>
      </trkpt>
      <trkpt lat="48.35667" lon="5.69336">
        <ele>286.548</ele>
        <time>2019-09-23T13:39:20.001Z</time>
      </trkpt>
      <trkpt lat="48.35655" lon="5.69345">
        <ele>285.692</ele>
        <time>2019-09-23T13:39:23.001Z</time>
      </trkpt>
      <trkpt lat="48.35645" lon="5.69354">
        <ele>285.354</ele>
        <time>2019-09-23T13:39:26.001Z</time>
      </trkpt>
      <trkpt lat="48.35634" lon="5.69362">
        <ele>285.274</ele>
        <time>2019-09-23T13:39:29.001Z</time>
      </trkpt>
      <trkpt lat="48.35625" lon="5.6937">
        <ele>284.951</ele>
        <time>2019-09-23T13:39:32.001Z</time>
      </trkpt>
      <trkpt lat="48.35615" lon="5.69378">
        <ele>284.827</ele>
        <time>2019-09-23T13:39:35.001Z</time>
      </trkpt>
      <trkpt lat="48.35605" lon="5.69386">
        <ele>284.894</ele>
        <time>2019-09-23T13:39:38.001Z</time>
      </trkpt>
      <trkpt lat="48.35594" lon="5.69388">
        <ele>285.415</ele>
        <time>2019-09-23T13:39:41.001Z</time>
      </trkpt>
      <trkpt lat="48.35586" lon="5.69393">
        <ele>284.956</ele>
        <time>2019-09-23T13:39:44.001Z</time>
      </trkpt>
      <trkpt lat="48.35579" lon="5.69398">
        <ele>284.424</ele>
        <time>2019-09-23T13:39:47.001Z</time>
      </trkpt>
      <trkpt lat="48.3557" lon="5.69402">
        <ele>285.888</ele>
        <time>2019-09-23T13:39:50.001Z</time>
      </trkpt>
      <trkpt lat="48.3556" lon="5.69409">
        <ele>286.329</ele>
        <time>2019-09-23T13:39:53.001Z</time>
      </trkpt>
      <trkpt lat="48.3555" lon="5.69413">
        <ele>287.255</ele>
        <time>2019-09-23T13:39:56.001Z</time>
      </trkpt>
      <trkpt lat="48.3554" lon="5.69414">
        <ele>288.06</ele>
        <time>2019-09-23T13:39:59.001Z</time>
      </trkpt>
      <trkpt lat="48.3553" lon="5.69413">
        <ele>289.023</ele>
        <time>2019-09-23T13:40:02.000Z</time>
      </trkpt>
      <trkpt lat="48.35517" lon="5.69413">
        <ele>289.795</ele>
        <time>2019-09-23T13:40:05.001Z</time>
      </trkpt>
      <trkpt lat="48.35506" lon="5.69415">
        <ele>290.787</ele>
        <time>2019-09-23T13:40:08.001Z</time>
      </trkpt>
      <trkpt lat="48.35495" lon="5.69418">
        <ele>291.529</ele>
        <time>2019-09-23T13:40:11.001Z</time>
      </trkpt>
      <trkpt lat="48.35485" lon="5.69418">
        <ele>291.782</ele>
        <time>2019-09-23T13:40:14.001Z</time>
      </trkpt>
      <trkpt lat="48.35479" lon="5.69416">
        <ele>291.566</ele>
        <time>2019-09-23T13:40:17.001Z</time>
      </trkpt>
      <trkpt lat="48.35479" lon="5.69429">
        <ele>292.207</ele>
        <time>2019-09-23T13:40:23.001Z</time>
      </trkpt>
      <trkpt lat="48.35482" lon="5.69443">
        <ele>292.252</ele>
        <time>2019-09-23T13:40:26.001Z</time>
      </trkpt>
      <trkpt lat="48.35483" lon="5.69454">
        <ele>292.565</ele>
        <time>2019-09-23T13:40:29.001Z</time>
      </trkpt>
      <trkpt lat="48.35483" lon="5.69466">
        <ele>292.883</ele>
        <time>2019-09-23T13:40:32.001Z</time>
      </trkpt>
      <trkpt lat="48.35483" lon="5.69477">
        <ele>293.063</ele>
        <time>2019-09-23T13:40:35.001Z</time>
      </trkpt>
      <trkpt lat="48.35486" lon="5.69489">
        <ele>293.622</ele>
        <time>2019-09-23T13:40:38.001Z</time>
      </trkpt>
      <trkpt lat="48.35487" lon="5.695">
        <ele>295.419</ele>
        <time>2019-09-23T13:40:41.001Z</time>
      </trkpt>
      <trkpt lat="48.3549" lon="5.69507">
        <ele>296.693</ele>
        <time>2019-09-23T13:40:44.001Z</time>
      </trkpt>
      <trkpt lat="48.35493" lon="5.6952">
        <ele>297.294</ele>
        <time>2019-09-23T13:40:47.001Z</time>
      </trkpt>
      <trkpt lat="48.35494" lon="5.6953">
        <ele>296.982</ele>
        <time>2019-09-23T13:40:50.001Z</time>
      </trkpt>
      <trkpt lat="48.35495" lon="5.6954">
        <ele>296.845</ele>
        <time>2019-09-23T13:40:53.001Z</time>
      </trkpt>
      <trkpt lat="48.35495" lon="5.69552">
        <ele>296.363</ele>
        <time>2019-09-23T13:40:56.001Z</time>
      </trkpt>
      <trkpt lat="48.35495" lon="5.69561">
        <ele>296.341</ele>
        <time>2019-09-23T13:40:59.001Z</time>
      </trkpt>
      <trkpt lat="48.35498" lon="5.69572">
        <ele>297.973</ele>
        <time>2019-09-23T13:41:02.000Z</time>
      </trkpt>
      <trkpt lat="48.35499" lon="5.69584">
        <ele>298.606</ele>
        <time>2019-09-23T13:41:05.001Z</time>
      </trkpt>
      <trkpt lat="48.35505" lon="5.69595">
        <ele>298.877</ele>
        <time>2019-09-23T13:41:08.001Z</time>
      </trkpt>
      <trkpt lat="48.35508" lon="5.69606">
        <ele>299.106</ele>
        <time>2019-09-23T13:41:11.001Z</time>
      </trkpt>
      <trkpt lat="48.35507" lon="5.69618">
        <ele>300.338</ele>
        <time>2019-09-23T13:41:14.001Z</time>
      </trkpt>
      <trkpt lat="48.35504" lon="5.69629">
        <ele>301.725</ele>
        <time>2019-09-23T13:41:17.001Z</time>
      </trkpt>
      <trkpt lat="48.35508" lon="5.69638">
        <ele>303.528</ele>
        <time>2019-09-23T13:41:20.001Z</time>
      </trkpt>
      <trkpt lat="48.35502" lon="5.69645">
        <ele>305.726</ele>
        <time>2019-09-23T13:41:23.001Z</time>
      </trkpt>
      <trkpt lat="48.3549" lon="5.69646">
        <ele>308.615</ele>
        <time>2019-09-23T13:41:26.001Z</time>
      </trkpt>
      <trkpt lat="48.35481" lon="5.69646">
        <ele>310.769</ele>
        <time>2019-09-23T13:41:29.001Z</time>
      </trkpt>
      <trkpt lat="48.35475" lon="5.69646">
        <ele>310.203</ele>
        <time>2019-09-23T13:41:32.001Z</time>
      </trkpt>
      <trkpt lat="48.35468" lon="5.69647">
        <ele>309.912</ele>
        <time>2019-09-23T13:41:35.001Z</time>
      </trkpt>
      <trkpt lat="48.3546" lon="5.69648">
        <ele>310.33</ele>
        <time>2019-09-23T13:41:38.001Z</time>
      </trkpt>
      <trkpt lat="48.35453" lon="5.69646">
        <ele>309.898</ele>
        <time>2019-09-23T13:41:41.001Z</time>
      </trkpt>
      <trkpt lat="48.35444" lon="5.69644">
        <ele>309.322</ele>
        <time>2019-09-23T13:41:44.001Z</time>
      </trkpt>
      <trkpt lat="48.35437" lon="5.69642">
        <ele>309.376</ele>
        <time>2019-09-23T13:41:47.001Z</time>
      </trkpt>
      <trkpt lat="48.35429" lon="5.6964">
        <ele>309.263</ele>
        <time>2019-09-23T13:41:50.001Z</time>
      </trkpt>
      <trkpt lat="48.35422" lon="5.69639">
        <ele>309.06</ele>
        <time>2019-09-23T13:41:53.001Z</time>
      </trkpt>
      <trkpt lat="48.35417" lon="5.69634">
        <ele>308.972</ele>
        <time>2019-09-23T13:41:56.001Z</time>
      </trkpt>
      <trkpt lat="48.35417" lon="5.69619">
        <ele>308.157</ele>
        <time>2019-09-23T13:41:59.001Z</time>
      </trkpt>
      <trkpt lat="48.35419" lon="5.69601">
        <ele>307.476</ele>
        <time>2019-09-23T13:42:02.000Z</time>
      </trkpt>
      <trkpt lat="48.3542" lon="5.69581">
        <ele>306.168</ele>
        <time>2019-09-23T13:42:05.001Z</time>
      </trkpt>
      <trkpt lat="48.35418" lon="5.69562">
        <ele>304.401</ele>
        <time>2019-09-23T13:42:08.001Z</time>
      </trkpt>
      <trkpt lat="48.35417" lon="5.69543">
        <ele>303.929</ele>
        <time>2019-09-23T13:42:11.001Z</time>
      </trkpt>
      <trkpt lat="48.35416" lon="5.69524">
        <ele>304.008</ele>
        <time>2019-09-23T13:42:14.001Z</time>
      </trkpt>
      <trkpt lat="48.35415" lon="5.69504">
        <ele>303.704</ele>
        <time>2019-09-23T13:42:17.001Z</time>
      </trkpt>
      <trkpt lat="48.35416" lon="5.69479">
        <ele>305.056</ele>
        <time>2019-09-23T13:42:20.001Z</time>
      </trkpt>
      <trkpt lat="48.35421" lon="5.69458">
        <ele>304.772</ele>
        <time>2019-09-23T13:42:23.001Z</time>
      </trkpt>
      <trkpt lat="48.35423" lon="5.69438">
        <ele>304.766</ele>
        <time>2019-09-23T13:42:26.001Z</time>
      </trkpt>
      <trkpt lat="48.35422" lon="5.69417">
        <ele>305.039</ele>
        <time>2019-09-23T13:42:29.001Z</time>
      </trkpt>
      <trkpt lat="48.35422" lon="5.69401">
        <ele>305.112</ele>
        <time>2019-09-23T13:42:32.001Z</time>
      </trkpt>
      <trkpt lat="48.35421" lon="5.69387">
        <ele>304.914</ele>
        <time>2019-09-23T13:42:35.001Z</time>
      </trkpt>
      <trkpt lat="48.35427" lon="5.69378">
        <ele>303.994</ele>
        <time>2019-09-23T13:42:38.001Z</time>
      </trkpt>
      <trkpt lat="48.35433" lon="5.69371">
        <ele>302.064</ele>
        <time>2019-09-23T13:42:41.001Z</time>
      </trkpt>
      <trkpt lat="48.35439" lon="5.69362">
        <ele>299.161</ele>
        <time>2019-09-23T13:42:44.001Z</time>
      </trkpt>
      <trkpt lat="48.3544" lon="5.69347">
        <ele>298.699</ele>
        <time>2019-09-23T13:42:47.001Z</time>
      </trkpt>
      <trkpt lat="48.35429" lon="5.69338">
        <ele>297.94</ele>
        <time>2019-09-23T13:42:50.001Z</time>
      </trkpt>
      <trkpt lat="48.35417" lon="5.6934">
        <ele>297.903</ele>
        <time>2019-09-23T13:42:53.001Z</time>
      </trkpt>
      <trkpt lat="48.35403" lon="5.69344">
        <ele>294.726</ele>
        <time>2019-09-23T13:42:56.001Z</time>
      </trkpt>
      <trkpt lat="48.35391" lon="5.69355">
        <ele>291.019</ele>
        <time>2019-09-23T13:42:59.001Z</time>
      </trkpt>
      <trkpt lat="48.35382" lon="5.6938">
        <ele>291.554</ele>
        <time>2019-09-23T13:43:02.000Z</time>
      </trkpt>
      <trkpt lat="48.35377" lon="5.69405">
        <ele>291.286</ele>
        <time>2019-09-23T13:43:05.001Z</time>
      </trkpt>
      <trkpt lat="48.3537" lon="5.69429">
        <ele>290.429</ele>
        <time>2019-09-23T13:43:08.001Z</time>
      </trkpt>
      <trkpt lat="48.35361" lon="5.69451">
        <ele>289.469</ele>
        <time>2019-09-23T13:43:11.001Z</time>
      </trkpt>
      <trkpt lat="48.3535" lon="5.69472">
        <ele>289.025</ele>
        <time>2019-09-23T13:43:14.001Z</time>
      </trkpt>
      <trkpt lat="48.35341" lon="5.69494">
        <ele>288.923</ele>
        <time>2019-09-23T13:43:17.001Z</time>
      </trkpt>
      <trkpt lat="48.35329" lon="5.69514">
        <ele>288.864</ele>
        <time>2019-09-23T13:43:20.001Z</time>
      </trkpt>
      <trkpt lat="48.35318" lon="5.69533">
        <ele>288.7</ele>
        <time>2019-09-23T13:43:23.001Z</time>
      </trkpt>
      <trkpt lat="48.35308" lon="5.69552">
        <ele>288.48</ele>
        <time>2019-09-23T13:43:26.001Z</time>
      </trkpt>
      <trkpt lat="48.35299" lon="5.69569">
        <ele>288.468</ele>
        <time>2019-09-23T13:43:29.001Z</time>
      </trkpt>
      <trkpt lat="48.3529" lon="5.69583">
        <ele>288.367</ele>
        <time>2019-09-23T13:43:32.001Z</time>
      </trkpt>
      <trkpt lat="48.35281" lon="5.69596">
        <ele>287.961</ele>
        <time>2019-09-23T13:43:35.001Z</time>
      </trkpt>
      <trkpt lat="48.35272" lon="5.6961">
        <ele>287.488</ele>
        <time>2019-09-23T13:43:38.001Z</time>
      </trkpt>
      <trkpt lat="48.35264" lon="5.69626">
        <ele>286.859</ele>
        <time>2019-09-23T13:43:41.001Z</time>
      </trkpt>
      <trkpt lat="48.35258" lon="5.69642">
        <ele>286.416</ele>
        <time>2019-09-23T13:43:44.001Z</time>
      </trkpt>
      <trkpt lat="48.35253" lon="5.69657">
        <ele>286.202</ele>
        <time>2019-09-23T13:43:47.001Z</time>
      </trkpt>
      <trkpt lat="48.35246" lon="5.69671">
        <ele>285.983</ele>
        <time>2019-09-23T13:43:50.001Z</time>
      </trkpt>
      <trkpt lat="48.35238" lon="5.69687">
        <ele>285.833</ele>
        <time>2019-09-23T13:43:53.001Z</time>
      </trkpt>
      <trkpt lat="48.3523" lon="5.69706">
        <ele>285.566</ele>
        <time>2019-09-23T13:43:56.001Z</time>
      </trkpt>
      <trkpt lat="48.35223" lon="5.69719">
        <ele>287.254</ele>
        <time>2019-09-23T13:43:59.001Z</time>
      </trkpt>
      <trkpt lat="48.35218" lon="5.69726">
        <ele>289.193</ele>
        <time>2019-09-23T13:44:02.000Z</time>
      </trkpt>
      <trkpt lat="48.3521" lon="5.69726">
        <ele>290.361</ele>
        <time>2019-09-23T13:44:05.001Z</time>
      </trkpt>
      <trkpt lat="48.35201" lon="5.69715">
        <ele>290.977</ele>
        <time>2019-09-23T13:44:08.001Z</time>
      </trkpt>
      <trkpt lat="48.35193" lon="5.69696">
        <ele>290.066</ele>
        <time>2019-09-23T13:44:11.001Z</time>
      </trkpt>
      <trkpt lat="48.35185" lon="5.69678">
        <ele>286.82</ele>
        <time>2019-09-23T13:44:14.001Z</time>
      </trkpt>
      <trkpt lat="48.35177" lon="5.69658">
        <ele>284.712</ele>
        <time>2019-09-23T13:44:17.001Z</time>
      </trkpt>
      <trkpt lat="48.35167" lon="5.69644">
        <ele>284.333</ele>
        <time>2019-09-23T13:44:20.001Z</time>
      </trkpt>
      <trkpt lat="48.35158" lon="5.69637">
        <ele>285.12</ele>
        <time>2019-09-23T13:44:23.001Z</time>
      </trkpt>
      <trkpt lat="48.3515" lon="5.69633">
        <ele>285.619</ele>
        <time>2019-09-23T13:44:26.001Z</time>
      </trkpt>
      <trkpt lat="48.3514" lon="5.69627">
        <ele>284.958</ele>
        <time>2019-09-23T13:44:29.001Z</time>
      </trkpt>
      <trkpt lat="48.35129" lon="5.69622">
        <ele>282.84</ele>
        <time>2019-09-23T13:44:32.001Z</time>
      </trkpt>
      <trkpt lat="48.35118" lon="5.69619">
        <ele>280.984</ele>
        <time>2019-09-23T13:44:35.001Z</time>
      </trkpt>
      <trkpt lat="48.3511" lon="5.69617">
        <ele>281.869</ele>
        <time>2019-09-23T13:44:38.001Z</time>
      </trkpt>
      <trkpt lat="48.35103" lon="5.69613">
        <ele>281.568</ele>
        <time>2019-09-23T13:44:41.001Z</time>
      </trkpt>
      <trkpt lat="48.351" lon="5.69603">
        <ele>280.998</ele>
        <time>2019-09-23T13:44:44.001Z</time>
      </trkpt>
      <trkpt lat="48.35096" lon="5.69589">
        <ele>280.629</ele>
        <time>2019-09-23T13:44:47.001Z</time>
      </trkpt>
      <trkpt lat="48.35088" lon="5.69578">
        <ele>279.803</ele>
        <time>2019-09-23T13:44:50.001Z</time>
      </trkpt>
      <trkpt lat="48.3508" lon="5.69567">
        <ele>280.244</ele>
        <time>2019-09-23T13:44:53.001Z</time>
      </trkpt>
      <trkpt lat="48.35071" lon="5.69555">
        <ele>280.581</ele>
        <time>2019-09-23T13:44:56.001Z</time>
      </trkpt>
      <trkpt lat="48.35063" lon="5.69538">
        <ele>280.377</ele>
        <time>2019-09-23T13:44:59.001Z</time>
      </trkpt>
      <trkpt lat="48.35057" lon="5.69521">
        <ele>279.971</ele>
        <time>2019-09-23T13:45:02.000Z</time>
      </trkpt>
      <trkpt lat="48.35051" lon="5.69505">
        <ele>279.739</ele>
        <time>2019-09-23T13:45:05.001Z</time>
      </trkpt>
      <trkpt lat="48.3504" lon="5.69489">
        <ele>279.839</ele>
        <time>2019-09-23T13:45:08.001Z</time>
      </trkpt>
      <trkpt lat="48.3503" lon="5.69476">
        <ele>280.288</ele>
        <time>2019-09-23T13:45:11.001Z</time>
      </trkpt>
      <trkpt lat="48.3502" lon="5.69467">
        <ele>280.635</ele>
        <time>2019-09-23T13:45:14.001Z</time>
      </trkpt>
      <trkpt lat="48.35015" lon="5.69459">
        <ele>280.95</ele>
        <time>2019-09-23T13:45:17.001Z</time>
      </trkpt>
      <trkpt lat="48.35009" lon="5.69455">
        <ele>281.246</ele>
        <time>2019-09-23T13:45:20.001Z</time>
      </trkpt>
      <trkpt lat="48.35006" lon="5.6945">
        <ele>282.42</ele>
        <time>2019-09-23T13:45:23.001Z</time>
      </trkpt>
      <trkpt lat="48.35003" lon="5.69444">
        <ele>283.939</ele>
        <time>2019-09-23T13:45:26.001Z</time>
      </trkpt>
      <trkpt lat="48.35" lon="5.69438">
        <ele>284.719</ele>
        <time>2019-09-23T13:45:29.001Z</time>
      </trkpt>
      <trkpt lat="48.34996" lon="5.69434">
        <ele>285.363</ele>
        <time>2019-09-23T13:45:32.001Z</time>
      </trkpt>
      <trkpt lat="48.34992" lon="5.69431">
        <ele>285.73</ele>
        <time>2019-09-23T13:45:35.001Z</time>
      </trkpt>
      <trkpt lat="48.34983" lon="5.69424">
        <ele>285.816</ele>
        <time>2019-09-23T13:45:41.001Z</time>
      </trkpt>
      <trkpt lat="48.34979" lon="5.6943">
        <ele>284.904</ele>
        <time>2019-09-23T13:45:44.001Z</time>
      </trkpt>
      <trkpt lat="48.34975" lon="5.69438">
        <ele>283.9</ele>
        <time>2019-09-23T13:45:47.001Z</time>
      </trkpt>
      <trkpt lat="48.34972" lon="5.69444">
        <ele>283.966</ele>
        <time>2019-09-23T13:45:50.001Z</time>
      </trkpt>
      <trkpt lat="48.34963" lon="5.69455">
        <ele>285.263</ele>
        <time>2019-09-23T13:45:56.001Z</time>
      </trkpt>
      <trkpt lat="48.34957" lon="5.69463">
        <ele>286.284</ele>
        <time>2019-09-23T13:45:59.001Z</time>
      </trkpt>
      <trkpt lat="48.34951" lon="5.69471">
        <ele>287.015</ele>
        <time>2019-09-23T13:46:02.000Z</time>
      </trkpt>
      <trkpt lat="48.34947" lon="5.69478">
        <ele>287.237</ele>
        <time>2019-09-23T13:46:05.001Z</time>
      </trkpt>
      <trkpt lat="48.34942" lon="5.69487">
        <ele>287.592</ele>
        <time>2019-09-23T13:46:08.001Z</time>
      </trkpt>
      <trkpt lat="48.34936" lon="5.69494">
        <ele>288.185</ele>
        <time>2019-09-23T13:46:11.001Z</time>
      </trkpt>
      <trkpt lat="48.3493" lon="5.69503">
        <ele>288.803</ele>
        <time>2019-09-23T13:46:14.001Z</time>
      </trkpt>
      <trkpt lat="48.34925" lon="5.69511">
        <ele>289.346</ele>
        <time>2019-09-23T13:46:17.001Z</time>
      </trkpt>
      <trkpt lat="48.34919" lon="5.6952">
        <ele>290.101</ele>
        <time>2019-09-23T13:46:20.001Z</time>
      </trkpt>
      <trkpt lat="48.34912" lon="5.69528">
        <ele>291.471</ele>
        <time>2019-09-23T13:46:23.001Z</time>
      </trkpt>
      <trkpt lat="48.34906" lon="5.69535">
        <ele>293.175</ele>
        <time>2019-09-23T13:46:26.001Z</time>
      </trkpt>
      <trkpt lat="48.349" lon="5.69542">
        <ele>293.69</ele>
        <time>2019-09-23T13:46:29.001Z</time>
      </trkpt>
      <trkpt lat="48.34895" lon="5.69548">
        <ele>293.994</ele>
        <time>2019-09-23T13:46:32.001Z</time>
      </trkpt>
      <trkpt lat="48.34891" lon="5.69553">
        <ele>294.206</ele>
        <time>2019-09-23T13:46:35.001Z</time>
      </trkpt>
      <trkpt lat="48.34891" lon="5.69555">
        <ele>293.376</ele>
        <time>2019-09-23T13:46:38.001Z</time>
      </trkpt>
      <trkpt lat="48.34891" lon="5.69555">
        <ele>293.376</ele>
        <time>2019-09-23T13:48:14.001Z</time>
      </trkpt>
      <trkpt lat="48.34891" lon="5.69555">
        <ele>293.406</ele>
        <time>2019-09-23T13:48:17.001Z</time>
      </trkpt>
      <trkpt lat="48.34892" lon="5.69558">
        <ele>293.372</ele>
        <time>2019-09-23T13:48:20.001Z</time>
      </trkpt>
      <trkpt lat="48.34894" lon="5.69559">
        <ele>293.621</ele>
        <time>2019-09-23T13:48:23.001Z</time>
      </trkpt>
      <trkpt lat="48.34897" lon="5.69558">
        <ele>293.729</ele>
        <time>2019-09-23T13:48:26.001Z</time>
      </trkpt>
      <trkpt lat="48.34898" lon="5.69557">
        <ele>293.889</ele>
        <time>2019-09-23T13:48:29.001Z</time>
      </trkpt>
      <trkpt lat="48.34899" lon="5.69554">
        <ele>293.125</ele>
        <time>2019-09-23T13:50:47.001Z</time>
      </trkpt>
      <trkpt lat="48.34904" lon="5.69548">
        <ele>292.995</ele>
        <time>2019-09-23T13:50:50.001Z</time>
      </trkpt>
      <trkpt lat="48.34911" lon="5.69539">
        <ele>292.728</ele>
        <time>2019-09-23T13:50:53.001Z</time>
      </trkpt>
      <trkpt lat="48.3492" lon="5.69528">
        <ele>292.505</ele>
        <time>2019-09-23T13:50:56.001Z</time>
      </trkpt>
      <trkpt lat="48.34928" lon="5.69517">
        <ele>292.323</ele>
        <time>2019-09-23T13:50:59.001Z</time>
      </trkpt>
      <trkpt lat="48.34938" lon="5.69504">
        <ele>292.089</ele>
        <time>2019-09-23T13:51:02.000Z</time>
      </trkpt>
      <trkpt lat="48.34947" lon="5.69488">
        <ele>291.934</ele>
        <time>2019-09-23T13:51:05.001Z</time>
      </trkpt>
      <trkpt lat="48.34957" lon="5.69471">
        <ele>291.837</ele>
        <time>2019-09-23T13:51:08.001Z</time>
      </trkpt>
      <trkpt lat="48.34967" lon="5.69452">
        <ele>292.045</ele>
        <time>2019-09-23T13:51:11.001Z</time>
      </trkpt>
      <trkpt lat="48.34977" lon="5.69436">
        <ele>291.761</ele>
        <time>2019-09-23T13:51:14.001Z</time>
      </trkpt>
      <trkpt lat="48.34985" lon="5.69426">
        <ele>290.804</ele>
        <time>2019-09-23T13:51:17.001Z</time>
      </trkpt>
      <trkpt lat="48.34995" lon="5.69429">
        <ele>289.443</ele>
        <time>2019-09-23T13:51:20.001Z</time>
      </trkpt>
      <trkpt lat="48.3501" lon="5.69444">
        <ele>287.911</ele>
        <time>2019-09-23T13:51:23.001Z</time>
      </trkpt>
      <trkpt lat="48.35027" lon="5.69464">
        <ele>286.878</ele>
        <time>2019-09-23T13:51:26.001Z</time>
      </trkpt>
      <trkpt lat="48.35044" lon="5.69487">
        <ele>285.925</ele>
        <time>2019-09-23T13:51:29.001Z</time>
      </trkpt>
      <trkpt lat="48.35059" lon="5.69517">
        <ele>285.669</ele>
        <time>2019-09-23T13:51:32.001Z</time>
      </trkpt>
      <trkpt lat="48.35068" lon="5.6954">
        <ele>284.976</ele>
        <time>2019-09-23T13:51:35.001Z</time>
      </trkpt>
      <trkpt lat="48.35076" lon="5.69561">
        <ele>284.364</ele>
        <time>2019-09-23T13:51:38.001Z</time>
      </trkpt>
      <trkpt lat="48.35087" lon="5.69574">
        <ele>284.128</ele>
        <time>2019-09-23T13:51:41.001Z</time>
      </trkpt>
      <trkpt lat="48.35096" lon="5.69587">
        <ele>283.269</ele>
        <time>2019-09-23T13:51:44.001Z</time>
      </trkpt>
      <trkpt lat="48.35104" lon="5.69603">
        <ele>282.836</ele>
        <time>2019-09-23T13:51:47.001Z</time>
      </trkpt>
      <trkpt lat="48.35109" lon="5.69618">
        <ele>282.161</ele>
        <time>2019-09-23T13:51:50.001Z</time>
      </trkpt>
      <trkpt lat="48.3512" lon="5.69625">
        <ele>281.744</ele>
        <time>2019-09-23T13:51:53.001Z</time>
      </trkpt>
      <trkpt lat="48.35133" lon="5.69626">
        <ele>281.632</ele>
        <time>2019-09-23T13:51:56.001Z</time>
      </trkpt>
      <trkpt lat="48.35142" lon="5.69629">
        <ele>280.937</ele>
        <time>2019-09-23T13:51:59.001Z</time>
      </trkpt>
      <trkpt lat="48.35152" lon="5.69634">
        <ele>279.972</ele>
        <time>2019-09-23T13:52:02.000Z</time>
      </trkpt>
      <trkpt lat="48.35162" lon="5.69638">
        <ele>279.015</ele>
        <time>2019-09-23T13:52:05.001Z</time>
      </trkpt>
      <trkpt lat="48.35175" lon="5.69647">
        <ele>278.627</ele>
        <time>2019-09-23T13:52:08.001Z</time>
      </trkpt>
      <trkpt lat="48.35186" lon="5.69668">
        <ele>278.939</ele>
        <time>2019-09-23T13:52:11.001Z</time>
      </trkpt>
      <trkpt lat="48.35194" lon="5.69686">
        <ele>278.856</ele>
        <time>2019-09-23T13:52:14.001Z</time>
      </trkpt>
      <trkpt lat="48.35201" lon="5.69701">
        <ele>278.131</ele>
        <time>2019-09-23T13:52:17.001Z</time>
      </trkpt>
      <trkpt lat="48.35208" lon="5.69715">
        <ele>278.16</ele>
        <time>2019-09-23T13:52:20.001Z</time>
      </trkpt>
      <trkpt lat="48.35215" lon="5.69726">
        <ele>278.697</ele>
        <time>2019-09-23T13:52:23.001Z</time>
      </trkpt>
      <trkpt lat="48.35226" lon="5.6972">
        <ele>279.091</ele>
        <time>2019-09-23T13:52:26.001Z</time>
      </trkpt>
      <trkpt lat="48.35233" lon="5.69703">
        <ele>278.944</ele>
        <time>2019-09-23T13:52:29.001Z</time>
      </trkpt>
      <trkpt lat="48.35239" lon="5.69686">
        <ele>278.532</ele>
        <time>2019-09-23T13:52:32.001Z</time>
      </trkpt>
      <trkpt lat="48.35239" lon="5.69686">
        <ele>277.888</ele>
        <time>2019-09-23T13:52:35.001Z</time>
      </trkpt>
      <trkpt lat="48.35254" lon="5.69654">
        <ele>277.447</ele>
        <time>2019-09-23T13:52:38.001Z</time>
      </trkpt>
      <trkpt lat="48.35263" lon="5.69637">
        <ele>277.502</ele>
        <time>2019-09-23T13:52:41.001Z</time>
      </trkpt>
      <trkpt lat="48.35271" lon="5.69617">
        <ele>278.318</ele>
        <time>2019-09-23T13:52:44.001Z</time>
      </trkpt>
      <trkpt lat="48.3528" lon="5.696">
        <ele>278.371</ele>
        <time>2019-09-23T13:52:47.001Z</time>
      </trkpt>
      <trkpt lat="48.35289" lon="5.69585">
        <ele>277.895</ele>
        <time>2019-09-23T13:52:50.001Z</time>
      </trkpt>
      <trkpt lat="48.35299" lon="5.69569">
        <ele>278.483</ele>
        <time>2019-09-23T13:52:53.001Z</time>
      </trkpt>
      <trkpt lat="48.35308" lon="5.69552">
        <ele>278.963</ele>
        <time>2019-09-23T13:52:56.001Z</time>
      </trkpt>
      <trkpt lat="48.35318" lon="5.69536">
        <ele>279.159</ele>
        <time>2019-09-23T13:52:59.001Z</time>
      </trkpt>
      <trkpt lat="48.35328" lon="5.69519">
        <ele>279.05</ele>
        <time>2019-09-23T13:53:02.000Z</time>
      </trkpt>
      <trkpt lat="48.35337" lon="5.69501">
        <ele>278.132</ele>
        <time>2019-09-23T13:53:05.001Z</time>
      </trkpt>
      <trkpt lat="48.35346" lon="5.69485">
        <ele>277.153</ele>
        <time>2019-09-23T13:53:08.001Z</time>
      </trkpt>
      <trkpt lat="48.35355" lon="5.69471">
        <ele>275.731</ele>
        <time>2019-09-23T13:53:11.001Z</time>
      </trkpt>
      <trkpt lat="48.35364" lon="5.69457">
        <ele>274.817</ele>
        <time>2019-09-23T13:53:14.001Z</time>
      </trkpt>
      <trkpt lat="48.35373" lon="5.69443">
        <ele>274.223</ele>
        <time>2019-09-23T13:53:17.001Z</time>
      </trkpt>
      <trkpt lat="48.35379" lon="5.69427">
        <ele>273.49</ele>
        <time>2019-09-23T13:53:20.001Z</time>
      </trkpt>
      <trkpt lat="48.35382" lon="5.6941">
        <ele>272.808</ele>
        <time>2019-09-23T13:53:23.001Z</time>
      </trkpt>
      <trkpt lat="48.35386" lon="5.69394">
        <ele>272.502</ele>
        <time>2019-09-23T13:53:26.001Z</time>
      </trkpt>
      <trkpt lat="48.35389" lon="5.69378">
        <ele>272.281</ele>
        <time>2019-09-23T13:53:29.001Z</time>
      </trkpt>
      <trkpt lat="48.35391" lon="5.69362">
        <ele>272.806</ele>
        <time>2019-09-23T13:53:32.001Z</time>
      </trkpt>
      <trkpt lat="48.35392" lon="5.69347">
        <ele>275.007</ele>
        <time>2019-09-23T13:53:35.001Z</time>
      </trkpt>
      <trkpt lat="48.35392" lon="5.69335">
        <ele>274.999</ele>
        <time>2019-09-23T13:53:38.001Z</time>
      </trkpt>
      <trkpt lat="48.35388" lon="5.69318">
        <ele>273.664</ele>
        <time>2019-09-23T13:53:41.001Z</time>
      </trkpt>
      <trkpt lat="48.35388" lon="5.69301">
        <ele>272.006</ele>
        <time>2019-09-23T13:53:44.001Z</time>
      </trkpt>
      <trkpt lat="48.35387" lon="5.69289">
        <ele>271.175</ele>
        <time>2019-09-23T13:53:47.001Z</time>
      </trkpt>
      <trkpt lat="48.35389" lon="5.69279">
        <ele>271.971</ele>
        <time>2019-09-23T13:53:50.001Z</time>
      </trkpt>
      <trkpt lat="48.35393" lon="5.69274">
        <ele>272.306</ele>
        <time>2019-09-23T13:53:53.001Z</time>
      </trkpt>
      <trkpt lat="48.35399" lon="5.69281">
        <ele>277.279</ele>
        <time>2019-09-23T13:53:59.001Z</time>
      </trkpt>
      <trkpt lat="48.35399" lon="5.69281">
        <ele>277.843</ele>
        <time>2019-09-23T13:54:02.000Z</time>
      </trkpt>
    </trkseg>
  </trk>
</gpx>